<?xml version="1.0" encoding="UTF-8" standalone="no" ?>
<gpx xmlns="http://www.topografix.com/GPX/1/1" xmlns:xsi="http://www.w3.org/2001/XMLSchema-instance" xsi:schemaLocation="http://www.topografix.com/GPX/1/1 http://www.topografix.com/GPX/1/1/gpx.xsd" version="1.1" creator="VisuGPX - https://www.visugpx.com">
  <metadata>
    <name>Rando VTT départ Bois de St Pierre</name>
    <desc><![CDATA[Belle rando!]]></desc>
  </metadata>
  <trk>
    <name><![CDATA[Rando VTT départ Bois de St Pierre_1]]></name>
    <trkseg>
      <trkpt lat="46.50636" lon="0.36815">
        <ele>182.8</ele>
        <time>2023-08-20T05:39:41Z</time>
      </trkpt>
      <trkpt lat="46.5064" lon="0.36806">
        <ele>182.8</ele>
        <time>2023-08-20T05:39:52Z</time>
      </trkpt>
      <trkpt lat="46.50643" lon="0.36795">
        <ele>182.8</ele>
        <time>2023-08-20T05:39:55Z</time>
      </trkpt>
      <trkpt lat="46.50644" lon="0.36769">
        <ele>182.8</ele>
        <time>2023-08-20T05:40:00Z</time>
      </trkpt>
      <trkpt lat="46.5064" lon="0.36741">
        <ele>182.6</ele>
        <time>2023-08-20T05:40:05Z</time>
      </trkpt>
      <trkpt lat="46.50643" lon="0.36702">
        <ele>181.6</ele>
        <time>2023-08-20T05:40:10Z</time>
      </trkpt>
      <trkpt lat="46.50645" lon="0.36663">
        <ele>180.4</ele>
        <time>2023-08-20T05:40:14Z</time>
      </trkpt>
      <trkpt lat="46.50647" lon="0.36653">
        <ele>180.2</ele>
        <time>2023-08-20T05:40:15Z</time>
      </trkpt>
      <trkpt lat="46.50648" lon="0.36642">
        <ele>179.4</ele>
        <time>2023-08-20T05:40:16Z</time>
      </trkpt>
      <trkpt lat="46.50657" lon="0.36624">
        <ele>178.4</ele>
        <time>2023-08-20T05:40:18Z</time>
      </trkpt>
      <trkpt lat="46.50669" lon="0.36611">
        <ele>177.4</ele>
        <time>2023-08-20T05:40:20Z</time>
      </trkpt>
      <trkpt lat="46.50682" lon="0.36596">
        <ele>176.4</ele>
        <time>2023-08-20T05:40:22Z</time>
      </trkpt>
      <trkpt lat="46.50687" lon="0.36587">
        <ele>176</ele>
        <time>2023-08-20T05:40:23Z</time>
      </trkpt>
      <trkpt lat="46.50691" lon="0.36578">
        <ele>175.8</ele>
        <time>2023-08-20T05:40:24Z</time>
      </trkpt>
      <trkpt lat="46.50697" lon="0.36556">
        <ele>175.6</ele>
        <time>2023-08-20T05:40:26Z</time>
      </trkpt>
      <trkpt lat="46.50701" lon="0.36523">
        <ele>175</ele>
        <time>2023-08-20T05:40:29Z</time>
      </trkpt>
      <trkpt lat="46.50704" lon="0.36502">
        <ele>174.8</ele>
        <time>2023-08-20T05:40:31Z</time>
      </trkpt>
      <trkpt lat="46.5071" lon="0.36457">
        <ele>175.4</ele>
        <time>2023-08-20T05:40:36Z</time>
      </trkpt>
      <trkpt lat="46.50711" lon="0.36449">
        <ele>175.6</ele>
        <time>2023-08-20T05:40:37Z</time>
      </trkpt>
      <trkpt lat="46.50713" lon="0.36435">
        <ele>176</ele>
        <time>2023-08-20T05:40:39Z</time>
      </trkpt>
      <trkpt lat="46.50719" lon="0.36405">
        <ele>177</ele>
        <time>2023-08-20T05:40:43Z</time>
      </trkpt>
      <trkpt lat="46.5072" lon="0.36397">
        <ele>177.2</ele>
        <time>2023-08-20T05:40:44Z</time>
      </trkpt>
      <trkpt lat="46.50724" lon="0.36363">
        <ele>178</ele>
        <time>2023-08-20T05:40:48Z</time>
      </trkpt>
      <trkpt lat="46.50729" lon="0.36333">
        <ele>178.4</ele>
        <time>2023-08-20T05:40:52Z</time>
      </trkpt>
      <trkpt lat="46.50733" lon="0.36297">
        <ele>179.2</ele>
        <time>2023-08-20T05:40:57Z</time>
      </trkpt>
      <trkpt lat="46.50737" lon="0.36274">
        <ele>179.8</ele>
        <time>2023-08-20T05:41:00Z</time>
      </trkpt>
      <trkpt lat="46.5074" lon="0.36252">
        <ele>180.2</ele>
        <time>2023-08-20T05:41:03Z</time>
      </trkpt>
      <trkpt lat="46.50748" lon="0.36204">
        <ele>181.2</ele>
        <time>2023-08-20T05:41:10Z</time>
      </trkpt>
      <trkpt lat="46.50749" lon="0.36198">
        <ele>181.2</ele>
        <time>2023-08-20T05:41:11Z</time>
      </trkpt>
      <trkpt lat="46.50756" lon="0.3616">
        <ele>182.4</ele>
        <time>2023-08-20T05:41:17Z</time>
      </trkpt>
      <trkpt lat="46.50757" lon="0.36154">
        <ele>182.4</ele>
        <time>2023-08-20T05:41:18Z</time>
      </trkpt>
      <trkpt lat="46.50761" lon="0.36136">
        <ele>182.6</ele>
        <time>2023-08-20T05:41:21Z</time>
      </trkpt>
      <trkpt lat="46.50765" lon="0.36127">
        <ele>182.4</ele>
        <time>2023-08-20T05:41:23Z</time>
      </trkpt>
      <trkpt lat="46.50768" lon="0.36123">
        <ele>182.4</ele>
        <time>2023-08-20T05:41:24Z</time>
      </trkpt>
      <trkpt lat="46.50774" lon="0.36116">
        <ele>182.4</ele>
        <time>2023-08-20T05:41:26Z</time>
      </trkpt>
      <trkpt lat="46.50782" lon="0.361">
        <ele>182</ele>
        <time>2023-08-20T05:41:29Z</time>
      </trkpt>
      <trkpt lat="46.50785" lon="0.36081">
        <ele>181</ele>
        <time>2023-08-20T05:41:32Z</time>
      </trkpt>
      <trkpt lat="46.50786" lon="0.36075">
        <ele>180.8</ele>
        <time>2023-08-20T05:41:33Z</time>
      </trkpt>
      <trkpt lat="46.50786" lon="0.36064">
        <ele>180.6</ele>
        <time>2023-08-20T05:41:35Z</time>
      </trkpt>
      <trkpt lat="46.50785" lon="0.36045">
        <ele>180.4</ele>
        <time>2023-08-20T05:41:38Z</time>
      </trkpt>
      <trkpt lat="46.50785" lon="0.36038">
        <ele>180.6</ele>
        <time>2023-08-20T05:41:39Z</time>
      </trkpt>
      <trkpt lat="46.50782" lon="0.36011">
        <ele>182</ele>
        <time>2023-08-20T05:41:43Z</time>
      </trkpt>
      <trkpt lat="46.50782" lon="0.36006">
        <ele>182.4</ele>
        <time>2023-08-20T05:41:44Z</time>
      </trkpt>
      <trkpt lat="46.50781" lon="0.36">
        <ele>182.6</ele>
        <time>2023-08-20T05:41:45Z</time>
      </trkpt>
      <trkpt lat="46.5078" lon="0.35994">
        <ele>183</ele>
        <time>2023-08-20T05:41:46Z</time>
      </trkpt>
      <trkpt lat="46.50779" lon="0.35988">
        <ele>183.4</ele>
        <time>2023-08-20T05:41:47Z</time>
      </trkpt>
      <trkpt lat="46.50776" lon="0.35963">
        <ele>184.4</ele>
        <time>2023-08-20T05:41:51Z</time>
      </trkpt>
      <trkpt lat="46.50775" lon="0.35957">
        <ele>184.6</ele>
        <time>2023-08-20T05:41:52Z</time>
      </trkpt>
      <trkpt lat="46.50769" lon="0.35921">
        <ele>185.4</ele>
        <time>2023-08-20T05:41:58Z</time>
      </trkpt>
      <trkpt lat="46.50766" lon="0.3591">
        <ele>185.4</ele>
        <time>2023-08-20T05:42:00Z</time>
      </trkpt>
      <trkpt lat="46.50765" lon="0.35905">
        <ele>185.6</ele>
        <time>2023-08-20T05:42:01Z</time>
      </trkpt>
      <trkpt lat="46.50758" lon="0.35877">
        <ele>186.6</ele>
        <time>2023-08-20T05:42:07Z</time>
      </trkpt>
      <trkpt lat="46.50757" lon="0.35852">
        <ele>187</ele>
        <time>2023-08-20T05:42:11Z</time>
      </trkpt>
      <trkpt lat="46.5077" lon="0.35809">
        <ele>187.6</ele>
        <time>2023-08-20T05:42:18Z</time>
      </trkpt>
      <trkpt lat="46.50791" lon="0.35772">
        <ele>187.4</ele>
        <time>2023-08-20T05:42:25Z</time>
      </trkpt>
      <trkpt lat="46.50808" lon="0.35753">
        <ele>186.8</ele>
        <time>2023-08-20T05:42:30Z</time>
      </trkpt>
      <trkpt lat="46.50812" lon="0.35748">
        <ele>186.8</ele>
        <time>2023-08-20T05:42:31Z</time>
      </trkpt>
      <trkpt lat="46.50815" lon="0.35743">
        <ele>187</ele>
        <time>2023-08-20T05:42:32Z</time>
      </trkpt>
      <trkpt lat="46.50827" lon="0.3573">
        <ele>187.2</ele>
        <time>2023-08-20T05:42:35Z</time>
      </trkpt>
      <trkpt lat="46.5083" lon="0.35725">
        <ele>187.2</ele>
        <time>2023-08-20T05:42:36Z</time>
      </trkpt>
      <trkpt lat="46.50833" lon="0.35719">
        <ele>187.2</ele>
        <time>2023-08-20T05:42:37Z</time>
      </trkpt>
      <trkpt lat="46.50847" lon="0.3569">
        <ele>186.8</ele>
        <time>2023-08-20T05:42:42Z</time>
      </trkpt>
      <trkpt lat="46.50864" lon="0.35671">
        <ele>186.6</ele>
        <time>2023-08-20T05:42:47Z</time>
      </trkpt>
      <trkpt lat="46.50871" lon="0.35663">
        <ele>186.6</ele>
        <time>2023-08-20T05:42:49Z</time>
      </trkpt>
      <trkpt lat="46.50885" lon="0.35641">
        <ele>186.6</ele>
        <time>2023-08-20T05:42:54Z</time>
      </trkpt>
      <trkpt lat="46.509" lon="0.35615">
        <ele>185.6</ele>
        <time>2023-08-20T05:42:59Z</time>
      </trkpt>
      <trkpt lat="46.5091" lon="0.35598">
        <ele>185.2</ele>
        <time>2023-08-20T05:43:02Z</time>
      </trkpt>
      <trkpt lat="46.50927" lon="0.35568">
        <ele>184.6</ele>
        <time>2023-08-20T05:43:07Z</time>
      </trkpt>
      <trkpt lat="46.50938" lon="0.3555">
        <ele>184.4</ele>
        <time>2023-08-20T05:43:10Z</time>
      </trkpt>
      <trkpt lat="46.50948" lon="0.35532">
        <ele>183.8</ele>
        <time>2023-08-20T05:43:13Z</time>
      </trkpt>
      <trkpt lat="46.50954" lon="0.35517">
        <ele>183.6</ele>
        <time>2023-08-20T05:43:15Z</time>
      </trkpt>
      <trkpt lat="46.50958" lon="0.35509">
        <ele>183.4</ele>
        <time>2023-08-20T05:43:16Z</time>
      </trkpt>
      <trkpt lat="46.50971" lon="0.35489">
        <ele>183</ele>
        <time>2023-08-20T05:43:19Z</time>
      </trkpt>
      <trkpt lat="46.50993" lon="0.35462">
        <ele>182.4</ele>
        <time>2023-08-20T05:43:24Z</time>
      </trkpt>
      <trkpt lat="46.50997" lon="0.35457">
        <ele>182.4</ele>
        <time>2023-08-20T05:43:25Z</time>
      </trkpt>
      <trkpt lat="46.51001" lon="0.35452">
        <ele>182.2</ele>
        <time>2023-08-20T05:43:26Z</time>
      </trkpt>
      <trkpt lat="46.5102" lon="0.3543">
        <ele>181.6</ele>
        <time>2023-08-20T05:43:31Z</time>
      </trkpt>
      <trkpt lat="46.51024" lon="0.35427">
        <ele>181.6</ele>
        <time>2023-08-20T05:43:32Z</time>
      </trkpt>
      <trkpt lat="46.51029" lon="0.35426">
        <ele>181.6</ele>
        <time>2023-08-20T05:43:33Z</time>
      </trkpt>
      <trkpt lat="46.51037" lon="0.35423">
        <ele>181.4</ele>
        <time>2023-08-20T05:43:35Z</time>
      </trkpt>
      <trkpt lat="46.51041" lon="0.35421">
        <ele>181.4</ele>
        <time>2023-08-20T05:43:36Z</time>
      </trkpt>
      <trkpt lat="46.51044" lon="0.35417">
        <ele>181.4</ele>
        <time>2023-08-20T05:43:37Z</time>
      </trkpt>
      <trkpt lat="46.51047" lon="0.35409">
        <ele>181.4</ele>
        <time>2023-08-20T05:43:39Z</time>
      </trkpt>
      <trkpt lat="46.51048" lon="0.35404">
        <ele>181.4</ele>
        <time>2023-08-20T05:43:40Z</time>
      </trkpt>
      <trkpt lat="46.51045" lon="0.35385">
        <ele>181.2</ele>
        <time>2023-08-20T05:43:44Z</time>
      </trkpt>
      <trkpt lat="46.51041" lon="0.35374">
        <ele>181.2</ele>
        <time>2023-08-20T05:43:46Z</time>
      </trkpt>
      <trkpt lat="46.5104" lon="0.35361">
        <ele>181</ele>
        <time>2023-08-20T05:43:48Z</time>
      </trkpt>
      <trkpt lat="46.51044" lon="0.35335">
        <ele>180.8</ele>
        <time>2023-08-20T05:43:52Z</time>
      </trkpt>
      <trkpt lat="46.51045" lon="0.35321">
        <ele>180.6</ele>
        <time>2023-08-20T05:43:54Z</time>
      </trkpt>
      <trkpt lat="46.51047" lon="0.35305">
        <ele>180.4</ele>
        <time>2023-08-20T05:43:56Z</time>
      </trkpt>
      <trkpt lat="46.51052" lon="0.35272">
        <ele>180</ele>
        <time>2023-08-20T05:44:00Z</time>
      </trkpt>
      <trkpt lat="46.51056" lon="0.35237">
        <ele>179.2</ele>
        <time>2023-08-20T05:44:04Z</time>
      </trkpt>
      <trkpt lat="46.5106" lon="0.35203">
        <ele>178.2</ele>
        <time>2023-08-20T05:44:08Z</time>
      </trkpt>
      <trkpt lat="46.51066" lon="0.35153">
        <ele>177</ele>
        <time>2023-08-20T05:44:14Z</time>
      </trkpt>
      <trkpt lat="46.51068" lon="0.35135">
        <ele>176</ele>
        <time>2023-08-20T05:44:16Z</time>
      </trkpt>
      <trkpt lat="46.51074" lon="0.35101">
        <ele>174.8</ele>
        <time>2023-08-20T05:44:20Z</time>
      </trkpt>
      <trkpt lat="46.51078" lon="0.35086">
        <ele>174.2</ele>
        <time>2023-08-20T05:44:22Z</time>
      </trkpt>
      <trkpt lat="46.5108" lon="0.35079">
        <ele>173.8</ele>
        <time>2023-08-20T05:44:23Z</time>
      </trkpt>
      <trkpt lat="46.51085" lon="0.35061">
        <ele>172.4</ele>
        <time>2023-08-20T05:44:26Z</time>
      </trkpt>
      <trkpt lat="46.51087" lon="0.35056">
        <ele>171.8</ele>
        <time>2023-08-20T05:44:27Z</time>
      </trkpt>
      <trkpt lat="46.51089" lon="0.35052">
        <ele>171.4</ele>
        <time>2023-08-20T05:44:28Z</time>
      </trkpt>
      <trkpt lat="46.51092" lon="0.35045">
        <ele>170.6</ele>
        <time>2023-08-20T05:44:31Z</time>
      </trkpt>
      <trkpt lat="46.51094" lon="0.35041">
        <ele>170.4</ele>
        <time>2023-08-20T05:44:33Z</time>
      </trkpt>
      <trkpt lat="46.51097" lon="0.35039">
        <ele>170.4</ele>
        <time>2023-08-20T05:44:35Z</time>
      </trkpt>
      <trkpt lat="46.51099" lon="0.35036">
        <ele>170</ele>
        <time>2023-08-20T05:44:36Z</time>
      </trkpt>
      <trkpt lat="46.51104" lon="0.35026">
        <ele>169</ele>
        <time>2023-08-20T05:44:38Z</time>
      </trkpt>
      <trkpt lat="46.51109" lon="0.35016">
        <ele>168.4</ele>
        <time>2023-08-20T05:44:40Z</time>
      </trkpt>
      <trkpt lat="46.51117" lon="0.35009">
        <ele>168.2</ele>
        <time>2023-08-20T05:44:42Z</time>
      </trkpt>
      <trkpt lat="46.51121" lon="0.35005">
        <ele>168.2</ele>
        <time>2023-08-20T05:44:43Z</time>
      </trkpt>
      <trkpt lat="46.51126" lon="0.34999">
        <ele>168.2</ele>
        <time>2023-08-20T05:44:44Z</time>
      </trkpt>
      <trkpt lat="46.51134" lon="0.34985">
        <ele>168</ele>
        <time>2023-08-20T05:44:46Z</time>
      </trkpt>
      <trkpt lat="46.51139" lon="0.34978">
        <ele>168</ele>
        <time>2023-08-20T05:44:47Z</time>
      </trkpt>
      <trkpt lat="46.51148" lon="0.34968">
        <ele>168.2</ele>
        <time>2023-08-20T05:44:49Z</time>
      </trkpt>
      <trkpt lat="46.51151" lon="0.34954">
        <ele>169.2</ele>
        <time>2023-08-20T05:44:51Z</time>
      </trkpt>
      <trkpt lat="46.51151" lon="0.34947">
        <ele>169.6</ele>
        <time>2023-08-20T05:44:52Z</time>
      </trkpt>
      <trkpt lat="46.51151" lon="0.34941">
        <ele>170.2</ele>
        <time>2023-08-20T05:44:53Z</time>
      </trkpt>
      <trkpt lat="46.51148" lon="0.34919">
        <ele>171</ele>
        <time>2023-08-20T05:44:57Z</time>
      </trkpt>
      <trkpt lat="46.51148" lon="0.34915">
        <ele>171.4</ele>
        <time>2023-08-20T05:44:58Z</time>
      </trkpt>
      <trkpt lat="46.51148" lon="0.34902">
        <ele>172.4</ele>
        <time>2023-08-20T05:45:01Z</time>
      </trkpt>
      <trkpt lat="46.51149" lon="0.34897">
        <ele>172.6</ele>
        <time>2023-08-20T05:45:02Z</time>
      </trkpt>
      <trkpt lat="46.51151" lon="0.34893">
        <ele>173</ele>
        <time>2023-08-20T05:45:03Z</time>
      </trkpt>
      <trkpt lat="46.51164" lon="0.34886">
        <ele>173.4</ele>
        <time>2023-08-20T05:45:07Z</time>
      </trkpt>
      <trkpt lat="46.51168" lon="0.34886">
        <ele>173.8</ele>
        <time>2023-08-20T05:45:08Z</time>
      </trkpt>
      <trkpt lat="46.51184" lon="0.34884">
        <ele>173.8</ele>
        <time>2023-08-20T05:45:13Z</time>
      </trkpt>
      <trkpt lat="46.51188" lon="0.34885">
        <ele>173.6</ele>
        <time>2023-08-20T05:45:14Z</time>
      </trkpt>
      <trkpt lat="46.51196" lon="0.34887">
        <ele>173</ele>
        <time>2023-08-20T05:45:16Z</time>
      </trkpt>
      <trkpt lat="46.51203" lon="0.3489">
        <ele>172.6</ele>
        <time>2023-08-20T05:45:18Z</time>
      </trkpt>
      <trkpt lat="46.51212" lon="0.34892">
        <ele>172.4</ele>
        <time>2023-08-20T05:45:20Z</time>
      </trkpt>
      <trkpt lat="46.51234" lon="0.34896">
        <ele>171.4</ele>
        <time>2023-08-20T05:45:25Z</time>
      </trkpt>
      <trkpt lat="46.51253" lon="0.34901">
        <ele>170.8</ele>
        <time>2023-08-20T05:45:29Z</time>
      </trkpt>
      <trkpt lat="46.51264" lon="0.34902">
        <ele>170.2</ele>
        <time>2023-08-20T05:45:31Z</time>
      </trkpt>
      <trkpt lat="46.51272" lon="0.34903">
        <ele>169.8</ele>
        <time>2023-08-20T05:45:33Z</time>
      </trkpt>
      <trkpt lat="46.51274" lon="0.34903">
        <ele>169.6</ele>
        <time>2023-08-20T05:45:34Z</time>
      </trkpt>
      <trkpt lat="46.51276" lon="0.34904">
        <ele>169</ele>
        <time>2023-08-20T05:45:35Z</time>
      </trkpt>
      <trkpt lat="46.5128" lon="0.34904">
        <ele>168.4</ele>
        <time>2023-08-20T05:45:37Z</time>
      </trkpt>
      <trkpt lat="46.51282" lon="0.34901">
        <ele>168.2</ele>
        <time>2023-08-20T05:45:39Z</time>
      </trkpt>
      <trkpt lat="46.51283" lon="0.34898">
        <ele>168</ele>
        <time>2023-08-20T05:45:42Z</time>
      </trkpt>
      <trkpt lat="46.51284" lon="0.34896">
        <ele>168.4</ele>
        <time>2023-08-20T05:45:44Z</time>
      </trkpt>
      <trkpt lat="46.51284" lon="0.34895">
        <ele>168.4</ele>
        <time>2023-08-20T05:45:45Z</time>
      </trkpt>
      <trkpt lat="46.51287" lon="0.34891">
        <ele>168.8</ele>
        <time>2023-08-20T05:45:48Z</time>
      </trkpt>
      <trkpt lat="46.51288" lon="0.34888">
        <ele>169</ele>
        <time>2023-08-20T05:45:50Z</time>
      </trkpt>
      <trkpt lat="46.51289" lon="0.34886">
        <ele>169.2</ele>
        <time>2023-08-20T05:45:51Z</time>
      </trkpt>
      <trkpt lat="46.51291" lon="0.34872">
        <ele>169.6</ele>
        <time>2023-08-20T05:45:56Z</time>
      </trkpt>
      <trkpt lat="46.51292" lon="0.34869">
        <ele>170.2</ele>
        <time>2023-08-20T05:45:57Z</time>
      </trkpt>
      <trkpt lat="46.51293" lon="0.34854">
        <ele>171.4</ele>
        <time>2023-08-20T05:46:01Z</time>
      </trkpt>
      <trkpt lat="46.51293" lon="0.34846">
        <ele>171.6</ele>
        <time>2023-08-20T05:46:03Z</time>
      </trkpt>
      <trkpt lat="46.51294" lon="0.34843">
        <ele>171.8</ele>
        <time>2023-08-20T05:46:04Z</time>
      </trkpt>
      <trkpt lat="46.513" lon="0.34829">
        <ele>172.2</ele>
        <time>2023-08-20T05:46:09Z</time>
      </trkpt>
      <trkpt lat="46.51308" lon="0.34828">
        <ele>171.6</ele>
        <time>2023-08-20T05:46:14Z</time>
      </trkpt>
      <trkpt lat="46.5131" lon="0.3483">
        <ele>171.4</ele>
        <time>2023-08-20T05:46:16Z</time>
      </trkpt>
      <trkpt lat="46.51312" lon="0.34831">
        <ele>171</ele>
        <time>2023-08-20T05:46:18Z</time>
      </trkpt>
      <trkpt lat="46.51323" lon="0.3483">
        <ele>170.8</ele>
        <time>2023-08-20T05:46:23Z</time>
      </trkpt>
      <trkpt lat="46.51329" lon="0.34824">
        <ele>170.8</ele>
        <time>2023-08-20T05:46:27Z</time>
      </trkpt>
      <trkpt lat="46.51331" lon="0.34823">
        <ele>170.4</ele>
        <time>2023-08-20T05:46:29Z</time>
      </trkpt>
      <trkpt lat="46.51333" lon="0.34823">
        <ele>170.4</ele>
        <time>2023-08-20T05:46:30Z</time>
      </trkpt>
      <trkpt lat="46.51335" lon="0.34823">
        <ele>170.4</ele>
        <time>2023-08-20T05:46:31Z</time>
      </trkpt>
      <trkpt lat="46.51337" lon="0.34825">
        <ele>170.2</ele>
        <time>2023-08-20T05:46:33Z</time>
      </trkpt>
      <trkpt lat="46.51347" lon="0.34831">
        <ele>169.8</ele>
        <time>2023-08-20T05:46:37Z</time>
      </trkpt>
      <trkpt lat="46.51353" lon="0.34832">
        <ele>169.2</ele>
        <time>2023-08-20T05:46:39Z</time>
      </trkpt>
      <trkpt lat="46.51358" lon="0.34836">
        <ele>168</ele>
        <time>2023-08-20T05:46:41Z</time>
      </trkpt>
      <trkpt lat="46.51364" lon="0.34838">
        <ele>167.2</ele>
        <time>2023-08-20T05:46:43Z</time>
      </trkpt>
      <trkpt lat="46.51366" lon="0.34838">
        <ele>166.8</ele>
        <time>2023-08-20T05:46:44Z</time>
      </trkpt>
      <trkpt lat="46.5137" lon="0.34839">
        <ele>165.2</ele>
        <time>2023-08-20T05:46:46Z</time>
      </trkpt>
      <trkpt lat="46.51373" lon="0.34838">
        <ele>163.8</ele>
        <time>2023-08-20T05:46:48Z</time>
      </trkpt>
      <trkpt lat="46.51375" lon="0.34838">
        <ele>163.2</ele>
        <time>2023-08-20T05:46:49Z</time>
      </trkpt>
      <trkpt lat="46.5138" lon="0.34836">
        <ele>162.8</ele>
        <time>2023-08-20T05:46:52Z</time>
      </trkpt>
      <trkpt lat="46.51382" lon="0.34835">
        <ele>162.6</ele>
        <time>2023-08-20T05:46:53Z</time>
      </trkpt>
      <trkpt lat="46.51383" lon="0.34834">
        <ele>163.2</ele>
        <time>2023-08-20T05:46:54Z</time>
      </trkpt>
      <trkpt lat="46.51386" lon="0.34827">
        <ele>163.8</ele>
        <time>2023-08-20T05:46:57Z</time>
      </trkpt>
      <trkpt lat="46.51389" lon="0.34821">
        <ele>164</ele>
        <time>2023-08-20T05:46:59Z</time>
      </trkpt>
      <trkpt lat="46.51395" lon="0.34807">
        <ele>163.6</ele>
        <time>2023-08-20T05:47:05Z</time>
      </trkpt>
      <trkpt lat="46.51406" lon="0.34785">
        <ele>162.8</ele>
        <time>2023-08-20T05:47:12Z</time>
      </trkpt>
      <trkpt lat="46.51408" lon="0.34771">
        <ele>161.8</ele>
        <time>2023-08-20T05:47:16Z</time>
      </trkpt>
      <trkpt lat="46.5141" lon="0.34765">
        <ele>161.2</ele>
        <time>2023-08-20T05:47:18Z</time>
      </trkpt>
      <trkpt lat="46.51412" lon="0.34757">
        <ele>160.6</ele>
        <time>2023-08-20T05:47:21Z</time>
      </trkpt>
      <trkpt lat="46.51416" lon="0.34745">
        <ele>159.8</ele>
        <time>2023-08-20T05:47:24Z</time>
      </trkpt>
      <trkpt lat="46.51417" lon="0.34741">
        <ele>159.2</ele>
        <time>2023-08-20T05:47:25Z</time>
      </trkpt>
      <trkpt lat="46.51419" lon="0.34729">
        <ele>158.4</ele>
        <time>2023-08-20T05:47:28Z</time>
      </trkpt>
      <trkpt lat="46.51421" lon="0.34727">
        <ele>158.4</ele>
        <time>2023-08-20T05:47:29Z</time>
      </trkpt>
      <trkpt lat="46.51427" lon="0.34715">
        <ele>158.8</ele>
        <time>2023-08-20T05:47:34Z</time>
      </trkpt>
      <trkpt lat="46.51428" lon="0.34712">
        <ele>158.6</ele>
        <time>2023-08-20T05:47:35Z</time>
      </trkpt>
      <trkpt lat="46.51429" lon="0.34709">
        <ele>158.8</ele>
        <time>2023-08-20T05:47:36Z</time>
      </trkpt>
      <trkpt lat="46.51434" lon="0.34698">
        <ele>158.6</ele>
        <time>2023-08-20T05:47:40Z</time>
      </trkpt>
      <trkpt lat="46.51437" lon="0.34689">
        <ele>158.6</ele>
        <time>2023-08-20T05:47:44Z</time>
      </trkpt>
      <trkpt lat="46.51437" lon="0.34689">
        <ele>158</ele>
        <time>2023-08-20T05:47:46Z</time>
      </trkpt>
      <trkpt lat="46.51444" lon="0.34677">
        <ele>156.8</ele>
        <time>2023-08-20T05:47:47Z</time>
      </trkpt>
      <trkpt lat="46.51446" lon="0.34673">
        <ele>155.8</ele>
        <time>2023-08-20T05:47:48Z</time>
      </trkpt>
      <trkpt lat="46.51447" lon="0.34667">
        <ele>154.6</ele>
        <time>2023-08-20T05:47:49Z</time>
      </trkpt>
      <trkpt lat="46.51449" lon="0.34657">
        <ele>153.2</ele>
        <time>2023-08-20T05:47:51Z</time>
      </trkpt>
      <trkpt lat="46.51451" lon="0.34651">
        <ele>152.8</ele>
        <time>2023-08-20T05:47:52Z</time>
      </trkpt>
      <trkpt lat="46.51457" lon="0.34627">
        <ele>152.4</ele>
        <time>2023-08-20T05:47:56Z</time>
      </trkpt>
      <trkpt lat="46.51464" lon="0.34614">
        <ele>152.6</ele>
        <time>2023-08-20T05:47:58Z</time>
      </trkpt>
      <trkpt lat="46.51473" lon="0.34583">
        <ele>152</ele>
        <time>2023-08-20T05:48:02Z</time>
      </trkpt>
      <trkpt lat="46.51475" lon="0.34575">
        <ele>151.6</ele>
        <time>2023-08-20T05:48:03Z</time>
      </trkpt>
      <trkpt lat="46.51481" lon="0.34555">
        <ele>151</ele>
        <time>2023-08-20T05:48:06Z</time>
      </trkpt>
      <trkpt lat="46.51483" lon="0.34549">
        <ele>151</ele>
        <time>2023-08-20T05:48:07Z</time>
      </trkpt>
      <trkpt lat="46.51485" lon="0.34543">
        <ele>151</ele>
        <time>2023-08-20T05:48:08Z</time>
      </trkpt>
      <trkpt lat="46.51486" lon="0.34538">
        <ele>151.2</ele>
        <time>2023-08-20T05:48:09Z</time>
      </trkpt>
      <trkpt lat="46.51494" lon="0.34527">
        <ele>151.2</ele>
        <time>2023-08-20T05:48:11Z</time>
      </trkpt>
      <trkpt lat="46.51498" lon="0.34522">
        <ele>151.4</ele>
        <time>2023-08-20T05:48:12Z</time>
      </trkpt>
      <trkpt lat="46.51509" lon="0.34508">
        <ele>151.2</ele>
        <time>2023-08-20T05:48:16Z</time>
      </trkpt>
      <trkpt lat="46.51518" lon="0.345">
        <ele>150.6</ele>
        <time>2023-08-20T05:48:21Z</time>
      </trkpt>
      <trkpt lat="46.51521" lon="0.34498">
        <ele>150.6</ele>
        <time>2023-08-20T05:48:23Z</time>
      </trkpt>
      <trkpt lat="46.51524" lon="0.34499">
        <ele>150.4</ele>
        <time>2023-08-20T05:48:28Z</time>
      </trkpt>
      <trkpt lat="46.51524" lon="0.34505">
        <ele>150.8</ele>
        <time>2023-08-20T05:48:32Z</time>
      </trkpt>
      <trkpt lat="46.51515" lon="0.34519">
        <ele>151</ele>
        <time>2023-08-20T05:48:37Z</time>
      </trkpt>
      <trkpt lat="46.5151" lon="0.34521">
        <ele>151</ele>
        <time>2023-08-20T05:48:39Z</time>
      </trkpt>
      <trkpt lat="46.51503" lon="0.34521">
        <ele>151.8</ele>
        <time>2023-08-20T05:48:42Z</time>
      </trkpt>
      <trkpt lat="46.51501" lon="0.34521">
        <ele>152</ele>
        <time>2023-08-20T05:48:43Z</time>
      </trkpt>
      <trkpt lat="46.51498" lon="0.34519">
        <ele>152.6</ele>
        <time>2023-08-20T05:48:45Z</time>
      </trkpt>
      <trkpt lat="46.51494" lon="0.34518">
        <ele>153.4</ele>
        <time>2023-08-20T05:48:47Z</time>
      </trkpt>
      <trkpt lat="46.5149" lon="0.34516">
        <ele>154</ele>
        <time>2023-08-20T05:48:49Z</time>
      </trkpt>
      <trkpt lat="46.51486" lon="0.34513">
        <ele>154.8</ele>
        <time>2023-08-20T05:48:51Z</time>
      </trkpt>
      <trkpt lat="46.51475" lon="0.34511">
        <ele>156.2</ele>
        <time>2023-08-20T05:48:55Z</time>
      </trkpt>
      <trkpt lat="46.51472" lon="0.34511">
        <ele>156.6</ele>
        <time>2023-08-20T05:48:56Z</time>
      </trkpt>
      <trkpt lat="46.51464" lon="0.3451">
        <ele>157.6</ele>
        <time>2023-08-20T05:48:59Z</time>
      </trkpt>
      <trkpt lat="46.51455" lon="0.3451">
        <ele>158.6</ele>
        <time>2023-08-20T05:49:02Z</time>
      </trkpt>
      <trkpt lat="46.51448" lon="0.34509">
        <ele>159</ele>
        <time>2023-08-20T05:49:04Z</time>
      </trkpt>
      <trkpt lat="46.51441" lon="0.34508">
        <ele>159.8</ele>
        <time>2023-08-20T05:49:06Z</time>
      </trkpt>
      <trkpt lat="46.51423" lon="0.34506">
        <ele>161</ele>
        <time>2023-08-20T05:49:11Z</time>
      </trkpt>
      <trkpt lat="46.51417" lon="0.34507">
        <ele>161.8</ele>
        <time>2023-08-20T05:49:13Z</time>
      </trkpt>
      <trkpt lat="46.51415" lon="0.34509">
        <ele>162</ele>
        <time>2023-08-20T05:49:14Z</time>
      </trkpt>
      <trkpt lat="46.51414" lon="0.34511">
        <ele>162.4</ele>
        <time>2023-08-20T05:49:15Z</time>
      </trkpt>
      <trkpt lat="46.5141" lon="0.34517">
        <ele>163.6</ele>
        <time>2023-08-20T05:49:18Z</time>
      </trkpt>
      <trkpt lat="46.51405" lon="0.34521">
        <ele>164.6</ele>
        <time>2023-08-20T05:49:21Z</time>
      </trkpt>
      <trkpt lat="46.51403" lon="0.34523">
        <ele>164.8</ele>
        <time>2023-08-20T05:49:22Z</time>
      </trkpt>
      <trkpt lat="46.51399" lon="0.34527">
        <ele>166</ele>
        <time>2023-08-20T05:49:24Z</time>
      </trkpt>
      <trkpt lat="46.51386" lon="0.34536">
        <ele>166.8</ele>
        <time>2023-08-20T05:49:29Z</time>
      </trkpt>
      <trkpt lat="46.51383" lon="0.34538">
        <ele>167</ele>
        <time>2023-08-20T05:49:30Z</time>
      </trkpt>
      <trkpt lat="46.51368" lon="0.34549">
        <ele>168.2</ele>
        <time>2023-08-20T05:49:36Z</time>
      </trkpt>
      <trkpt lat="46.51364" lon="0.34551">
        <ele>168.6</ele>
        <time>2023-08-20T05:49:37Z</time>
      </trkpt>
      <trkpt lat="46.51345" lon="0.34561">
        <ele>169.4</ele>
        <time>2023-08-20T05:49:43Z</time>
      </trkpt>
      <trkpt lat="46.51339" lon="0.34564">
        <ele>169.6</ele>
        <time>2023-08-20T05:49:45Z</time>
      </trkpt>
      <trkpt lat="46.51318" lon="0.34578">
        <ele>170.2</ele>
        <time>2023-08-20T05:49:52Z</time>
      </trkpt>
      <trkpt lat="46.51312" lon="0.34583">
        <ele>170.6</ele>
        <time>2023-08-20T05:49:54Z</time>
      </trkpt>
      <trkpt lat="46.51295" lon="0.34598">
        <ele>171.2</ele>
        <time>2023-08-20T05:50:00Z</time>
      </trkpt>
      <trkpt lat="46.51286" lon="0.34606">
        <ele>171.6</ele>
        <time>2023-08-20T05:50:03Z</time>
      </trkpt>
      <trkpt lat="46.51277" lon="0.34607">
        <ele>171.8</ele>
        <time>2023-08-20T05:50:06Z</time>
      </trkpt>
      <trkpt lat="46.51253" lon="0.34603">
        <ele>172.8</ele>
        <time>2023-08-20T05:50:13Z</time>
      </trkpt>
      <trkpt lat="46.51233" lon="0.34603">
        <ele>173.8</ele>
        <time>2023-08-20T05:50:19Z</time>
      </trkpt>
      <trkpt lat="46.51226" lon="0.34604">
        <ele>174</ele>
        <time>2023-08-20T05:50:21Z</time>
      </trkpt>
      <trkpt lat="46.51203" lon="0.34609">
        <ele>174.2</ele>
        <time>2023-08-20T05:50:28Z</time>
      </trkpt>
      <trkpt lat="46.51192" lon="0.34609">
        <ele>174.6</ele>
        <time>2023-08-20T05:50:32Z</time>
      </trkpt>
      <trkpt lat="46.5119" lon="0.34607">
        <ele>174.8</ele>
        <time>2023-08-20T05:50:33Z</time>
      </trkpt>
      <trkpt lat="46.51189" lon="0.34604">
        <ele>174.8</ele>
        <time>2023-08-20T05:50:34Z</time>
      </trkpt>
      <trkpt lat="46.5119" lon="0.34595">
        <ele>174.8</ele>
        <time>2023-08-20T05:50:36Z</time>
      </trkpt>
      <trkpt lat="46.5119" lon="0.3459">
        <ele>174.6</ele>
        <time>2023-08-20T05:50:37Z</time>
      </trkpt>
      <trkpt lat="46.51193" lon="0.34557">
        <ele>174</ele>
        <time>2023-08-20T05:50:43Z</time>
      </trkpt>
      <trkpt lat="46.51192" lon="0.34532">
        <ele>173.6</ele>
        <time>2023-08-20T05:50:47Z</time>
      </trkpt>
      <trkpt lat="46.51191" lon="0.34526">
        <ele>173.6</ele>
        <time>2023-08-20T05:50:48Z</time>
      </trkpt>
      <trkpt lat="46.5119" lon="0.34513">
        <ele>173.6</ele>
        <time>2023-08-20T05:50:50Z</time>
      </trkpt>
      <trkpt lat="46.51181" lon="0.34463">
        <ele>173.6</ele>
        <time>2023-08-20T05:50:58Z</time>
      </trkpt>
      <trkpt lat="46.51168" lon="0.34401">
        <ele>174.2</ele>
        <time>2023-08-20T05:51:08Z</time>
      </trkpt>
      <trkpt lat="46.51163" lon="0.34375">
        <ele>174.8</ele>
        <time>2023-08-20T05:51:12Z</time>
      </trkpt>
      <trkpt lat="46.51158" lon="0.34347">
        <ele>174.8</ele>
        <time>2023-08-20T05:51:16Z</time>
      </trkpt>
      <trkpt lat="46.51158" lon="0.34339">
        <ele>174.8</ele>
        <time>2023-08-20T05:51:17Z</time>
      </trkpt>
      <trkpt lat="46.51158" lon="0.34332">
        <ele>174.8</ele>
        <time>2023-08-20T05:51:18Z</time>
      </trkpt>
      <trkpt lat="46.51161" lon="0.34311">
        <ele>174.8</ele>
        <time>2023-08-20T05:51:21Z</time>
      </trkpt>
      <trkpt lat="46.51162" lon="0.34304">
        <ele>174.8</ele>
        <time>2023-08-20T05:51:22Z</time>
      </trkpt>
      <trkpt lat="46.51178" lon="0.34253">
        <ele>175.4</ele>
        <time>2023-08-20T05:51:30Z</time>
      </trkpt>
      <trkpt lat="46.51185" lon="0.34221">
        <ele>175.6</ele>
        <time>2023-08-20T05:51:36Z</time>
      </trkpt>
      <trkpt lat="46.51189" lon="0.34193">
        <ele>175.4</ele>
        <time>2023-08-20T05:51:43Z</time>
      </trkpt>
      <trkpt lat="46.51193" lon="0.3418">
        <ele>174.8</ele>
        <time>2023-08-20T05:51:49Z</time>
      </trkpt>
      <trkpt lat="46.51201" lon="0.34173">
        <ele>174.4</ele>
        <time>2023-08-20T05:51:54Z</time>
      </trkpt>
      <trkpt lat="46.51206" lon="0.34167">
        <ele>173.8</ele>
        <time>2023-08-20T05:51:56Z</time>
      </trkpt>
      <trkpt lat="46.51208" lon="0.34166">
        <ele>173.2</ele>
        <time>2023-08-20T05:51:57Z</time>
      </trkpt>
      <trkpt lat="46.51209" lon="0.34165">
        <ele>172.6</ele>
        <time>2023-08-20T05:51:58Z</time>
      </trkpt>
      <trkpt lat="46.5121" lon="0.34164">
        <ele>172.2</ele>
        <time>2023-08-20T05:51:59Z</time>
      </trkpt>
      <trkpt lat="46.51211" lon="0.34163">
        <ele>171.8</ele>
        <time>2023-08-20T05:52:00Z</time>
      </trkpt>
      <trkpt lat="46.51212" lon="0.34163">
        <ele>171.8</ele>
        <time>2023-08-20T05:52:01Z</time>
      </trkpt>
      <trkpt lat="46.51213" lon="0.34162">
        <ele>171</ele>
        <time>2023-08-20T05:52:07Z</time>
      </trkpt>
      <trkpt lat="46.51219" lon="0.34157">
        <ele>171</ele>
        <time>2023-08-20T05:52:21Z</time>
      </trkpt>
      <trkpt lat="46.5122" lon="0.34153">
        <ele>170.6</ele>
        <time>2023-08-20T05:52:23Z</time>
      </trkpt>
      <trkpt lat="46.51221" lon="0.34147">
        <ele>169.4</ele>
        <time>2023-08-20T05:52:27Z</time>
      </trkpt>
      <trkpt lat="46.51222" lon="0.34146">
        <ele>168.4</ele>
        <time>2023-08-20T05:52:29Z</time>
      </trkpt>
      <trkpt lat="46.51223" lon="0.34144">
        <ele>167.4</ele>
        <time>2023-08-20T05:52:31Z</time>
      </trkpt>
      <trkpt lat="46.51223" lon="0.34143">
        <ele>166.8</ele>
        <time>2023-08-20T05:52:32Z</time>
      </trkpt>
      <trkpt lat="46.51225" lon="0.3414">
        <ele>165.2</ele>
        <time>2023-08-20T05:52:35Z</time>
      </trkpt>
      <trkpt lat="46.51226" lon="0.3414">
        <ele>164.2</ele>
        <time>2023-08-20T05:52:36Z</time>
      </trkpt>
      <trkpt lat="46.51227" lon="0.3414">
        <ele>163.6</ele>
        <time>2023-08-20T05:52:37Z</time>
      </trkpt>
      <trkpt lat="46.51227" lon="0.34139">
        <ele>163</ele>
        <time>2023-08-20T05:52:38Z</time>
      </trkpt>
      <trkpt lat="46.5123" lon="0.34137">
        <ele>161.4</ele>
        <time>2023-08-20T05:52:41Z</time>
      </trkpt>
      <trkpt lat="46.51232" lon="0.34136">
        <ele>160.4</ele>
        <time>2023-08-20T05:52:42Z</time>
      </trkpt>
      <trkpt lat="46.51233" lon="0.34135">
        <ele>160</ele>
        <time>2023-08-20T05:52:43Z</time>
      </trkpt>
      <trkpt lat="46.51234" lon="0.34134">
        <ele>159.6</ele>
        <time>2023-08-20T05:52:44Z</time>
      </trkpt>
      <trkpt lat="46.51236" lon="0.34132">
        <ele>159</ele>
        <time>2023-08-20T05:52:46Z</time>
      </trkpt>
      <trkpt lat="46.51238" lon="0.34131">
        <ele>158.4</ele>
        <time>2023-08-20T05:52:47Z</time>
      </trkpt>
      <trkpt lat="46.51241" lon="0.34127">
        <ele>155.6</ele>
        <time>2023-08-20T05:52:49Z</time>
      </trkpt>
      <trkpt lat="46.51242" lon="0.34125">
        <ele>154</ele>
        <time>2023-08-20T05:52:50Z</time>
      </trkpt>
      <trkpt lat="46.51244" lon="0.34122">
        <ele>151.6</ele>
        <time>2023-08-20T05:52:51Z</time>
      </trkpt>
      <trkpt lat="46.51245" lon="0.34119">
        <ele>149.6</ele>
        <time>2023-08-20T05:52:52Z</time>
      </trkpt>
      <trkpt lat="46.51245" lon="0.34119">
        <ele>147.6</ele>
        <time>2023-08-20T05:52:53Z</time>
      </trkpt>
      <trkpt lat="46.51249" lon="0.34108">
        <ele>146.4</ele>
        <time>2023-08-20T05:52:55Z</time>
      </trkpt>
      <trkpt lat="46.51251" lon="0.34104">
        <ele>144.6</ele>
        <time>2023-08-20T05:52:57Z</time>
      </trkpt>
      <trkpt lat="46.51254" lon="0.34098">
        <ele>143.6</ele>
        <time>2023-08-20T05:53:04Z</time>
      </trkpt>
      <trkpt lat="46.51255" lon="0.34094">
        <ele>143.6</ele>
        <time>2023-08-20T05:53:08Z</time>
      </trkpt>
      <trkpt lat="46.51254" lon="0.34088">
        <ele>144</ele>
        <time>2023-08-20T05:53:12Z</time>
      </trkpt>
      <trkpt lat="46.51254" lon="0.34084">
        <ele>143.8</ele>
        <time>2023-08-20T05:53:14Z</time>
      </trkpt>
      <trkpt lat="46.51254" lon="0.3408">
        <ele>143.4</ele>
        <time>2023-08-20T05:53:16Z</time>
      </trkpt>
      <trkpt lat="46.51254" lon="0.34076">
        <ele>143</ele>
        <time>2023-08-20T05:53:17Z</time>
      </trkpt>
      <trkpt lat="46.51254" lon="0.34073">
        <ele>142.4</ele>
        <time>2023-08-20T05:53:18Z</time>
      </trkpt>
      <trkpt lat="46.51254" lon="0.34069">
        <ele>141.8</ele>
        <time>2023-08-20T05:53:19Z</time>
      </trkpt>
      <trkpt lat="46.51253" lon="0.34065">
        <ele>141</ele>
        <time>2023-08-20T05:53:20Z</time>
      </trkpt>
      <trkpt lat="46.51253" lon="0.34061">
        <ele>139.6</ele>
        <time>2023-08-20T05:53:21Z</time>
      </trkpt>
      <trkpt lat="46.51253" lon="0.34056">
        <ele>139</ele>
        <time>2023-08-20T05:53:22Z</time>
      </trkpt>
      <trkpt lat="46.51254" lon="0.34052">
        <ele>138.2</ele>
        <time>2023-08-20T05:53:23Z</time>
      </trkpt>
      <trkpt lat="46.51254" lon="0.34044">
        <ele>137.2</ele>
        <time>2023-08-20T05:53:25Z</time>
      </trkpt>
      <trkpt lat="46.51255" lon="0.34038">
        <ele>135.6</ele>
        <time>2023-08-20T05:53:26Z</time>
      </trkpt>
      <trkpt lat="46.51257" lon="0.3403">
        <ele>133.6</ele>
        <time>2023-08-20T05:53:27Z</time>
      </trkpt>
      <trkpt lat="46.51257" lon="0.34024">
        <ele>132.4</ele>
        <time>2023-08-20T05:53:28Z</time>
      </trkpt>
      <trkpt lat="46.51258" lon="0.34018">
        <ele>131.2</ele>
        <time>2023-08-20T05:53:29Z</time>
      </trkpt>
      <trkpt lat="46.5126" lon="0.34015">
        <ele>130</ele>
        <time>2023-08-20T05:53:30Z</time>
      </trkpt>
      <trkpt lat="46.51263" lon="0.34011">
        <ele>128.8</ele>
        <time>2023-08-20T05:53:33Z</time>
      </trkpt>
      <trkpt lat="46.51265" lon="0.34013">
        <ele>128.8</ele>
        <time>2023-08-20T05:53:34Z</time>
      </trkpt>
      <trkpt lat="46.51284" lon="0.34024">
        <ele>128.4</ele>
        <time>2023-08-20T05:53:41Z</time>
      </trkpt>
      <trkpt lat="46.51293" lon="0.34026">
        <ele>128.4</ele>
        <time>2023-08-20T05:53:45Z</time>
      </trkpt>
      <trkpt lat="46.51294" lon="0.34028">
        <ele>128.4</ele>
        <time>2023-08-20T05:53:46Z</time>
      </trkpt>
      <trkpt lat="46.51295" lon="0.3403">
        <ele>128.4</ele>
        <time>2023-08-20T05:53:47Z</time>
      </trkpt>
      <trkpt lat="46.51295" lon="0.34036">
        <ele>128.6</ele>
        <time>2023-08-20T05:53:51Z</time>
      </trkpt>
      <trkpt lat="46.51296" lon="0.34038">
        <ele>129.8</ele>
        <time>2023-08-20T05:53:54Z</time>
      </trkpt>
      <trkpt lat="46.51296" lon="0.3404">
        <ele>131</ele>
        <time>2023-08-20T05:53:56Z</time>
      </trkpt>
      <trkpt lat="46.51297" lon="0.34042">
        <ele>132.2</ele>
        <time>2023-08-20T05:53:58Z</time>
      </trkpt>
      <trkpt lat="46.51297" lon="0.34043">
        <ele>132.8</ele>
        <time>2023-08-20T05:53:59Z</time>
      </trkpt>
      <trkpt lat="46.51297" lon="0.34043">
        <ele>133.4</ele>
        <time>2023-08-20T05:54:00Z</time>
      </trkpt>
      <trkpt lat="46.51297" lon="0.34046">
        <ele>134.2</ele>
        <time>2023-08-20T05:54:08Z</time>
      </trkpt>
      <trkpt lat="46.51297" lon="0.34047">
        <ele>134.4</ele>
        <time>2023-08-20T05:54:09Z</time>
      </trkpt>
      <trkpt lat="46.51297" lon="0.3405">
        <ele>135.4</ele>
        <time>2023-08-20T05:54:15Z</time>
      </trkpt>
      <trkpt lat="46.51298" lon="0.34055">
        <ele>136.4</ele>
        <time>2023-08-20T05:54:20Z</time>
      </trkpt>
      <trkpt lat="46.51299" lon="0.34058">
        <ele>137.4</ele>
        <time>2023-08-20T05:54:23Z</time>
      </trkpt>
      <trkpt lat="46.51303" lon="0.34065">
        <ele>137.6</ele>
        <time>2023-08-20T05:54:32Z</time>
      </trkpt>
      <trkpt lat="46.51305" lon="0.34068">
        <ele>137.8</ele>
        <time>2023-08-20T05:54:34Z</time>
      </trkpt>
      <trkpt lat="46.51313" lon="0.34084">
        <ele>139</ele>
        <time>2023-08-20T05:54:45Z</time>
      </trkpt>
      <trkpt lat="46.51314" lon="0.34085">
        <ele>139.2</ele>
        <time>2023-08-20T05:54:47Z</time>
      </trkpt>
      <trkpt lat="46.51325" lon="0.34095">
        <ele>139.6</ele>
        <time>2023-08-20T05:55:01Z</time>
      </trkpt>
      <trkpt lat="46.51328" lon="0.34097">
        <ele>140</ele>
        <time>2023-08-20T05:55:12Z</time>
      </trkpt>
      <trkpt lat="46.51329" lon="0.34098">
        <ele>140</ele>
        <time>2023-08-20T05:55:13Z</time>
      </trkpt>
      <trkpt lat="46.51331" lon="0.34101">
        <ele>140</ele>
        <time>2023-08-20T05:55:16Z</time>
      </trkpt>
      <trkpt lat="46.51331" lon="0.34102">
        <ele>140</ele>
        <time>2023-08-20T05:55:17Z</time>
      </trkpt>
      <trkpt lat="46.51334" lon="0.34105">
        <ele>140.4</ele>
        <time>2023-08-20T05:55:20Z</time>
      </trkpt>
      <trkpt lat="46.51337" lon="0.34107">
        <ele>141</ele>
        <time>2023-08-20T05:55:22Z</time>
      </trkpt>
      <trkpt lat="46.51342" lon="0.3411">
        <ele>141.4</ele>
        <time>2023-08-20T05:55:26Z</time>
      </trkpt>
      <trkpt lat="46.51361" lon="0.3412">
        <ele>140.8</ele>
        <time>2023-08-20T05:55:35Z</time>
      </trkpt>
      <trkpt lat="46.51367" lon="0.34122">
        <ele>139.8</ele>
        <time>2023-08-20T05:55:38Z</time>
      </trkpt>
      <trkpt lat="46.51371" lon="0.34123">
        <ele>139</ele>
        <time>2023-08-20T05:55:40Z</time>
      </trkpt>
      <trkpt lat="46.51373" lon="0.34124">
        <ele>138.6</ele>
        <time>2023-08-20T05:55:41Z</time>
      </trkpt>
      <trkpt lat="46.51378" lon="0.34124">
        <ele>137.8</ele>
        <time>2023-08-20T05:55:43Z</time>
      </trkpt>
      <trkpt lat="46.5138" lon="0.34125">
        <ele>137.6</ele>
        <time>2023-08-20T05:55:44Z</time>
      </trkpt>
      <trkpt lat="46.51382" lon="0.34124">
        <ele>137.4</ele>
        <time>2023-08-20T05:55:45Z</time>
      </trkpt>
      <trkpt lat="46.51387" lon="0.34124">
        <ele>137.2</ele>
        <time>2023-08-20T05:55:47Z</time>
      </trkpt>
      <trkpt lat="46.51391" lon="0.34126">
        <ele>135.6</ele>
        <time>2023-08-20T05:55:49Z</time>
      </trkpt>
      <trkpt lat="46.51396" lon="0.34128">
        <ele>134.8</ele>
        <time>2023-08-20T05:55:51Z</time>
      </trkpt>
      <trkpt lat="46.51401" lon="0.34128">
        <ele>134.6</ele>
        <time>2023-08-20T05:55:52Z</time>
      </trkpt>
      <trkpt lat="46.51416" lon="0.34127">
        <ele>133.4</ele>
        <time>2023-08-20T05:55:56Z</time>
      </trkpt>
      <trkpt lat="46.5142" lon="0.34126">
        <ele>133.2</ele>
        <time>2023-08-20T05:55:58Z</time>
      </trkpt>
      <trkpt lat="46.51424" lon="0.34127">
        <ele>133</ele>
        <time>2023-08-20T05:55:59Z</time>
      </trkpt>
      <trkpt lat="46.51429" lon="0.34123">
        <ele>132.4</ele>
        <time>2023-08-20T05:56:01Z</time>
      </trkpt>
      <trkpt lat="46.51431" lon="0.34119">
        <ele>132</ele>
        <time>2023-08-20T05:56:02Z</time>
      </trkpt>
      <trkpt lat="46.51434" lon="0.34114">
        <ele>131</ele>
        <time>2023-08-20T05:56:03Z</time>
      </trkpt>
      <trkpt lat="46.51438" lon="0.3411">
        <ele>130.4</ele>
        <time>2023-08-20T05:56:04Z</time>
      </trkpt>
      <trkpt lat="46.51443" lon="0.34107">
        <ele>129.6</ele>
        <time>2023-08-20T05:56:05Z</time>
      </trkpt>
      <trkpt lat="46.51448" lon="0.34106">
        <ele>128.4</ele>
        <time>2023-08-20T05:56:06Z</time>
      </trkpt>
      <trkpt lat="46.51457" lon="0.34103">
        <ele>127</ele>
        <time>2023-08-20T05:56:09Z</time>
      </trkpt>
      <trkpt lat="46.51464" lon="0.34102">
        <ele>126.2</ele>
        <time>2023-08-20T05:56:22Z</time>
      </trkpt>
      <trkpt lat="46.51464" lon="0.34102">
        <ele>126</ele>
        <time>2023-08-20T05:56:31Z</time>
      </trkpt>
      <trkpt lat="46.51467" lon="0.34102">
        <ele>126</ele>
        <time>2023-08-20T05:56:45Z</time>
      </trkpt>
      <trkpt lat="46.51474" lon="0.34101">
        <ele>125.8</ele>
        <time>2023-08-20T05:56:51Z</time>
      </trkpt>
      <trkpt lat="46.51492" lon="0.34105">
        <ele>125.6</ele>
        <time>2023-08-20T05:56:57Z</time>
      </trkpt>
      <trkpt lat="46.51522" lon="0.34118">
        <ele>125.2</ele>
        <time>2023-08-20T05:57:05Z</time>
      </trkpt>
      <trkpt lat="46.51552" lon="0.34125">
        <ele>125.2</ele>
        <time>2023-08-20T05:57:13Z</time>
      </trkpt>
      <trkpt lat="46.5158" lon="0.34129">
        <ele>125.2</ele>
        <time>2023-08-20T05:57:20Z</time>
      </trkpt>
      <trkpt lat="46.51612" lon="0.34136">
        <ele>125.4</ele>
        <time>2023-08-20T05:57:27Z</time>
      </trkpt>
      <trkpt lat="46.51627" lon="0.34143">
        <ele>125</ele>
        <time>2023-08-20T05:57:31Z</time>
      </trkpt>
      <trkpt lat="46.51637" lon="0.34148">
        <ele>125</ele>
        <time>2023-08-20T05:57:34Z</time>
      </trkpt>
      <trkpt lat="46.51641" lon="0.34152">
        <ele>125.2</ele>
        <time>2023-08-20T05:57:36Z</time>
      </trkpt>
      <trkpt lat="46.51643" lon="0.34158">
        <ele>125.2</ele>
        <time>2023-08-20T05:57:38Z</time>
      </trkpt>
      <trkpt lat="46.51642" lon="0.34176">
        <ele>126</ele>
        <time>2023-08-20T05:57:44Z</time>
      </trkpt>
      <trkpt lat="46.51642" lon="0.34178">
        <ele>126.4</ele>
        <time>2023-08-20T05:57:45Z</time>
      </trkpt>
      <trkpt lat="46.51643" lon="0.34183">
        <ele>127.6</ele>
        <time>2023-08-20T05:57:47Z</time>
      </trkpt>
      <trkpt lat="46.51644" lon="0.34186">
        <ele>129</ele>
        <time>2023-08-20T05:57:49Z</time>
      </trkpt>
      <trkpt lat="46.51646" lon="0.3419">
        <ele>129.4</ele>
        <time>2023-08-20T05:57:51Z</time>
      </trkpt>
      <trkpt lat="46.51648" lon="0.34195">
        <ele>130.4</ele>
        <time>2023-08-20T05:57:53Z</time>
      </trkpt>
      <trkpt lat="46.51649" lon="0.34198">
        <ele>131</ele>
        <time>2023-08-20T05:57:54Z</time>
      </trkpt>
      <trkpt lat="46.51652" lon="0.34201">
        <ele>131.4</ele>
        <time>2023-08-20T05:57:56Z</time>
      </trkpt>
      <trkpt lat="46.51667" lon="0.34207">
        <ele>131.2</ele>
        <time>2023-08-20T05:58:00Z</time>
      </trkpt>
      <trkpt lat="46.5168" lon="0.3421">
        <ele>130.8</ele>
        <time>2023-08-20T05:58:03Z</time>
      </trkpt>
      <trkpt lat="46.51683" lon="0.34208">
        <ele>130.6</ele>
        <time>2023-08-20T05:58:04Z</time>
      </trkpt>
      <trkpt lat="46.51693" lon="0.3419">
        <ele>130</ele>
        <time>2023-08-20T05:58:08Z</time>
      </trkpt>
      <trkpt lat="46.51702" lon="0.34172">
        <ele>129.4</ele>
        <time>2023-08-20T05:58:11Z</time>
      </trkpt>
      <trkpt lat="46.5171" lon="0.34151">
        <ele>128.8</ele>
        <time>2023-08-20T05:58:14Z</time>
      </trkpt>
      <trkpt lat="46.51723" lon="0.34113">
        <ele>128.4</ele>
        <time>2023-08-20T05:58:19Z</time>
      </trkpt>
      <trkpt lat="46.51726" lon="0.34104">
        <ele>128</ele>
        <time>2023-08-20T05:58:20Z</time>
      </trkpt>
      <trkpt lat="46.51729" lon="0.34086">
        <ele>127.8</ele>
        <time>2023-08-20T05:58:22Z</time>
      </trkpt>
      <trkpt lat="46.51728" lon="0.34068">
        <ele>127.6</ele>
        <time>2023-08-20T05:58:24Z</time>
      </trkpt>
      <trkpt lat="46.51729" lon="0.3405">
        <ele>127.2</ele>
        <time>2023-08-20T05:58:27Z</time>
      </trkpt>
      <trkpt lat="46.51733" lon="0.34038">
        <ele>126.8</ele>
        <time>2023-08-20T05:58:31Z</time>
      </trkpt>
      <trkpt lat="46.51736" lon="0.34031">
        <ele>126.2</ele>
        <time>2023-08-20T05:58:37Z</time>
      </trkpt>
      <trkpt lat="46.51734" lon="0.34031">
        <ele>126.2</ele>
        <time>2023-08-20T05:58:39Z</time>
      </trkpt>
      <trkpt lat="46.51735" lon="0.34035">
        <ele>126.2</ele>
        <time>2023-08-20T05:58:41Z</time>
      </trkpt>
      <trkpt lat="46.51737" lon="0.34034">
        <ele>126</ele>
        <time>2023-08-20T05:58:43Z</time>
      </trkpt>
      <trkpt lat="46.51741" lon="0.3403">
        <ele>126</ele>
        <time>2023-08-20T05:58:53Z</time>
      </trkpt>
      <trkpt lat="46.51742" lon="0.34031">
        <ele>126</ele>
        <time>2023-08-20T05:58:55Z</time>
      </trkpt>
      <trkpt lat="46.51749" lon="0.34034">
        <ele>126</ele>
        <time>2023-08-20T05:58:59Z</time>
      </trkpt>
      <trkpt lat="46.51751" lon="0.34036">
        <ele>126</ele>
        <time>2023-08-20T05:59:00Z</time>
      </trkpt>
      <trkpt lat="46.51754" lon="0.34037">
        <ele>126</ele>
        <time>2023-08-20T05:59:01Z</time>
      </trkpt>
      <trkpt lat="46.51761" lon="0.34042">
        <ele>125.8</ele>
        <time>2023-08-20T05:59:03Z</time>
      </trkpt>
      <trkpt lat="46.5177" lon="0.34047">
        <ele>126</ele>
        <time>2023-08-20T05:59:05Z</time>
      </trkpt>
      <trkpt lat="46.5179" lon="0.34055">
        <ele>126</ele>
        <time>2023-08-20T05:59:09Z</time>
      </trkpt>
      <trkpt lat="46.518" lon="0.34057">
        <ele>126</ele>
        <time>2023-08-20T05:59:11Z</time>
      </trkpt>
      <trkpt lat="46.5181" lon="0.34054">
        <ele>126</ele>
        <time>2023-08-20T05:59:13Z</time>
      </trkpt>
      <trkpt lat="46.51819" lon="0.34051">
        <ele>126</ele>
        <time>2023-08-20T05:59:15Z</time>
      </trkpt>
      <trkpt lat="46.51829" lon="0.34053">
        <ele>126</ele>
        <time>2023-08-20T05:59:17Z</time>
      </trkpt>
      <trkpt lat="46.5184" lon="0.34057">
        <ele>126</ele>
        <time>2023-08-20T05:59:19Z</time>
      </trkpt>
      <trkpt lat="46.5185" lon="0.34063">
        <ele>125.8</ele>
        <time>2023-08-20T05:59:21Z</time>
      </trkpt>
      <trkpt lat="46.51862" lon="0.34063">
        <ele>125.8</ele>
        <time>2023-08-20T05:59:23Z</time>
      </trkpt>
      <trkpt lat="46.51892" lon="0.34056">
        <ele>125.8</ele>
        <time>2023-08-20T05:59:28Z</time>
      </trkpt>
      <trkpt lat="46.51904" lon="0.34053">
        <ele>126</ele>
        <time>2023-08-20T05:59:30Z</time>
      </trkpt>
      <trkpt lat="46.51923" lon="0.34047">
        <ele>126</ele>
        <time>2023-08-20T05:59:33Z</time>
      </trkpt>
      <trkpt lat="46.51947" lon="0.3404">
        <ele>125.8</ele>
        <time>2023-08-20T05:59:37Z</time>
      </trkpt>
      <trkpt lat="46.51965" lon="0.34035">
        <ele>125.4</ele>
        <time>2023-08-20T05:59:40Z</time>
      </trkpt>
      <trkpt lat="46.51972" lon="0.34026">
        <ele>125.4</ele>
        <time>2023-08-20T05:59:42Z</time>
      </trkpt>
      <trkpt lat="46.51973" lon="0.34014">
        <ele>125.6</ele>
        <time>2023-08-20T05:59:44Z</time>
      </trkpt>
      <trkpt lat="46.51973" lon="0.34007">
        <ele>125.6</ele>
        <time>2023-08-20T05:59:45Z</time>
      </trkpt>
      <trkpt lat="46.51969" lon="0.33959">
        <ele>125.2</ele>
        <time>2023-08-20T05:59:52Z</time>
      </trkpt>
      <trkpt lat="46.51971" lon="0.33944">
        <ele>125</ele>
        <time>2023-08-20T05:59:54Z</time>
      </trkpt>
      <trkpt lat="46.51974" lon="0.3393">
        <ele>125</ele>
        <time>2023-08-20T05:59:56Z</time>
      </trkpt>
      <trkpt lat="46.51976" lon="0.33902">
        <ele>125.2</ele>
        <time>2023-08-20T06:00:00Z</time>
      </trkpt>
      <trkpt lat="46.51976" lon="0.33896">
        <ele>125.2</ele>
        <time>2023-08-20T06:00:01Z</time>
      </trkpt>
      <trkpt lat="46.51974" lon="0.33855">
        <ele>125</ele>
        <time>2023-08-20T06:00:07Z</time>
      </trkpt>
      <trkpt lat="46.51974" lon="0.33841">
        <ele>125</ele>
        <time>2023-08-20T06:00:09Z</time>
      </trkpt>
      <trkpt lat="46.51975" lon="0.33813">
        <ele>125.2</ele>
        <time>2023-08-20T06:00:13Z</time>
      </trkpt>
      <trkpt lat="46.51977" lon="0.33792">
        <ele>125.2</ele>
        <time>2023-08-20T06:00:16Z</time>
      </trkpt>
      <trkpt lat="46.5198" lon="0.33779">
        <ele>125.2</ele>
        <time>2023-08-20T06:00:18Z</time>
      </trkpt>
      <trkpt lat="46.51988" lon="0.33747">
        <ele>125.2</ele>
        <time>2023-08-20T06:00:23Z</time>
      </trkpt>
      <trkpt lat="46.51989" lon="0.33742">
        <ele>125.2</ele>
        <time>2023-08-20T06:00:24Z</time>
      </trkpt>
      <trkpt lat="46.51995" lon="0.33734">
        <ele>125.2</ele>
        <time>2023-08-20T06:00:26Z</time>
      </trkpt>
      <trkpt lat="46.51998" lon="0.33732">
        <ele>125.2</ele>
        <time>2023-08-20T06:00:27Z</time>
      </trkpt>
      <trkpt lat="46.52001" lon="0.33731">
        <ele>125.2</ele>
        <time>2023-08-20T06:00:28Z</time>
      </trkpt>
      <trkpt lat="46.52009" lon="0.33731">
        <ele>125.2</ele>
        <time>2023-08-20T06:00:31Z</time>
      </trkpt>
      <trkpt lat="46.52033" lon="0.33733">
        <ele>125.2</ele>
        <time>2023-08-20T06:00:36Z</time>
      </trkpt>
      <trkpt lat="46.52056" lon="0.33741">
        <ele>125.6</ele>
        <time>2023-08-20T06:00:41Z</time>
      </trkpt>
      <trkpt lat="46.52058" lon="0.33745">
        <ele>125.8</ele>
        <time>2023-08-20T06:00:42Z</time>
      </trkpt>
      <trkpt lat="46.5206" lon="0.33749">
        <ele>126</ele>
        <time>2023-08-20T06:00:43Z</time>
      </trkpt>
      <trkpt lat="46.52059" lon="0.33755">
        <ele>126.2</ele>
        <time>2023-08-20T06:00:44Z</time>
      </trkpt>
      <trkpt lat="46.52061" lon="0.33761">
        <ele>126.4</ele>
        <time>2023-08-20T06:00:45Z</time>
      </trkpt>
      <trkpt lat="46.52059" lon="0.33797">
        <ele>126.4</ele>
        <time>2023-08-20T06:00:50Z</time>
      </trkpt>
      <trkpt lat="46.5206" lon="0.33805">
        <ele>126.2</ele>
        <time>2023-08-20T06:00:51Z</time>
      </trkpt>
      <trkpt lat="46.52063" lon="0.33839">
        <ele>126</ele>
        <time>2023-08-20T06:00:55Z</time>
      </trkpt>
      <trkpt lat="46.52072" lon="0.33899">
        <ele>126.4</ele>
        <time>2023-08-20T06:01:02Z</time>
      </trkpt>
      <trkpt lat="46.52082" lon="0.33939">
        <ele>125.8</ele>
        <time>2023-08-20T06:01:07Z</time>
      </trkpt>
      <trkpt lat="46.52085" lon="0.33946">
        <ele>125.8</ele>
        <time>2023-08-20T06:01:08Z</time>
      </trkpt>
      <trkpt lat="46.52088" lon="0.33952">
        <ele>126</ele>
        <time>2023-08-20T06:01:09Z</time>
      </trkpt>
      <trkpt lat="46.52096" lon="0.33961">
        <ele>125.8</ele>
        <time>2023-08-20T06:01:11Z</time>
      </trkpt>
      <trkpt lat="46.52101" lon="0.33965">
        <ele>125.6</ele>
        <time>2023-08-20T06:01:12Z</time>
      </trkpt>
      <trkpt lat="46.52107" lon="0.33968">
        <ele>125.8</ele>
        <time>2023-08-20T06:01:13Z</time>
      </trkpt>
      <trkpt lat="46.52131" lon="0.33977">
        <ele>125.6</ele>
        <time>2023-08-20T06:01:17Z</time>
      </trkpt>
      <trkpt lat="46.52156" lon="0.33985">
        <ele>125.4</ele>
        <time>2023-08-20T06:01:21Z</time>
      </trkpt>
      <trkpt lat="46.52168" lon="0.33986">
        <ele>125.4</ele>
        <time>2023-08-20T06:01:23Z</time>
      </trkpt>
      <trkpt lat="46.52199" lon="0.33982">
        <ele>125.4</ele>
        <time>2023-08-20T06:01:29Z</time>
      </trkpt>
      <trkpt lat="46.5221" lon="0.3398">
        <ele>125.2</ele>
        <time>2023-08-20T06:01:31Z</time>
      </trkpt>
      <trkpt lat="46.5222" lon="0.33974">
        <ele>125</ele>
        <time>2023-08-20T06:01:33Z</time>
      </trkpt>
      <trkpt lat="46.52225" lon="0.3397">
        <ele>125</ele>
        <time>2023-08-20T06:01:34Z</time>
      </trkpt>
      <trkpt lat="46.52254" lon="0.33944">
        <ele>125.4</ele>
        <time>2023-08-20T06:01:39Z</time>
      </trkpt>
      <trkpt lat="46.52291" lon="0.33915">
        <ele>125.6</ele>
        <time>2023-08-20T06:01:46Z</time>
      </trkpt>
      <trkpt lat="46.52328" lon="0.33887">
        <ele>126.2</ele>
        <time>2023-08-20T06:01:53Z</time>
      </trkpt>
      <trkpt lat="46.52339" lon="0.33879">
        <ele>126.2</ele>
        <time>2023-08-20T06:01:55Z</time>
      </trkpt>
      <trkpt lat="46.52389" lon="0.33845">
        <ele>125.8</ele>
        <time>2023-08-20T06:02:04Z</time>
      </trkpt>
      <trkpt lat="46.52414" lon="0.33826">
        <ele>125.2</ele>
        <time>2023-08-20T06:02:09Z</time>
      </trkpt>
      <trkpt lat="46.52424" lon="0.33817">
        <ele>124.8</ele>
        <time>2023-08-20T06:02:11Z</time>
      </trkpt>
      <trkpt lat="46.52452" lon="0.33787">
        <ele>124.8</ele>
        <time>2023-08-20T06:02:17Z</time>
      </trkpt>
      <trkpt lat="46.52482" lon="0.33751">
        <ele>124.6</ele>
        <time>2023-08-20T06:02:24Z</time>
      </trkpt>
      <trkpt lat="46.525" lon="0.33719">
        <ele>125.2</ele>
        <time>2023-08-20T06:02:29Z</time>
      </trkpt>
      <trkpt lat="46.52505" lon="0.33706">
        <ele>125.4</ele>
        <time>2023-08-20T06:02:31Z</time>
      </trkpt>
      <trkpt lat="46.52507" lon="0.33694">
        <ele>125.4</ele>
        <time>2023-08-20T06:02:33Z</time>
      </trkpt>
      <trkpt lat="46.52507" lon="0.33674">
        <ele>126.2</ele>
        <time>2023-08-20T06:02:36Z</time>
      </trkpt>
      <trkpt lat="46.52509" lon="0.33662">
        <ele>126.8</ele>
        <time>2023-08-20T06:02:38Z</time>
      </trkpt>
      <trkpt lat="46.5251" lon="0.33656">
        <ele>127.2</ele>
        <time>2023-08-20T06:02:39Z</time>
      </trkpt>
      <trkpt lat="46.52512" lon="0.33651">
        <ele>128</ele>
        <time>2023-08-20T06:02:40Z</time>
      </trkpt>
      <trkpt lat="46.52515" lon="0.33642">
        <ele>129.2</ele>
        <time>2023-08-20T06:02:42Z</time>
      </trkpt>
      <trkpt lat="46.52521" lon="0.33629">
        <ele>130.4</ele>
        <time>2023-08-20T06:02:45Z</time>
      </trkpt>
      <trkpt lat="46.52523" lon="0.33625">
        <ele>130.8</ele>
        <time>2023-08-20T06:02:46Z</time>
      </trkpt>
      <trkpt lat="46.52529" lon="0.33614">
        <ele>131.6</ele>
        <time>2023-08-20T06:02:50Z</time>
      </trkpt>
      <trkpt lat="46.52531" lon="0.33615">
        <ele>131.8</ele>
        <time>2023-08-20T06:02:51Z</time>
      </trkpt>
      <trkpt lat="46.52544" lon="0.33623">
        <ele>132</ele>
        <time>2023-08-20T06:02:55Z</time>
      </trkpt>
      <trkpt lat="46.52575" lon="0.33626">
        <ele>130.6</ele>
        <time>2023-08-20T06:03:01Z</time>
      </trkpt>
      <trkpt lat="46.52587" lon="0.33623">
        <ele>129.6</ele>
        <time>2023-08-20T06:03:03Z</time>
      </trkpt>
      <trkpt lat="46.52607" lon="0.33619">
        <ele>128.6</ele>
        <time>2023-08-20T06:03:06Z</time>
      </trkpt>
      <trkpt lat="46.52614" lon="0.33619">
        <ele>128.2</ele>
        <time>2023-08-20T06:03:07Z</time>
      </trkpt>
      <trkpt lat="46.52628" lon="0.33621">
        <ele>127.8</ele>
        <time>2023-08-20T06:03:09Z</time>
      </trkpt>
      <trkpt lat="46.52635" lon="0.33624">
        <ele>127.6</ele>
        <time>2023-08-20T06:03:10Z</time>
      </trkpt>
      <trkpt lat="46.52643" lon="0.33625">
        <ele>127</ele>
        <time>2023-08-20T06:03:11Z</time>
      </trkpt>
      <trkpt lat="46.52657" lon="0.33625">
        <ele>125.8</ele>
        <time>2023-08-20T06:03:13Z</time>
      </trkpt>
      <trkpt lat="46.52676" lon="0.33621">
        <ele>124.6</ele>
        <time>2023-08-20T06:03:16Z</time>
      </trkpt>
      <trkpt lat="46.52688" lon="0.3362">
        <ele>124.4</ele>
        <time>2023-08-20T06:03:18Z</time>
      </trkpt>
      <trkpt lat="46.52706" lon="0.33621">
        <ele>124.2</ele>
        <time>2023-08-20T06:03:21Z</time>
      </trkpt>
      <trkpt lat="46.52717" lon="0.33625">
        <ele>124</ele>
        <time>2023-08-20T06:03:23Z</time>
      </trkpt>
      <trkpt lat="46.52751" lon="0.33637">
        <ele>123.6</ele>
        <time>2023-08-20T06:03:29Z</time>
      </trkpt>
      <trkpt lat="46.52757" lon="0.33639">
        <ele>123.6</ele>
        <time>2023-08-20T06:03:30Z</time>
      </trkpt>
      <trkpt lat="46.52763" lon="0.33639">
        <ele>123.6</ele>
        <time>2023-08-20T06:03:31Z</time>
      </trkpt>
      <trkpt lat="46.52785" lon="0.33637">
        <ele>123.6</ele>
        <time>2023-08-20T06:03:35Z</time>
      </trkpt>
      <trkpt lat="46.52807" lon="0.33636">
        <ele>123.4</ele>
        <time>2023-08-20T06:03:39Z</time>
      </trkpt>
      <trkpt lat="46.52819" lon="0.33639">
        <ele>123.2</ele>
        <time>2023-08-20T06:03:41Z</time>
      </trkpt>
      <trkpt lat="46.52856" lon="0.33651">
        <ele>123.6</ele>
        <time>2023-08-20T06:03:47Z</time>
      </trkpt>
      <trkpt lat="46.52862" lon="0.33653">
        <ele>123.6</ele>
        <time>2023-08-20T06:03:48Z</time>
      </trkpt>
      <trkpt lat="46.52885" lon="0.33659">
        <ele>123.6</ele>
        <time>2023-08-20T06:03:52Z</time>
      </trkpt>
      <trkpt lat="46.52919" lon="0.33671">
        <ele>123.8</ele>
        <time>2023-08-20T06:03:58Z</time>
      </trkpt>
      <trkpt lat="46.52958" lon="0.33685">
        <ele>123.8</ele>
        <time>2023-08-20T06:04:04Z</time>
      </trkpt>
      <trkpt lat="46.5297" lon="0.33688">
        <ele>123.8</ele>
        <time>2023-08-20T06:04:06Z</time>
      </trkpt>
      <trkpt lat="46.52988" lon="0.33686">
        <ele>123.6</ele>
        <time>2023-08-20T06:04:09Z</time>
      </trkpt>
      <trkpt lat="46.53024" lon="0.33678">
        <ele>123.4</ele>
        <time>2023-08-20T06:04:15Z</time>
      </trkpt>
      <trkpt lat="46.53029" lon="0.33676">
        <ele>123.4</ele>
        <time>2023-08-20T06:04:16Z</time>
      </trkpt>
      <trkpt lat="46.53055" lon="0.33666">
        <ele>123.2</ele>
        <time>2023-08-20T06:04:21Z</time>
      </trkpt>
      <trkpt lat="46.53068" lon="0.33661">
        <ele>122.6</ele>
        <time>2023-08-20T06:04:24Z</time>
      </trkpt>
      <trkpt lat="46.53072" lon="0.3366">
        <ele>122.6</ele>
        <time>2023-08-20T06:04:25Z</time>
      </trkpt>
      <trkpt lat="46.53075" lon="0.3366">
        <ele>122.4</ele>
        <time>2023-08-20T06:04:26Z</time>
      </trkpt>
      <trkpt lat="46.5308" lon="0.3366">
        <ele>122.4</ele>
        <time>2023-08-20T06:04:27Z</time>
      </trkpt>
      <trkpt lat="46.53086" lon="0.33659">
        <ele>122.8</ele>
        <time>2023-08-20T06:04:29Z</time>
      </trkpt>
      <trkpt lat="46.5309" lon="0.33658">
        <ele>123</ele>
        <time>2023-08-20T06:04:30Z</time>
      </trkpt>
      <trkpt lat="46.53093" lon="0.33658">
        <ele>123</ele>
        <time>2023-08-20T06:04:31Z</time>
      </trkpt>
      <trkpt lat="46.53105" lon="0.33663">
        <ele>123.2</ele>
        <time>2023-08-20T06:04:34Z</time>
      </trkpt>
      <trkpt lat="46.53121" lon="0.33668">
        <ele>123.6</ele>
        <time>2023-08-20T06:04:37Z</time>
      </trkpt>
      <trkpt lat="46.53138" lon="0.33674">
        <ele>123.8</ele>
        <time>2023-08-20T06:04:40Z</time>
      </trkpt>
      <trkpt lat="46.53166" lon="0.33683">
        <ele>123.8</ele>
        <time>2023-08-20T06:04:46Z</time>
      </trkpt>
      <trkpt lat="46.53191" lon="0.33692">
        <ele>123.8</ele>
        <time>2023-08-20T06:04:52Z</time>
      </trkpt>
      <trkpt lat="46.53197" lon="0.33696">
        <ele>123.8</ele>
        <time>2023-08-20T06:04:53Z</time>
      </trkpt>
      <trkpt lat="46.53212" lon="0.33702">
        <ele>123.6</ele>
        <time>2023-08-20T06:04:56Z</time>
      </trkpt>
      <trkpt lat="46.5322" lon="0.33706">
        <ele>123.6</ele>
        <time>2023-08-20T06:04:58Z</time>
      </trkpt>
      <trkpt lat="46.53239" lon="0.33714">
        <ele>123.8</ele>
        <time>2023-08-20T06:05:02Z</time>
      </trkpt>
      <trkpt lat="46.53262" lon="0.33725">
        <ele>123.8</ele>
        <time>2023-08-20T06:05:08Z</time>
      </trkpt>
      <trkpt lat="46.53285" lon="0.33742">
        <ele>123.8</ele>
        <time>2023-08-20T06:05:14Z</time>
      </trkpt>
      <trkpt lat="46.53296" lon="0.33747">
        <ele>124</ele>
        <time>2023-08-20T06:05:16Z</time>
      </trkpt>
      <trkpt lat="46.53306" lon="0.33751">
        <ele>124</ele>
        <time>2023-08-20T06:05:19Z</time>
      </trkpt>
      <trkpt lat="46.53313" lon="0.33754">
        <ele>123.8</ele>
        <time>2023-08-20T06:05:21Z</time>
      </trkpt>
      <trkpt lat="46.5333" lon="0.33761">
        <ele>123.4</ele>
        <time>2023-08-20T06:05:25Z</time>
      </trkpt>
      <trkpt lat="46.53365" lon="0.33773">
        <ele>123.8</ele>
        <time>2023-08-20T06:05:31Z</time>
      </trkpt>
      <trkpt lat="46.53392" lon="0.33787">
        <ele>123.6</ele>
        <time>2023-08-20T06:05:36Z</time>
      </trkpt>
      <trkpt lat="46.53411" lon="0.33795">
        <ele>123.2</ele>
        <time>2023-08-20T06:05:39Z</time>
      </trkpt>
      <trkpt lat="46.53423" lon="0.33802">
        <ele>123.2</ele>
        <time>2023-08-20T06:05:41Z</time>
      </trkpt>
      <trkpt lat="46.53441" lon="0.3381">
        <ele>123.2</ele>
        <time>2023-08-20T06:05:44Z</time>
      </trkpt>
      <trkpt lat="46.53456" lon="0.33821">
        <ele>123.2</ele>
        <time>2023-08-20T06:05:47Z</time>
      </trkpt>
      <trkpt lat="46.53461" lon="0.33824">
        <ele>123</ele>
        <time>2023-08-20T06:05:50Z</time>
      </trkpt>
      <trkpt lat="46.53462" lon="0.33823">
        <ele>123</ele>
        <time>2023-08-20T06:05:51Z</time>
      </trkpt>
      <trkpt lat="46.53466" lon="0.33818">
        <ele>124.2</ele>
        <time>2023-08-20T06:05:54Z</time>
      </trkpt>
      <trkpt lat="46.53469" lon="0.33817">
        <ele>125</ele>
        <time>2023-08-20T06:05:56Z</time>
      </trkpt>
      <trkpt lat="46.53477" lon="0.33817">
        <ele>126.4</ele>
        <time>2023-08-20T06:06:00Z</time>
      </trkpt>
      <trkpt lat="46.53483" lon="0.33816">
        <ele>127.4</ele>
        <time>2023-08-20T06:06:03Z</time>
      </trkpt>
      <trkpt lat="46.53485" lon="0.33816">
        <ele>127.6</ele>
        <time>2023-08-20T06:06:04Z</time>
      </trkpt>
      <trkpt lat="46.5349" lon="0.33818">
        <ele>128.6</ele>
        <time>2023-08-20T06:06:07Z</time>
      </trkpt>
      <trkpt lat="46.53496" lon="0.33822">
        <ele>129.8</ele>
        <time>2023-08-20T06:06:10Z</time>
      </trkpt>
      <trkpt lat="46.53502" lon="0.33827">
        <ele>131</ele>
        <time>2023-08-20T06:06:13Z</time>
      </trkpt>
      <trkpt lat="46.53509" lon="0.33831">
        <ele>132.2</ele>
        <time>2023-08-20T06:06:16Z</time>
      </trkpt>
      <trkpt lat="46.53511" lon="0.33832">
        <ele>132.4</ele>
        <time>2023-08-20T06:06:17Z</time>
      </trkpt>
      <trkpt lat="46.53515" lon="0.33833">
        <ele>133.4</ele>
        <time>2023-08-20T06:06:19Z</time>
      </trkpt>
      <trkpt lat="46.53523" lon="0.33836">
        <ele>134.4</ele>
        <time>2023-08-20T06:06:23Z</time>
      </trkpt>
      <trkpt lat="46.53528" lon="0.33838">
        <ele>135.2</ele>
        <time>2023-08-20T06:06:25Z</time>
      </trkpt>
      <trkpt lat="46.53531" lon="0.33839">
        <ele>135.4</ele>
        <time>2023-08-20T06:06:26Z</time>
      </trkpt>
      <trkpt lat="46.53538" lon="0.33843">
        <ele>136.6</ele>
        <time>2023-08-20T06:06:30Z</time>
      </trkpt>
      <trkpt lat="46.53543" lon="0.33845">
        <ele>137.6</ele>
        <time>2023-08-20T06:06:33Z</time>
      </trkpt>
      <trkpt lat="46.53544" lon="0.33845">
        <ele>137.8</ele>
        <time>2023-08-20T06:06:34Z</time>
      </trkpt>
      <trkpt lat="46.53548" lon="0.33846">
        <ele>138.8</ele>
        <time>2023-08-20T06:06:37Z</time>
      </trkpt>
      <trkpt lat="46.53553" lon="0.33847">
        <ele>140</ele>
        <time>2023-08-20T06:06:41Z</time>
      </trkpt>
      <trkpt lat="46.53558" lon="0.33848">
        <ele>140.8</ele>
        <time>2023-08-20T06:06:44Z</time>
      </trkpt>
      <trkpt lat="46.5356" lon="0.33848">
        <ele>141.2</ele>
        <time>2023-08-20T06:06:45Z</time>
      </trkpt>
      <trkpt lat="46.53566" lon="0.33848">
        <ele>142.2</ele>
        <time>2023-08-20T06:06:49Z</time>
      </trkpt>
      <trkpt lat="46.5357" lon="0.33846">
        <ele>142.8</ele>
        <time>2023-08-20T06:06:51Z</time>
      </trkpt>
      <trkpt lat="46.53571" lon="0.33845">
        <ele>143.2</ele>
        <time>2023-08-20T06:06:52Z</time>
      </trkpt>
      <trkpt lat="46.53577" lon="0.33839">
        <ele>144.4</ele>
        <time>2023-08-20T06:06:57Z</time>
      </trkpt>
      <trkpt lat="46.53578" lon="0.33837">
        <ele>144.6</ele>
        <time>2023-08-20T06:06:58Z</time>
      </trkpt>
      <trkpt lat="46.53583" lon="0.33822">
        <ele>145.6</ele>
        <time>2023-08-20T06:07:03Z</time>
      </trkpt>
      <trkpt lat="46.53585" lon="0.33811">
        <ele>146.2</ele>
        <time>2023-08-20T06:07:06Z</time>
      </trkpt>
      <trkpt lat="46.53587" lon="0.33795">
        <ele>146.6</ele>
        <time>2023-08-20T06:07:11Z</time>
      </trkpt>
      <trkpt lat="46.53589" lon="0.33789">
        <ele>147.6</ele>
        <time>2023-08-20T06:07:14Z</time>
      </trkpt>
      <trkpt lat="46.536" lon="0.33788">
        <ele>147.8</ele>
        <time>2023-08-20T06:07:18Z</time>
      </trkpt>
      <trkpt lat="46.53611" lon="0.33785">
        <ele>147.8</ele>
        <time>2023-08-20T06:07:22Z</time>
      </trkpt>
      <trkpt lat="46.53614" lon="0.3378">
        <ele>147.4</ele>
        <time>2023-08-20T06:07:24Z</time>
      </trkpt>
      <trkpt lat="46.53621" lon="0.33766">
        <ele>146.2</ele>
        <time>2023-08-20T06:07:27Z</time>
      </trkpt>
      <trkpt lat="46.53623" lon="0.3376">
        <ele>146</ele>
        <time>2023-08-20T06:07:28Z</time>
      </trkpt>
      <trkpt lat="46.53629" lon="0.33747">
        <ele>145.2</ele>
        <time>2023-08-20T06:07:30Z</time>
      </trkpt>
      <trkpt lat="46.53639" lon="0.33724">
        <ele>144.2</ele>
        <time>2023-08-20T06:07:33Z</time>
      </trkpt>
      <trkpt lat="46.53642" lon="0.33717">
        <ele>144</ele>
        <time>2023-08-20T06:07:34Z</time>
      </trkpt>
      <trkpt lat="46.53647" lon="0.33704">
        <ele>143.6</ele>
        <time>2023-08-20T06:07:36Z</time>
      </trkpt>
      <trkpt lat="46.53653" lon="0.33694">
        <ele>143.2</ele>
        <time>2023-08-20T06:07:38Z</time>
      </trkpt>
      <trkpt lat="46.53667" lon="0.33679">
        <ele>143</ele>
        <time>2023-08-20T06:07:42Z</time>
      </trkpt>
      <trkpt lat="46.53671" lon="0.33673">
        <ele>142.8</ele>
        <time>2023-08-20T06:07:43Z</time>
      </trkpt>
      <trkpt lat="46.53683" lon="0.33646">
        <ele>141.4</ele>
        <time>2023-08-20T06:07:47Z</time>
      </trkpt>
      <trkpt lat="46.5369" lon="0.33638">
        <ele>141</ele>
        <time>2023-08-20T06:07:48Z</time>
      </trkpt>
      <trkpt lat="46.53701" lon="0.33624">
        <ele>139.8</ele>
        <time>2023-08-20T06:07:50Z</time>
      </trkpt>
      <trkpt lat="46.53706" lon="0.33617">
        <ele>139.2</ele>
        <time>2023-08-20T06:07:51Z</time>
      </trkpt>
      <trkpt lat="46.53708" lon="0.33607">
        <ele>138.4</ele>
        <time>2023-08-20T06:07:53Z</time>
      </trkpt>
      <trkpt lat="46.53709" lon="0.33602">
        <ele>138.2</ele>
        <time>2023-08-20T06:07:54Z</time>
      </trkpt>
      <trkpt lat="46.53712" lon="0.33594">
        <ele>137.6</ele>
        <time>2023-08-20T06:07:57Z</time>
      </trkpt>
      <trkpt lat="46.53713" lon="0.33592">
        <ele>137.4</ele>
        <time>2023-08-20T06:07:58Z</time>
      </trkpt>
      <trkpt lat="46.53719" lon="0.33584">
        <ele>137.2</ele>
        <time>2023-08-20T06:08:02Z</time>
      </trkpt>
      <trkpt lat="46.53726" lon="0.33577">
        <ele>137.4</ele>
        <time>2023-08-20T06:08:05Z</time>
      </trkpt>
      <trkpt lat="46.53733" lon="0.33565">
        <ele>137.2</ele>
        <time>2023-08-20T06:08:11Z</time>
      </trkpt>
      <trkpt lat="46.5374" lon="0.33547">
        <ele>137.2</ele>
        <time>2023-08-20T06:08:18Z</time>
      </trkpt>
      <trkpt lat="46.53747" lon="0.3352">
        <ele>137.6</ele>
        <time>2023-08-20T06:08:28Z</time>
      </trkpt>
      <trkpt lat="46.5375" lon="0.33512">
        <ele>137.4</ele>
        <time>2023-08-20T06:08:35Z</time>
      </trkpt>
      <trkpt lat="46.53753" lon="0.33506">
        <ele>137.4</ele>
        <time>2023-08-20T06:08:50Z</time>
      </trkpt>
      <trkpt lat="46.53755" lon="0.335">
        <ele>137</ele>
        <time>2023-08-20T06:09:05Z</time>
      </trkpt>
      <trkpt lat="46.53761" lon="0.3348">
        <ele>136.6</ele>
        <time>2023-08-20T06:09:11Z</time>
      </trkpt>
      <trkpt lat="46.53763" lon="0.33471">
        <ele>136.4</ele>
        <time>2023-08-20T06:09:13Z</time>
      </trkpt>
      <trkpt lat="46.53767" lon="0.3346">
        <ele>135.8</ele>
        <time>2023-08-20T06:09:16Z</time>
      </trkpt>
      <trkpt lat="46.5377" lon="0.33452">
        <ele>135.8</ele>
        <time>2023-08-20T06:09:18Z</time>
      </trkpt>
      <trkpt lat="46.53772" lon="0.33444">
        <ele>135.4</ele>
        <time>2023-08-20T06:09:20Z</time>
      </trkpt>
      <trkpt lat="46.53777" lon="0.33429">
        <ele>135.2</ele>
        <time>2023-08-20T06:09:23Z</time>
      </trkpt>
      <trkpt lat="46.53778" lon="0.33424">
        <ele>135</ele>
        <time>2023-08-20T06:09:24Z</time>
      </trkpt>
      <trkpt lat="46.5378" lon="0.33414">
        <ele>134.8</ele>
        <time>2023-08-20T06:09:26Z</time>
      </trkpt>
      <trkpt lat="46.53787" lon="0.33386">
        <ele>134.2</ele>
        <time>2023-08-20T06:09:30Z</time>
      </trkpt>
      <trkpt lat="46.53789" lon="0.33379">
        <ele>134.2</ele>
        <time>2023-08-20T06:09:31Z</time>
      </trkpt>
      <trkpt lat="46.53795" lon="0.3336">
        <ele>133.2</ele>
        <time>2023-08-20T06:09:34Z</time>
      </trkpt>
      <trkpt lat="46.53799" lon="0.33346">
        <ele>132.6</ele>
        <time>2023-08-20T06:09:37Z</time>
      </trkpt>
      <trkpt lat="46.53799" lon="0.33339">
        <ele>132.6</ele>
        <time>2023-08-20T06:09:38Z</time>
      </trkpt>
      <trkpt lat="46.53803" lon="0.33328">
        <ele>132.2</ele>
        <time>2023-08-20T06:09:40Z</time>
      </trkpt>
      <trkpt lat="46.53807" lon="0.33314">
        <ele>131.6</ele>
        <time>2023-08-20T06:09:42Z</time>
      </trkpt>
      <trkpt lat="46.5381" lon="0.33307">
        <ele>130.8</ele>
        <time>2023-08-20T06:09:43Z</time>
      </trkpt>
      <trkpt lat="46.53816" lon="0.3329">
        <ele>129.6</ele>
        <time>2023-08-20T06:09:46Z</time>
      </trkpt>
      <trkpt lat="46.53823" lon="0.33268">
        <ele>128.6</ele>
        <time>2023-08-20T06:09:51Z</time>
      </trkpt>
      <trkpt lat="46.53824" lon="0.3326">
        <ele>128.2</ele>
        <time>2023-08-20T06:09:53Z</time>
      </trkpt>
      <trkpt lat="46.53831" lon="0.33248">
        <ele>128</ele>
        <time>2023-08-20T06:09:57Z</time>
      </trkpt>
      <trkpt lat="46.53833" lon="0.33245">
        <ele>127.8</ele>
        <time>2023-08-20T06:09:59Z</time>
      </trkpt>
      <trkpt lat="46.53833" lon="0.33245">
        <ele>127.8</ele>
        <time>2023-08-20T06:10:01Z</time>
      </trkpt>
      <trkpt lat="46.53836" lon="0.33245">
        <ele>128.4</ele>
        <time>2023-08-20T06:10:05Z</time>
      </trkpt>
      <trkpt lat="46.5383" lon="0.33239">
        <ele>129.8</ele>
        <time>2023-08-20T06:10:10Z</time>
      </trkpt>
      <trkpt lat="46.53825" lon="0.33234">
        <ele>131</ele>
        <time>2023-08-20T06:10:14Z</time>
      </trkpt>
      <trkpt lat="46.53824" lon="0.33231">
        <ele>131.6</ele>
        <time>2023-08-20T06:10:16Z</time>
      </trkpt>
      <trkpt lat="46.53822" lon="0.3323">
        <ele>132</ele>
        <time>2023-08-20T06:10:17Z</time>
      </trkpt>
      <trkpt lat="46.53818" lon="0.33225">
        <ele>133.2</ele>
        <time>2023-08-20T06:10:21Z</time>
      </trkpt>
      <trkpt lat="46.53815" lon="0.33223">
        <ele>134.2</ele>
        <time>2023-08-20T06:10:24Z</time>
      </trkpt>
      <trkpt lat="46.53813" lon="0.33222">
        <ele>135.4</ele>
        <time>2023-08-20T06:10:26Z</time>
      </trkpt>
      <trkpt lat="46.5381" lon="0.3322">
        <ele>136.6</ele>
        <time>2023-08-20T06:10:29Z</time>
      </trkpt>
      <trkpt lat="46.53807" lon="0.33218">
        <ele>138</ele>
        <time>2023-08-20T06:10:33Z</time>
      </trkpt>
      <trkpt lat="46.53804" lon="0.33216">
        <ele>139.6</ele>
        <time>2023-08-20T06:10:36Z</time>
      </trkpt>
      <trkpt lat="46.538" lon="0.33213">
        <ele>140.6</ele>
        <time>2023-08-20T06:10:40Z</time>
      </trkpt>
      <trkpt lat="46.53797" lon="0.3321">
        <ele>141.6</ele>
        <time>2023-08-20T06:10:43Z</time>
      </trkpt>
      <trkpt lat="46.53793" lon="0.33209">
        <ele>143</ele>
        <time>2023-08-20T06:10:46Z</time>
      </trkpt>
      <trkpt lat="46.5379" lon="0.33208">
        <ele>144</ele>
        <time>2023-08-20T06:10:49Z</time>
      </trkpt>
      <trkpt lat="46.53789" lon="0.33208">
        <ele>144.2</ele>
        <time>2023-08-20T06:10:50Z</time>
      </trkpt>
      <trkpt lat="46.53786" lon="0.33206">
        <ele>145</ele>
        <time>2023-08-20T06:10:54Z</time>
      </trkpt>
      <trkpt lat="46.53779" lon="0.33202">
        <ele>146.4</ele>
        <time>2023-08-20T06:11:02Z</time>
      </trkpt>
      <trkpt lat="46.53778" lon="0.33201">
        <ele>146.8</ele>
        <time>2023-08-20T06:11:04Z</time>
      </trkpt>
      <trkpt lat="46.53775" lon="0.33198">
        <ele>147.6</ele>
        <time>2023-08-20T06:11:08Z</time>
      </trkpt>
      <trkpt lat="46.53771" lon="0.33196">
        <ele>148.6</ele>
        <time>2023-08-20T06:11:14Z</time>
      </trkpt>
      <trkpt lat="46.53768" lon="0.33195">
        <ele>149.2</ele>
        <time>2023-08-20T06:11:19Z</time>
      </trkpt>
      <trkpt lat="46.53767" lon="0.33195">
        <ele>149.4</ele>
        <time>2023-08-20T06:11:20Z</time>
      </trkpt>
      <trkpt lat="46.53765" lon="0.33195">
        <ele>149.8</ele>
        <time>2023-08-20T06:11:23Z</time>
      </trkpt>
      <trkpt lat="46.53763" lon="0.33196">
        <ele>150.2</ele>
        <time>2023-08-20T06:11:25Z</time>
      </trkpt>
      <trkpt lat="46.53761" lon="0.33196">
        <ele>150.8</ele>
        <time>2023-08-20T06:11:27Z</time>
      </trkpt>
      <trkpt lat="46.53759" lon="0.33196">
        <ele>151.2</ele>
        <time>2023-08-20T06:11:30Z</time>
      </trkpt>
      <trkpt lat="46.53758" lon="0.33195">
        <ele>151.6</ele>
        <time>2023-08-20T06:11:31Z</time>
      </trkpt>
      <trkpt lat="46.53757" lon="0.33195">
        <ele>152</ele>
        <time>2023-08-20T06:11:33Z</time>
      </trkpt>
      <trkpt lat="46.53757" lon="0.33195">
        <ele>152.2</ele>
        <time>2023-08-20T06:11:35Z</time>
      </trkpt>
      <trkpt lat="46.53756" lon="0.33193">
        <ele>152.6</ele>
        <time>2023-08-20T06:11:39Z</time>
      </trkpt>
      <trkpt lat="46.53756" lon="0.33192">
        <ele>153</ele>
        <time>2023-08-20T06:11:40Z</time>
      </trkpt>
      <trkpt lat="46.53755" lon="0.33191">
        <ele>153</ele>
        <time>2023-08-20T06:11:41Z</time>
      </trkpt>
      <trkpt lat="46.53751" lon="0.33189">
        <ele>154.4</ele>
        <time>2023-08-20T06:11:46Z</time>
      </trkpt>
      <trkpt lat="46.53748" lon="0.3319">
        <ele>154.8</ele>
        <time>2023-08-20T06:11:48Z</time>
      </trkpt>
      <trkpt lat="46.53747" lon="0.33191">
        <ele>155</ele>
        <time>2023-08-20T06:11:49Z</time>
      </trkpt>
      <trkpt lat="46.53743" lon="0.33193">
        <ele>155.4</ele>
        <time>2023-08-20T06:11:52Z</time>
      </trkpt>
      <trkpt lat="46.53742" lon="0.33195">
        <ele>155.4</ele>
        <time>2023-08-20T06:11:56Z</time>
      </trkpt>
      <trkpt lat="46.53736" lon="0.33195">
        <ele>155.4</ele>
        <time>2023-08-20T06:12:10Z</time>
      </trkpt>
      <trkpt lat="46.53737" lon="0.33194">
        <ele>155.6</ele>
        <time>2023-08-20T06:12:29Z</time>
      </trkpt>
      <trkpt lat="46.53738" lon="0.33199">
        <ele>155.6</ele>
        <time>2023-08-20T06:12:40Z</time>
      </trkpt>
      <trkpt lat="46.53731" lon="0.33201">
        <ele>156.2</ele>
        <time>2023-08-20T06:12:44Z</time>
      </trkpt>
      <trkpt lat="46.53728" lon="0.33202">
        <ele>156.6</ele>
        <time>2023-08-20T06:12:46Z</time>
      </trkpt>
      <trkpt lat="46.53713" lon="0.33214">
        <ele>157.6</ele>
        <time>2023-08-20T06:12:55Z</time>
      </trkpt>
      <trkpt lat="46.53711" lon="0.33215">
        <ele>157.8</ele>
        <time>2023-08-20T06:12:56Z</time>
      </trkpt>
      <trkpt lat="46.53704" lon="0.33224">
        <ele>158.8</ele>
        <time>2023-08-20T06:13:00Z</time>
      </trkpt>
      <trkpt lat="46.53701" lon="0.3323">
        <ele>159.2</ele>
        <time>2023-08-20T06:13:02Z</time>
      </trkpt>
      <trkpt lat="46.53689" lon="0.33246">
        <ele>159.6</ele>
        <time>2023-08-20T06:13:08Z</time>
      </trkpt>
      <trkpt lat="46.53684" lon="0.33252">
        <ele>159.8</ele>
        <time>2023-08-20T06:13:10Z</time>
      </trkpt>
      <trkpt lat="46.53674" lon="0.33263">
        <ele>160.4</ele>
        <time>2023-08-20T06:13:15Z</time>
      </trkpt>
      <trkpt lat="46.53663" lon="0.33273">
        <ele>160.8</ele>
        <time>2023-08-20T06:13:19Z</time>
      </trkpt>
      <trkpt lat="46.53658" lon="0.33278">
        <ele>161.2</ele>
        <time>2023-08-20T06:13:21Z</time>
      </trkpt>
      <trkpt lat="46.53644" lon="0.33293">
        <ele>162</ele>
        <time>2023-08-20T06:13:26Z</time>
      </trkpt>
      <trkpt lat="46.53639" lon="0.33302">
        <ele>162.2</ele>
        <time>2023-08-20T06:13:28Z</time>
      </trkpt>
      <trkpt lat="46.53626" lon="0.33313">
        <ele>162.6</ele>
        <time>2023-08-20T06:13:33Z</time>
      </trkpt>
      <trkpt lat="46.53606" lon="0.33317">
        <ele>162.6</ele>
        <time>2023-08-20T06:13:39Z</time>
      </trkpt>
      <trkpt lat="46.53592" lon="0.33318">
        <ele>163</ele>
        <time>2023-08-20T06:13:44Z</time>
      </trkpt>
      <trkpt lat="46.53591" lon="0.33318">
        <ele>163</ele>
        <time>2023-08-20T06:13:45Z</time>
      </trkpt>
      <trkpt lat="46.53589" lon="0.33319">
        <ele>163</ele>
        <time>2023-08-20T06:13:47Z</time>
      </trkpt>
      <trkpt lat="46.53588" lon="0.3332">
        <ele>162.6</ele>
        <time>2023-08-20T06:13:51Z</time>
      </trkpt>
      <trkpt lat="46.53581" lon="0.3332">
        <ele>162.4</ele>
        <time>2023-08-20T06:14:02Z</time>
      </trkpt>
      <trkpt lat="46.5357" lon="0.33314">
        <ele>162.6</ele>
        <time>2023-08-20T06:14:06Z</time>
      </trkpt>
      <trkpt lat="46.53553" lon="0.33299">
        <ele>163.2</ele>
        <time>2023-08-20T06:14:11Z</time>
      </trkpt>
      <trkpt lat="46.53547" lon="0.33293">
        <ele>163.2</ele>
        <time>2023-08-20T06:14:13Z</time>
      </trkpt>
      <trkpt lat="46.53529" lon="0.3328">
        <ele>163.2</ele>
        <time>2023-08-20T06:14:19Z</time>
      </trkpt>
      <trkpt lat="46.53513" lon="0.3327">
        <ele>163.4</ele>
        <time>2023-08-20T06:14:24Z</time>
      </trkpt>
      <trkpt lat="46.53506" lon="0.33266">
        <ele>163.4</ele>
        <time>2023-08-20T06:14:26Z</time>
      </trkpt>
      <trkpt lat="46.53496" lon="0.3326">
        <ele>163.6</ele>
        <time>2023-08-20T06:14:29Z</time>
      </trkpt>
      <trkpt lat="46.53482" lon="0.33249">
        <ele>163.4</ele>
        <time>2023-08-20T06:14:32Z</time>
      </trkpt>
      <trkpt lat="46.53473" lon="0.33238">
        <ele>163.6</ele>
        <time>2023-08-20T06:14:34Z</time>
      </trkpt>
      <trkpt lat="46.53468" lon="0.3323">
        <ele>163.6</ele>
        <time>2023-08-20T06:14:36Z</time>
      </trkpt>
      <trkpt lat="46.53467" lon="0.33225">
        <ele>163.8</ele>
        <time>2023-08-20T06:14:37Z</time>
      </trkpt>
      <trkpt lat="46.53467" lon="0.3322">
        <ele>164</ele>
        <time>2023-08-20T06:14:38Z</time>
      </trkpt>
      <trkpt lat="46.53466" lon="0.33212">
        <ele>164</ele>
        <time>2023-08-20T06:14:39Z</time>
      </trkpt>
      <trkpt lat="46.53466" lon="0.33205">
        <ele>164.2</ele>
        <time>2023-08-20T06:14:40Z</time>
      </trkpt>
      <trkpt lat="46.53468" lon="0.33182">
        <ele>164.6</ele>
        <time>2023-08-20T06:14:44Z</time>
      </trkpt>
      <trkpt lat="46.53472" lon="0.33165">
        <ele>164.8</ele>
        <time>2023-08-20T06:14:47Z</time>
      </trkpt>
      <trkpt lat="46.53472" lon="0.33161">
        <ele>164.8</ele>
        <time>2023-08-20T06:14:48Z</time>
      </trkpt>
      <trkpt lat="46.53473" lon="0.33155">
        <ele>164.6</ele>
        <time>2023-08-20T06:14:50Z</time>
      </trkpt>
      <trkpt lat="46.53473" lon="0.33154">
        <ele>164.6</ele>
        <time>2023-08-20T06:14:51Z</time>
      </trkpt>
      <trkpt lat="46.53476" lon="0.3315">
        <ele>164.4</ele>
        <time>2023-08-20T06:14:57Z</time>
      </trkpt>
      <trkpt lat="46.53475" lon="0.33151">
        <ele>164.6</ele>
        <time>2023-08-20T06:14:59Z</time>
      </trkpt>
      <trkpt lat="46.53475" lon="0.33152">
        <ele>164.4</ele>
        <time>2023-08-20T06:15:00Z</time>
      </trkpt>
      <trkpt lat="46.53465" lon="0.33163">
        <ele>164.4</ele>
        <time>2023-08-20T06:15:06Z</time>
      </trkpt>
      <trkpt lat="46.5346" lon="0.33168">
        <ele>164.2</ele>
        <time>2023-08-20T06:15:08Z</time>
      </trkpt>
      <trkpt lat="46.53453" lon="0.33165">
        <ele>164</ele>
        <time>2023-08-20T06:15:10Z</time>
      </trkpt>
      <trkpt lat="46.53449" lon="0.33158">
        <ele>164</ele>
        <time>2023-08-20T06:15:12Z</time>
      </trkpt>
      <trkpt lat="46.53446" lon="0.3315">
        <ele>164.2</ele>
        <time>2023-08-20T06:15:14Z</time>
      </trkpt>
      <trkpt lat="46.5344" lon="0.3314">
        <ele>163.6</ele>
        <time>2023-08-20T06:15:17Z</time>
      </trkpt>
      <trkpt lat="46.5344" lon="0.33137">
        <ele>162.8</ele>
        <time>2023-08-20T06:15:18Z</time>
      </trkpt>
      <trkpt lat="46.5344" lon="0.33135">
        <ele>162.2</ele>
        <time>2023-08-20T06:15:19Z</time>
      </trkpt>
      <trkpt lat="46.5344" lon="0.33129">
        <ele>161.4</ele>
        <time>2023-08-20T06:15:21Z</time>
      </trkpt>
      <trkpt lat="46.53439" lon="0.33123">
        <ele>161.2</ele>
        <time>2023-08-20T06:15:23Z</time>
      </trkpt>
      <trkpt lat="46.53437" lon="0.33117">
        <ele>161.4</ele>
        <time>2023-08-20T06:15:25Z</time>
      </trkpt>
      <trkpt lat="46.53434" lon="0.33111">
        <ele>161.8</ele>
        <time>2023-08-20T06:15:27Z</time>
      </trkpt>
      <trkpt lat="46.53428" lon="0.33108">
        <ele>162</ele>
        <time>2023-08-20T06:15:30Z</time>
      </trkpt>
      <trkpt lat="46.53417" lon="0.331">
        <ele>162.6</ele>
        <time>2023-08-20T06:15:33Z</time>
      </trkpt>
      <trkpt lat="46.53403" lon="0.33091">
        <ele>163.4</ele>
        <time>2023-08-20T06:15:36Z</time>
      </trkpt>
      <trkpt lat="46.53401" lon="0.33089">
        <ele>163.6</ele>
        <time>2023-08-20T06:15:37Z</time>
      </trkpt>
      <trkpt lat="46.53396" lon="0.33081">
        <ele>164.6</ele>
        <time>2023-08-20T06:15:40Z</time>
      </trkpt>
      <trkpt lat="46.53395" lon="0.33079">
        <ele>165.4</ele>
        <time>2023-08-20T06:15:41Z</time>
      </trkpt>
      <trkpt lat="46.53394" lon="0.33075">
        <ele>166.2</ele>
        <time>2023-08-20T06:15:42Z</time>
      </trkpt>
      <trkpt lat="46.53392" lon="0.33068">
        <ele>167</ele>
        <time>2023-08-20T06:15:44Z</time>
      </trkpt>
      <trkpt lat="46.53391" lon="0.33064">
        <ele>167.4</ele>
        <time>2023-08-20T06:15:45Z</time>
      </trkpt>
      <trkpt lat="46.53388" lon="0.33057">
        <ele>167.8</ele>
        <time>2023-08-20T06:15:47Z</time>
      </trkpt>
      <trkpt lat="46.53384" lon="0.3305">
        <ele>168.4</ele>
        <time>2023-08-20T06:15:49Z</time>
      </trkpt>
      <trkpt lat="46.53384" lon="0.33046">
        <ele>169</ele>
        <time>2023-08-20T06:15:50Z</time>
      </trkpt>
      <trkpt lat="46.53383" lon="0.33038">
        <ele>169.4</ele>
        <time>2023-08-20T06:15:52Z</time>
      </trkpt>
      <trkpt lat="46.53383" lon="0.33033">
        <ele>169.8</ele>
        <time>2023-08-20T06:15:53Z</time>
      </trkpt>
      <trkpt lat="46.53376" lon="0.33012">
        <ele>170.6</ele>
        <time>2023-08-20T06:15:59Z</time>
      </trkpt>
      <trkpt lat="46.53372" lon="0.33004">
        <ele>171.2</ele>
        <time>2023-08-20T06:16:01Z</time>
      </trkpt>
      <trkpt lat="46.53366" lon="0.33">
        <ele>171.4</ele>
        <time>2023-08-20T06:16:03Z</time>
      </trkpt>
      <trkpt lat="46.5335" lon="0.33">
        <ele>171.4</ele>
        <time>2023-08-20T06:16:08Z</time>
      </trkpt>
      <trkpt lat="46.53347" lon="0.33001">
        <ele>171.4</ele>
        <time>2023-08-20T06:16:09Z</time>
      </trkpt>
      <trkpt lat="46.53342" lon="0.33004">
        <ele>171.4</ele>
        <time>2023-08-20T06:16:11Z</time>
      </trkpt>
      <trkpt lat="46.53338" lon="0.33007">
        <ele>171.6</ele>
        <time>2023-08-20T06:16:13Z</time>
      </trkpt>
      <trkpt lat="46.53336" lon="0.33008">
        <ele>171.8</ele>
        <time>2023-08-20T06:16:14Z</time>
      </trkpt>
      <trkpt lat="46.53333" lon="0.33009">
        <ele>171.8</ele>
        <time>2023-08-20T06:16:15Z</time>
      </trkpt>
      <trkpt lat="46.53322" lon="0.33011">
        <ele>171.8</ele>
        <time>2023-08-20T06:16:18Z</time>
      </trkpt>
      <trkpt lat="46.53315" lon="0.33014">
        <ele>171.8</ele>
        <time>2023-08-20T06:16:20Z</time>
      </trkpt>
      <trkpt lat="46.53303" lon="0.33016">
        <ele>171.8</ele>
        <time>2023-08-20T06:16:23Z</time>
      </trkpt>
      <trkpt lat="46.53298" lon="0.33019">
        <ele>171.8</ele>
        <time>2023-08-20T06:16:24Z</time>
      </trkpt>
      <trkpt lat="46.53288" lon="0.3302">
        <ele>171.8</ele>
        <time>2023-08-20T06:16:26Z</time>
      </trkpt>
      <trkpt lat="46.53284" lon="0.3302">
        <ele>171.8</ele>
        <time>2023-08-20T06:16:27Z</time>
      </trkpt>
      <trkpt lat="46.5328" lon="0.33019">
        <ele>171.6</ele>
        <time>2023-08-20T06:16:28Z</time>
      </trkpt>
      <trkpt lat="46.53273" lon="0.33015">
        <ele>171.8</ele>
        <time>2023-08-20T06:16:30Z</time>
      </trkpt>
      <trkpt lat="46.53265" lon="0.33012">
        <ele>171.8</ele>
        <time>2023-08-20T06:16:32Z</time>
      </trkpt>
      <trkpt lat="46.53256" lon="0.33012">
        <ele>171.8</ele>
        <time>2023-08-20T06:16:34Z</time>
      </trkpt>
      <trkpt lat="46.53244" lon="0.33015">
        <ele>172</ele>
        <time>2023-08-20T06:16:37Z</time>
      </trkpt>
      <trkpt lat="46.53218" lon="0.3302">
        <ele>171.8</ele>
        <time>2023-08-20T06:16:42Z</time>
      </trkpt>
      <trkpt lat="46.5321" lon="0.33019">
        <ele>171.8</ele>
        <time>2023-08-20T06:16:44Z</time>
      </trkpt>
      <trkpt lat="46.53208" lon="0.33017">
        <ele>171.8</ele>
        <time>2023-08-20T06:16:45Z</time>
      </trkpt>
      <trkpt lat="46.53206" lon="0.33014">
        <ele>171.8</ele>
        <time>2023-08-20T06:16:46Z</time>
      </trkpt>
      <trkpt lat="46.53202" lon="0.33001">
        <ele>171.4</ele>
        <time>2023-08-20T06:16:49Z</time>
      </trkpt>
      <trkpt lat="46.53201" lon="0.32996">
        <ele>171.2</ele>
        <time>2023-08-20T06:16:50Z</time>
      </trkpt>
      <trkpt lat="46.532" lon="0.32986">
        <ele>171</ele>
        <time>2023-08-20T06:16:52Z</time>
      </trkpt>
      <trkpt lat="46.532" lon="0.32975">
        <ele>170.8</ele>
        <time>2023-08-20T06:16:54Z</time>
      </trkpt>
      <trkpt lat="46.53199" lon="0.32967">
        <ele>170.8</ele>
        <time>2023-08-20T06:16:55Z</time>
      </trkpt>
      <trkpt lat="46.53199" lon="0.32961">
        <ele>170.6</ele>
        <time>2023-08-20T06:16:56Z</time>
      </trkpt>
      <trkpt lat="46.53201" lon="0.32939">
        <ele>170.2</ele>
        <time>2023-08-20T06:17:00Z</time>
      </trkpt>
      <trkpt lat="46.53214" lon="0.32919">
        <ele>170.6</ele>
        <time>2023-08-20T06:17:06Z</time>
      </trkpt>
      <trkpt lat="46.53217" lon="0.32914">
        <ele>170.8</ele>
        <time>2023-08-20T06:17:08Z</time>
      </trkpt>
      <trkpt lat="46.53219" lon="0.32908">
        <ele>171</ele>
        <time>2023-08-20T06:17:10Z</time>
      </trkpt>
      <trkpt lat="46.53223" lon="0.32904">
        <ele>171.4</ele>
        <time>2023-08-20T06:17:12Z</time>
      </trkpt>
      <trkpt lat="46.53241" lon="0.32889">
        <ele>171.6</ele>
        <time>2023-08-20T06:17:17Z</time>
      </trkpt>
      <trkpt lat="46.53244" lon="0.32886">
        <ele>171.6</ele>
        <time>2023-08-20T06:17:18Z</time>
      </trkpt>
      <trkpt lat="46.53249" lon="0.32881">
        <ele>171.8</ele>
        <time>2023-08-20T06:17:20Z</time>
      </trkpt>
      <trkpt lat="46.53259" lon="0.32874">
        <ele>172.2</ele>
        <time>2023-08-20T06:17:23Z</time>
      </trkpt>
      <trkpt lat="46.5327" lon="0.32866">
        <ele>172.2</ele>
        <time>2023-08-20T06:17:26Z</time>
      </trkpt>
      <trkpt lat="46.53275" lon="0.32858">
        <ele>172.4</ele>
        <time>2023-08-20T06:17:28Z</time>
      </trkpt>
      <trkpt lat="46.53278" lon="0.32852">
        <ele>172.4</ele>
        <time>2023-08-20T06:17:29Z</time>
      </trkpt>
      <trkpt lat="46.53281" lon="0.32845">
        <ele>172.2</ele>
        <time>2023-08-20T06:17:30Z</time>
      </trkpt>
      <trkpt lat="46.53296" lon="0.32824">
        <ele>172</ele>
        <time>2023-08-20T06:17:33Z</time>
      </trkpt>
      <trkpt lat="46.53305" lon="0.32786">
        <ele>171.8</ele>
        <time>2023-08-20T06:17:40Z</time>
      </trkpt>
      <trkpt lat="46.53306" lon="0.3278">
        <ele>171.6</ele>
        <time>2023-08-20T06:17:41Z</time>
      </trkpt>
      <trkpt lat="46.53304" lon="0.32771">
        <ele>171.4</ele>
        <time>2023-08-20T06:17:43Z</time>
      </trkpt>
      <trkpt lat="46.53302" lon="0.3276">
        <ele>171</ele>
        <time>2023-08-20T06:17:45Z</time>
      </trkpt>
      <trkpt lat="46.533" lon="0.32757">
        <ele>171</ele>
        <time>2023-08-20T06:17:46Z</time>
      </trkpt>
      <trkpt lat="46.53296" lon="0.32755">
        <ele>171</ele>
        <time>2023-08-20T06:17:47Z</time>
      </trkpt>
      <trkpt lat="46.53288" lon="0.32756">
        <ele>171</ele>
        <time>2023-08-20T06:17:49Z</time>
      </trkpt>
      <trkpt lat="46.53271" lon="0.32756">
        <ele>171.2</ele>
        <time>2023-08-20T06:17:53Z</time>
      </trkpt>
      <trkpt lat="46.53263" lon="0.32753">
        <ele>171.2</ele>
        <time>2023-08-20T06:17:55Z</time>
      </trkpt>
      <trkpt lat="46.53254" lon="0.3275">
        <ele>171.4</ele>
        <time>2023-08-20T06:17:57Z</time>
      </trkpt>
      <trkpt lat="46.53244" lon="0.32751">
        <ele>171.4</ele>
        <time>2023-08-20T06:17:59Z</time>
      </trkpt>
      <trkpt lat="46.53209" lon="0.32755">
        <ele>171</ele>
        <time>2023-08-20T06:18:06Z</time>
      </trkpt>
      <trkpt lat="46.53203" lon="0.32756">
        <ele>171.2</ele>
        <time>2023-08-20T06:18:07Z</time>
      </trkpt>
      <trkpt lat="46.53183" lon="0.32764">
        <ele>171.4</ele>
        <time>2023-08-20T06:18:11Z</time>
      </trkpt>
      <trkpt lat="46.53179" lon="0.32766">
        <ele>171.4</ele>
        <time>2023-08-20T06:18:12Z</time>
      </trkpt>
      <trkpt lat="46.53175" lon="0.32768">
        <ele>171.4</ele>
        <time>2023-08-20T06:18:13Z</time>
      </trkpt>
      <trkpt lat="46.53156" lon="0.32776">
        <ele>171.8</ele>
        <time>2023-08-20T06:18:17Z</time>
      </trkpt>
      <trkpt lat="46.53151" lon="0.32778">
        <ele>171.8</ele>
        <time>2023-08-20T06:18:18Z</time>
      </trkpt>
      <trkpt lat="46.53137" lon="0.32784">
        <ele>172</ele>
        <time>2023-08-20T06:18:21Z</time>
      </trkpt>
      <trkpt lat="46.53127" lon="0.32786">
        <ele>172.2</ele>
        <time>2023-08-20T06:18:23Z</time>
      </trkpt>
      <trkpt lat="46.5312" lon="0.32791">
        <ele>172.6</ele>
        <time>2023-08-20T06:18:25Z</time>
      </trkpt>
      <trkpt lat="46.53117" lon="0.32794">
        <ele>172.8</ele>
        <time>2023-08-20T06:18:26Z</time>
      </trkpt>
      <trkpt lat="46.53114" lon="0.32797">
        <ele>172.8</ele>
        <time>2023-08-20T06:18:27Z</time>
      </trkpt>
      <trkpt lat="46.53109" lon="0.328">
        <ele>172.8</ele>
        <time>2023-08-20T06:18:28Z</time>
      </trkpt>
      <trkpt lat="46.53095" lon="0.32809">
        <ele>172.8</ele>
        <time>2023-08-20T06:18:31Z</time>
      </trkpt>
      <trkpt lat="46.53059" lon="0.32826">
        <ele>172.8</ele>
        <time>2023-08-20T06:18:38Z</time>
      </trkpt>
      <trkpt lat="46.53029" lon="0.3284">
        <ele>173</ele>
        <time>2023-08-20T06:18:43Z</time>
      </trkpt>
      <trkpt lat="46.53023" lon="0.32843">
        <ele>173.2</ele>
        <time>2023-08-20T06:18:44Z</time>
      </trkpt>
      <trkpt lat="46.52981" lon="0.32861">
        <ele>173</ele>
        <time>2023-08-20T06:18:51Z</time>
      </trkpt>
      <trkpt lat="46.52948" lon="0.32875">
        <ele>172.4</ele>
        <time>2023-08-20T06:18:56Z</time>
      </trkpt>
      <trkpt lat="46.52923" lon="0.32885">
        <ele>171.6</ele>
        <time>2023-08-20T06:19:00Z</time>
      </trkpt>
      <trkpt lat="46.5291" lon="0.32889">
        <ele>171</ele>
        <time>2023-08-20T06:19:02Z</time>
      </trkpt>
      <trkpt lat="46.52891" lon="0.32893">
        <ele>170.2</ele>
        <time>2023-08-20T06:19:05Z</time>
      </trkpt>
      <trkpt lat="46.52883" lon="0.32892">
        <ele>170</ele>
        <time>2023-08-20T06:19:07Z</time>
      </trkpt>
      <trkpt lat="46.52878" lon="0.32887">
        <ele>169.6</ele>
        <time>2023-08-20T06:19:09Z</time>
      </trkpt>
      <trkpt lat="46.52874" lon="0.32882">
        <ele>169.6</ele>
        <time>2023-08-20T06:19:11Z</time>
      </trkpt>
      <trkpt lat="46.52866" lon="0.32869">
        <ele>169.8</ele>
        <time>2023-08-20T06:19:14Z</time>
      </trkpt>
      <trkpt lat="46.52863" lon="0.32858">
        <ele>170.4</ele>
        <time>2023-08-20T06:19:16Z</time>
      </trkpt>
      <trkpt lat="46.52862" lon="0.32852">
        <ele>170.8</ele>
        <time>2023-08-20T06:19:17Z</time>
      </trkpt>
      <trkpt lat="46.5286" lon="0.3284">
        <ele>171</ele>
        <time>2023-08-20T06:19:19Z</time>
      </trkpt>
      <trkpt lat="46.52858" lon="0.32821">
        <ele>171.2</ele>
        <time>2023-08-20T06:19:22Z</time>
      </trkpt>
      <trkpt lat="46.52855" lon="0.32811">
        <ele>171.4</ele>
        <time>2023-08-20T06:19:24Z</time>
      </trkpt>
      <trkpt lat="46.52852" lon="0.32805">
        <ele>171.6</ele>
        <time>2023-08-20T06:19:25Z</time>
      </trkpt>
      <trkpt lat="46.52846" lon="0.32798">
        <ele>171.6</ele>
        <time>2023-08-20T06:19:27Z</time>
      </trkpt>
      <trkpt lat="46.52826" lon="0.3279">
        <ele>171.4</ele>
        <time>2023-08-20T06:19:31Z</time>
      </trkpt>
      <trkpt lat="46.5282" lon="0.32789">
        <ele>171.2</ele>
        <time>2023-08-20T06:19:32Z</time>
      </trkpt>
      <trkpt lat="46.52815" lon="0.32786">
        <ele>171.2</ele>
        <time>2023-08-20T06:19:33Z</time>
      </trkpt>
      <trkpt lat="46.52788" lon="0.32765">
        <ele>170.4</ele>
        <time>2023-08-20T06:19:37Z</time>
      </trkpt>
      <trkpt lat="46.52772" lon="0.32747">
        <ele>170</ele>
        <time>2023-08-20T06:19:40Z</time>
      </trkpt>
      <trkpt lat="46.52764" lon="0.32732">
        <ele>169.8</ele>
        <time>2023-08-20T06:19:42Z</time>
      </trkpt>
      <trkpt lat="46.52761" lon="0.32716">
        <ele>169.6</ele>
        <time>2023-08-20T06:19:44Z</time>
      </trkpt>
      <trkpt lat="46.52758" lon="0.327">
        <ele>169.4</ele>
        <time>2023-08-20T06:19:46Z</time>
      </trkpt>
      <trkpt lat="46.52757" lon="0.32691">
        <ele>169.2</ele>
        <time>2023-08-20T06:19:47Z</time>
      </trkpt>
      <trkpt lat="46.52751" lon="0.32658">
        <ele>169</ele>
        <time>2023-08-20T06:19:51Z</time>
      </trkpt>
      <trkpt lat="46.52747" lon="0.32635">
        <ele>169</ele>
        <time>2023-08-20T06:19:54Z</time>
      </trkpt>
      <trkpt lat="46.52739" lon="0.32617">
        <ele>169</ele>
        <time>2023-08-20T06:19:56Z</time>
      </trkpt>
      <trkpt lat="46.52726" lon="0.32614">
        <ele>168.6</ele>
        <time>2023-08-20T06:19:59Z</time>
      </trkpt>
      <trkpt lat="46.52722" lon="0.32612">
        <ele>168.4</ele>
        <time>2023-08-20T06:20:00Z</time>
      </trkpt>
      <trkpt lat="46.52717" lon="0.3261">
        <ele>168.2</ele>
        <time>2023-08-20T06:20:01Z</time>
      </trkpt>
      <trkpt lat="46.52713" lon="0.32607">
        <ele>168</ele>
        <time>2023-08-20T06:20:02Z</time>
      </trkpt>
      <trkpt lat="46.52708" lon="0.32603">
        <ele>167.8</ele>
        <time>2023-08-20T06:20:03Z</time>
      </trkpt>
      <trkpt lat="46.52698" lon="0.32592">
        <ele>167.8</ele>
        <time>2023-08-20T06:20:05Z</time>
      </trkpt>
      <trkpt lat="46.52678" lon="0.32582">
        <ele>167.8</ele>
        <time>2023-08-20T06:20:08Z</time>
      </trkpt>
      <trkpt lat="46.52661" lon="0.32576">
        <ele>167.8</ele>
        <time>2023-08-20T06:20:11Z</time>
      </trkpt>
      <trkpt lat="46.52652" lon="0.32571">
        <ele>167.6</ele>
        <time>2023-08-20T06:20:13Z</time>
      </trkpt>
      <trkpt lat="46.5264" lon="0.32561">
        <ele>166.8</ele>
        <time>2023-08-20T06:20:16Z</time>
      </trkpt>
      <trkpt lat="46.5263" lon="0.32556">
        <ele>166.6</ele>
        <time>2023-08-20T06:20:18Z</time>
      </trkpt>
      <trkpt lat="46.52625" lon="0.32554">
        <ele>166.6</ele>
        <time>2023-08-20T06:20:19Z</time>
      </trkpt>
      <trkpt lat="46.52606" lon="0.32537">
        <ele>166.8</ele>
        <time>2023-08-20T06:20:23Z</time>
      </trkpt>
      <trkpt lat="46.52601" lon="0.32532">
        <ele>166.8</ele>
        <time>2023-08-20T06:20:24Z</time>
      </trkpt>
      <trkpt lat="46.52583" lon="0.32505">
        <ele>166.8</ele>
        <time>2023-08-20T06:20:28Z</time>
      </trkpt>
      <trkpt lat="46.52559" lon="0.32464">
        <ele>166.6</ele>
        <time>2023-08-20T06:20:35Z</time>
      </trkpt>
      <trkpt lat="46.52557" lon="0.32458">
        <ele>166.8</ele>
        <time>2023-08-20T06:20:36Z</time>
      </trkpt>
      <trkpt lat="46.52551" lon="0.32444">
        <ele>167</ele>
        <time>2023-08-20T06:20:38Z</time>
      </trkpt>
      <trkpt lat="46.52549" lon="0.32437">
        <ele>167.2</ele>
        <time>2023-08-20T06:20:39Z</time>
      </trkpt>
      <trkpt lat="46.52547" lon="0.3243">
        <ele>167.4</ele>
        <time>2023-08-20T06:20:40Z</time>
      </trkpt>
      <trkpt lat="46.52547" lon="0.32417">
        <ele>168</ele>
        <time>2023-08-20T06:20:42Z</time>
      </trkpt>
      <trkpt lat="46.52546" lon="0.32411">
        <ele>168.2</ele>
        <time>2023-08-20T06:20:43Z</time>
      </trkpt>
      <trkpt lat="46.52549" lon="0.32381">
        <ele>169.4</ele>
        <time>2023-08-20T06:20:49Z</time>
      </trkpt>
      <trkpt lat="46.5255" lon="0.32378">
        <ele>169.6</ele>
        <time>2023-08-20T06:20:50Z</time>
      </trkpt>
      <trkpt lat="46.52553" lon="0.32364">
        <ele>170.2</ele>
        <time>2023-08-20T06:20:54Z</time>
      </trkpt>
      <trkpt lat="46.52554" lon="0.32361">
        <ele>170.4</ele>
        <time>2023-08-20T06:20:55Z</time>
      </trkpt>
      <trkpt lat="46.5256" lon="0.32347">
        <ele>171</ele>
        <time>2023-08-20T06:21:00Z</time>
      </trkpt>
      <trkpt lat="46.52562" lon="0.32345">
        <ele>171.2</ele>
        <time>2023-08-20T06:21:01Z</time>
      </trkpt>
      <trkpt lat="46.52564" lon="0.32341">
        <ele>171.4</ele>
        <time>2023-08-20T06:21:02Z</time>
      </trkpt>
      <trkpt lat="46.5257" lon="0.3233">
        <ele>172</ele>
        <time>2023-08-20T06:21:05Z</time>
      </trkpt>
      <trkpt lat="46.52575" lon="0.32314">
        <ele>172.4</ele>
        <time>2023-08-20T06:21:10Z</time>
      </trkpt>
      <trkpt lat="46.52575" lon="0.32311">
        <ele>172.6</ele>
        <time>2023-08-20T06:21:11Z</time>
      </trkpt>
      <trkpt lat="46.52577" lon="0.32308">
        <ele>172.6</ele>
        <time>2023-08-20T06:21:12Z</time>
      </trkpt>
      <trkpt lat="46.52582" lon="0.32295">
        <ele>172.6</ele>
        <time>2023-08-20T06:21:16Z</time>
      </trkpt>
      <trkpt lat="46.52581" lon="0.32293">
        <ele>172.6</ele>
        <time>2023-08-20T06:21:17Z</time>
      </trkpt>
      <trkpt lat="46.5257" lon="0.32288">
        <ele>172.8</ele>
        <time>2023-08-20T06:21:22Z</time>
      </trkpt>
      <trkpt lat="46.52563" lon="0.32284">
        <ele>172.8</ele>
        <time>2023-08-20T06:21:25Z</time>
      </trkpt>
      <trkpt lat="46.5256" lon="0.3228">
        <ele>173.2</ele>
        <time>2023-08-20T06:21:27Z</time>
      </trkpt>
      <trkpt lat="46.5256" lon="0.32274">
        <ele>173.2</ele>
        <time>2023-08-20T06:21:29Z</time>
      </trkpt>
      <trkpt lat="46.5256" lon="0.32267">
        <ele>173.2</ele>
        <time>2023-08-20T06:21:31Z</time>
      </trkpt>
      <trkpt lat="46.52559" lon="0.32263">
        <ele>173.4</ele>
        <time>2023-08-20T06:21:32Z</time>
      </trkpt>
      <trkpt lat="46.52557" lon="0.32256">
        <ele>173.6</ele>
        <time>2023-08-20T06:21:34Z</time>
      </trkpt>
      <trkpt lat="46.52552" lon="0.32251">
        <ele>173.8</ele>
        <time>2023-08-20T06:21:36Z</time>
      </trkpt>
      <trkpt lat="46.52544" lon="0.32241">
        <ele>174.2</ele>
        <time>2023-08-20T06:21:39Z</time>
      </trkpt>
      <trkpt lat="46.52536" lon="0.32234">
        <ele>174.2</ele>
        <time>2023-08-20T06:21:42Z</time>
      </trkpt>
      <trkpt lat="46.52535" lon="0.32212">
        <ele>173.8</ele>
        <time>2023-08-20T06:21:46Z</time>
      </trkpt>
      <trkpt lat="46.52536" lon="0.32205">
        <ele>174</ele>
        <time>2023-08-20T06:21:47Z</time>
      </trkpt>
      <trkpt lat="46.52542" lon="0.32186">
        <ele>174.2</ele>
        <time>2023-08-20T06:21:50Z</time>
      </trkpt>
      <trkpt lat="46.52548" lon="0.32168">
        <ele>174.6</ele>
        <time>2023-08-20T06:21:53Z</time>
      </trkpt>
      <trkpt lat="46.5255" lon="0.32149">
        <ele>174.6</ele>
        <time>2023-08-20T06:21:56Z</time>
      </trkpt>
      <trkpt lat="46.5255" lon="0.32135">
        <ele>174.6</ele>
        <time>2023-08-20T06:21:58Z</time>
      </trkpt>
      <trkpt lat="46.52551" lon="0.32121">
        <ele>174.6</ele>
        <time>2023-08-20T06:22:00Z</time>
      </trkpt>
      <trkpt lat="46.52555" lon="0.32115">
        <ele>174.6</ele>
        <time>2023-08-20T06:22:02Z</time>
      </trkpt>
      <trkpt lat="46.52559" lon="0.32114">
        <ele>174.6</ele>
        <time>2023-08-20T06:22:03Z</time>
      </trkpt>
      <trkpt lat="46.5258" lon="0.32115">
        <ele>174.2</ele>
        <time>2023-08-20T06:22:08Z</time>
      </trkpt>
      <trkpt lat="46.52596" lon="0.32116">
        <ele>174</ele>
        <time>2023-08-20T06:22:12Z</time>
      </trkpt>
      <trkpt lat="46.526" lon="0.32112">
        <ele>173.8</ele>
        <time>2023-08-20T06:22:14Z</time>
      </trkpt>
      <trkpt lat="46.52602" lon="0.32095">
        <ele>173.6</ele>
        <time>2023-08-20T06:22:18Z</time>
      </trkpt>
      <trkpt lat="46.52602" lon="0.32095">
        <ele>173.2</ele>
        <time>2023-08-20T06:22:19Z</time>
      </trkpt>
      <trkpt lat="46.52605" lon="0.32072">
        <ele>172.8</ele>
        <time>2023-08-20T06:22:22Z</time>
      </trkpt>
      <trkpt lat="46.52608" lon="0.3206">
        <ele>172.6</ele>
        <time>2023-08-20T06:22:24Z</time>
      </trkpt>
      <trkpt lat="46.52614" lon="0.32041">
        <ele>172.2</ele>
        <time>2023-08-20T06:22:27Z</time>
      </trkpt>
      <trkpt lat="46.52618" lon="0.32029">
        <ele>171.8</ele>
        <time>2023-08-20T06:22:29Z</time>
      </trkpt>
      <trkpt lat="46.52619" lon="0.32023">
        <ele>171.6</ele>
        <time>2023-08-20T06:22:30Z</time>
      </trkpt>
      <trkpt lat="46.52621" lon="0.32017">
        <ele>171.2</ele>
        <time>2023-08-20T06:22:31Z</time>
      </trkpt>
      <trkpt lat="46.5263" lon="0.31994">
        <ele>170.4</ele>
        <time>2023-08-20T06:22:35Z</time>
      </trkpt>
      <trkpt lat="46.52632" lon="0.31988">
        <ele>170.2</ele>
        <time>2023-08-20T06:22:36Z</time>
      </trkpt>
      <trkpt lat="46.52635" lon="0.31982">
        <ele>169.8</ele>
        <time>2023-08-20T06:22:37Z</time>
      </trkpt>
      <trkpt lat="46.52651" lon="0.31958">
        <ele>168.6</ele>
        <time>2023-08-20T06:22:41Z</time>
      </trkpt>
      <trkpt lat="46.52656" lon="0.31954">
        <ele>168.4</ele>
        <time>2023-08-20T06:22:42Z</time>
      </trkpt>
      <trkpt lat="46.52672" lon="0.31939">
        <ele>167.2</ele>
        <time>2023-08-20T06:22:45Z</time>
      </trkpt>
      <trkpt lat="46.52678" lon="0.31933">
        <ele>166.6</ele>
        <time>2023-08-20T06:22:46Z</time>
      </trkpt>
      <trkpt lat="46.52684" lon="0.31926">
        <ele>165.8</ele>
        <time>2023-08-20T06:22:47Z</time>
      </trkpt>
      <trkpt lat="46.52703" lon="0.31907">
        <ele>163.4</ele>
        <time>2023-08-20T06:22:50Z</time>
      </trkpt>
      <trkpt lat="46.52708" lon="0.31901">
        <ele>161.8</ele>
        <time>2023-08-20T06:22:51Z</time>
      </trkpt>
      <trkpt lat="46.52715" lon="0.31894">
        <ele>160.6</ele>
        <time>2023-08-20T06:22:52Z</time>
      </trkpt>
      <trkpt lat="46.5272" lon="0.31889">
        <ele>159.6</ele>
        <time>2023-08-20T06:22:53Z</time>
      </trkpt>
      <trkpt lat="46.52726" lon="0.31886">
        <ele>158.2</ele>
        <time>2023-08-20T06:22:54Z</time>
      </trkpt>
      <trkpt lat="46.52736" lon="0.31878">
        <ele>156.4</ele>
        <time>2023-08-20T06:22:56Z</time>
      </trkpt>
      <trkpt lat="46.52739" lon="0.31874">
        <ele>155.2</ele>
        <time>2023-08-20T06:22:57Z</time>
      </trkpt>
      <trkpt lat="46.52742" lon="0.3187">
        <ele>153.8</ele>
        <time>2023-08-20T06:22:58Z</time>
      </trkpt>
      <trkpt lat="46.52745" lon="0.31865">
        <ele>152.8</ele>
        <time>2023-08-20T06:22:59Z</time>
      </trkpt>
      <trkpt lat="46.52746" lon="0.31861">
        <ele>152.2</ele>
        <time>2023-08-20T06:23:00Z</time>
      </trkpt>
      <trkpt lat="46.52748" lon="0.31857">
        <ele>151.8</ele>
        <time>2023-08-20T06:23:01Z</time>
      </trkpt>
      <trkpt lat="46.5275" lon="0.31848">
        <ele>150.4</ele>
        <time>2023-08-20T06:23:03Z</time>
      </trkpt>
      <trkpt lat="46.5275" lon="0.31843">
        <ele>150.2</ele>
        <time>2023-08-20T06:23:04Z</time>
      </trkpt>
      <trkpt lat="46.52749" lon="0.31839">
        <ele>150</ele>
        <time>2023-08-20T06:23:05Z</time>
      </trkpt>
      <trkpt lat="46.52747" lon="0.31831">
        <ele>149.4</ele>
        <time>2023-08-20T06:23:07Z</time>
      </trkpt>
      <trkpt lat="46.52743" lon="0.31823">
        <ele>149</ele>
        <time>2023-08-20T06:23:09Z</time>
      </trkpt>
      <trkpt lat="46.52737" lon="0.31816">
        <ele>149</ele>
        <time>2023-08-20T06:23:11Z</time>
      </trkpt>
      <trkpt lat="46.52731" lon="0.31806">
        <ele>149</ele>
        <time>2023-08-20T06:23:13Z</time>
      </trkpt>
      <trkpt lat="46.52724" lon="0.31797">
        <ele>149.6</ele>
        <time>2023-08-20T06:23:15Z</time>
      </trkpt>
      <trkpt lat="46.52719" lon="0.31791">
        <ele>150</ele>
        <time>2023-08-20T06:23:17Z</time>
      </trkpt>
      <trkpt lat="46.52717" lon="0.31787">
        <ele>150.2</ele>
        <time>2023-08-20T06:23:18Z</time>
      </trkpt>
      <trkpt lat="46.52711" lon="0.31779">
        <ele>150.4</ele>
        <time>2023-08-20T06:23:20Z</time>
      </trkpt>
      <trkpt lat="46.52703" lon="0.31766">
        <ele>151</ele>
        <time>2023-08-20T06:23:23Z</time>
      </trkpt>
      <trkpt lat="46.52689" lon="0.31749">
        <ele>151.4</ele>
        <time>2023-08-20T06:23:27Z</time>
      </trkpt>
      <trkpt lat="46.52683" lon="0.31741">
        <ele>151.6</ele>
        <time>2023-08-20T06:23:29Z</time>
      </trkpt>
      <trkpt lat="46.52677" lon="0.31729">
        <ele>152.2</ele>
        <time>2023-08-20T06:23:32Z</time>
      </trkpt>
      <trkpt lat="46.52668" lon="0.31718">
        <ele>152.6</ele>
        <time>2023-08-20T06:23:35Z</time>
      </trkpt>
      <trkpt lat="46.52644" lon="0.31689">
        <ele>153.8</ele>
        <time>2023-08-20T06:23:42Z</time>
      </trkpt>
      <trkpt lat="46.52611" lon="0.31656">
        <ele>154.8</ele>
        <time>2023-08-20T06:23:50Z</time>
      </trkpt>
      <trkpt lat="46.52607" lon="0.31653">
        <ele>155</ele>
        <time>2023-08-20T06:23:51Z</time>
      </trkpt>
      <trkpt lat="46.52586" lon="0.31636">
        <ele>155.8</ele>
        <time>2023-08-20T06:23:57Z</time>
      </trkpt>
      <trkpt lat="46.52583" lon="0.31633">
        <ele>156</ele>
        <time>2023-08-20T06:23:58Z</time>
      </trkpt>
      <trkpt lat="46.52576" lon="0.31625">
        <ele>157</ele>
        <time>2023-08-20T06:24:00Z</time>
      </trkpt>
      <trkpt lat="46.52565" lon="0.31615">
        <ele>158.2</ele>
        <time>2023-08-20T06:24:03Z</time>
      </trkpt>
      <trkpt lat="46.52543" lon="0.31595">
        <ele>159</ele>
        <time>2023-08-20T06:24:10Z</time>
      </trkpt>
      <trkpt lat="46.52539" lon="0.31592">
        <ele>159.2</ele>
        <time>2023-08-20T06:24:11Z</time>
      </trkpt>
      <trkpt lat="46.5253" lon="0.31583">
        <ele>159.4</ele>
        <time>2023-08-20T06:24:14Z</time>
      </trkpt>
      <trkpt lat="46.52525" lon="0.31575">
        <ele>159.6</ele>
        <time>2023-08-20T06:24:16Z</time>
      </trkpt>
      <trkpt lat="46.52519" lon="0.31565">
        <ele>159.4</ele>
        <time>2023-08-20T06:24:19Z</time>
      </trkpt>
      <trkpt lat="46.52513" lon="0.31552">
        <ele>159.4</ele>
        <time>2023-08-20T06:24:23Z</time>
      </trkpt>
      <trkpt lat="46.52511" lon="0.31545">
        <ele>159.4</ele>
        <time>2023-08-20T06:24:25Z</time>
      </trkpt>
      <trkpt lat="46.52507" lon="0.31537">
        <ele>159.8</ele>
        <time>2023-08-20T06:24:27Z</time>
      </trkpt>
      <trkpt lat="46.52503" lon="0.31528">
        <ele>160</ele>
        <time>2023-08-20T06:24:30Z</time>
      </trkpt>
      <trkpt lat="46.52499" lon="0.3152">
        <ele>159.8</ele>
        <time>2023-08-20T06:24:32Z</time>
      </trkpt>
      <trkpt lat="46.52488" lon="0.31506">
        <ele>160.2</ele>
        <time>2023-08-20T06:24:37Z</time>
      </trkpt>
      <trkpt lat="46.52475" lon="0.31481">
        <ele>160.8</ele>
        <time>2023-08-20T06:24:41Z</time>
      </trkpt>
      <trkpt lat="46.52472" lon="0.31473">
        <ele>161.2</ele>
        <time>2023-08-20T06:24:43Z</time>
      </trkpt>
      <trkpt lat="46.52468" lon="0.31463">
        <ele>161.6</ele>
        <time>2023-08-20T06:24:45Z</time>
      </trkpt>
      <trkpt lat="46.52466" lon="0.31455">
        <ele>161.8</ele>
        <time>2023-08-20T06:24:47Z</time>
      </trkpt>
      <trkpt lat="46.52461" lon="0.31447">
        <ele>161.8</ele>
        <time>2023-08-20T06:24:49Z</time>
      </trkpt>
      <trkpt lat="46.52461" lon="0.31443">
        <ele>162</ele>
        <time>2023-08-20T06:24:50Z</time>
      </trkpt>
      <trkpt lat="46.52459" lon="0.31435">
        <ele>162.4</ele>
        <time>2023-08-20T06:24:52Z</time>
      </trkpt>
      <trkpt lat="46.52453" lon="0.3142">
        <ele>162.8</ele>
        <time>2023-08-20T06:24:55Z</time>
      </trkpt>
      <trkpt lat="46.52447" lon="0.31399">
        <ele>163.4</ele>
        <time>2023-08-20T06:24:59Z</time>
      </trkpt>
      <trkpt lat="46.52443" lon="0.31384">
        <ele>164</ele>
        <time>2023-08-20T06:25:02Z</time>
      </trkpt>
      <trkpt lat="46.52439" lon="0.31373">
        <ele>164.6</ele>
        <time>2023-08-20T06:25:04Z</time>
      </trkpt>
      <trkpt lat="46.52439" lon="0.31362">
        <ele>165</ele>
        <time>2023-08-20T06:25:07Z</time>
      </trkpt>
      <trkpt lat="46.5244" lon="0.3136">
        <ele>165.2</ele>
        <time>2023-08-20T06:25:08Z</time>
      </trkpt>
      <trkpt lat="46.52443" lon="0.31351">
        <ele>165.8</ele>
        <time>2023-08-20T06:25:11Z</time>
      </trkpt>
      <trkpt lat="46.52446" lon="0.31347">
        <ele>166.2</ele>
        <time>2023-08-20T06:25:14Z</time>
      </trkpt>
      <trkpt lat="46.52447" lon="0.31343">
        <ele>167</ele>
        <time>2023-08-20T06:25:16Z</time>
      </trkpt>
      <trkpt lat="46.52452" lon="0.31337">
        <ele>168</ele>
        <time>2023-08-20T06:25:20Z</time>
      </trkpt>
      <trkpt lat="46.52455" lon="0.31336">
        <ele>168.4</ele>
        <time>2023-08-20T06:25:21Z</time>
      </trkpt>
      <trkpt lat="46.52463" lon="0.31335">
        <ele>169.2</ele>
        <time>2023-08-20T06:25:25Z</time>
      </trkpt>
      <trkpt lat="46.52467" lon="0.31336">
        <ele>169.6</ele>
        <time>2023-08-20T06:25:27Z</time>
      </trkpt>
      <trkpt lat="46.52482" lon="0.31341">
        <ele>170.4</ele>
        <time>2023-08-20T06:25:33Z</time>
      </trkpt>
      <trkpt lat="46.52487" lon="0.31344">
        <ele>170.8</ele>
        <time>2023-08-20T06:25:35Z</time>
      </trkpt>
      <trkpt lat="46.52497" lon="0.31349">
        <ele>171.4</ele>
        <time>2023-08-20T06:25:39Z</time>
      </trkpt>
      <trkpt lat="46.52506" lon="0.31356">
        <ele>171.4</ele>
        <time>2023-08-20T06:25:42Z</time>
      </trkpt>
      <trkpt lat="46.5252" lon="0.31364">
        <ele>172</ele>
        <time>2023-08-20T06:25:47Z</time>
      </trkpt>
      <trkpt lat="46.52527" lon="0.3137">
        <ele>172</ele>
        <time>2023-08-20T06:25:49Z</time>
      </trkpt>
      <trkpt lat="46.52535" lon="0.31374">
        <ele>172.2</ele>
        <time>2023-08-20T06:25:51Z</time>
      </trkpt>
      <trkpt lat="46.52543" lon="0.31377">
        <ele>172.4</ele>
        <time>2023-08-20T06:25:53Z</time>
      </trkpt>
      <trkpt lat="46.52552" lon="0.31382">
        <ele>172.8</ele>
        <time>2023-08-20T06:25:55Z</time>
      </trkpt>
      <trkpt lat="46.52558" lon="0.31384">
        <ele>172.8</ele>
        <time>2023-08-20T06:25:57Z</time>
      </trkpt>
      <trkpt lat="46.52572" lon="0.31391">
        <ele>173.2</ele>
        <time>2023-08-20T06:26:01Z</time>
      </trkpt>
      <trkpt lat="46.52576" lon="0.31392">
        <ele>173.2</ele>
        <time>2023-08-20T06:26:02Z</time>
      </trkpt>
      <trkpt lat="46.52589" lon="0.31396">
        <ele>173.6</ele>
        <time>2023-08-20T06:26:05Z</time>
      </trkpt>
      <trkpt lat="46.52597" lon="0.314">
        <ele>173.8</ele>
        <time>2023-08-20T06:26:07Z</time>
      </trkpt>
      <trkpt lat="46.52605" lon="0.31402">
        <ele>174</ele>
        <time>2023-08-20T06:26:09Z</time>
      </trkpt>
      <trkpt lat="46.52614" lon="0.31404">
        <ele>174</ele>
        <time>2023-08-20T06:26:11Z</time>
      </trkpt>
      <trkpt lat="46.52617" lon="0.31405">
        <ele>174</ele>
        <time>2023-08-20T06:26:12Z</time>
      </trkpt>
      <trkpt lat="46.5262" lon="0.31406">
        <ele>174</ele>
        <time>2023-08-20T06:26:13Z</time>
      </trkpt>
      <trkpt lat="46.52635" lon="0.31408">
        <ele>174</ele>
        <time>2023-08-20T06:26:17Z</time>
      </trkpt>
      <trkpt lat="46.52642" lon="0.31408">
        <ele>174</ele>
        <time>2023-08-20T06:26:19Z</time>
      </trkpt>
      <trkpt lat="46.52652" lon="0.3141">
        <ele>174</ele>
        <time>2023-08-20T06:26:21Z</time>
      </trkpt>
      <trkpt lat="46.52667" lon="0.31416">
        <ele>174</ele>
        <time>2023-08-20T06:26:24Z</time>
      </trkpt>
      <trkpt lat="46.52674" lon="0.31415">
        <ele>174</ele>
        <time>2023-08-20T06:26:26Z</time>
      </trkpt>
      <trkpt lat="46.52696" lon="0.31406">
        <ele>174.2</ele>
        <time>2023-08-20T06:26:32Z</time>
      </trkpt>
      <trkpt lat="46.52699" lon="0.31405">
        <ele>174.2</ele>
        <time>2023-08-20T06:26:33Z</time>
      </trkpt>
      <trkpt lat="46.52719" lon="0.31401">
        <ele>174</ele>
        <time>2023-08-20T06:26:38Z</time>
      </trkpt>
      <trkpt lat="46.52733" lon="0.31398">
        <ele>174</ele>
        <time>2023-08-20T06:26:41Z</time>
      </trkpt>
      <trkpt lat="46.52739" lon="0.31393">
        <ele>174.2</ele>
        <time>2023-08-20T06:26:43Z</time>
      </trkpt>
      <trkpt lat="46.52745" lon="0.31383">
        <ele>174.2</ele>
        <time>2023-08-20T06:26:45Z</time>
      </trkpt>
      <trkpt lat="46.52751" lon="0.31373">
        <ele>173.8</ele>
        <time>2023-08-20T06:26:47Z</time>
      </trkpt>
      <trkpt lat="46.52755" lon="0.31367">
        <ele>173.6</ele>
        <time>2023-08-20T06:26:48Z</time>
      </trkpt>
      <trkpt lat="46.52765" lon="0.3133">
        <ele>173.8</ele>
        <time>2023-08-20T06:26:54Z</time>
      </trkpt>
      <trkpt lat="46.52767" lon="0.31323">
        <ele>173.4</ele>
        <time>2023-08-20T06:26:55Z</time>
      </trkpt>
      <trkpt lat="46.52771" lon="0.31302">
        <ele>172.4</ele>
        <time>2023-08-20T06:26:58Z</time>
      </trkpt>
      <trkpt lat="46.52774" lon="0.31289">
        <ele>172</ele>
        <time>2023-08-20T06:27:00Z</time>
      </trkpt>
      <trkpt lat="46.52774" lon="0.31284">
        <ele>171.8</ele>
        <time>2023-08-20T06:27:01Z</time>
      </trkpt>
      <trkpt lat="46.52777" lon="0.31266">
        <ele>170.8</ele>
        <time>2023-08-20T06:27:04Z</time>
      </trkpt>
      <trkpt lat="46.52775" lon="0.31257">
        <ele>170</ele>
        <time>2023-08-20T06:27:06Z</time>
      </trkpt>
      <trkpt lat="46.52775" lon="0.31253">
        <ele>169.6</ele>
        <time>2023-08-20T06:27:07Z</time>
      </trkpt>
      <trkpt lat="46.52772" lon="0.31238">
        <ele>169.2</ele>
        <time>2023-08-20T06:27:10Z</time>
      </trkpt>
      <trkpt lat="46.52772" lon="0.31232">
        <ele>169</ele>
        <time>2023-08-20T06:27:11Z</time>
      </trkpt>
      <trkpt lat="46.52772" lon="0.31223">
        <ele>168.6</ele>
        <time>2023-08-20T06:27:13Z</time>
      </trkpt>
      <trkpt lat="46.52772" lon="0.31208">
        <ele>167.8</ele>
        <time>2023-08-20T06:27:15Z</time>
      </trkpt>
      <trkpt lat="46.52772" lon="0.31202">
        <ele>167.6</ele>
        <time>2023-08-20T06:27:16Z</time>
      </trkpt>
      <trkpt lat="46.52774" lon="0.31188">
        <ele>166.4</ele>
        <time>2023-08-20T06:27:18Z</time>
      </trkpt>
      <trkpt lat="46.52774" lon="0.31157">
        <ele>165</ele>
        <time>2023-08-20T06:27:22Z</time>
      </trkpt>
      <trkpt lat="46.52775" lon="0.31137">
        <ele>163.8</ele>
        <time>2023-08-20T06:27:24Z</time>
      </trkpt>
      <trkpt lat="46.52775" lon="0.31127">
        <ele>163.4</ele>
        <time>2023-08-20T06:27:25Z</time>
      </trkpt>
      <trkpt lat="46.52773" lon="0.3111">
        <ele>163.2</ele>
        <time>2023-08-20T06:27:27Z</time>
      </trkpt>
      <trkpt lat="46.52765" lon="0.31068">
        <ele>162.8</ele>
        <time>2023-08-20T06:27:32Z</time>
      </trkpt>
      <trkpt lat="46.52758" lon="0.3103">
        <ele>162.4</ele>
        <time>2023-08-20T06:27:37Z</time>
      </trkpt>
      <trkpt lat="46.52756" lon="0.31006">
        <ele>162.6</ele>
        <time>2023-08-20T06:27:40Z</time>
      </trkpt>
      <trkpt lat="46.52755" lon="0.3098">
        <ele>162.8</ele>
        <time>2023-08-20T06:27:43Z</time>
      </trkpt>
      <trkpt lat="46.52755" lon="0.30963">
        <ele>163</ele>
        <time>2023-08-20T06:27:45Z</time>
      </trkpt>
      <trkpt lat="46.52755" lon="0.30963">
        <ele>163.6</ele>
        <time>2023-08-20T06:27:46Z</time>
      </trkpt>
      <trkpt lat="46.52754" lon="0.30949">
        <ele>163.6</ele>
        <time>2023-08-20T06:27:47Z</time>
      </trkpt>
      <trkpt lat="46.52752" lon="0.30943">
        <ele>163.8</ele>
        <time>2023-08-20T06:27:48Z</time>
      </trkpt>
      <trkpt lat="46.52749" lon="0.30931">
        <ele>165</ele>
        <time>2023-08-20T06:27:50Z</time>
      </trkpt>
      <trkpt lat="46.52746" lon="0.30921">
        <ele>165.6</ele>
        <time>2023-08-20T06:27:52Z</time>
      </trkpt>
      <trkpt lat="46.52738" lon="0.30901">
        <ele>165.8</ele>
        <time>2023-08-20T06:27:54Z</time>
      </trkpt>
      <trkpt lat="46.52735" lon="0.30894">
        <ele>166</ele>
        <time>2023-08-20T06:27:55Z</time>
      </trkpt>
      <trkpt lat="46.52732" lon="0.30887">
        <ele>166.4</ele>
        <time>2023-08-20T06:27:56Z</time>
      </trkpt>
      <trkpt lat="46.52729" lon="0.30879">
        <ele>166.6</ele>
        <time>2023-08-20T06:27:57Z</time>
      </trkpt>
      <trkpt lat="46.52725" lon="0.30869">
        <ele>167.2</ele>
        <time>2023-08-20T06:27:59Z</time>
      </trkpt>
      <trkpt lat="46.52719" lon="0.30858">
        <ele>168.2</ele>
        <time>2023-08-20T06:28:02Z</time>
      </trkpt>
      <trkpt lat="46.52711" lon="0.30846">
        <ele>169.4</ele>
        <time>2023-08-20T06:28:05Z</time>
      </trkpt>
      <trkpt lat="46.52702" lon="0.30834">
        <ele>170.4</ele>
        <time>2023-08-20T06:28:09Z</time>
      </trkpt>
      <trkpt lat="46.527" lon="0.30832">
        <ele>170.4</ele>
        <time>2023-08-20T06:28:10Z</time>
      </trkpt>
      <trkpt lat="46.52691" lon="0.30822">
        <ele>171.6</ele>
        <time>2023-08-20T06:28:13Z</time>
      </trkpt>
      <trkpt lat="46.52683" lon="0.30811">
        <ele>172.8</ele>
        <time>2023-08-20T06:28:17Z</time>
      </trkpt>
      <trkpt lat="46.52676" lon="0.308">
        <ele>173.2</ele>
        <time>2023-08-20T06:28:21Z</time>
      </trkpt>
      <trkpt lat="46.52674" lon="0.30792">
        <ele>173.6</ele>
        <time>2023-08-20T06:28:23Z</time>
      </trkpt>
      <trkpt lat="46.52668" lon="0.30763">
        <ele>173.4</ele>
        <time>2023-08-20T06:28:29Z</time>
      </trkpt>
      <trkpt lat="46.52673" lon="0.30751">
        <ele>172.8</ele>
        <time>2023-08-20T06:28:34Z</time>
      </trkpt>
      <trkpt lat="46.52678" lon="0.3075">
        <ele>172.4</ele>
        <time>2023-08-20T06:28:36Z</time>
      </trkpt>
      <trkpt lat="46.52687" lon="0.30752">
        <ele>171</ele>
        <time>2023-08-20T06:28:39Z</time>
      </trkpt>
      <trkpt lat="46.52689" lon="0.30752">
        <ele>170</ele>
        <time>2023-08-20T06:28:40Z</time>
      </trkpt>
      <trkpt lat="46.52691" lon="0.30753">
        <ele>169.2</ele>
        <time>2023-08-20T06:28:41Z</time>
      </trkpt>
      <trkpt lat="46.52694" lon="0.30754">
        <ele>168.8</ele>
        <time>2023-08-20T06:28:42Z</time>
      </trkpt>
      <trkpt lat="46.52696" lon="0.30756">
        <ele>168.4</ele>
        <time>2023-08-20T06:28:43Z</time>
      </trkpt>
      <trkpt lat="46.52697" lon="0.30758">
        <ele>167.8</ele>
        <time>2023-08-20T06:28:44Z</time>
      </trkpt>
      <trkpt lat="46.52698" lon="0.30759">
        <ele>166.4</ele>
        <time>2023-08-20T06:28:46Z</time>
      </trkpt>
      <trkpt lat="46.527" lon="0.30761">
        <ele>165.2</ele>
        <time>2023-08-20T06:28:49Z</time>
      </trkpt>
      <trkpt lat="46.52702" lon="0.30774">
        <ele>164.4</ele>
        <time>2023-08-20T06:28:55Z</time>
      </trkpt>
      <trkpt lat="46.52703" lon="0.30778">
        <ele>164.4</ele>
        <time>2023-08-20T06:28:57Z</time>
      </trkpt>
      <trkpt lat="46.52705" lon="0.30784">
        <ele>164.2</ele>
        <time>2023-08-20T06:28:59Z</time>
      </trkpt>
      <trkpt lat="46.52707" lon="0.30787">
        <ele>164.2</ele>
        <time>2023-08-20T06:29:00Z</time>
      </trkpt>
      <trkpt lat="46.52708" lon="0.30791">
        <ele>164</ele>
        <time>2023-08-20T06:29:01Z</time>
      </trkpt>
      <trkpt lat="46.52712" lon="0.30798">
        <ele>163.8</ele>
        <time>2023-08-20T06:29:03Z</time>
      </trkpt>
      <trkpt lat="46.52715" lon="0.30803">
        <ele>163.4</ele>
        <time>2023-08-20T06:29:04Z</time>
      </trkpt>
      <trkpt lat="46.52717" lon="0.30807">
        <ele>162.8</ele>
        <time>2023-08-20T06:29:05Z</time>
      </trkpt>
      <trkpt lat="46.5272" lon="0.30811">
        <ele>161.4</ele>
        <time>2023-08-20T06:29:06Z</time>
      </trkpt>
      <trkpt lat="46.52721" lon="0.30816">
        <ele>160.4</ele>
        <time>2023-08-20T06:29:07Z</time>
      </trkpt>
      <trkpt lat="46.52723" lon="0.30826">
        <ele>159.2</ele>
        <time>2023-08-20T06:29:09Z</time>
      </trkpt>
      <trkpt lat="46.52729" lon="0.30838">
        <ele>158.8</ele>
        <time>2023-08-20T06:29:11Z</time>
      </trkpt>
      <trkpt lat="46.52731" lon="0.30845">
        <ele>158</ele>
        <time>2023-08-20T06:29:12Z</time>
      </trkpt>
      <trkpt lat="46.52734" lon="0.30852">
        <ele>157.6</ele>
        <time>2023-08-20T06:29:13Z</time>
      </trkpt>
      <trkpt lat="46.52736" lon="0.30858">
        <ele>157</ele>
        <time>2023-08-20T06:29:14Z</time>
      </trkpt>
      <trkpt lat="46.52738" lon="0.30864">
        <ele>155.8</ele>
        <time>2023-08-20T06:29:15Z</time>
      </trkpt>
      <trkpt lat="46.52741" lon="0.30876">
        <ele>154.4</ele>
        <time>2023-08-20T06:29:17Z</time>
      </trkpt>
      <trkpt lat="46.52743" lon="0.30886">
        <ele>153.8</ele>
        <time>2023-08-20T06:29:19Z</time>
      </trkpt>
      <trkpt lat="46.52744" lon="0.30891">
        <ele>153.2</ele>
        <time>2023-08-20T06:29:20Z</time>
      </trkpt>
      <trkpt lat="46.52746" lon="0.30902">
        <ele>152.4</ele>
        <time>2023-08-20T06:29:22Z</time>
      </trkpt>
      <trkpt lat="46.52746" lon="0.30905">
        <ele>151.6</ele>
        <time>2023-08-20T06:29:23Z</time>
      </trkpt>
      <trkpt lat="46.52747" lon="0.30909">
        <ele>150.8</ele>
        <time>2023-08-20T06:29:24Z</time>
      </trkpt>
      <trkpt lat="46.52747" lon="0.30913">
        <ele>149.6</ele>
        <time>2023-08-20T06:29:25Z</time>
      </trkpt>
      <trkpt lat="46.52749" lon="0.3092">
        <ele>148.2</ele>
        <time>2023-08-20T06:29:27Z</time>
      </trkpt>
      <trkpt lat="46.52752" lon="0.30932">
        <ele>147</ele>
        <time>2023-08-20T06:29:30Z</time>
      </trkpt>
      <trkpt lat="46.52753" lon="0.30936">
        <ele>147</ele>
        <time>2023-08-20T06:29:31Z</time>
      </trkpt>
      <trkpt lat="46.52755" lon="0.30941">
        <ele>146.8</ele>
        <time>2023-08-20T06:29:32Z</time>
      </trkpt>
      <trkpt lat="46.52759" lon="0.3095">
        <ele>145.8</ele>
        <time>2023-08-20T06:29:34Z</time>
      </trkpt>
      <trkpt lat="46.52762" lon="0.30956">
        <ele>145</ele>
        <time>2023-08-20T06:29:36Z</time>
      </trkpt>
      <trkpt lat="46.52763" lon="0.30961">
        <ele>144.6</ele>
        <time>2023-08-20T06:29:37Z</time>
      </trkpt>
      <trkpt lat="46.52765" lon="0.30969">
        <ele>143.4</ele>
        <time>2023-08-20T06:29:39Z</time>
      </trkpt>
      <trkpt lat="46.52769" lon="0.30979">
        <ele>142.6</ele>
        <time>2023-08-20T06:29:41Z</time>
      </trkpt>
      <trkpt lat="46.52771" lon="0.30985">
        <ele>142.2</ele>
        <time>2023-08-20T06:29:42Z</time>
      </trkpt>
      <trkpt lat="46.52773" lon="0.30991">
        <ele>141.6</ele>
        <time>2023-08-20T06:29:43Z</time>
      </trkpt>
      <trkpt lat="46.52778" lon="0.31004">
        <ele>140.4</ele>
        <time>2023-08-20T06:29:45Z</time>
      </trkpt>
      <trkpt lat="46.52782" lon="0.31024">
        <ele>139.2</ele>
        <time>2023-08-20T06:29:48Z</time>
      </trkpt>
      <trkpt lat="46.52785" lon="0.31031">
        <ele>138.8</ele>
        <time>2023-08-20T06:29:49Z</time>
      </trkpt>
      <trkpt lat="46.52789" lon="0.31045">
        <ele>137.8</ele>
        <time>2023-08-20T06:29:51Z</time>
      </trkpt>
      <trkpt lat="46.52799" lon="0.31065">
        <ele>136.8</ele>
        <time>2023-08-20T06:29:54Z</time>
      </trkpt>
      <trkpt lat="46.52805" lon="0.31073">
        <ele>136.6</ele>
        <time>2023-08-20T06:29:55Z</time>
      </trkpt>
      <trkpt lat="46.52811" lon="0.31081">
        <ele>136.4</ele>
        <time>2023-08-20T06:29:56Z</time>
      </trkpt>
      <trkpt lat="46.52821" lon="0.31094">
        <ele>136.2</ele>
        <time>2023-08-20T06:29:58Z</time>
      </trkpt>
      <trkpt lat="46.52835" lon="0.31115">
        <ele>136.2</ele>
        <time>2023-08-20T06:30:01Z</time>
      </trkpt>
      <trkpt lat="46.52842" lon="0.31127">
        <ele>135.4</ele>
        <time>2023-08-20T06:30:04Z</time>
      </trkpt>
      <trkpt lat="46.52849" lon="0.31141">
        <ele>134.4</ele>
        <time>2023-08-20T06:30:07Z</time>
      </trkpt>
      <trkpt lat="46.52854" lon="0.31147">
        <ele>134.2</ele>
        <time>2023-08-20T06:30:08Z</time>
      </trkpt>
      <trkpt lat="46.52863" lon="0.31159">
        <ele>133.8</ele>
        <time>2023-08-20T06:30:11Z</time>
      </trkpt>
      <trkpt lat="46.52874" lon="0.31177">
        <ele>133.4</ele>
        <time>2023-08-20T06:30:16Z</time>
      </trkpt>
      <trkpt lat="46.52877" lon="0.31196">
        <ele>134.8</ele>
        <time>2023-08-20T06:30:23Z</time>
      </trkpt>
      <trkpt lat="46.5288" lon="0.31201">
        <ele>135.6</ele>
        <time>2023-08-20T06:30:25Z</time>
      </trkpt>
      <trkpt lat="46.52883" lon="0.3121">
        <ele>136.8</ele>
        <time>2023-08-20T06:30:28Z</time>
      </trkpt>
      <trkpt lat="46.52885" lon="0.31219">
        <ele>137.8</ele>
        <time>2023-08-20T06:30:31Z</time>
      </trkpt>
      <trkpt lat="46.52887" lon="0.31225">
        <ele>139</ele>
        <time>2023-08-20T06:30:34Z</time>
      </trkpt>
      <trkpt lat="46.5289" lon="0.31232">
        <ele>140.2</ele>
        <time>2023-08-20T06:30:37Z</time>
      </trkpt>
      <trkpt lat="46.52892" lon="0.31237">
        <ele>140.6</ele>
        <time>2023-08-20T06:30:39Z</time>
      </trkpt>
      <trkpt lat="46.52894" lon="0.31242">
        <ele>141.2</ele>
        <time>2023-08-20T06:30:41Z</time>
      </trkpt>
      <trkpt lat="46.52895" lon="0.31246">
        <ele>141.6</ele>
        <time>2023-08-20T06:30:43Z</time>
      </trkpt>
      <trkpt lat="46.52897" lon="0.31253">
        <ele>142.6</ele>
        <time>2023-08-20T06:30:46Z</time>
      </trkpt>
      <trkpt lat="46.529" lon="0.31263">
        <ele>143.6</ele>
        <time>2023-08-20T06:30:50Z</time>
      </trkpt>
      <trkpt lat="46.52904" lon="0.31273">
        <ele>144.8</ele>
        <time>2023-08-20T06:30:55Z</time>
      </trkpt>
      <trkpt lat="46.52909" lon="0.31284">
        <ele>146</ele>
        <time>2023-08-20T06:31:00Z</time>
      </trkpt>
      <trkpt lat="46.52911" lon="0.31292">
        <ele>146.8</ele>
        <time>2023-08-20T06:31:04Z</time>
      </trkpt>
      <trkpt lat="46.52914" lon="0.31297">
        <ele>147.4</ele>
        <time>2023-08-20T06:31:07Z</time>
      </trkpt>
      <trkpt lat="46.52915" lon="0.31302">
        <ele>148</ele>
        <time>2023-08-20T06:31:09Z</time>
      </trkpt>
      <trkpt lat="46.52916" lon="0.31304">
        <ele>148.4</ele>
        <time>2023-08-20T06:31:10Z</time>
      </trkpt>
      <trkpt lat="46.52916" lon="0.31306">
        <ele>148.6</ele>
        <time>2023-08-20T06:31:11Z</time>
      </trkpt>
      <trkpt lat="46.52918" lon="0.31311">
        <ele>149.4</ele>
        <time>2023-08-20T06:31:14Z</time>
      </trkpt>
      <trkpt lat="46.52919" lon="0.31313">
        <ele>149.6</ele>
        <time>2023-08-20T06:31:15Z</time>
      </trkpt>
      <trkpt lat="46.52921" lon="0.31318">
        <ele>150.4</ele>
        <time>2023-08-20T06:31:18Z</time>
      </trkpt>
      <trkpt lat="46.52921" lon="0.31319">
        <ele>150.8</ele>
        <time>2023-08-20T06:31:19Z</time>
      </trkpt>
      <trkpt lat="46.52923" lon="0.31323">
        <ele>151.4</ele>
        <time>2023-08-20T06:31:22Z</time>
      </trkpt>
      <trkpt lat="46.52925" lon="0.31327">
        <ele>152</ele>
        <time>2023-08-20T06:31:25Z</time>
      </trkpt>
      <trkpt lat="46.52925" lon="0.3133">
        <ele>152.2</ele>
        <time>2023-08-20T06:31:26Z</time>
      </trkpt>
      <trkpt lat="46.52925" lon="0.31332">
        <ele>152.6</ele>
        <time>2023-08-20T06:31:27Z</time>
      </trkpt>
      <trkpt lat="46.52926" lon="0.31339">
        <ele>153</ele>
        <time>2023-08-20T06:31:31Z</time>
      </trkpt>
      <trkpt lat="46.52926" lon="0.31341">
        <ele>153.2</ele>
        <time>2023-08-20T06:31:32Z</time>
      </trkpt>
      <trkpt lat="46.52928" lon="0.31345">
        <ele>153.4</ele>
        <time>2023-08-20T06:31:34Z</time>
      </trkpt>
      <trkpt lat="46.52931" lon="0.31368">
        <ele>153.8</ele>
        <time>2023-08-20T06:31:42Z</time>
      </trkpt>
      <trkpt lat="46.52935" lon="0.31379">
        <ele>154.2</ele>
        <time>2023-08-20T06:31:46Z</time>
      </trkpt>
      <trkpt lat="46.52936" lon="0.31383">
        <ele>154.8</ele>
        <time>2023-08-20T06:31:48Z</time>
      </trkpt>
      <trkpt lat="46.52937" lon="0.31386">
        <ele>155.4</ele>
        <time>2023-08-20T06:31:49Z</time>
      </trkpt>
      <trkpt lat="46.52938" lon="0.31394">
        <ele>156.4</ele>
        <time>2023-08-20T06:31:53Z</time>
      </trkpt>
      <trkpt lat="46.52938" lon="0.31395">
        <ele>156.6</ele>
        <time>2023-08-20T06:31:54Z</time>
      </trkpt>
      <trkpt lat="46.52938" lon="0.31398">
        <ele>156.8</ele>
        <time>2023-08-20T06:31:55Z</time>
      </trkpt>
      <trkpt lat="46.52939" lon="0.314">
        <ele>157.2</ele>
        <time>2023-08-20T06:31:56Z</time>
      </trkpt>
      <trkpt lat="46.52939" lon="0.31406">
        <ele>157.8</ele>
        <time>2023-08-20T06:31:59Z</time>
      </trkpt>
      <trkpt lat="46.52941" lon="0.31418">
        <ele>158.6</ele>
        <time>2023-08-20T06:32:04Z</time>
      </trkpt>
      <trkpt lat="46.52944" lon="0.3143">
        <ele>159.2</ele>
        <time>2023-08-20T06:32:09Z</time>
      </trkpt>
      <trkpt lat="46.52945" lon="0.31435">
        <ele>159.6</ele>
        <time>2023-08-20T06:32:11Z</time>
      </trkpt>
      <trkpt lat="46.52943" lon="0.31445">
        <ele>160.4</ele>
        <time>2023-08-20T06:32:15Z</time>
      </trkpt>
      <trkpt lat="46.52942" lon="0.31453">
        <ele>161.6</ele>
        <time>2023-08-20T06:32:18Z</time>
      </trkpt>
      <trkpt lat="46.52942" lon="0.31455">
        <ele>161.8</ele>
        <time>2023-08-20T06:32:19Z</time>
      </trkpt>
      <trkpt lat="46.5294" lon="0.31467">
        <ele>162.6</ele>
        <time>2023-08-20T06:32:24Z</time>
      </trkpt>
      <trkpt lat="46.52939" lon="0.31472">
        <ele>163.2</ele>
        <time>2023-08-20T06:32:26Z</time>
      </trkpt>
      <trkpt lat="46.52936" lon="0.3148">
        <ele>163.8</ele>
        <time>2023-08-20T06:32:29Z</time>
      </trkpt>
      <trkpt lat="46.5293" lon="0.31492">
        <ele>164.4</ele>
        <time>2023-08-20T06:32:34Z</time>
      </trkpt>
      <trkpt lat="46.52926" lon="0.31497">
        <ele>165</ele>
        <time>2023-08-20T06:32:36Z</time>
      </trkpt>
      <trkpt lat="46.52921" lon="0.3151">
        <ele>165.6</ele>
        <time>2023-08-20T06:32:41Z</time>
      </trkpt>
      <trkpt lat="46.52918" lon="0.31515">
        <ele>166</ele>
        <time>2023-08-20T06:32:43Z</time>
      </trkpt>
      <trkpt lat="46.52908" lon="0.31527">
        <ele>166.6</ele>
        <time>2023-08-20T06:32:48Z</time>
      </trkpt>
      <trkpt lat="46.52888" lon="0.31544">
        <ele>166.8</ele>
        <time>2023-08-20T06:32:54Z</time>
      </trkpt>
      <trkpt lat="46.52882" lon="0.31549">
        <ele>167</ele>
        <time>2023-08-20T06:32:56Z</time>
      </trkpt>
      <trkpt lat="46.52875" lon="0.31551">
        <ele>167</ele>
        <time>2023-08-20T06:32:58Z</time>
      </trkpt>
      <trkpt lat="46.52868" lon="0.31551">
        <ele>167</ele>
        <time>2023-08-20T06:33:00Z</time>
      </trkpt>
      <trkpt lat="46.52841" lon="0.31549">
        <ele>167.8</ele>
        <time>2023-08-20T06:33:07Z</time>
      </trkpt>
      <trkpt lat="46.52837" lon="0.31549">
        <ele>167.8</ele>
        <time>2023-08-20T06:33:08Z</time>
      </trkpt>
      <trkpt lat="46.52833" lon="0.3155">
        <ele>167.8</ele>
        <time>2023-08-20T06:33:09Z</time>
      </trkpt>
      <trkpt lat="46.52825" lon="0.31555">
        <ele>168</ele>
        <time>2023-08-20T06:33:11Z</time>
      </trkpt>
      <trkpt lat="46.52821" lon="0.31557">
        <ele>168.2</ele>
        <time>2023-08-20T06:33:12Z</time>
      </trkpt>
      <trkpt lat="46.52813" lon="0.31564">
        <ele>168</ele>
        <time>2023-08-20T06:33:14Z</time>
      </trkpt>
      <trkpt lat="46.52808" lon="0.31572">
        <ele>167.8</ele>
        <time>2023-08-20T06:33:16Z</time>
      </trkpt>
      <trkpt lat="46.52806" lon="0.31577">
        <ele>167.4</ele>
        <time>2023-08-20T06:33:17Z</time>
      </trkpt>
      <trkpt lat="46.52803" lon="0.31588">
        <ele>166.8</ele>
        <time>2023-08-20T06:33:19Z</time>
      </trkpt>
      <trkpt lat="46.52802" lon="0.31594">
        <ele>166.4</ele>
        <time>2023-08-20T06:33:20Z</time>
      </trkpt>
      <trkpt lat="46.528" lon="0.31604">
        <ele>165.8</ele>
        <time>2023-08-20T06:33:22Z</time>
      </trkpt>
      <trkpt lat="46.528" lon="0.31609">
        <ele>165.4</ele>
        <time>2023-08-20T06:33:23Z</time>
      </trkpt>
      <trkpt lat="46.52796" lon="0.31619">
        <ele>165</ele>
        <time>2023-08-20T06:33:25Z</time>
      </trkpt>
      <trkpt lat="46.52793" lon="0.31624">
        <ele>164.6</ele>
        <time>2023-08-20T06:33:26Z</time>
      </trkpt>
      <trkpt lat="46.5279" lon="0.31629">
        <ele>164.2</ele>
        <time>2023-08-20T06:33:27Z</time>
      </trkpt>
      <trkpt lat="46.52782" lon="0.31637">
        <ele>163</ele>
        <time>2023-08-20T06:33:29Z</time>
      </trkpt>
      <trkpt lat="46.52776" lon="0.31645">
        <ele>162</ele>
        <time>2023-08-20T06:33:31Z</time>
      </trkpt>
      <trkpt lat="46.52775" lon="0.31651">
        <ele>161.8</ele>
        <time>2023-08-20T06:33:32Z</time>
      </trkpt>
      <trkpt lat="46.52775" lon="0.31657">
        <ele>160.4</ele>
        <time>2023-08-20T06:33:33Z</time>
      </trkpt>
      <trkpt lat="46.52775" lon="0.3167">
        <ele>158.2</ele>
        <time>2023-08-20T06:33:35Z</time>
      </trkpt>
      <trkpt lat="46.52776" lon="0.31682">
        <ele>157</ele>
        <time>2023-08-20T06:33:37Z</time>
      </trkpt>
      <trkpt lat="46.52777" lon="0.31693">
        <ele>155.6</ele>
        <time>2023-08-20T06:33:39Z</time>
      </trkpt>
      <trkpt lat="46.52778" lon="0.31705">
        <ele>154.2</ele>
        <time>2023-08-20T06:33:41Z</time>
      </trkpt>
      <trkpt lat="46.52779" lon="0.31711">
        <ele>152.8</ele>
        <time>2023-08-20T06:33:42Z</time>
      </trkpt>
      <trkpt lat="46.5278" lon="0.31716">
        <ele>152</ele>
        <time>2023-08-20T06:33:43Z</time>
      </trkpt>
      <trkpt lat="46.52781" lon="0.31721">
        <ele>151.2</ele>
        <time>2023-08-20T06:33:44Z</time>
      </trkpt>
      <trkpt lat="46.52782" lon="0.31727">
        <ele>150.6</ele>
        <time>2023-08-20T06:33:45Z</time>
      </trkpt>
      <trkpt lat="46.52783" lon="0.31732">
        <ele>150</ele>
        <time>2023-08-20T06:33:46Z</time>
      </trkpt>
      <trkpt lat="46.52784" lon="0.31736">
        <ele>149.2</ele>
        <time>2023-08-20T06:33:47Z</time>
      </trkpt>
      <trkpt lat="46.52785" lon="0.31739">
        <ele>148.6</ele>
        <time>2023-08-20T06:33:48Z</time>
      </trkpt>
      <trkpt lat="46.52787" lon="0.31739">
        <ele>148.2</ele>
        <time>2023-08-20T06:33:49Z</time>
      </trkpt>
      <trkpt lat="46.52789" lon="0.31745">
        <ele>147.2</ele>
        <time>2023-08-20T06:33:52Z</time>
      </trkpt>
      <trkpt lat="46.52791" lon="0.31745">
        <ele>146.8</ele>
        <time>2023-08-20T06:33:53Z</time>
      </trkpt>
      <trkpt lat="46.52793" lon="0.31748">
        <ele>146.2</ele>
        <time>2023-08-20T06:33:55Z</time>
      </trkpt>
      <trkpt lat="46.52795" lon="0.31749">
        <ele>146</ele>
        <time>2023-08-20T06:33:56Z</time>
      </trkpt>
      <trkpt lat="46.52797" lon="0.31752">
        <ele>145.8</ele>
        <time>2023-08-20T06:33:57Z</time>
      </trkpt>
      <trkpt lat="46.52805" lon="0.31755">
        <ele>145.8</ele>
        <time>2023-08-20T06:34:00Z</time>
      </trkpt>
      <trkpt lat="46.52808" lon="0.31755">
        <ele>145.8</ele>
        <time>2023-08-20T06:34:01Z</time>
      </trkpt>
      <trkpt lat="46.52815" lon="0.31755">
        <ele>145.4</ele>
        <time>2023-08-20T06:34:03Z</time>
      </trkpt>
      <trkpt lat="46.52823" lon="0.31755">
        <ele>145</ele>
        <time>2023-08-20T06:34:05Z</time>
      </trkpt>
      <trkpt lat="46.52827" lon="0.31756">
        <ele>144.6</ele>
        <time>2023-08-20T06:34:06Z</time>
      </trkpt>
      <trkpt lat="46.52832" lon="0.31756">
        <ele>144</ele>
        <time>2023-08-20T06:34:07Z</time>
      </trkpt>
      <trkpt lat="46.52852" lon="0.31761">
        <ele>143</ele>
        <time>2023-08-20T06:34:11Z</time>
      </trkpt>
      <trkpt lat="46.52864" lon="0.31765">
        <ele>142.8</ele>
        <time>2023-08-20T06:34:13Z</time>
      </trkpt>
      <trkpt lat="46.52886" lon="0.31772">
        <ele>141.8</ele>
        <time>2023-08-20T06:34:16Z</time>
      </trkpt>
      <trkpt lat="46.52893" lon="0.31774">
        <ele>141.6</ele>
        <time>2023-08-20T06:34:17Z</time>
      </trkpt>
      <trkpt lat="46.52908" lon="0.3178">
        <ele>140.6</ele>
        <time>2023-08-20T06:34:19Z</time>
      </trkpt>
      <trkpt lat="46.52935" lon="0.31789">
        <ele>139.4</ele>
        <time>2023-08-20T06:34:22Z</time>
      </trkpt>
      <trkpt lat="46.52951" lon="0.31794">
        <ele>138.8</ele>
        <time>2023-08-20T06:34:24Z</time>
      </trkpt>
      <trkpt lat="46.52965" lon="0.31799">
        <ele>138</ele>
        <time>2023-08-20T06:34:26Z</time>
      </trkpt>
      <trkpt lat="46.52973" lon="0.31804">
        <ele>137</ele>
        <time>2023-08-20T06:34:27Z</time>
      </trkpt>
      <trkpt lat="46.5298" lon="0.31808">
        <ele>136.2</ele>
        <time>2023-08-20T06:34:28Z</time>
      </trkpt>
      <trkpt lat="46.52987" lon="0.31812">
        <ele>135.8</ele>
        <time>2023-08-20T06:34:29Z</time>
      </trkpt>
      <trkpt lat="46.52995" lon="0.31817">
        <ele>135</ele>
        <time>2023-08-20T06:34:30Z</time>
      </trkpt>
      <trkpt lat="46.52995" lon="0.31817">
        <ele>132.8</ele>
        <time>2023-08-20T06:34:31Z</time>
      </trkpt>
      <trkpt lat="46.53007" lon="0.31828">
        <ele>131.6</ele>
        <time>2023-08-20T06:34:33Z</time>
      </trkpt>
      <trkpt lat="46.53009" lon="0.31831">
        <ele>130.8</ele>
        <time>2023-08-20T06:34:34Z</time>
      </trkpt>
      <trkpt lat="46.5301" lon="0.31833">
        <ele>130.2</ele>
        <time>2023-08-20T06:34:35Z</time>
      </trkpt>
      <trkpt lat="46.53013" lon="0.3184">
        <ele>129.4</ele>
        <time>2023-08-20T06:34:37Z</time>
      </trkpt>
      <trkpt lat="46.53015" lon="0.31842">
        <ele>129</ele>
        <time>2023-08-20T06:34:38Z</time>
      </trkpt>
      <trkpt lat="46.53019" lon="0.31849">
        <ele>128.6</ele>
        <time>2023-08-20T06:34:41Z</time>
      </trkpt>
      <trkpt lat="46.5302" lon="0.3185">
        <ele>128.6</ele>
        <time>2023-08-20T06:34:43Z</time>
      </trkpt>
      <trkpt lat="46.53025" lon="0.3185">
        <ele>128.6</ele>
        <time>2023-08-20T06:34:46Z</time>
      </trkpt>
      <trkpt lat="46.53023" lon="0.31849">
        <ele>129.2</ele>
        <time>2023-08-20T06:34:49Z</time>
      </trkpt>
      <trkpt lat="46.53031" lon="0.31848">
        <ele>130</ele>
        <time>2023-08-20T06:34:55Z</time>
      </trkpt>
      <trkpt lat="46.53031" lon="0.3185">
        <ele>130.2</ele>
        <time>2023-08-20T06:34:56Z</time>
      </trkpt>
      <trkpt lat="46.53031" lon="0.31855">
        <ele>131.2</ele>
        <time>2023-08-20T06:35:00Z</time>
      </trkpt>
      <trkpt lat="46.53032" lon="0.31858">
        <ele>132</ele>
        <time>2023-08-20T06:35:02Z</time>
      </trkpt>
      <trkpt lat="46.53032" lon="0.31859">
        <ele>132.6</ele>
        <time>2023-08-20T06:35:03Z</time>
      </trkpt>
      <trkpt lat="46.53033" lon="0.31861">
        <ele>133</ele>
        <time>2023-08-20T06:35:04Z</time>
      </trkpt>
      <trkpt lat="46.53033" lon="0.31864">
        <ele>134</ele>
        <time>2023-08-20T06:35:07Z</time>
      </trkpt>
      <trkpt lat="46.53033" lon="0.31868">
        <ele>135</ele>
        <time>2023-08-20T06:35:10Z</time>
      </trkpt>
      <trkpt lat="46.53033" lon="0.31869">
        <ele>135.2</ele>
        <time>2023-08-20T06:35:11Z</time>
      </trkpt>
      <trkpt lat="46.53031" lon="0.31872">
        <ele>136.2</ele>
        <time>2023-08-20T06:35:13Z</time>
      </trkpt>
      <trkpt lat="46.5303" lon="0.31875">
        <ele>136.6</ele>
        <time>2023-08-20T06:35:14Z</time>
      </trkpt>
      <trkpt lat="46.5303" lon="0.31876">
        <ele>137.2</ele>
        <time>2023-08-20T06:35:15Z</time>
      </trkpt>
      <trkpt lat="46.53028" lon="0.31879">
        <ele>137.8</ele>
        <time>2023-08-20T06:35:17Z</time>
      </trkpt>
      <trkpt lat="46.53027" lon="0.31882">
        <ele>138.4</ele>
        <time>2023-08-20T06:35:19Z</time>
      </trkpt>
      <trkpt lat="46.53025" lon="0.31884">
        <ele>139.6</ele>
        <time>2023-08-20T06:35:22Z</time>
      </trkpt>
      <trkpt lat="46.53025" lon="0.31885">
        <ele>139.8</ele>
        <time>2023-08-20T06:35:23Z</time>
      </trkpt>
      <trkpt lat="46.53023" lon="0.31888">
        <ele>140.4</ele>
        <time>2023-08-20T06:35:26Z</time>
      </trkpt>
      <trkpt lat="46.53022" lon="0.3189">
        <ele>140.6</ele>
        <time>2023-08-20T06:35:27Z</time>
      </trkpt>
      <trkpt lat="46.53021" lon="0.31893">
        <ele>141</ele>
        <time>2023-08-20T06:35:29Z</time>
      </trkpt>
      <trkpt lat="46.53019" lon="0.31897">
        <ele>142</ele>
        <time>2023-08-20T06:35:32Z</time>
      </trkpt>
      <trkpt lat="46.53017" lon="0.31898">
        <ele>142.2</ele>
        <time>2023-08-20T06:35:33Z</time>
      </trkpt>
      <trkpt lat="46.53015" lon="0.31902">
        <ele>143</ele>
        <time>2023-08-20T06:35:36Z</time>
      </trkpt>
      <trkpt lat="46.53015" lon="0.31902">
        <ele>143.4</ele>
        <time>2023-08-20T06:35:37Z</time>
      </trkpt>
      <trkpt lat="46.53015" lon="0.31903">
        <ele>143.8</ele>
        <time>2023-08-20T06:35:38Z</time>
      </trkpt>
      <trkpt lat="46.53014" lon="0.31904">
        <ele>144</ele>
        <time>2023-08-20T06:35:39Z</time>
      </trkpt>
      <trkpt lat="46.53013" lon="0.31906">
        <ele>144.6</ele>
        <time>2023-08-20T06:35:41Z</time>
      </trkpt>
      <trkpt lat="46.5301" lon="0.3191">
        <ele>145</ele>
        <time>2023-08-20T06:35:44Z</time>
      </trkpt>
      <trkpt lat="46.5301" lon="0.31911">
        <ele>145.2</ele>
        <time>2023-08-20T06:35:45Z</time>
      </trkpt>
      <trkpt lat="46.53007" lon="0.31913">
        <ele>145.8</ele>
        <time>2023-08-20T06:35:47Z</time>
      </trkpt>
      <trkpt lat="46.53006" lon="0.31914">
        <ele>146</ele>
        <time>2023-08-20T06:35:48Z</time>
      </trkpt>
      <trkpt lat="46.53003" lon="0.31916">
        <ele>146.4</ele>
        <time>2023-08-20T06:35:50Z</time>
      </trkpt>
      <trkpt lat="46.53002" lon="0.31917">
        <ele>147.2</ele>
        <time>2023-08-20T06:35:52Z</time>
      </trkpt>
      <trkpt lat="46.53001" lon="0.31919">
        <ele>147.4</ele>
        <time>2023-08-20T06:35:53Z</time>
      </trkpt>
      <trkpt lat="46.53" lon="0.31919">
        <ele>147.6</ele>
        <time>2023-08-20T06:35:54Z</time>
      </trkpt>
      <trkpt lat="46.52997" lon="0.31923">
        <ele>148.4</ele>
        <time>2023-08-20T06:35:58Z</time>
      </trkpt>
      <trkpt lat="46.52996" lon="0.31923">
        <ele>148.6</ele>
        <time>2023-08-20T06:35:59Z</time>
      </trkpt>
      <trkpt lat="46.52995" lon="0.31925">
        <ele>149.4</ele>
        <time>2023-08-20T06:36:01Z</time>
      </trkpt>
      <trkpt lat="46.52995" lon="0.31926">
        <ele>149.6</ele>
        <time>2023-08-20T06:36:02Z</time>
      </trkpt>
      <trkpt lat="46.52994" lon="0.31927">
        <ele>149.8</ele>
        <time>2023-08-20T06:36:03Z</time>
      </trkpt>
      <trkpt lat="46.52989" lon="0.31934">
        <ele>150.8</ele>
        <time>2023-08-20T06:36:09Z</time>
      </trkpt>
      <trkpt lat="46.52988" lon="0.31935">
        <ele>151</ele>
        <time>2023-08-20T06:36:10Z</time>
      </trkpt>
      <trkpt lat="46.52982" lon="0.31942">
        <ele>152</ele>
        <time>2023-08-20T06:36:16Z</time>
      </trkpt>
      <trkpt lat="46.52978" lon="0.31948">
        <ele>153.2</ele>
        <time>2023-08-20T06:36:21Z</time>
      </trkpt>
      <trkpt lat="46.52976" lon="0.31956">
        <ele>154.2</ele>
        <time>2023-08-20T06:36:27Z</time>
      </trkpt>
      <trkpt lat="46.52975" lon="0.31958">
        <ele>154.4</ele>
        <time>2023-08-20T06:36:29Z</time>
      </trkpt>
      <trkpt lat="46.52972" lon="0.31963">
        <ele>155</ele>
        <time>2023-08-20T06:36:33Z</time>
      </trkpt>
      <trkpt lat="46.52971" lon="0.31966">
        <ele>155.2</ele>
        <time>2023-08-20T06:36:35Z</time>
      </trkpt>
      <trkpt lat="46.52968" lon="0.31971">
        <ele>156.2</ele>
        <time>2023-08-20T06:36:39Z</time>
      </trkpt>
      <trkpt lat="46.52965" lon="0.31974">
        <ele>156.4</ele>
        <time>2023-08-20T06:36:41Z</time>
      </trkpt>
      <trkpt lat="46.52958" lon="0.31979">
        <ele>157.6</ele>
        <time>2023-08-20T06:36:46Z</time>
      </trkpt>
      <trkpt lat="46.52954" lon="0.31985">
        <ele>158.8</ele>
        <time>2023-08-20T06:36:51Z</time>
      </trkpt>
      <trkpt lat="46.52953" lon="0.31987">
        <ele>159</ele>
        <time>2023-08-20T06:36:52Z</time>
      </trkpt>
      <trkpt lat="46.52946" lon="0.31994">
        <ele>159.8</ele>
        <time>2023-08-20T06:36:58Z</time>
      </trkpt>
      <trkpt lat="46.52937" lon="0.32001">
        <ele>161</ele>
        <time>2023-08-20T06:37:05Z</time>
      </trkpt>
      <trkpt lat="46.52936" lon="0.32002">
        <ele>161.2</ele>
        <time>2023-08-20T06:37:06Z</time>
      </trkpt>
      <trkpt lat="46.52929" lon="0.32006">
        <ele>162</ele>
        <time>2023-08-20T06:37:11Z</time>
      </trkpt>
      <trkpt lat="46.52917" lon="0.32011">
        <ele>163</ele>
        <time>2023-08-20T06:37:19Z</time>
      </trkpt>
      <trkpt lat="46.52916" lon="0.32011">
        <ele>163.2</ele>
        <time>2023-08-20T06:37:20Z</time>
      </trkpt>
      <trkpt lat="46.52916" lon="0.32017">
        <ele>163.2</ele>
        <time>2023-08-20T06:37:27Z</time>
      </trkpt>
      <trkpt lat="46.52916" lon="0.32018">
        <ele>163.2</ele>
        <time>2023-08-20T06:37:28Z</time>
      </trkpt>
      <trkpt lat="46.52917" lon="0.3202">
        <ele>163.2</ele>
        <time>2023-08-20T06:37:29Z</time>
      </trkpt>
      <trkpt lat="46.52919" lon="0.32023">
        <ele>163.2</ele>
        <time>2023-08-20T06:37:31Z</time>
      </trkpt>
      <trkpt lat="46.52922" lon="0.32031">
        <ele>163.4</ele>
        <time>2023-08-20T06:37:36Z</time>
      </trkpt>
      <trkpt lat="46.52918" lon="0.32051">
        <ele>163.8</ele>
        <time>2023-08-20T06:37:41Z</time>
      </trkpt>
      <trkpt lat="46.52919" lon="0.32062">
        <ele>164.4</ele>
        <time>2023-08-20T06:37:44Z</time>
      </trkpt>
      <trkpt lat="46.5292" lon="0.32064">
        <ele>164.6</ele>
        <time>2023-08-20T06:37:45Z</time>
      </trkpt>
      <trkpt lat="46.52922" lon="0.32066">
        <ele>164.8</ele>
        <time>2023-08-20T06:37:46Z</time>
      </trkpt>
      <trkpt lat="46.52931" lon="0.32069">
        <ele>164.6</ele>
        <time>2023-08-20T06:37:50Z</time>
      </trkpt>
      <trkpt lat="46.52936" lon="0.32072">
        <ele>164.2</ele>
        <time>2023-08-20T06:37:52Z</time>
      </trkpt>
      <trkpt lat="46.5294" lon="0.32079">
        <ele>163.8</ele>
        <time>2023-08-20T06:37:54Z</time>
      </trkpt>
      <trkpt lat="46.52942" lon="0.32083">
        <ele>163.6</ele>
        <time>2023-08-20T06:37:55Z</time>
      </trkpt>
      <trkpt lat="46.52946" lon="0.32091">
        <ele>163.2</ele>
        <time>2023-08-20T06:37:57Z</time>
      </trkpt>
      <trkpt lat="46.52953" lon="0.32098">
        <ele>163.2</ele>
        <time>2023-08-20T06:37:59Z</time>
      </trkpt>
      <trkpt lat="46.52956" lon="0.321">
        <ele>163</ele>
        <time>2023-08-20T06:38:00Z</time>
      </trkpt>
      <trkpt lat="46.52964" lon="0.32107">
        <ele>162.8</ele>
        <time>2023-08-20T06:38:02Z</time>
      </trkpt>
      <trkpt lat="46.52971" lon="0.32119">
        <ele>162.2</ele>
        <time>2023-08-20T06:38:04Z</time>
      </trkpt>
      <trkpt lat="46.52983" lon="0.32137">
        <ele>161.2</ele>
        <time>2023-08-20T06:38:07Z</time>
      </trkpt>
      <trkpt lat="46.52993" lon="0.32152">
        <ele>160.6</ele>
        <time>2023-08-20T06:38:10Z</time>
      </trkpt>
      <trkpt lat="46.52996" lon="0.32157">
        <ele>160.4</ele>
        <time>2023-08-20T06:38:11Z</time>
      </trkpt>
      <trkpt lat="46.53002" lon="0.32169">
        <ele>160.4</ele>
        <time>2023-08-20T06:38:13Z</time>
      </trkpt>
      <trkpt lat="46.53004" lon="0.32174">
        <ele>160.4</ele>
        <time>2023-08-20T06:38:14Z</time>
      </trkpt>
      <trkpt lat="46.53007" lon="0.32177">
        <ele>160.6</ele>
        <time>2023-08-20T06:38:15Z</time>
      </trkpt>
      <trkpt lat="46.53014" lon="0.32184">
        <ele>161</ele>
        <time>2023-08-20T06:38:18Z</time>
      </trkpt>
      <trkpt lat="46.53016" lon="0.32186">
        <ele>161</ele>
        <time>2023-08-20T06:38:19Z</time>
      </trkpt>
      <trkpt lat="46.53025" lon="0.32192">
        <ele>161</ele>
        <time>2023-08-20T06:38:22Z</time>
      </trkpt>
      <trkpt lat="46.53028" lon="0.32194">
        <ele>161</ele>
        <time>2023-08-20T06:38:23Z</time>
      </trkpt>
      <trkpt lat="46.53046" lon="0.32213">
        <ele>160.8</ele>
        <time>2023-08-20T06:38:28Z</time>
      </trkpt>
      <trkpt lat="46.5305" lon="0.32217">
        <ele>160.8</ele>
        <time>2023-08-20T06:38:29Z</time>
      </trkpt>
      <trkpt lat="46.53063" lon="0.32228">
        <ele>161</ele>
        <time>2023-08-20T06:38:33Z</time>
      </trkpt>
      <trkpt lat="46.53071" lon="0.32237">
        <ele>161.2</ele>
        <time>2023-08-20T06:38:35Z</time>
      </trkpt>
      <trkpt lat="46.53079" lon="0.32243">
        <ele>161</ele>
        <time>2023-08-20T06:38:37Z</time>
      </trkpt>
      <trkpt lat="46.53097" lon="0.32253">
        <ele>160</ele>
        <time>2023-08-20T06:38:42Z</time>
      </trkpt>
      <trkpt lat="46.531" lon="0.32255">
        <ele>159.8</ele>
        <time>2023-08-20T06:38:43Z</time>
      </trkpt>
      <trkpt lat="46.53104" lon="0.32257">
        <ele>159.6</ele>
        <time>2023-08-20T06:38:44Z</time>
      </trkpt>
      <trkpt lat="46.53121" lon="0.32268">
        <ele>159.4</ele>
        <time>2023-08-20T06:38:48Z</time>
      </trkpt>
      <trkpt lat="46.53125" lon="0.32271">
        <ele>159.4</ele>
        <time>2023-08-20T06:38:49Z</time>
      </trkpt>
      <trkpt lat="46.53128" lon="0.32274">
        <ele>159.2</ele>
        <time>2023-08-20T06:38:50Z</time>
      </trkpt>
      <trkpt lat="46.53132" lon="0.32277">
        <ele>159</ele>
        <time>2023-08-20T06:38:51Z</time>
      </trkpt>
      <trkpt lat="46.53136" lon="0.32281">
        <ele>158.8</ele>
        <time>2023-08-20T06:38:52Z</time>
      </trkpt>
      <trkpt lat="46.53143" lon="0.32285">
        <ele>158.6</ele>
        <time>2023-08-20T06:38:54Z</time>
      </trkpt>
      <trkpt lat="46.53151" lon="0.3229">
        <ele>158.4</ele>
        <time>2023-08-20T06:38:56Z</time>
      </trkpt>
      <trkpt lat="46.53155" lon="0.32292">
        <ele>158</ele>
        <time>2023-08-20T06:38:57Z</time>
      </trkpt>
      <trkpt lat="46.53159" lon="0.32293">
        <ele>157.6</ele>
        <time>2023-08-20T06:38:58Z</time>
      </trkpt>
      <trkpt lat="46.53163" lon="0.32294">
        <ele>157.4</ele>
        <time>2023-08-20T06:38:59Z</time>
      </trkpt>
      <trkpt lat="46.53168" lon="0.32295">
        <ele>156.6</ele>
        <time>2023-08-20T06:39:00Z</time>
      </trkpt>
      <trkpt lat="46.53172" lon="0.32295">
        <ele>156</ele>
        <time>2023-08-20T06:39:01Z</time>
      </trkpt>
      <trkpt lat="46.53177" lon="0.32297">
        <ele>155.2</ele>
        <time>2023-08-20T06:39:02Z</time>
      </trkpt>
      <trkpt lat="46.53181" lon="0.32298">
        <ele>154</ele>
        <time>2023-08-20T06:39:03Z</time>
      </trkpt>
      <trkpt lat="46.53189" lon="0.32298">
        <ele>152.6</ele>
        <time>2023-08-20T06:39:05Z</time>
      </trkpt>
      <trkpt lat="46.53195" lon="0.32298">
        <ele>150.8</ele>
        <time>2023-08-20T06:39:07Z</time>
      </trkpt>
      <trkpt lat="46.53197" lon="0.32298">
        <ele>149.6</ele>
        <time>2023-08-20T06:39:08Z</time>
      </trkpt>
      <trkpt lat="46.53201" lon="0.32298">
        <ele>148.8</ele>
        <time>2023-08-20T06:39:09Z</time>
      </trkpt>
      <trkpt lat="46.53203" lon="0.32298">
        <ele>148.2</ele>
        <time>2023-08-20T06:39:10Z</time>
      </trkpt>
      <trkpt lat="46.53205" lon="0.32298">
        <ele>147.8</ele>
        <time>2023-08-20T06:39:11Z</time>
      </trkpt>
      <trkpt lat="46.53212" lon="0.32299">
        <ele>147</ele>
        <time>2023-08-20T06:39:14Z</time>
      </trkpt>
      <trkpt lat="46.53216" lon="0.32301">
        <ele>146.2</ele>
        <time>2023-08-20T06:39:16Z</time>
      </trkpt>
      <trkpt lat="46.53221" lon="0.32304">
        <ele>145.8</ele>
        <time>2023-08-20T06:39:18Z</time>
      </trkpt>
      <trkpt lat="46.53236" lon="0.32315">
        <ele>145.6</ele>
        <time>2023-08-20T06:39:22Z</time>
      </trkpt>
      <trkpt lat="46.5325" lon="0.32324">
        <ele>145.2</ele>
        <time>2023-08-20T06:39:26Z</time>
      </trkpt>
      <trkpt lat="46.53254" lon="0.32328">
        <ele>145</ele>
        <time>2023-08-20T06:39:28Z</time>
      </trkpt>
      <trkpt lat="46.53256" lon="0.3233">
        <ele>144.6</ele>
        <time>2023-08-20T06:39:29Z</time>
      </trkpt>
      <trkpt lat="46.53259" lon="0.32332">
        <ele>144.4</ele>
        <time>2023-08-20T06:39:30Z</time>
      </trkpt>
      <trkpt lat="46.53265" lon="0.32345">
        <ele>145.2</ele>
        <time>2023-08-20T06:39:34Z</time>
      </trkpt>
      <trkpt lat="46.53268" lon="0.32355">
        <ele>145.6</ele>
        <time>2023-08-20T06:39:37Z</time>
      </trkpt>
      <trkpt lat="46.53274" lon="0.32364">
        <ele>146.8</ele>
        <time>2023-08-20T06:39:40Z</time>
      </trkpt>
      <trkpt lat="46.53289" lon="0.32381">
        <ele>148</ele>
        <time>2023-08-20T06:39:44Z</time>
      </trkpt>
      <trkpt lat="46.53294" lon="0.3239">
        <ele>149.8</ele>
        <time>2023-08-20T06:39:46Z</time>
      </trkpt>
      <trkpt lat="46.53304" lon="0.32406">
        <ele>150.8</ele>
        <time>2023-08-20T06:39:51Z</time>
      </trkpt>
      <trkpt lat="46.53305" lon="0.32408">
        <ele>150.8</ele>
        <time>2023-08-20T06:39:52Z</time>
      </trkpt>
      <trkpt lat="46.53309" lon="0.32422">
        <ele>151</ele>
        <time>2023-08-20T06:39:57Z</time>
      </trkpt>
      <trkpt lat="46.53312" lon="0.32427">
        <ele>150.6</ele>
        <time>2023-08-20T06:39:59Z</time>
      </trkpt>
      <trkpt lat="46.53315" lon="0.3243">
        <ele>150.2</ele>
        <time>2023-08-20T06:40:01Z</time>
      </trkpt>
      <trkpt lat="46.53318" lon="0.32431">
        <ele>149.6</ele>
        <time>2023-08-20T06:40:02Z</time>
      </trkpt>
      <trkpt lat="46.53325" lon="0.32434">
        <ele>147.6</ele>
        <time>2023-08-20T06:40:04Z</time>
      </trkpt>
      <trkpt lat="46.5333" lon="0.32436">
        <ele>146.4</ele>
        <time>2023-08-20T06:40:05Z</time>
      </trkpt>
      <trkpt lat="46.53339" lon="0.32438">
        <ele>144.6</ele>
        <time>2023-08-20T06:40:07Z</time>
      </trkpt>
      <trkpt lat="46.53342" lon="0.32439">
        <ele>144.2</ele>
        <time>2023-08-20T06:40:08Z</time>
      </trkpt>
      <trkpt lat="46.53345" lon="0.32442">
        <ele>143.8</ele>
        <time>2023-08-20T06:40:10Z</time>
      </trkpt>
      <trkpt lat="46.53358" lon="0.32457">
        <ele>143.8</ele>
        <time>2023-08-20T06:40:16Z</time>
      </trkpt>
      <trkpt lat="46.53364" lon="0.32462">
        <ele>143.6</ele>
        <time>2023-08-20T06:40:18Z</time>
      </trkpt>
      <trkpt lat="46.53373" lon="0.32467">
        <ele>142.6</ele>
        <time>2023-08-20T06:40:21Z</time>
      </trkpt>
      <trkpt lat="46.53375" lon="0.32469">
        <ele>142.4</ele>
        <time>2023-08-20T06:40:22Z</time>
      </trkpt>
      <trkpt lat="46.53382" lon="0.32474">
        <ele>141.2</ele>
        <time>2023-08-20T06:40:25Z</time>
      </trkpt>
      <trkpt lat="46.53387" lon="0.32477">
        <ele>140.2</ele>
        <time>2023-08-20T06:40:28Z</time>
      </trkpt>
      <trkpt lat="46.5339" lon="0.32479">
        <ele>139.8</ele>
        <time>2023-08-20T06:40:29Z</time>
      </trkpt>
      <trkpt lat="46.53393" lon="0.32482">
        <ele>139</ele>
        <time>2023-08-20T06:40:31Z</time>
      </trkpt>
      <trkpt lat="46.53402" lon="0.3249">
        <ele>138</ele>
        <time>2023-08-20T06:40:36Z</time>
      </trkpt>
      <trkpt lat="46.53421" lon="0.32504">
        <ele>138.8</ele>
        <time>2023-08-20T06:40:43Z</time>
      </trkpt>
      <trkpt lat="46.53437" lon="0.32511">
        <ele>139</ele>
        <time>2023-08-20T06:40:49Z</time>
      </trkpt>
      <trkpt lat="46.53446" lon="0.32514">
        <ele>137.6</ele>
        <time>2023-08-20T06:40:53Z</time>
      </trkpt>
      <trkpt lat="46.53452" lon="0.32516">
        <ele>137.4</ele>
        <time>2023-08-20T06:40:56Z</time>
      </trkpt>
      <trkpt lat="46.53461" lon="0.3252">
        <ele>138.2</ele>
        <time>2023-08-20T06:41:01Z</time>
      </trkpt>
      <trkpt lat="46.53468" lon="0.32522">
        <ele>138.6</ele>
        <time>2023-08-20T06:41:04Z</time>
      </trkpt>
      <trkpt lat="46.53481" lon="0.32527">
        <ele>139</ele>
        <time>2023-08-20T06:41:10Z</time>
      </trkpt>
      <trkpt lat="46.53496" lon="0.32535">
        <ele>139</ele>
        <time>2023-08-20T06:41:17Z</time>
      </trkpt>
      <trkpt lat="46.53499" lon="0.32535">
        <ele>140</ele>
        <time>2023-08-20T06:41:19Z</time>
      </trkpt>
      <trkpt lat="46.53501" lon="0.32535">
        <ele>140.2</ele>
        <time>2023-08-20T06:41:20Z</time>
      </trkpt>
      <trkpt lat="46.53505" lon="0.32536">
        <ele>140.4</ele>
        <time>2023-08-20T06:41:22Z</time>
      </trkpt>
      <trkpt lat="46.53507" lon="0.32537">
        <ele>140.4</ele>
        <time>2023-08-20T06:41:23Z</time>
      </trkpt>
      <trkpt lat="46.53512" lon="0.3254">
        <ele>141.2</ele>
        <time>2023-08-20T06:41:26Z</time>
      </trkpt>
      <trkpt lat="46.53513" lon="0.32541">
        <ele>141.2</ele>
        <time>2023-08-20T06:41:27Z</time>
      </trkpt>
      <trkpt lat="46.53524" lon="0.32547">
        <ele>142.2</ele>
        <time>2023-08-20T06:41:31Z</time>
      </trkpt>
      <trkpt lat="46.53526" lon="0.3255">
        <ele>142.4</ele>
        <time>2023-08-20T06:41:32Z</time>
      </trkpt>
      <trkpt lat="46.53532" lon="0.32557">
        <ele>144.2</ele>
        <time>2023-08-20T06:41:36Z</time>
      </trkpt>
      <trkpt lat="46.53532" lon="0.32559">
        <ele>144.8</ele>
        <time>2023-08-20T06:41:37Z</time>
      </trkpt>
      <trkpt lat="46.53533" lon="0.32562">
        <ele>145.2</ele>
        <time>2023-08-20T06:41:39Z</time>
      </trkpt>
      <trkpt lat="46.53535" lon="0.32566">
        <ele>146.2</ele>
        <time>2023-08-20T06:41:42Z</time>
      </trkpt>
      <trkpt lat="46.53536" lon="0.32568">
        <ele>146.6</ele>
        <time>2023-08-20T06:41:43Z</time>
      </trkpt>
      <trkpt lat="46.53538" lon="0.32574">
        <ele>147.6</ele>
        <time>2023-08-20T06:41:47Z</time>
      </trkpt>
      <trkpt lat="46.53539" lon="0.32575">
        <ele>147.8</ele>
        <time>2023-08-20T06:41:48Z</time>
      </trkpt>
      <trkpt lat="46.53541" lon="0.32582">
        <ele>148.8</ele>
        <time>2023-08-20T06:41:52Z</time>
      </trkpt>
      <trkpt lat="46.53542" lon="0.32586">
        <ele>149.8</ele>
        <time>2023-08-20T06:41:55Z</time>
      </trkpt>
      <trkpt lat="46.53541" lon="0.32587">
        <ele>150</ele>
        <time>2023-08-20T06:41:56Z</time>
      </trkpt>
      <trkpt lat="46.53542" lon="0.32589">
        <ele>150.2</ele>
        <time>2023-08-20T06:41:57Z</time>
      </trkpt>
      <trkpt lat="46.53545" lon="0.32597">
        <ele>151</ele>
        <time>2023-08-20T06:42:03Z</time>
      </trkpt>
      <trkpt lat="46.53546" lon="0.32598">
        <ele>151.2</ele>
        <time>2023-08-20T06:42:04Z</time>
      </trkpt>
      <trkpt lat="46.53546" lon="0.32599">
        <ele>151.4</ele>
        <time>2023-08-20T06:42:05Z</time>
      </trkpt>
      <trkpt lat="46.53553" lon="0.32604">
        <ele>151.6</ele>
        <time>2023-08-20T06:42:12Z</time>
      </trkpt>
      <trkpt lat="46.53558" lon="0.32606">
        <ele>151.4</ele>
        <time>2023-08-20T06:42:15Z</time>
      </trkpt>
      <trkpt lat="46.53572" lon="0.32607">
        <ele>150.2</ele>
        <time>2023-08-20T06:42:20Z</time>
      </trkpt>
      <trkpt lat="46.53572" lon="0.32607">
        <ele>150</ele>
        <time>2023-08-20T06:42:21Z</time>
      </trkpt>
      <trkpt lat="46.53584" lon="0.32601">
        <ele>149</ele>
        <time>2023-08-20T06:42:23Z</time>
      </trkpt>
      <trkpt lat="46.53594" lon="0.32597">
        <ele>147.2</ele>
        <time>2023-08-20T06:42:25Z</time>
      </trkpt>
      <trkpt lat="46.53605" lon="0.32594">
        <ele>145.6</ele>
        <time>2023-08-20T06:42:27Z</time>
      </trkpt>
      <trkpt lat="46.53615" lon="0.32593">
        <ele>144.4</ele>
        <time>2023-08-20T06:42:29Z</time>
      </trkpt>
      <trkpt lat="46.5362" lon="0.32592">
        <ele>143.6</ele>
        <time>2023-08-20T06:42:30Z</time>
      </trkpt>
      <trkpt lat="46.53624" lon="0.32591">
        <ele>143.2</ele>
        <time>2023-08-20T06:42:31Z</time>
      </trkpt>
      <trkpt lat="46.53629" lon="0.32591">
        <ele>141.8</ele>
        <time>2023-08-20T06:42:33Z</time>
      </trkpt>
      <trkpt lat="46.53631" lon="0.32592">
        <ele>141.2</ele>
        <time>2023-08-20T06:42:34Z</time>
      </trkpt>
      <trkpt lat="46.53635" lon="0.32594">
        <ele>141</ele>
        <time>2023-08-20T06:42:36Z</time>
      </trkpt>
      <trkpt lat="46.5364" lon="0.32599">
        <ele>141.8</ele>
        <time>2023-08-20T06:42:40Z</time>
      </trkpt>
      <trkpt lat="46.53642" lon="0.32603">
        <ele>143</ele>
        <time>2023-08-20T06:42:43Z</time>
      </trkpt>
      <trkpt lat="46.53643" lon="0.32607">
        <ele>144</ele>
        <time>2023-08-20T06:42:46Z</time>
      </trkpt>
      <trkpt lat="46.53644" lon="0.32609">
        <ele>144</ele>
        <time>2023-08-20T06:42:47Z</time>
      </trkpt>
      <trkpt lat="46.53644" lon="0.3261">
        <ele>144.4</ele>
        <time>2023-08-20T06:42:48Z</time>
      </trkpt>
      <trkpt lat="46.53644" lon="0.32612">
        <ele>144.8</ele>
        <time>2023-08-20T06:42:49Z</time>
      </trkpt>
      <trkpt lat="46.53645" lon="0.32616">
        <ele>145.6</ele>
        <time>2023-08-20T06:42:52Z</time>
      </trkpt>
      <trkpt lat="46.53643" lon="0.32618">
        <ele>146.6</ele>
        <time>2023-08-20T06:42:54Z</time>
      </trkpt>
      <trkpt lat="46.53643" lon="0.32619">
        <ele>147</ele>
        <time>2023-08-20T06:42:55Z</time>
      </trkpt>
      <trkpt lat="46.5364" lon="0.32627">
        <ele>148.2</ele>
        <time>2023-08-20T06:43:01Z</time>
      </trkpt>
      <trkpt lat="46.5364" lon="0.32628">
        <ele>148.4</ele>
        <time>2023-08-20T06:43:02Z</time>
      </trkpt>
      <trkpt lat="46.5364" lon="0.3263">
        <ele>148.6</ele>
        <time>2023-08-20T06:43:03Z</time>
      </trkpt>
      <trkpt lat="46.53642" lon="0.32635">
        <ele>149.2</ele>
        <time>2023-08-20T06:43:06Z</time>
      </trkpt>
      <trkpt lat="46.53643" lon="0.32638">
        <ele>149.4</ele>
        <time>2023-08-20T06:43:08Z</time>
      </trkpt>
      <trkpt lat="46.53649" lon="0.32647">
        <ele>150</ele>
        <time>2023-08-20T06:43:15Z</time>
      </trkpt>
      <trkpt lat="46.5365" lon="0.3265">
        <ele>150.4</ele>
        <time>2023-08-20T06:43:17Z</time>
      </trkpt>
      <trkpt lat="46.53652" lon="0.32657">
        <ele>150.6</ele>
        <time>2023-08-20T06:43:21Z</time>
      </trkpt>
      <trkpt lat="46.53654" lon="0.3266">
        <ele>151.4</ele>
        <time>2023-08-20T06:43:24Z</time>
      </trkpt>
      <trkpt lat="46.53655" lon="0.32663">
        <ele>151.8</ele>
        <time>2023-08-20T06:43:26Z</time>
      </trkpt>
      <trkpt lat="46.53655" lon="0.32666">
        <ele>152.6</ele>
        <time>2023-08-20T06:43:28Z</time>
      </trkpt>
      <trkpt lat="46.53654" lon="0.32672">
        <ele>153</ele>
        <time>2023-08-20T06:43:31Z</time>
      </trkpt>
      <trkpt lat="46.53652" lon="0.32675">
        <ele>153.8</ele>
        <time>2023-08-20T06:43:33Z</time>
      </trkpt>
      <trkpt lat="46.53649" lon="0.3268">
        <ele>154.6</ele>
        <time>2023-08-20T06:43:36Z</time>
      </trkpt>
      <trkpt lat="46.53649" lon="0.32683">
        <ele>155</ele>
        <time>2023-08-20T06:43:37Z</time>
      </trkpt>
      <trkpt lat="46.53645" lon="0.32692">
        <ele>156</ele>
        <time>2023-08-20T06:43:42Z</time>
      </trkpt>
      <trkpt lat="46.53644" lon="0.32694">
        <ele>156.4</ele>
        <time>2023-08-20T06:43:43Z</time>
      </trkpt>
      <trkpt lat="46.53644" lon="0.32694">
        <ele>156.6</ele>
        <time>2023-08-20T06:43:44Z</time>
      </trkpt>
      <trkpt lat="46.53642" lon="0.32698">
        <ele>157.2</ele>
        <time>2023-08-20T06:43:46Z</time>
      </trkpt>
      <trkpt lat="46.5364" lon="0.32705">
        <ele>158.2</ele>
        <time>2023-08-20T06:43:50Z</time>
      </trkpt>
      <trkpt lat="46.53639" lon="0.32711">
        <ele>159</ele>
        <time>2023-08-20T06:43:55Z</time>
      </trkpt>
      <trkpt lat="46.53638" lon="0.32715">
        <ele>159.4</ele>
        <time>2023-08-20T06:43:57Z</time>
      </trkpt>
      <trkpt lat="46.53639" lon="0.32716">
        <ele>159.4</ele>
        <time>2023-08-20T06:43:58Z</time>
      </trkpt>
      <trkpt lat="46.53639" lon="0.32724">
        <ele>160.4</ele>
        <time>2023-08-20T06:44:02Z</time>
      </trkpt>
      <trkpt lat="46.5364" lon="0.3273">
        <ele>161</ele>
        <time>2023-08-20T06:44:05Z</time>
      </trkpt>
      <trkpt lat="46.53645" lon="0.32739">
        <ele>161.2</ele>
        <time>2023-08-20T06:44:10Z</time>
      </trkpt>
      <trkpt lat="46.53646" lon="0.3274">
        <ele>161</ele>
        <time>2023-08-20T06:44:11Z</time>
      </trkpt>
      <trkpt lat="46.53658" lon="0.32743">
        <ele>160.4</ele>
        <time>2023-08-20T06:44:17Z</time>
      </trkpt>
      <trkpt lat="46.53672" lon="0.32746">
        <ele>159.6</ele>
        <time>2023-08-20T06:44:21Z</time>
      </trkpt>
      <trkpt lat="46.53679" lon="0.32747">
        <ele>159.4</ele>
        <time>2023-08-20T06:44:23Z</time>
      </trkpt>
      <trkpt lat="46.53706" lon="0.32753">
        <ele>158.4</ele>
        <time>2023-08-20T06:44:28Z</time>
      </trkpt>
      <trkpt lat="46.53711" lon="0.32753">
        <ele>158</ele>
        <time>2023-08-20T06:44:29Z</time>
      </trkpt>
      <trkpt lat="46.53731" lon="0.32755">
        <ele>157</ele>
        <time>2023-08-20T06:44:33Z</time>
      </trkpt>
      <trkpt lat="46.53737" lon="0.32757">
        <ele>157</ele>
        <time>2023-08-20T06:44:34Z</time>
      </trkpt>
      <trkpt lat="46.53775" lon="0.32765">
        <ele>155.8</ele>
        <time>2023-08-20T06:44:40Z</time>
      </trkpt>
      <trkpt lat="46.53816" lon="0.3278">
        <ele>155</ele>
        <time>2023-08-20T06:44:46Z</time>
      </trkpt>
      <trkpt lat="46.5383" lon="0.32788">
        <ele>155</ele>
        <time>2023-08-20T06:44:49Z</time>
      </trkpt>
      <trkpt lat="46.53834" lon="0.32791">
        <ele>154.8</ele>
        <time>2023-08-20T06:44:50Z</time>
      </trkpt>
      <trkpt lat="46.53839" lon="0.32794">
        <ele>154.6</ele>
        <time>2023-08-20T06:44:51Z</time>
      </trkpt>
      <trkpt lat="46.53852" lon="0.328">
        <ele>154.4</ele>
        <time>2023-08-20T06:44:55Z</time>
      </trkpt>
      <trkpt lat="46.53856" lon="0.32801">
        <ele>154.4</ele>
        <time>2023-08-20T06:44:56Z</time>
      </trkpt>
      <trkpt lat="46.53877" lon="0.3281">
        <ele>154.4</ele>
        <time>2023-08-20T06:45:02Z</time>
      </trkpt>
      <trkpt lat="46.53887" lon="0.32812">
        <ele>154</ele>
        <time>2023-08-20T06:45:05Z</time>
      </trkpt>
      <trkpt lat="46.53891" lon="0.32811">
        <ele>153.6</ele>
        <time>2023-08-20T06:45:06Z</time>
      </trkpt>
      <trkpt lat="46.53895" lon="0.3281">
        <ele>153.2</ele>
        <time>2023-08-20T06:45:07Z</time>
      </trkpt>
      <trkpt lat="46.53904" lon="0.32809">
        <ele>152.4</ele>
        <time>2023-08-20T06:45:09Z</time>
      </trkpt>
      <trkpt lat="46.53918" lon="0.32808">
        <ele>151.6</ele>
        <time>2023-08-20T06:45:12Z</time>
      </trkpt>
      <trkpt lat="46.53922" lon="0.32807">
        <ele>151</ele>
        <time>2023-08-20T06:45:13Z</time>
      </trkpt>
      <trkpt lat="46.5393" lon="0.32806">
        <ele>149.6</ele>
        <time>2023-08-20T06:45:16Z</time>
      </trkpt>
      <trkpt lat="46.53936" lon="0.32807">
        <ele>148.4</ele>
        <time>2023-08-20T06:45:19Z</time>
      </trkpt>
      <trkpt lat="46.5394" lon="0.32807">
        <ele>148.2</ele>
        <time>2023-08-20T06:45:22Z</time>
      </trkpt>
      <trkpt lat="46.53941" lon="0.32807">
        <ele>148</ele>
        <time>2023-08-20T06:45:23Z</time>
      </trkpt>
      <trkpt lat="46.53946" lon="0.3281">
        <ele>148</ele>
        <time>2023-08-20T06:45:26Z</time>
      </trkpt>
      <trkpt lat="46.53949" lon="0.32812">
        <ele>148.4</ele>
        <time>2023-08-20T06:45:28Z</time>
      </trkpt>
      <trkpt lat="46.53952" lon="0.32814">
        <ele>148.4</ele>
        <time>2023-08-20T06:45:29Z</time>
      </trkpt>
      <trkpt lat="46.5396" lon="0.32818">
        <ele>148.8</ele>
        <time>2023-08-20T06:45:33Z</time>
      </trkpt>
      <trkpt lat="46.53962" lon="0.32822">
        <ele>149</ele>
        <time>2023-08-20T06:45:35Z</time>
      </trkpt>
      <trkpt lat="46.53962" lon="0.32823">
        <ele>149.2</ele>
        <time>2023-08-20T06:45:36Z</time>
      </trkpt>
      <trkpt lat="46.53961" lon="0.32826">
        <ele>149.8</ele>
        <time>2023-08-20T06:45:37Z</time>
      </trkpt>
      <trkpt lat="46.5396" lon="0.32831">
        <ele>151</ele>
        <time>2023-08-20T06:45:40Z</time>
      </trkpt>
      <trkpt lat="46.5396" lon="0.32833">
        <ele>151.4</ele>
        <time>2023-08-20T06:45:42Z</time>
      </trkpt>
      <trkpt lat="46.53957" lon="0.32837">
        <ele>152.4</ele>
        <time>2023-08-20T06:45:46Z</time>
      </trkpt>
      <trkpt lat="46.53955" lon="0.32838">
        <ele>152.8</ele>
        <time>2023-08-20T06:45:48Z</time>
      </trkpt>
      <trkpt lat="46.5395" lon="0.3284">
        <ele>153</ele>
        <time>2023-08-20T06:45:53Z</time>
      </trkpt>
      <trkpt lat="46.53948" lon="0.32842">
        <ele>153</ele>
        <time>2023-08-20T06:45:55Z</time>
      </trkpt>
      <trkpt lat="46.53946" lon="0.3285">
        <ele>153.6</ele>
        <time>2023-08-20T06:45:59Z</time>
      </trkpt>
      <trkpt lat="46.53944" lon="0.32854">
        <ele>153.8</ele>
        <time>2023-08-20T06:46:01Z</time>
      </trkpt>
      <trkpt lat="46.53941" lon="0.32856">
        <ele>154</ele>
        <time>2023-08-20T06:46:03Z</time>
      </trkpt>
      <trkpt lat="46.53936" lon="0.32857">
        <ele>154.4</ele>
        <time>2023-08-20T06:46:06Z</time>
      </trkpt>
      <trkpt lat="46.53935" lon="0.32858">
        <ele>154.6</ele>
        <time>2023-08-20T06:46:07Z</time>
      </trkpt>
      <trkpt lat="46.53927" lon="0.32865">
        <ele>155.6</ele>
        <time>2023-08-20T06:46:11Z</time>
      </trkpt>
      <trkpt lat="46.53925" lon="0.32866">
        <ele>155.6</ele>
        <time>2023-08-20T06:46:12Z</time>
      </trkpt>
      <trkpt lat="46.5392" lon="0.32869">
        <ele>156.2</ele>
        <time>2023-08-20T06:46:15Z</time>
      </trkpt>
      <trkpt lat="46.53916" lon="0.32873">
        <ele>156.6</ele>
        <time>2023-08-20T06:46:17Z</time>
      </trkpt>
      <trkpt lat="46.53912" lon="0.32878">
        <ele>156.6</ele>
        <time>2023-08-20T06:46:19Z</time>
      </trkpt>
      <trkpt lat="46.53907" lon="0.32887">
        <ele>156.8</ele>
        <time>2023-08-20T06:46:23Z</time>
      </trkpt>
      <trkpt lat="46.53904" lon="0.32905">
        <ele>156.6</ele>
        <time>2023-08-20T06:46:29Z</time>
      </trkpt>
      <trkpt lat="46.53902" lon="0.32909">
        <ele>155.6</ele>
        <time>2023-08-20T06:46:31Z</time>
      </trkpt>
      <trkpt lat="46.53898" lon="0.32913">
        <ele>154.6</ele>
        <time>2023-08-20T06:46:33Z</time>
      </trkpt>
      <trkpt lat="46.53894" lon="0.32917">
        <ele>154</ele>
        <time>2023-08-20T06:46:35Z</time>
      </trkpt>
      <trkpt lat="46.53882" lon="0.32932">
        <ele>154.6</ele>
        <time>2023-08-20T06:46:41Z</time>
      </trkpt>
      <trkpt lat="46.53878" lon="0.32945">
        <ele>154.4</ele>
        <time>2023-08-20T06:46:45Z</time>
      </trkpt>
      <trkpt lat="46.53872" lon="0.32959">
        <ele>153.4</ele>
        <time>2023-08-20T06:46:48Z</time>
      </trkpt>
      <trkpt lat="46.53866" lon="0.32968">
        <ele>152.4</ele>
        <time>2023-08-20T06:46:50Z</time>
      </trkpt>
      <trkpt lat="46.53864" lon="0.32973">
        <ele>152.2</ele>
        <time>2023-08-20T06:46:51Z</time>
      </trkpt>
      <trkpt lat="46.5386" lon="0.32977">
        <ele>151.8</ele>
        <time>2023-08-20T06:46:52Z</time>
      </trkpt>
      <trkpt lat="46.53854" lon="0.32984">
        <ele>151</ele>
        <time>2023-08-20T06:46:54Z</time>
      </trkpt>
      <trkpt lat="46.5385" lon="0.3299">
        <ele>150.6</ele>
        <time>2023-08-20T06:46:55Z</time>
      </trkpt>
      <trkpt lat="46.53831" lon="0.33007">
        <ele>151.6</ele>
        <time>2023-08-20T06:47:02Z</time>
      </trkpt>
      <trkpt lat="46.5382" lon="0.33023">
        <ele>152.2</ele>
        <time>2023-08-20T06:47:07Z</time>
      </trkpt>
      <trkpt lat="46.53806" lon="0.33048">
        <ele>153.2</ele>
        <time>2023-08-20T06:47:14Z</time>
      </trkpt>
      <trkpt lat="46.53804" lon="0.3305">
        <ele>153.4</ele>
        <time>2023-08-20T06:47:15Z</time>
      </trkpt>
      <trkpt lat="46.53797" lon="0.33065">
        <ele>154.4</ele>
        <time>2023-08-20T06:47:19Z</time>
      </trkpt>
      <trkpt lat="46.53794" lon="0.33074">
        <ele>154.4</ele>
        <time>2023-08-20T06:47:21Z</time>
      </trkpt>
      <trkpt lat="46.53782" lon="0.33102">
        <ele>154.8</ele>
        <time>2023-08-20T06:47:26Z</time>
      </trkpt>
      <trkpt lat="46.53779" lon="0.33108">
        <ele>154.8</ele>
        <time>2023-08-20T06:47:27Z</time>
      </trkpt>
      <trkpt lat="46.53765" lon="0.33134">
        <ele>154.8</ele>
        <time>2023-08-20T06:47:32Z</time>
      </trkpt>
      <trkpt lat="46.53757" lon="0.33145">
        <ele>154.8</ele>
        <time>2023-08-20T06:47:34Z</time>
      </trkpt>
      <trkpt lat="46.53749" lon="0.33155">
        <ele>154.6</ele>
        <time>2023-08-20T06:47:36Z</time>
      </trkpt>
      <trkpt lat="46.53739" lon="0.33169">
        <ele>154.6</ele>
        <time>2023-08-20T06:47:40Z</time>
      </trkpt>
      <trkpt lat="46.5374" lon="0.33179">
        <ele>154.6</ele>
        <time>2023-08-20T06:47:45Z</time>
      </trkpt>
      <trkpt lat="46.5374" lon="0.33186">
        <ele>154.6</ele>
        <time>2023-08-20T06:47:49Z</time>
      </trkpt>
      <trkpt lat="46.53741" lon="0.3319">
        <ele>154.8</ele>
        <time>2023-08-20T06:47:51Z</time>
      </trkpt>
      <trkpt lat="46.53741" lon="0.33193">
        <ele>155</ele>
        <time>2023-08-20T06:47:52Z</time>
      </trkpt>
      <trkpt lat="46.53743" lon="0.33199">
        <ele>155.4</ele>
        <time>2023-08-20T06:47:54Z</time>
      </trkpt>
      <trkpt lat="46.53746" lon="0.33205">
        <ele>155.4</ele>
        <time>2023-08-20T06:47:56Z</time>
      </trkpt>
      <trkpt lat="46.53749" lon="0.33214">
        <ele>154.2</ele>
        <time>2023-08-20T06:47:59Z</time>
      </trkpt>
      <trkpt lat="46.53752" lon="0.33222">
        <ele>153</ele>
        <time>2023-08-20T06:48:02Z</time>
      </trkpt>
      <trkpt lat="46.53755" lon="0.33235">
        <ele>152</ele>
        <time>2023-08-20T06:48:07Z</time>
      </trkpt>
      <trkpt lat="46.53757" lon="0.33242">
        <ele>151.2</ele>
        <time>2023-08-20T06:48:09Z</time>
      </trkpt>
      <trkpt lat="46.53759" lon="0.3326">
        <ele>151</ele>
        <time>2023-08-20T06:48:14Z</time>
      </trkpt>
      <trkpt lat="46.5376" lon="0.33263">
        <ele>150.8</ele>
        <time>2023-08-20T06:48:15Z</time>
      </trkpt>
      <trkpt lat="46.53762" lon="0.3328">
        <ele>150</ele>
        <time>2023-08-20T06:48:19Z</time>
      </trkpt>
      <trkpt lat="46.53762" lon="0.33283">
        <ele>149.6</ele>
        <time>2023-08-20T06:48:20Z</time>
      </trkpt>
      <trkpt lat="46.53761" lon="0.33286">
        <ele>149.2</ele>
        <time>2023-08-20T06:48:21Z</time>
      </trkpt>
      <trkpt lat="46.53761" lon="0.33309">
        <ele>148.6</ele>
        <time>2023-08-20T06:48:27Z</time>
      </trkpt>
      <trkpt lat="46.53761" lon="0.33315">
        <ele>148.4</ele>
        <time>2023-08-20T06:48:29Z</time>
      </trkpt>
      <trkpt lat="46.53761" lon="0.3332">
        <ele>147.4</ele>
        <time>2023-08-20T06:48:31Z</time>
      </trkpt>
      <trkpt lat="46.53762" lon="0.33327">
        <ele>146.6</ele>
        <time>2023-08-20T06:48:33Z</time>
      </trkpt>
      <trkpt lat="46.53762" lon="0.33331">
        <ele>145.6</ele>
        <time>2023-08-20T06:48:34Z</time>
      </trkpt>
      <trkpt lat="46.53761" lon="0.3334">
        <ele>144.6</ele>
        <time>2023-08-20T06:48:36Z</time>
      </trkpt>
      <trkpt lat="46.53759" lon="0.33345">
        <ele>144.6</ele>
        <time>2023-08-20T06:48:37Z</time>
      </trkpt>
      <trkpt lat="46.53757" lon="0.33355">
        <ele>144.4</ele>
        <time>2023-08-20T06:48:39Z</time>
      </trkpt>
      <trkpt lat="46.53752" lon="0.3338">
        <ele>143.4</ele>
        <time>2023-08-20T06:48:44Z</time>
      </trkpt>
      <trkpt lat="46.53752" lon="0.33383">
        <ele>143.2</ele>
        <time>2023-08-20T06:48:45Z</time>
      </trkpt>
      <trkpt lat="46.53748" lon="0.33403">
        <ele>143.4</ele>
        <time>2023-08-20T06:48:51Z</time>
      </trkpt>
      <trkpt lat="46.5375" lon="0.33408">
        <ele>143.4</ele>
        <time>2023-08-20T06:48:53Z</time>
      </trkpt>
      <trkpt lat="46.5375" lon="0.3341">
        <ele>142.6</ele>
        <time>2023-08-20T06:48:54Z</time>
      </trkpt>
      <trkpt lat="46.5375" lon="0.3341">
        <ele>142</ele>
        <time>2023-08-20T06:48:55Z</time>
      </trkpt>
      <trkpt lat="46.53749" lon="0.33408">
        <ele>141.4</ele>
        <time>2023-08-20T06:48:59Z</time>
      </trkpt>
      <trkpt lat="46.5375" lon="0.334">
        <ele>141.2</ele>
        <time>2023-08-20T06:49:04Z</time>
      </trkpt>
      <trkpt lat="46.53756" lon="0.33388">
        <ele>141.2</ele>
        <time>2023-08-20T06:49:10Z</time>
      </trkpt>
      <trkpt lat="46.53762" lon="0.33381">
        <ele>140.4</ele>
        <time>2023-08-20T06:49:13Z</time>
      </trkpt>
      <trkpt lat="46.53763" lon="0.33378">
        <ele>139.6</ele>
        <time>2023-08-20T06:49:14Z</time>
      </trkpt>
      <trkpt lat="46.53765" lon="0.33374">
        <ele>138.8</ele>
        <time>2023-08-20T06:49:15Z</time>
      </trkpt>
      <trkpt lat="46.53766" lon="0.33371">
        <ele>138.2</ele>
        <time>2023-08-20T06:49:16Z</time>
      </trkpt>
      <trkpt lat="46.53768" lon="0.33367">
        <ele>137.6</ele>
        <time>2023-08-20T06:49:17Z</time>
      </trkpt>
      <trkpt lat="46.53771" lon="0.33364">
        <ele>136.6</ele>
        <time>2023-08-20T06:49:18Z</time>
      </trkpt>
      <trkpt lat="46.53773" lon="0.33362">
        <ele>136</ele>
        <time>2023-08-20T06:49:19Z</time>
      </trkpt>
      <trkpt lat="46.53775" lon="0.3336">
        <ele>134.6</ele>
        <time>2023-08-20T06:49:20Z</time>
      </trkpt>
      <trkpt lat="46.53782" lon="0.33357">
        <ele>133.4</ele>
        <time>2023-08-20T06:49:23Z</time>
      </trkpt>
      <trkpt lat="46.53786" lon="0.33355">
        <ele>131.8</ele>
        <time>2023-08-20T06:49:26Z</time>
      </trkpt>
      <trkpt lat="46.53789" lon="0.33348">
        <ele>130.6</ele>
        <time>2023-08-20T06:49:29Z</time>
      </trkpt>
      <trkpt lat="46.53794" lon="0.33338">
        <ele>130.4</ele>
        <time>2023-08-20T06:49:32Z</time>
      </trkpt>
      <trkpt lat="46.538" lon="0.33325">
        <ele>130</ele>
        <time>2023-08-20T06:49:35Z</time>
      </trkpt>
      <trkpt lat="46.53803" lon="0.33316">
        <ele>129.6</ele>
        <time>2023-08-20T06:49:38Z</time>
      </trkpt>
      <trkpt lat="46.53808" lon="0.33294">
        <ele>130</ele>
        <time>2023-08-20T06:49:43Z</time>
      </trkpt>
      <trkpt lat="46.53816" lon="0.3327">
        <ele>128.6</ele>
        <time>2023-08-20T06:49:48Z</time>
      </trkpt>
      <trkpt lat="46.53818" lon="0.33267">
        <ele>128.2</ele>
        <time>2023-08-20T06:49:49Z</time>
      </trkpt>
      <trkpt lat="46.53824" lon="0.33258">
        <ele>127.6</ele>
        <time>2023-08-20T06:49:53Z</time>
      </trkpt>
      <trkpt lat="46.53826" lon="0.33256">
        <ele>127.4</ele>
        <time>2023-08-20T06:49:54Z</time>
      </trkpt>
      <trkpt lat="46.53827" lon="0.33253">
        <ele>127.4</ele>
        <time>2023-08-20T06:49:56Z</time>
      </trkpt>
      <trkpt lat="46.53826" lon="0.33246">
        <ele>128.2</ele>
        <time>2023-08-20T06:50:01Z</time>
      </trkpt>
      <trkpt lat="46.53826" lon="0.33243">
        <ele>128.6</ele>
        <time>2023-08-20T06:50:03Z</time>
      </trkpt>
      <trkpt lat="46.53825" lon="0.33241">
        <ele>128.8</ele>
        <time>2023-08-20T06:50:04Z</time>
      </trkpt>
      <trkpt lat="46.53823" lon="0.33237">
        <ele>129.8</ele>
        <time>2023-08-20T06:50:08Z</time>
      </trkpt>
      <trkpt lat="46.53822" lon="0.33233">
        <ele>130.8</ele>
        <time>2023-08-20T06:50:11Z</time>
      </trkpt>
      <trkpt lat="46.53821" lon="0.33232">
        <ele>131</ele>
        <time>2023-08-20T06:50:12Z</time>
      </trkpt>
      <trkpt lat="46.53818" lon="0.33229">
        <ele>132</ele>
        <time>2023-08-20T06:50:15Z</time>
      </trkpt>
      <trkpt lat="46.53817" lon="0.33229">
        <ele>132.2</ele>
        <time>2023-08-20T06:50:16Z</time>
      </trkpt>
      <trkpt lat="46.53815" lon="0.33227">
        <ele>133.4</ele>
        <time>2023-08-20T06:50:19Z</time>
      </trkpt>
      <trkpt lat="46.53814" lon="0.33226">
        <ele>133.8</ele>
        <time>2023-08-20T06:50:20Z</time>
      </trkpt>
      <trkpt lat="46.53813" lon="0.33226">
        <ele>134.2</ele>
        <time>2023-08-20T06:50:22Z</time>
      </trkpt>
      <trkpt lat="46.53812" lon="0.33225">
        <ele>134.6</ele>
        <time>2023-08-20T06:50:23Z</time>
      </trkpt>
      <trkpt lat="46.53813" lon="0.33224">
        <ele>135</ele>
        <time>2023-08-20T06:50:24Z</time>
      </trkpt>
      <trkpt lat="46.53813" lon="0.33224">
        <ele>135.6</ele>
        <time>2023-08-20T06:50:26Z</time>
      </trkpt>
      <trkpt lat="46.53812" lon="0.33223">
        <ele>135.8</ele>
        <time>2023-08-20T06:50:28Z</time>
      </trkpt>
      <trkpt lat="46.53812" lon="0.33222">
        <ele>136</ele>
        <time>2023-08-20T06:50:29Z</time>
      </trkpt>
      <trkpt lat="46.53805" lon="0.33216">
        <ele>137</ele>
        <time>2023-08-20T06:50:33Z</time>
      </trkpt>
      <trkpt lat="46.53803" lon="0.33215">
        <ele>137.6</ele>
        <time>2023-08-20T06:50:35Z</time>
      </trkpt>
      <trkpt lat="46.53801" lon="0.33214">
        <ele>138.2</ele>
        <time>2023-08-20T06:50:37Z</time>
      </trkpt>
      <trkpt lat="46.53797" lon="0.33213">
        <ele>138.8</ele>
        <time>2023-08-20T06:50:40Z</time>
      </trkpt>
      <trkpt lat="46.53795" lon="0.33212">
        <ele>139.2</ele>
        <time>2023-08-20T06:50:42Z</time>
      </trkpt>
      <trkpt lat="46.53794" lon="0.33211">
        <ele>139.6</ele>
        <time>2023-08-20T06:50:45Z</time>
      </trkpt>
      <trkpt lat="46.53791" lon="0.33209">
        <ele>140.4</ele>
        <time>2023-08-20T06:50:49Z</time>
      </trkpt>
      <trkpt lat="46.53786" lon="0.33204">
        <ele>141.4</ele>
        <time>2023-08-20T06:50:55Z</time>
      </trkpt>
      <trkpt lat="46.53781" lon="0.33204">
        <ele>142.6</ele>
        <time>2023-08-20T06:51:01Z</time>
      </trkpt>
      <trkpt lat="46.53781" lon="0.33203">
        <ele>142.8</ele>
        <time>2023-08-20T06:51:03Z</time>
      </trkpt>
      <trkpt lat="46.53777" lon="0.33202">
        <ele>144</ele>
        <time>2023-08-20T06:51:09Z</time>
      </trkpt>
      <trkpt lat="46.53774" lon="0.33199">
        <ele>145</ele>
        <time>2023-08-20T06:51:16Z</time>
      </trkpt>
      <trkpt lat="46.53774" lon="0.33198">
        <ele>145.4</ele>
        <time>2023-08-20T06:51:18Z</time>
      </trkpt>
      <trkpt lat="46.53772" lon="0.33196">
        <ele>146.2</ele>
        <time>2023-08-20T06:51:23Z</time>
      </trkpt>
      <trkpt lat="46.53771" lon="0.33194">
        <ele>148.8</ele>
        <time>2023-08-20T06:51:30Z</time>
      </trkpt>
      <trkpt lat="46.5377" lon="0.33194">
        <ele>148.8</ele>
        <time>2023-08-20T06:51:32Z</time>
      </trkpt>
      <trkpt lat="46.53766" lon="0.3319">
        <ele>149.4</ele>
        <time>2023-08-20T06:51:43Z</time>
      </trkpt>
      <trkpt lat="46.53771" lon="0.33193">
        <ele>149.2</ele>
        <time>2023-08-20T06:51:57Z</time>
      </trkpt>
      <trkpt lat="46.53773" lon="0.33195">
        <ele>149.4</ele>
        <time>2023-08-20T06:52:10Z</time>
      </trkpt>
      <trkpt lat="46.53773" lon="0.33194">
        <ele>149.4</ele>
        <time>2023-08-20T06:52:26Z</time>
      </trkpt>
      <trkpt lat="46.53777" lon="0.3319">
        <ele>149.2</ele>
        <time>2023-08-20T06:52:30Z</time>
      </trkpt>
      <trkpt lat="46.53781" lon="0.33189">
        <ele>147.6</ele>
        <time>2023-08-20T06:52:33Z</time>
      </trkpt>
      <trkpt lat="46.53782" lon="0.33188">
        <ele>147</ele>
        <time>2023-08-20T06:52:34Z</time>
      </trkpt>
      <trkpt lat="46.53784" lon="0.33187">
        <ele>146</ele>
        <time>2023-08-20T06:52:35Z</time>
      </trkpt>
      <trkpt lat="46.53786" lon="0.33183">
        <ele>144.8</ele>
        <time>2023-08-20T06:52:37Z</time>
      </trkpt>
      <trkpt lat="46.5379" lon="0.33178">
        <ele>143.8</ele>
        <time>2023-08-20T06:52:40Z</time>
      </trkpt>
      <trkpt lat="46.53792" lon="0.33173">
        <ele>143.2</ele>
        <time>2023-08-20T06:52:42Z</time>
      </trkpt>
      <trkpt lat="46.53795" lon="0.33165">
        <ele>142.6</ele>
        <time>2023-08-20T06:52:44Z</time>
      </trkpt>
      <trkpt lat="46.53799" lon="0.33157">
        <ele>141</ele>
        <time>2023-08-20T06:52:46Z</time>
      </trkpt>
      <trkpt lat="46.53801" lon="0.33153">
        <ele>140.6</ele>
        <time>2023-08-20T06:52:47Z</time>
      </trkpt>
      <trkpt lat="46.53803" lon="0.33149">
        <ele>140.2</ele>
        <time>2023-08-20T06:52:48Z</time>
      </trkpt>
      <trkpt lat="46.53803" lon="0.33149">
        <ele>138.8</ele>
        <time>2023-08-20T06:52:49Z</time>
      </trkpt>
      <trkpt lat="46.53812" lon="0.33141">
        <ele>137</ele>
        <time>2023-08-20T06:52:52Z</time>
      </trkpt>
      <trkpt lat="46.53815" lon="0.33138">
        <ele>136</ele>
        <time>2023-08-20T06:52:53Z</time>
      </trkpt>
      <trkpt lat="46.53822" lon="0.3313">
        <ele>134.4</ele>
        <time>2023-08-20T06:52:55Z</time>
      </trkpt>
      <trkpt lat="46.53828" lon="0.3312">
        <ele>133.2</ele>
        <time>2023-08-20T06:52:57Z</time>
      </trkpt>
      <trkpt lat="46.53831" lon="0.33117">
        <ele>132.2</ele>
        <time>2023-08-20T06:52:58Z</time>
      </trkpt>
      <trkpt lat="46.53833" lon="0.33115">
        <ele>130.8</ele>
        <time>2023-08-20T06:52:59Z</time>
      </trkpt>
      <trkpt lat="46.53838" lon="0.33109">
        <ele>129.6</ele>
        <time>2023-08-20T06:53:01Z</time>
      </trkpt>
      <trkpt lat="46.53843" lon="0.33105">
        <ele>128.4</ele>
        <time>2023-08-20T06:53:03Z</time>
      </trkpt>
      <trkpt lat="46.53846" lon="0.33104">
        <ele>128</ele>
        <time>2023-08-20T06:53:04Z</time>
      </trkpt>
      <trkpt lat="46.53848" lon="0.33105">
        <ele>127.4</ele>
        <time>2023-08-20T06:53:05Z</time>
      </trkpt>
      <trkpt lat="46.53849" lon="0.33106">
        <ele>125.8</ele>
        <time>2023-08-20T06:53:07Z</time>
      </trkpt>
      <trkpt lat="46.53851" lon="0.33109">
        <ele>125</ele>
        <time>2023-08-20T06:53:11Z</time>
      </trkpt>
      <trkpt lat="46.53851" lon="0.33112">
        <ele>124.8</ele>
        <time>2023-08-20T06:53:13Z</time>
      </trkpt>
      <trkpt lat="46.53851" lon="0.33116">
        <ele>124.6</ele>
        <time>2023-08-20T06:53:15Z</time>
      </trkpt>
      <trkpt lat="46.53854" lon="0.3313">
        <ele>124.8</ele>
        <time>2023-08-20T06:53:22Z</time>
      </trkpt>
      <trkpt lat="46.53861" lon="0.33143">
        <ele>124.4</ele>
        <time>2023-08-20T06:53:28Z</time>
      </trkpt>
      <trkpt lat="46.53868" lon="0.33165">
        <ele>123.8</ele>
        <time>2023-08-20T06:53:33Z</time>
      </trkpt>
      <trkpt lat="46.53874" lon="0.33177">
        <ele>123.2</ele>
        <time>2023-08-20T06:53:38Z</time>
      </trkpt>
      <trkpt lat="46.53879" lon="0.33188">
        <ele>123.2</ele>
        <time>2023-08-20T06:53:47Z</time>
      </trkpt>
      <trkpt lat="46.53885" lon="0.33195">
        <ele>123.2</ele>
        <time>2023-08-20T06:54:02Z</time>
      </trkpt>
      <trkpt lat="46.53888" lon="0.33196">
        <ele>122.6</ele>
        <time>2023-08-20T06:54:10Z</time>
      </trkpt>
      <trkpt lat="46.5389" lon="0.33196">
        <ele>122</ele>
        <time>2023-08-20T06:54:15Z</time>
      </trkpt>
      <trkpt lat="46.53895" lon="0.33196">
        <ele>121.8</ele>
        <time>2023-08-20T06:54:30Z</time>
      </trkpt>
      <trkpt lat="46.53897" lon="0.33195">
        <ele>122</ele>
        <time>2023-08-20T06:54:44Z</time>
      </trkpt>
      <trkpt lat="46.539" lon="0.33195">
        <ele>121.8</ele>
        <time>2023-08-20T06:55:01Z</time>
      </trkpt>
      <trkpt lat="46.53901" lon="0.33193">
        <ele>121.8</ele>
        <time>2023-08-20T06:55:09Z</time>
      </trkpt>
      <trkpt lat="46.53903" lon="0.33192">
        <ele>121.8</ele>
        <time>2023-08-20T06:55:16Z</time>
      </trkpt>
      <trkpt lat="46.53907" lon="0.33191">
        <ele>121.6</ele>
        <time>2023-08-20T06:55:32Z</time>
      </trkpt>
      <trkpt lat="46.53908" lon="0.33191">
        <ele>121.6</ele>
        <time>2023-08-20T06:55:33Z</time>
      </trkpt>
      <trkpt lat="46.53915" lon="0.33188">
        <ele>122</ele>
        <time>2023-08-20T06:55:44Z</time>
      </trkpt>
      <trkpt lat="46.53919" lon="0.3319">
        <ele>122</ele>
        <time>2023-08-20T06:56:00Z</time>
      </trkpt>
      <trkpt lat="46.53925" lon="0.33191">
        <ele>122</ele>
        <time>2023-08-20T06:56:15Z</time>
      </trkpt>
      <trkpt lat="46.53928" lon="0.33189">
        <ele>122</ele>
        <time>2023-08-20T06:56:27Z</time>
      </trkpt>
      <trkpt lat="46.53928" lon="0.33193">
        <ele>122</ele>
        <time>2023-08-20T06:56:40Z</time>
      </trkpt>
      <trkpt lat="46.5393" lon="0.33192">
        <ele>122</ele>
        <time>2023-08-20T06:56:55Z</time>
      </trkpt>
      <trkpt lat="46.5393" lon="0.33191">
        <ele>122</ele>
        <time>2023-08-20T06:57:08Z</time>
      </trkpt>
      <trkpt lat="46.53935" lon="0.33183">
        <ele>122</ele>
        <time>2023-08-20T06:57:21Z</time>
      </trkpt>
      <trkpt lat="46.53935" lon="0.33166">
        <ele>122</ele>
        <time>2023-08-20T06:57:27Z</time>
      </trkpt>
      <trkpt lat="46.53933" lon="0.33159">
        <ele>122.6</ele>
        <time>2023-08-20T06:57:29Z</time>
      </trkpt>
      <trkpt lat="46.53932" lon="0.33145">
        <ele>123</ele>
        <time>2023-08-20T06:57:32Z</time>
      </trkpt>
      <trkpt lat="46.53932" lon="0.33139">
        <ele>123</ele>
        <time>2023-08-20T06:57:33Z</time>
      </trkpt>
      <trkpt lat="46.53931" lon="0.33125">
        <ele>123</ele>
        <time>2023-08-20T06:57:35Z</time>
      </trkpt>
      <trkpt lat="46.53931" lon="0.33118">
        <ele>123</ele>
        <time>2023-08-20T06:57:36Z</time>
      </trkpt>
      <trkpt lat="46.53931" lon="0.33101">
        <ele>122.8</ele>
        <time>2023-08-20T06:57:39Z</time>
      </trkpt>
      <trkpt lat="46.53933" lon="0.33088">
        <ele>123</ele>
        <time>2023-08-20T06:57:41Z</time>
      </trkpt>
      <trkpt lat="46.53935" lon="0.33081">
        <ele>123</ele>
        <time>2023-08-20T06:57:42Z</time>
      </trkpt>
      <trkpt lat="46.53941" lon="0.33069">
        <ele>123</ele>
        <time>2023-08-20T06:57:44Z</time>
      </trkpt>
      <trkpt lat="46.53944" lon="0.33064">
        <ele>123</ele>
        <time>2023-08-20T06:57:45Z</time>
      </trkpt>
      <trkpt lat="46.53947" lon="0.33061">
        <ele>123</ele>
        <time>2023-08-20T06:57:46Z</time>
      </trkpt>
      <trkpt lat="46.53953" lon="0.33059">
        <ele>122.8</ele>
        <time>2023-08-20T06:57:48Z</time>
      </trkpt>
      <trkpt lat="46.5396" lon="0.33059">
        <ele>122.4</ele>
        <time>2023-08-20T06:57:50Z</time>
      </trkpt>
      <trkpt lat="46.53969" lon="0.33055">
        <ele>122.4</ele>
        <time>2023-08-20T06:57:53Z</time>
      </trkpt>
      <trkpt lat="46.5398" lon="0.33048">
        <ele>122.2</ele>
        <time>2023-08-20T06:57:56Z</time>
      </trkpt>
      <trkpt lat="46.53992" lon="0.33038">
        <ele>122.2</ele>
        <time>2023-08-20T06:57:59Z</time>
      </trkpt>
      <trkpt lat="46.53995" lon="0.33034">
        <ele>122.2</ele>
        <time>2023-08-20T06:58:00Z</time>
      </trkpt>
      <trkpt lat="46.54008" lon="0.33015">
        <ele>122.6</ele>
        <time>2023-08-20T06:58:04Z</time>
      </trkpt>
      <trkpt lat="46.54034" lon="0.32983">
        <ele>122.6</ele>
        <time>2023-08-20T06:58:10Z</time>
      </trkpt>
      <trkpt lat="46.54058" lon="0.32949">
        <ele>122.4</ele>
        <time>2023-08-20T06:58:16Z</time>
      </trkpt>
      <trkpt lat="46.5407" lon="0.32936">
        <ele>122.4</ele>
        <time>2023-08-20T06:58:19Z</time>
      </trkpt>
      <trkpt lat="46.54081" lon="0.32926">
        <ele>122.6</ele>
        <time>2023-08-20T06:58:22Z</time>
      </trkpt>
      <trkpt lat="46.54095" lon="0.32907">
        <ele>122.8</ele>
        <time>2023-08-20T06:58:26Z</time>
      </trkpt>
      <trkpt lat="46.54101" lon="0.32897">
        <ele>122.8</ele>
        <time>2023-08-20T06:58:28Z</time>
      </trkpt>
      <trkpt lat="46.54104" lon="0.32892">
        <ele>122.8</ele>
        <time>2023-08-20T06:58:29Z</time>
      </trkpt>
      <trkpt lat="46.5411" lon="0.32884">
        <ele>122.6</ele>
        <time>2023-08-20T06:58:31Z</time>
      </trkpt>
      <trkpt lat="46.54116" lon="0.32877">
        <ele>122.4</ele>
        <time>2023-08-20T06:58:33Z</time>
      </trkpt>
      <trkpt lat="46.5412" lon="0.32875">
        <ele>122.2</ele>
        <time>2023-08-20T06:58:34Z</time>
      </trkpt>
      <trkpt lat="46.54129" lon="0.32874">
        <ele>122.4</ele>
        <time>2023-08-20T06:58:36Z</time>
      </trkpt>
      <trkpt lat="46.54135" lon="0.32873">
        <ele>122.4</ele>
        <time>2023-08-20T06:58:37Z</time>
      </trkpt>
      <trkpt lat="46.54146" lon="0.32873">
        <ele>122.2</ele>
        <time>2023-08-20T06:58:39Z</time>
      </trkpt>
      <trkpt lat="46.54156" lon="0.32869">
        <ele>122.2</ele>
        <time>2023-08-20T06:58:41Z</time>
      </trkpt>
      <trkpt lat="46.5417" lon="0.32864">
        <ele>122.2</ele>
        <time>2023-08-20T06:58:44Z</time>
      </trkpt>
      <trkpt lat="46.54185" lon="0.32863">
        <ele>122.6</ele>
        <time>2023-08-20T06:58:47Z</time>
      </trkpt>
      <trkpt lat="46.54209" lon="0.32867">
        <ele>122.6</ele>
        <time>2023-08-20T06:58:52Z</time>
      </trkpt>
      <trkpt lat="46.54223" lon="0.32871">
        <ele>122.6</ele>
        <time>2023-08-20T06:58:55Z</time>
      </trkpt>
      <trkpt lat="46.54234" lon="0.32869">
        <ele>122.8</ele>
        <time>2023-08-20T06:58:57Z</time>
      </trkpt>
      <trkpt lat="46.5424" lon="0.32868">
        <ele>122.6</ele>
        <time>2023-08-20T06:58:58Z</time>
      </trkpt>
      <trkpt lat="46.54245" lon="0.32866">
        <ele>122.6</ele>
        <time>2023-08-20T06:58:59Z</time>
      </trkpt>
      <trkpt lat="46.54263" lon="0.32862">
        <ele>122.4</ele>
        <time>2023-08-20T06:59:02Z</time>
      </trkpt>
      <trkpt lat="46.54278" lon="0.32857">
        <ele>122.4</ele>
        <time>2023-08-20T06:59:05Z</time>
      </trkpt>
      <trkpt lat="46.54288" lon="0.32853">
        <ele>122.2</ele>
        <time>2023-08-20T06:59:07Z</time>
      </trkpt>
      <trkpt lat="46.54293" lon="0.32851">
        <ele>122.2</ele>
        <time>2023-08-20T06:59:08Z</time>
      </trkpt>
      <trkpt lat="46.54301" lon="0.32853">
        <ele>122.2</ele>
        <time>2023-08-20T06:59:10Z</time>
      </trkpt>
      <trkpt lat="46.54346" lon="0.32867">
        <ele>122.4</ele>
        <time>2023-08-20T06:59:16Z</time>
      </trkpt>
      <trkpt lat="46.54361" lon="0.3288">
        <ele>122.4</ele>
        <time>2023-08-20T06:59:19Z</time>
      </trkpt>
      <trkpt lat="46.5437" lon="0.32893">
        <ele>122.4</ele>
        <time>2023-08-20T06:59:21Z</time>
      </trkpt>
      <trkpt lat="46.54379" lon="0.32907">
        <ele>122.2</ele>
        <time>2023-08-20T06:59:23Z</time>
      </trkpt>
      <trkpt lat="46.54387" lon="0.32918">
        <ele>122.2</ele>
        <time>2023-08-20T06:59:25Z</time>
      </trkpt>
      <trkpt lat="46.54391" lon="0.32924">
        <ele>122</ele>
        <time>2023-08-20T06:59:26Z</time>
      </trkpt>
      <trkpt lat="46.54404" lon="0.32945">
        <ele>121.8</ele>
        <time>2023-08-20T06:59:30Z</time>
      </trkpt>
      <trkpt lat="46.54406" lon="0.32951">
        <ele>121.8</ele>
        <time>2023-08-20T06:59:31Z</time>
      </trkpt>
      <trkpt lat="46.54413" lon="0.32962">
        <ele>121.8</ele>
        <time>2023-08-20T06:59:33Z</time>
      </trkpt>
      <trkpt lat="46.54418" lon="0.32967">
        <ele>121.8</ele>
        <time>2023-08-20T06:59:34Z</time>
      </trkpt>
      <trkpt lat="46.54423" lon="0.32971">
        <ele>121.8</ele>
        <time>2023-08-20T06:59:35Z</time>
      </trkpt>
      <trkpt lat="46.54429" lon="0.32975">
        <ele>121.6</ele>
        <time>2023-08-20T06:59:36Z</time>
      </trkpt>
      <trkpt lat="46.54442" lon="0.32988">
        <ele>121.6</ele>
        <time>2023-08-20T06:59:39Z</time>
      </trkpt>
      <trkpt lat="46.54446" lon="0.32994">
        <ele>121.6</ele>
        <time>2023-08-20T06:59:40Z</time>
      </trkpt>
      <trkpt lat="46.54467" lon="0.33023">
        <ele>122.2</ele>
        <time>2023-08-20T06:59:45Z</time>
      </trkpt>
      <trkpt lat="46.54471" lon="0.33027">
        <ele>122.4</ele>
        <time>2023-08-20T06:59:46Z</time>
      </trkpt>
      <trkpt lat="46.54483" lon="0.33042">
        <ele>122</ele>
        <time>2023-08-20T06:59:49Z</time>
      </trkpt>
      <trkpt lat="46.5449" lon="0.33055">
        <ele>122.4</ele>
        <time>2023-08-20T06:59:51Z</time>
      </trkpt>
      <trkpt lat="46.54505" lon="0.33081">
        <ele>122</ele>
        <time>2023-08-20T06:59:56Z</time>
      </trkpt>
      <trkpt lat="46.54517" lon="0.33104">
        <ele>122</ele>
        <time>2023-08-20T07:00:00Z</time>
      </trkpt>
      <trkpt lat="46.54523" lon="0.33116">
        <ele>122.2</ele>
        <time>2023-08-20T07:00:02Z</time>
      </trkpt>
      <trkpt lat="46.54542" lon="0.33141">
        <ele>122.2</ele>
        <time>2023-08-20T07:00:07Z</time>
      </trkpt>
      <trkpt lat="46.54544" lon="0.33148">
        <ele>122</ele>
        <time>2023-08-20T07:00:08Z</time>
      </trkpt>
      <trkpt lat="46.54563" lon="0.33179">
        <ele>121.8</ele>
        <time>2023-08-20T07:00:13Z</time>
      </trkpt>
      <trkpt lat="46.54567" lon="0.33183">
        <ele>121.8</ele>
        <time>2023-08-20T07:00:14Z</time>
      </trkpt>
      <trkpt lat="46.5457" lon="0.33186">
        <ele>121.8</ele>
        <time>2023-08-20T07:00:15Z</time>
      </trkpt>
      <trkpt lat="46.54577" lon="0.33194">
        <ele>121.8</ele>
        <time>2023-08-20T07:00:17Z</time>
      </trkpt>
      <trkpt lat="46.54582" lon="0.33207">
        <ele>121.8</ele>
        <time>2023-08-20T07:00:19Z</time>
      </trkpt>
      <trkpt lat="46.54587" lon="0.33221">
        <ele>121.8</ele>
        <time>2023-08-20T07:00:21Z</time>
      </trkpt>
      <trkpt lat="46.54598" lon="0.33241">
        <ele>122</ele>
        <time>2023-08-20T07:00:24Z</time>
      </trkpt>
      <trkpt lat="46.54612" lon="0.33265">
        <ele>121.6</ele>
        <time>2023-08-20T07:00:28Z</time>
      </trkpt>
      <trkpt lat="46.54619" lon="0.33278">
        <ele>121.6</ele>
        <time>2023-08-20T07:00:30Z</time>
      </trkpt>
      <trkpt lat="46.54625" lon="0.33289">
        <ele>122</ele>
        <time>2023-08-20T07:00:32Z</time>
      </trkpt>
      <trkpt lat="46.54631" lon="0.33298">
        <ele>122.2</ele>
        <time>2023-08-20T07:00:34Z</time>
      </trkpt>
      <trkpt lat="46.54635" lon="0.33301">
        <ele>122.2</ele>
        <time>2023-08-20T07:00:35Z</time>
      </trkpt>
      <trkpt lat="46.54662" lon="0.33324">
        <ele>122.2</ele>
        <time>2023-08-20T07:00:41Z</time>
      </trkpt>
      <trkpt lat="46.54704" lon="0.33351">
        <ele>122.6</ele>
        <time>2023-08-20T07:00:49Z</time>
      </trkpt>
      <trkpt lat="46.54738" lon="0.33376">
        <ele>122.4</ele>
        <time>2023-08-20T07:00:55Z</time>
      </trkpt>
      <trkpt lat="46.54776" lon="0.33405">
        <ele>122.4</ele>
        <time>2023-08-20T07:01:02Z</time>
      </trkpt>
      <trkpt lat="46.54781" lon="0.33406">
        <ele>122.4</ele>
        <time>2023-08-20T07:01:03Z</time>
      </trkpt>
      <trkpt lat="46.5479" lon="0.33405">
        <ele>122.4</ele>
        <time>2023-08-20T07:01:05Z</time>
      </trkpt>
      <trkpt lat="46.54807" lon="0.33402">
        <ele>121.8</ele>
        <time>2023-08-20T07:01:10Z</time>
      </trkpt>
      <trkpt lat="46.54815" lon="0.33409">
        <ele>121.8</ele>
        <time>2023-08-20T07:01:12Z</time>
      </trkpt>
      <trkpt lat="46.54819" lon="0.33414">
        <ele>121.8</ele>
        <time>2023-08-20T07:01:13Z</time>
      </trkpt>
      <trkpt lat="46.54848" lon="0.33451">
        <ele>122</ele>
        <time>2023-08-20T07:01:19Z</time>
      </trkpt>
      <trkpt lat="46.54881" lon="0.33498">
        <ele>121.4</ele>
        <time>2023-08-20T07:01:27Z</time>
      </trkpt>
      <trkpt lat="46.5491" lon="0.33536">
        <ele>122.2</ele>
        <time>2023-08-20T07:01:34Z</time>
      </trkpt>
      <trkpt lat="46.54932" lon="0.33563">
        <ele>121.6</ele>
        <time>2023-08-20T07:01:40Z</time>
      </trkpt>
      <trkpt lat="46.54948" lon="0.3358">
        <ele>121.6</ele>
        <time>2023-08-20T07:01:45Z</time>
      </trkpt>
      <trkpt lat="46.54951" lon="0.33583">
        <ele>121.4</ele>
        <time>2023-08-20T07:01:46Z</time>
      </trkpt>
      <trkpt lat="46.54962" lon="0.3359">
        <ele>121</ele>
        <time>2023-08-20T07:01:51Z</time>
      </trkpt>
      <trkpt lat="46.54964" lon="0.33593">
        <ele>121</ele>
        <time>2023-08-20T07:01:52Z</time>
      </trkpt>
      <trkpt lat="46.54966" lon="0.336">
        <ele>121.2</ele>
        <time>2023-08-20T07:01:54Z</time>
      </trkpt>
      <trkpt lat="46.54969" lon="0.33603">
        <ele>121.2</ele>
        <time>2023-08-20T07:01:55Z</time>
      </trkpt>
      <trkpt lat="46.54987" lon="0.33616">
        <ele>122.2</ele>
        <time>2023-08-20T07:02:01Z</time>
      </trkpt>
      <trkpt lat="46.55009" lon="0.33627">
        <ele>122</ele>
        <time>2023-08-20T07:02:08Z</time>
      </trkpt>
      <trkpt lat="46.55015" lon="0.33632">
        <ele>122.2</ele>
        <time>2023-08-20T07:02:14Z</time>
      </trkpt>
      <trkpt lat="46.55019" lon="0.33624">
        <ele>122.2</ele>
        <time>2023-08-20T07:02:19Z</time>
      </trkpt>
      <trkpt lat="46.5502" lon="0.33608">
        <ele>122.6</ele>
        <time>2023-08-20T07:02:24Z</time>
      </trkpt>
      <trkpt lat="46.5502" lon="0.33602">
        <ele>122.6</ele>
        <time>2023-08-20T07:02:26Z</time>
      </trkpt>
      <trkpt lat="46.55016" lon="0.33581">
        <ele>122.8</ele>
        <time>2023-08-20T07:02:32Z</time>
      </trkpt>
      <trkpt lat="46.55015" lon="0.3357">
        <ele>122.8</ele>
        <time>2023-08-20T07:02:35Z</time>
      </trkpt>
      <trkpt lat="46.55016" lon="0.33566">
        <ele>122.8</ele>
        <time>2023-08-20T07:02:36Z</time>
      </trkpt>
      <trkpt lat="46.55013" lon="0.33545">
        <ele>123.2</ele>
        <time>2023-08-20T07:02:41Z</time>
      </trkpt>
      <trkpt lat="46.55005" lon="0.33514">
        <ele>122.6</ele>
        <time>2023-08-20T07:02:49Z</time>
      </trkpt>
      <trkpt lat="46.54999" lon="0.33492">
        <ele>122.6</ele>
        <time>2023-08-20T07:02:55Z</time>
      </trkpt>
      <trkpt lat="46.54994" lon="0.33469">
        <ele>122.4</ele>
        <time>2023-08-20T07:03:02Z</time>
      </trkpt>
      <trkpt lat="46.54994" lon="0.33457">
        <ele>122.6</ele>
        <time>2023-08-20T07:03:06Z</time>
      </trkpt>
      <trkpt lat="46.54995" lon="0.33454">
        <ele>122.6</ele>
        <time>2023-08-20T07:03:07Z</time>
      </trkpt>
      <trkpt lat="46.54998" lon="0.33445">
        <ele>122.8</ele>
        <time>2023-08-20T07:03:10Z</time>
      </trkpt>
      <trkpt lat="46.54997" lon="0.33441">
        <ele>122.8</ele>
        <time>2023-08-20T07:03:12Z</time>
      </trkpt>
      <trkpt lat="46.54989" lon="0.33439">
        <ele>122.8</ele>
        <time>2023-08-20T07:03:17Z</time>
      </trkpt>
      <trkpt lat="46.54979" lon="0.33435">
        <ele>122.4</ele>
        <time>2023-08-20T07:03:23Z</time>
      </trkpt>
      <trkpt lat="46.54978" lon="0.33434">
        <ele>122.4</ele>
        <time>2023-08-20T07:03:24Z</time>
      </trkpt>
      <trkpt lat="46.54978" lon="0.3343">
        <ele>122.4</ele>
        <time>2023-08-20T07:03:29Z</time>
      </trkpt>
      <trkpt lat="46.5498" lon="0.33427">
        <ele>122.8</ele>
        <time>2023-08-20T07:03:39Z</time>
      </trkpt>
      <trkpt lat="46.54987" lon="0.33427">
        <ele>122.6</ele>
        <time>2023-08-20T07:03:48Z</time>
      </trkpt>
      <trkpt lat="46.54987" lon="0.33428">
        <ele>122.4</ele>
        <time>2023-08-20T07:03:56Z</time>
      </trkpt>
      <trkpt lat="46.54981" lon="0.33433">
        <ele>122.4</ele>
        <time>2023-08-20T07:04:00Z</time>
      </trkpt>
      <trkpt lat="46.54982" lon="0.33434">
        <ele>122.4</ele>
        <time>2023-08-20T07:04:01Z</time>
      </trkpt>
      <trkpt lat="46.54982" lon="0.33438">
        <ele>122.6</ele>
        <time>2023-08-20T07:04:04Z</time>
      </trkpt>
      <trkpt lat="46.54984" lon="0.33441">
        <ele>122.8</ele>
        <time>2023-08-20T07:04:06Z</time>
      </trkpt>
      <trkpt lat="46.54984" lon="0.33443">
        <ele>122.8</ele>
        <time>2023-08-20T07:04:07Z</time>
      </trkpt>
      <trkpt lat="46.54988" lon="0.3346">
        <ele>123</ele>
        <time>2023-08-20T07:04:11Z</time>
      </trkpt>
      <trkpt lat="46.54993" lon="0.33486">
        <ele>123.2</ele>
        <time>2023-08-20T07:04:16Z</time>
      </trkpt>
      <trkpt lat="46.54998" lon="0.33513">
        <ele>123.2</ele>
        <time>2023-08-20T07:04:22Z</time>
      </trkpt>
      <trkpt lat="46.55002" lon="0.33541">
        <ele>122.6</ele>
        <time>2023-08-20T07:04:28Z</time>
      </trkpt>
      <trkpt lat="46.55011" lon="0.3358">
        <ele>122.8</ele>
        <time>2023-08-20T07:04:35Z</time>
      </trkpt>
      <trkpt lat="46.55014" lon="0.33612">
        <ele>123.2</ele>
        <time>2023-08-20T07:04:40Z</time>
      </trkpt>
      <trkpt lat="46.55014" lon="0.33618">
        <ele>123.2</ele>
        <time>2023-08-20T07:04:41Z</time>
      </trkpt>
      <trkpt lat="46.55014" lon="0.33624">
        <ele>123.2</ele>
        <time>2023-08-20T07:04:42Z</time>
      </trkpt>
      <trkpt lat="46.55015" lon="0.33635">
        <ele>123</ele>
        <time>2023-08-20T07:04:44Z</time>
      </trkpt>
      <trkpt lat="46.55015" lon="0.33639">
        <ele>123</ele>
        <time>2023-08-20T07:04:45Z</time>
      </trkpt>
      <trkpt lat="46.55015" lon="0.33647">
        <ele>122.8</ele>
        <time>2023-08-20T07:04:47Z</time>
      </trkpt>
      <trkpt lat="46.55011" lon="0.33669">
        <ele>122.6</ele>
        <time>2023-08-20T07:04:50Z</time>
      </trkpt>
      <trkpt lat="46.55008" lon="0.33691">
        <ele>122.4</ele>
        <time>2023-08-20T07:04:53Z</time>
      </trkpt>
      <trkpt lat="46.5501" lon="0.337">
        <ele>122.6</ele>
        <time>2023-08-20T07:04:55Z</time>
      </trkpt>
      <trkpt lat="46.55017" lon="0.33708">
        <ele>122.6</ele>
        <time>2023-08-20T07:04:58Z</time>
      </trkpt>
      <trkpt lat="46.55025" lon="0.33711">
        <ele>121.6</ele>
        <time>2023-08-20T07:05:02Z</time>
      </trkpt>
      <trkpt lat="46.55032" lon="0.33713">
        <ele>121.2</ele>
        <time>2023-08-20T07:05:05Z</time>
      </trkpt>
      <trkpt lat="46.5505" lon="0.33721">
        <ele>121.6</ele>
        <time>2023-08-20T07:05:10Z</time>
      </trkpt>
      <trkpt lat="46.55077" lon="0.33731">
        <ele>121.8</ele>
        <time>2023-08-20T07:05:17Z</time>
      </trkpt>
      <trkpt lat="46.55104" lon="0.33734">
        <ele>121.2</ele>
        <time>2023-08-20T07:05:23Z</time>
      </trkpt>
      <trkpt lat="46.55109" lon="0.33734">
        <ele>121.4</ele>
        <time>2023-08-20T07:05:24Z</time>
      </trkpt>
      <trkpt lat="46.55138" lon="0.3374">
        <ele>121.4</ele>
        <time>2023-08-20T07:05:29Z</time>
      </trkpt>
      <trkpt lat="46.5515" lon="0.33741">
        <ele>121.4</ele>
        <time>2023-08-20T07:05:31Z</time>
      </trkpt>
      <trkpt lat="46.55173" lon="0.3374">
        <ele>121</ele>
        <time>2023-08-20T07:05:35Z</time>
      </trkpt>
      <trkpt lat="46.55207" lon="0.33738">
        <ele>121.4</ele>
        <time>2023-08-20T07:05:42Z</time>
      </trkpt>
      <trkpt lat="46.55239" lon="0.33738">
        <ele>121.2</ele>
        <time>2023-08-20T07:05:48Z</time>
      </trkpt>
      <trkpt lat="46.55262" lon="0.33739">
        <ele>121.2</ele>
        <time>2023-08-20T07:05:53Z</time>
      </trkpt>
      <trkpt lat="46.55286" lon="0.3374">
        <ele>121.2</ele>
        <time>2023-08-20T07:05:58Z</time>
      </trkpt>
      <trkpt lat="46.55292" lon="0.3374">
        <ele>121.2</ele>
        <time>2023-08-20T07:05:59Z</time>
      </trkpt>
      <trkpt lat="46.55305" lon="0.33739">
        <ele>121.4</ele>
        <time>2023-08-20T07:06:02Z</time>
      </trkpt>
      <trkpt lat="46.55316" lon="0.33741">
        <ele>121.4</ele>
        <time>2023-08-20T07:06:04Z</time>
      </trkpt>
      <trkpt lat="46.55323" lon="0.33744">
        <ele>121.4</ele>
        <time>2023-08-20T07:06:06Z</time>
      </trkpt>
      <trkpt lat="46.55335" lon="0.33748">
        <ele>121.2</ele>
        <time>2023-08-20T07:06:09Z</time>
      </trkpt>
      <trkpt lat="46.5536" lon="0.3376">
        <ele>120.8</ele>
        <time>2023-08-20T07:06:14Z</time>
      </trkpt>
      <trkpt lat="46.55384" lon="0.33763">
        <ele>121.2</ele>
        <time>2023-08-20T07:06:19Z</time>
      </trkpt>
      <trkpt lat="46.55388" lon="0.33764">
        <ele>121.2</ele>
        <time>2023-08-20T07:06:20Z</time>
      </trkpt>
      <trkpt lat="46.55416" lon="0.33774">
        <ele>121</ele>
        <time>2023-08-20T07:06:26Z</time>
      </trkpt>
      <trkpt lat="46.5542" lon="0.33775">
        <ele>121</ele>
        <time>2023-08-20T07:06:27Z</time>
      </trkpt>
      <trkpt lat="46.55441" lon="0.33782">
        <ele>121.2</ele>
        <time>2023-08-20T07:06:32Z</time>
      </trkpt>
      <trkpt lat="46.55454" lon="0.33788">
        <ele>121</ele>
        <time>2023-08-20T07:06:35Z</time>
      </trkpt>
      <trkpt lat="46.55471" lon="0.33799">
        <ele>120.6</ele>
        <time>2023-08-20T07:06:38Z</time>
      </trkpt>
      <trkpt lat="46.55495" lon="0.33807">
        <ele>120.2</ele>
        <time>2023-08-20T07:06:41Z</time>
      </trkpt>
      <trkpt lat="46.55509" lon="0.33815">
        <ele>120.4</ele>
        <time>2023-08-20T07:06:43Z</time>
      </trkpt>
      <trkpt lat="46.55546" lon="0.33849">
        <ele>120.2</ele>
        <time>2023-08-20T07:06:51Z</time>
      </trkpt>
      <trkpt lat="46.5555" lon="0.33853">
        <ele>120.2</ele>
        <time>2023-08-20T07:06:52Z</time>
      </trkpt>
      <trkpt lat="46.55567" lon="0.33867">
        <ele>120.6</ele>
        <time>2023-08-20T07:06:56Z</time>
      </trkpt>
      <trkpt lat="46.55574" lon="0.33877">
        <ele>120.4</ele>
        <time>2023-08-20T07:07:00Z</time>
      </trkpt>
      <trkpt lat="46.5558" lon="0.33889">
        <ele>120.2</ele>
        <time>2023-08-20T07:07:07Z</time>
      </trkpt>
      <trkpt lat="46.5558" lon="0.3389">
        <ele>120.2</ele>
        <time>2023-08-20T07:07:08Z</time>
      </trkpt>
      <trkpt lat="46.55586" lon="0.33899">
        <ele>120.2</ele>
        <time>2023-08-20T07:07:14Z</time>
      </trkpt>
      <trkpt lat="46.55603" lon="0.33913">
        <ele>120.2</ele>
        <time>2023-08-20T07:07:20Z</time>
      </trkpt>
      <trkpt lat="46.55613" lon="0.3392">
        <ele>120.6</ele>
        <time>2023-08-20T07:07:23Z</time>
      </trkpt>
      <trkpt lat="46.55622" lon="0.33922">
        <ele>120.6</ele>
        <time>2023-08-20T07:07:25Z</time>
      </trkpt>
      <trkpt lat="46.55627" lon="0.33922">
        <ele>120.8</ele>
        <time>2023-08-20T07:07:26Z</time>
      </trkpt>
      <trkpt lat="46.55631" lon="0.33921">
        <ele>120.8</ele>
        <time>2023-08-20T07:07:27Z</time>
      </trkpt>
      <trkpt lat="46.5565" lon="0.33916">
        <ele>121.2</ele>
        <time>2023-08-20T07:07:32Z</time>
      </trkpt>
      <trkpt lat="46.55672" lon="0.33908">
        <ele>121.6</ele>
        <time>2023-08-20T07:07:38Z</time>
      </trkpt>
      <trkpt lat="46.55682" lon="0.33904">
        <ele>121.6</ele>
        <time>2023-08-20T07:07:40Z</time>
      </trkpt>
      <trkpt lat="46.55708" lon="0.33894">
        <ele>121.2</ele>
        <time>2023-08-20T07:07:45Z</time>
      </trkpt>
      <trkpt lat="46.55712" lon="0.33893">
        <ele>121.2</ele>
        <time>2023-08-20T07:07:46Z</time>
      </trkpt>
      <trkpt lat="46.55723" lon="0.33889">
        <ele>121</ele>
        <time>2023-08-20T07:07:50Z</time>
      </trkpt>
      <trkpt lat="46.55729" lon="0.33884">
        <ele>121</ele>
        <time>2023-08-20T07:07:52Z</time>
      </trkpt>
      <trkpt lat="46.55736" lon="0.33883">
        <ele>121.2</ele>
        <time>2023-08-20T07:07:54Z</time>
      </trkpt>
      <trkpt lat="46.5574" lon="0.33884">
        <ele>121.2</ele>
        <time>2023-08-20T07:07:55Z</time>
      </trkpt>
      <trkpt lat="46.55761" lon="0.33891">
        <ele>122.2</ele>
        <time>2023-08-20T07:08:00Z</time>
      </trkpt>
      <trkpt lat="46.55781" lon="0.33902">
        <ele>122.8</ele>
        <time>2023-08-20T07:08:05Z</time>
      </trkpt>
      <trkpt lat="46.55788" lon="0.33906">
        <ele>123</ele>
        <time>2023-08-20T07:08:07Z</time>
      </trkpt>
      <trkpt lat="46.55808" lon="0.33912">
        <ele>123.8</ele>
        <time>2023-08-20T07:08:12Z</time>
      </trkpt>
      <trkpt lat="46.55812" lon="0.33912">
        <ele>123.8</ele>
        <time>2023-08-20T07:08:13Z</time>
      </trkpt>
      <trkpt lat="46.55816" lon="0.33911">
        <ele>123.8</ele>
        <time>2023-08-20T07:08:14Z</time>
      </trkpt>
      <trkpt lat="46.5583" lon="0.33906">
        <ele>123</ele>
        <time>2023-08-20T07:08:18Z</time>
      </trkpt>
      <trkpt lat="46.55837" lon="0.33902">
        <ele>122.8</ele>
        <time>2023-08-20T07:08:20Z</time>
      </trkpt>
      <trkpt lat="46.5584" lon="0.33899">
        <ele>122.6</ele>
        <time>2023-08-20T07:08:21Z</time>
      </trkpt>
      <trkpt lat="46.55849" lon="0.33891">
        <ele>122.6</ele>
        <time>2023-08-20T07:08:24Z</time>
      </trkpt>
      <trkpt lat="46.55873" lon="0.33876">
        <ele>122.2</ele>
        <time>2023-08-20T07:08:31Z</time>
      </trkpt>
      <trkpt lat="46.55895" lon="0.33855">
        <ele>122</ele>
        <time>2023-08-20T07:08:37Z</time>
      </trkpt>
      <trkpt lat="46.55915" lon="0.33835">
        <ele>121.8</ele>
        <time>2023-08-20T07:08:42Z</time>
      </trkpt>
      <trkpt lat="46.55918" lon="0.33832">
        <ele>121.8</ele>
        <time>2023-08-20T07:08:43Z</time>
      </trkpt>
      <trkpt lat="46.55934" lon="0.33816">
        <ele>121.6</ele>
        <time>2023-08-20T07:08:47Z</time>
      </trkpt>
      <trkpt lat="46.55946" lon="0.33803">
        <ele>121.6</ele>
        <time>2023-08-20T07:08:50Z</time>
      </trkpt>
      <trkpt lat="46.55949" lon="0.33798">
        <ele>121.6</ele>
        <time>2023-08-20T07:08:51Z</time>
      </trkpt>
      <trkpt lat="46.55962" lon="0.33783">
        <ele>121.6</ele>
        <time>2023-08-20T07:08:55Z</time>
      </trkpt>
      <trkpt lat="46.55972" lon="0.33772">
        <ele>121.6</ele>
        <time>2023-08-20T07:08:58Z</time>
      </trkpt>
      <trkpt lat="46.55997" lon="0.33754">
        <ele>121.4</ele>
        <time>2023-08-20T07:09:04Z</time>
      </trkpt>
      <trkpt lat="46.56013" lon="0.33749">
        <ele>121.8</ele>
        <time>2023-08-20T07:09:09Z</time>
      </trkpt>
      <trkpt lat="46.56019" lon="0.33745">
        <ele>123.2</ele>
        <time>2023-08-20T07:09:12Z</time>
      </trkpt>
      <trkpt lat="46.56025" lon="0.33741">
        <ele>124.2</ele>
        <time>2023-08-20T07:09:15Z</time>
      </trkpt>
      <trkpt lat="46.56026" lon="0.33739">
        <ele>124.4</ele>
        <time>2023-08-20T07:09:16Z</time>
      </trkpt>
      <trkpt lat="46.56032" lon="0.33733">
        <ele>125.4</ele>
        <time>2023-08-20T07:09:21Z</time>
      </trkpt>
      <trkpt lat="46.56037" lon="0.3373">
        <ele>126.4</ele>
        <time>2023-08-20T07:09:24Z</time>
      </trkpt>
      <trkpt lat="46.56042" lon="0.33727">
        <ele>127.8</ele>
        <time>2023-08-20T07:09:27Z</time>
      </trkpt>
      <trkpt lat="46.56048" lon="0.33724">
        <ele>128.8</ele>
        <time>2023-08-20T07:09:30Z</time>
      </trkpt>
      <trkpt lat="46.56052" lon="0.33723">
        <ele>129.4</ele>
        <time>2023-08-20T07:09:32Z</time>
      </trkpt>
      <trkpt lat="46.56055" lon="0.33722">
        <ele>129.8</ele>
        <time>2023-08-20T07:09:34Z</time>
      </trkpt>
      <trkpt lat="46.56061" lon="0.3372">
        <ele>131</ele>
        <time>2023-08-20T07:09:38Z</time>
      </trkpt>
      <trkpt lat="46.56065" lon="0.33719">
        <ele>131.4</ele>
        <time>2023-08-20T07:09:40Z</time>
      </trkpt>
      <trkpt lat="46.56072" lon="0.33717">
        <ele>132.2</ele>
        <time>2023-08-20T07:09:45Z</time>
      </trkpt>
      <trkpt lat="46.56074" lon="0.33716">
        <ele>132.8</ele>
        <time>2023-08-20T07:09:46Z</time>
      </trkpt>
      <trkpt lat="46.56077" lon="0.33715">
        <ele>133.4</ele>
        <time>2023-08-20T07:09:48Z</time>
      </trkpt>
      <trkpt lat="46.56079" lon="0.33715">
        <ele>133.6</ele>
        <time>2023-08-20T07:09:49Z</time>
      </trkpt>
      <trkpt lat="46.56083" lon="0.33714">
        <ele>134.2</ele>
        <time>2023-08-20T07:09:51Z</time>
      </trkpt>
      <trkpt lat="46.56085" lon="0.33715">
        <ele>134.6</ele>
        <time>2023-08-20T07:09:52Z</time>
      </trkpt>
      <trkpt lat="46.56089" lon="0.33715">
        <ele>135.2</ele>
        <time>2023-08-20T07:09:55Z</time>
      </trkpt>
      <trkpt lat="46.5609" lon="0.33715">
        <ele>135.6</ele>
        <time>2023-08-20T07:09:56Z</time>
      </trkpt>
      <trkpt lat="46.56092" lon="0.33714">
        <ele>136</ele>
        <time>2023-08-20T07:09:57Z</time>
      </trkpt>
      <trkpt lat="46.56094" lon="0.33713">
        <ele>136.2</ele>
        <time>2023-08-20T07:09:58Z</time>
      </trkpt>
      <trkpt lat="46.56105" lon="0.33705">
        <ele>136.6</ele>
        <time>2023-08-20T07:10:02Z</time>
      </trkpt>
      <trkpt lat="46.56114" lon="0.33697">
        <ele>136.6</ele>
        <time>2023-08-20T07:10:07Z</time>
      </trkpt>
      <trkpt lat="46.56116" lon="0.33696">
        <ele>136.8</ele>
        <time>2023-08-20T07:10:08Z</time>
      </trkpt>
      <trkpt lat="46.5613" lon="0.33686">
        <ele>137.6</ele>
        <time>2023-08-20T07:10:16Z</time>
      </trkpt>
      <trkpt lat="46.56131" lon="0.33685">
        <ele>137.8</ele>
        <time>2023-08-20T07:10:17Z</time>
      </trkpt>
      <trkpt lat="46.56141" lon="0.3368">
        <ele>139</ele>
        <time>2023-08-20T07:10:23Z</time>
      </trkpt>
      <trkpt lat="46.56146" lon="0.33678">
        <ele>140</ele>
        <time>2023-08-20T07:10:26Z</time>
      </trkpt>
      <trkpt lat="46.56154" lon="0.33672">
        <ele>140.6</ele>
        <time>2023-08-20T07:10:31Z</time>
      </trkpt>
      <trkpt lat="46.56159" lon="0.3367">
        <ele>141.2</ele>
        <time>2023-08-20T07:10:35Z</time>
      </trkpt>
      <trkpt lat="46.56164" lon="0.33669">
        <ele>142.2</ele>
        <time>2023-08-20T07:10:38Z</time>
      </trkpt>
      <trkpt lat="46.56165" lon="0.33668">
        <ele>142.4</ele>
        <time>2023-08-20T07:10:39Z</time>
      </trkpt>
      <trkpt lat="46.56176" lon="0.33669">
        <ele>143.4</ele>
        <time>2023-08-20T07:10:46Z</time>
      </trkpt>
      <trkpt lat="46.56178" lon="0.33669">
        <ele>143.6</ele>
        <time>2023-08-20T07:10:47Z</time>
      </trkpt>
      <trkpt lat="46.5619" lon="0.33672">
        <ele>144.6</ele>
        <time>2023-08-20T07:10:55Z</time>
      </trkpt>
      <trkpt lat="46.56192" lon="0.33672">
        <ele>144.8</ele>
        <time>2023-08-20T07:10:56Z</time>
      </trkpt>
      <trkpt lat="46.56198" lon="0.33675">
        <ele>145.6</ele>
        <time>2023-08-20T07:10:59Z</time>
      </trkpt>
      <trkpt lat="46.56208" lon="0.33681">
        <ele>147</ele>
        <time>2023-08-20T07:11:05Z</time>
      </trkpt>
      <trkpt lat="46.5621" lon="0.33683">
        <ele>147.4</ele>
        <time>2023-08-20T07:11:07Z</time>
      </trkpt>
      <trkpt lat="46.56214" lon="0.33688">
        <ele>148</ele>
        <time>2023-08-20T07:11:12Z</time>
      </trkpt>
      <trkpt lat="46.56214" lon="0.33692">
        <ele>148.4</ele>
        <time>2023-08-20T07:11:14Z</time>
      </trkpt>
      <trkpt lat="46.56214" lon="0.33693">
        <ele>148.4</ele>
        <time>2023-08-20T07:11:15Z</time>
      </trkpt>
      <trkpt lat="46.56212" lon="0.33696">
        <ele>149.2</ele>
        <time>2023-08-20T07:11:18Z</time>
      </trkpt>
      <trkpt lat="46.5621" lon="0.337">
        <ele>149.8</ele>
        <time>2023-08-20T07:11:21Z</time>
      </trkpt>
      <trkpt lat="46.56208" lon="0.33701">
        <ele>150.2</ele>
        <time>2023-08-20T07:11:23Z</time>
      </trkpt>
      <trkpt lat="46.56207" lon="0.33701">
        <ele>150.6</ele>
        <time>2023-08-20T07:11:25Z</time>
      </trkpt>
      <trkpt lat="46.56205" lon="0.33701">
        <ele>151.2</ele>
        <time>2023-08-20T07:11:27Z</time>
      </trkpt>
      <trkpt lat="46.56204" lon="0.33701">
        <ele>151.4</ele>
        <time>2023-08-20T07:11:28Z</time>
      </trkpt>
      <trkpt lat="46.56202" lon="0.33701">
        <ele>151.8</ele>
        <time>2023-08-20T07:11:30Z</time>
      </trkpt>
      <trkpt lat="46.562" lon="0.33701">
        <ele>152.2</ele>
        <time>2023-08-20T07:11:32Z</time>
      </trkpt>
      <trkpt lat="46.56199" lon="0.33702">
        <ele>152.4</ele>
        <time>2023-08-20T07:11:33Z</time>
      </trkpt>
      <trkpt lat="46.56197" lon="0.33703">
        <ele>152.6</ele>
        <time>2023-08-20T07:11:34Z</time>
      </trkpt>
      <trkpt lat="46.56193" lon="0.33705">
        <ele>152.8</ele>
        <time>2023-08-20T07:11:36Z</time>
      </trkpt>
      <trkpt lat="46.56179" lon="0.33717">
        <ele>153.4</ele>
        <time>2023-08-20T07:11:43Z</time>
      </trkpt>
      <trkpt lat="46.56176" lon="0.33718">
        <ele>153.4</ele>
        <time>2023-08-20T07:11:44Z</time>
      </trkpt>
      <trkpt lat="46.56164" lon="0.33732">
        <ele>154.4</ele>
        <time>2023-08-20T07:11:50Z</time>
      </trkpt>
      <trkpt lat="46.56161" lon="0.33734">
        <ele>154.6</ele>
        <time>2023-08-20T07:11:51Z</time>
      </trkpt>
      <trkpt lat="46.56147" lon="0.33742">
        <ele>155.6</ele>
        <time>2023-08-20T07:11:56Z</time>
      </trkpt>
      <trkpt lat="46.56132" lon="0.33753">
        <ele>156.8</ele>
        <time>2023-08-20T07:12:02Z</time>
      </trkpt>
      <trkpt lat="46.56131" lon="0.33755">
        <ele>156.8</ele>
        <time>2023-08-20T07:12:03Z</time>
      </trkpt>
      <trkpt lat="46.56125" lon="0.3376">
        <ele>157.8</ele>
        <time>2023-08-20T07:12:07Z</time>
      </trkpt>
      <trkpt lat="46.56119" lon="0.33766">
        <ele>158.8</ele>
        <time>2023-08-20T07:12:10Z</time>
      </trkpt>
      <trkpt lat="46.56117" lon="0.33768">
        <ele>159</ele>
        <time>2023-08-20T07:12:11Z</time>
      </trkpt>
      <trkpt lat="46.56107" lon="0.33777">
        <ele>160.2</ele>
        <time>2023-08-20T07:12:16Z</time>
      </trkpt>
      <trkpt lat="46.56106" lon="0.33779">
        <ele>160.4</ele>
        <time>2023-08-20T07:12:17Z</time>
      </trkpt>
      <trkpt lat="46.56097" lon="0.33789">
        <ele>161.2</ele>
        <time>2023-08-20T07:12:22Z</time>
      </trkpt>
      <trkpt lat="46.56094" lon="0.33791">
        <ele>161.4</ele>
        <time>2023-08-20T07:12:23Z</time>
      </trkpt>
      <trkpt lat="46.56089" lon="0.33796">
        <ele>161.6</ele>
        <time>2023-08-20T07:12:26Z</time>
      </trkpt>
      <trkpt lat="46.56087" lon="0.33801">
        <ele>161.8</ele>
        <time>2023-08-20T07:12:28Z</time>
      </trkpt>
      <trkpt lat="46.56086" lon="0.33805">
        <ele>162</ele>
        <time>2023-08-20T07:12:30Z</time>
      </trkpt>
      <trkpt lat="46.56087" lon="0.33812">
        <ele>162</ele>
        <time>2023-08-20T07:12:33Z</time>
      </trkpt>
      <trkpt lat="46.56087" lon="0.33814">
        <ele>162.2</ele>
        <time>2023-08-20T07:12:34Z</time>
      </trkpt>
      <trkpt lat="46.56084" lon="0.33821">
        <ele>162.2</ele>
        <time>2023-08-20T07:12:36Z</time>
      </trkpt>
      <trkpt lat="46.56082" lon="0.33825">
        <ele>162.2</ele>
        <time>2023-08-20T07:12:37Z</time>
      </trkpt>
      <trkpt lat="46.56068" lon="0.33842">
        <ele>162.2</ele>
        <time>2023-08-20T07:12:42Z</time>
      </trkpt>
      <trkpt lat="46.5605" lon="0.33866">
        <ele>162.8</ele>
        <time>2023-08-20T07:12:49Z</time>
      </trkpt>
      <trkpt lat="46.56038" lon="0.33888">
        <ele>163</ele>
        <time>2023-08-20T07:12:56Z</time>
      </trkpt>
      <trkpt lat="46.56032" lon="0.33899">
        <ele>163.2</ele>
        <time>2023-08-20T07:12:59Z</time>
      </trkpt>
      <trkpt lat="46.56025" lon="0.3391">
        <ele>163.4</ele>
        <time>2023-08-20T07:13:03Z</time>
      </trkpt>
      <trkpt lat="46.56018" lon="0.33919">
        <ele>163.8</ele>
        <time>2023-08-20T07:13:09Z</time>
      </trkpt>
      <trkpt lat="46.56011" lon="0.33925">
        <ele>164.2</ele>
        <time>2023-08-20T07:13:12Z</time>
      </trkpt>
      <trkpt lat="46.56002" lon="0.3393">
        <ele>164.4</ele>
        <time>2023-08-20T07:13:15Z</time>
      </trkpt>
      <trkpt lat="46.55987" lon="0.33945">
        <ele>164.8</ele>
        <time>2023-08-20T07:13:20Z</time>
      </trkpt>
      <trkpt lat="46.55973" lon="0.3396">
        <ele>164.4</ele>
        <time>2023-08-20T07:13:24Z</time>
      </trkpt>
      <trkpt lat="46.55965" lon="0.33967">
        <ele>164</ele>
        <time>2023-08-20T07:13:26Z</time>
      </trkpt>
      <trkpt lat="46.55951" lon="0.33981">
        <ele>163.4</ele>
        <time>2023-08-20T07:13:29Z</time>
      </trkpt>
      <trkpt lat="46.55943" lon="0.33993">
        <ele>163.2</ele>
        <time>2023-08-20T07:13:31Z</time>
      </trkpt>
      <trkpt lat="46.55936" lon="0.34005">
        <ele>162.8</ele>
        <time>2023-08-20T07:13:33Z</time>
      </trkpt>
      <trkpt lat="46.5593" lon="0.34021">
        <ele>162.6</ele>
        <time>2023-08-20T07:13:36Z</time>
      </trkpt>
      <trkpt lat="46.55929" lon="0.34024">
        <ele>162.4</ele>
        <time>2023-08-20T07:13:37Z</time>
      </trkpt>
      <trkpt lat="46.5592" lon="0.3403">
        <ele>162.6</ele>
        <time>2023-08-20T07:13:40Z</time>
      </trkpt>
      <trkpt lat="46.55916" lon="0.3403">
        <ele>162.6</ele>
        <time>2023-08-20T07:13:41Z</time>
      </trkpt>
      <trkpt lat="46.55908" lon="0.3403">
        <ele>162.4</ele>
        <time>2023-08-20T07:13:43Z</time>
      </trkpt>
      <trkpt lat="46.55903" lon="0.34032">
        <ele>162.4</ele>
        <time>2023-08-20T07:13:44Z</time>
      </trkpt>
      <trkpt lat="46.55895" lon="0.34035">
        <ele>162</ele>
        <time>2023-08-20T07:13:46Z</time>
      </trkpt>
      <trkpt lat="46.55891" lon="0.34036">
        <ele>161.8</ele>
        <time>2023-08-20T07:13:47Z</time>
      </trkpt>
      <trkpt lat="46.55883" lon="0.34037">
        <ele>161.4</ele>
        <time>2023-08-20T07:13:49Z</time>
      </trkpt>
      <trkpt lat="46.55864" lon="0.34039">
        <ele>161.2</ele>
        <time>2023-08-20T07:13:54Z</time>
      </trkpt>
      <trkpt lat="46.55861" lon="0.3404">
        <ele>161.2</ele>
        <time>2023-08-20T07:13:55Z</time>
      </trkpt>
      <trkpt lat="46.55853" lon="0.34047">
        <ele>161.6</ele>
        <time>2023-08-20T07:13:58Z</time>
      </trkpt>
      <trkpt lat="46.55846" lon="0.34052">
        <ele>161.6</ele>
        <time>2023-08-20T07:14:00Z</time>
      </trkpt>
      <trkpt lat="46.55831" lon="0.34062">
        <ele>161.6</ele>
        <time>2023-08-20T07:14:04Z</time>
      </trkpt>
      <trkpt lat="46.55804" lon="0.34082">
        <ele>162.4</ele>
        <time>2023-08-20T07:14:11Z</time>
      </trkpt>
      <trkpt lat="46.55796" lon="0.34087">
        <ele>162.6</ele>
        <time>2023-08-20T07:14:13Z</time>
      </trkpt>
      <trkpt lat="46.55787" lon="0.34088">
        <ele>162.6</ele>
        <time>2023-08-20T07:14:15Z</time>
      </trkpt>
      <trkpt lat="46.55757" lon="0.3409">
        <ele>163</ele>
        <time>2023-08-20T07:14:22Z</time>
      </trkpt>
      <trkpt lat="46.55753" lon="0.3409">
        <ele>163</ele>
        <time>2023-08-20T07:14:23Z</time>
      </trkpt>
      <trkpt lat="46.55735" lon="0.34091">
        <ele>163.4</ele>
        <time>2023-08-20T07:14:27Z</time>
      </trkpt>
      <trkpt lat="46.55728" lon="0.34095">
        <ele>163.6</ele>
        <time>2023-08-20T07:14:29Z</time>
      </trkpt>
      <trkpt lat="46.55716" lon="0.34106">
        <ele>164.2</ele>
        <time>2023-08-20T07:14:32Z</time>
      </trkpt>
      <trkpt lat="46.55713" lon="0.34109">
        <ele>164.2</ele>
        <time>2023-08-20T07:14:33Z</time>
      </trkpt>
      <trkpt lat="46.557" lon="0.34136">
        <ele>165.6</ele>
        <time>2023-08-20T07:14:38Z</time>
      </trkpt>
      <trkpt lat="46.55698" lon="0.34143">
        <ele>166.2</ele>
        <time>2023-08-20T07:14:39Z</time>
      </trkpt>
      <trkpt lat="46.55694" lon="0.34154">
        <ele>167</ele>
        <time>2023-08-20T07:14:41Z</time>
      </trkpt>
      <trkpt lat="46.55685" lon="0.34176">
        <ele>167.6</ele>
        <time>2023-08-20T07:14:45Z</time>
      </trkpt>
      <trkpt lat="46.55679" lon="0.34195">
        <ele>168</ele>
        <time>2023-08-20T07:14:49Z</time>
      </trkpt>
      <trkpt lat="46.55676" lon="0.34202">
        <ele>168.2</ele>
        <time>2023-08-20T07:14:51Z</time>
      </trkpt>
      <trkpt lat="46.55666" lon="0.34211">
        <ele>168.2</ele>
        <time>2023-08-20T07:14:56Z</time>
      </trkpt>
      <trkpt lat="46.55651" lon="0.34214">
        <ele>168.2</ele>
        <time>2023-08-20T07:15:02Z</time>
      </trkpt>
      <trkpt lat="46.55641" lon="0.34215">
        <ele>168.6</ele>
        <time>2023-08-20T07:15:07Z</time>
      </trkpt>
      <trkpt lat="46.5564" lon="0.34215">
        <ele>168.6</ele>
        <time>2023-08-20T07:15:12Z</time>
      </trkpt>
      <trkpt lat="46.55638" lon="0.34214">
        <ele>168.4</ele>
        <time>2023-08-20T07:15:19Z</time>
      </trkpt>
      <trkpt lat="46.55637" lon="0.34213">
        <ele>168.4</ele>
        <time>2023-08-20T07:15:22Z</time>
      </trkpt>
      <trkpt lat="46.55633" lon="0.34212">
        <ele>168</ele>
        <time>2023-08-20T07:15:34Z</time>
      </trkpt>
      <trkpt lat="46.55633" lon="0.34211">
        <ele>168.2</ele>
        <time>2023-08-20T07:15:45Z</time>
      </trkpt>
      <trkpt lat="46.55633" lon="0.34213">
        <ele>168</ele>
        <time>2023-08-20T07:15:54Z</time>
      </trkpt>
      <trkpt lat="46.55631" lon="0.34214">
        <ele>168</ele>
        <time>2023-08-20T07:16:04Z</time>
      </trkpt>
      <trkpt lat="46.55632" lon="0.34215">
        <ele>168.2</ele>
        <time>2023-08-20T07:16:22Z</time>
      </trkpt>
      <trkpt lat="46.55632" lon="0.34215">
        <ele>167.8</ele>
        <time>2023-08-20T07:16:36Z</time>
      </trkpt>
      <trkpt lat="46.55633" lon="0.34215">
        <ele>167.8</ele>
        <time>2023-08-20T07:16:40Z</time>
      </trkpt>
      <trkpt lat="46.55632" lon="0.34212">
        <ele>168</ele>
        <time>2023-08-20T07:16:53Z</time>
      </trkpt>
      <trkpt lat="46.55622" lon="0.3421">
        <ele>168</ele>
        <time>2023-08-20T07:16:57Z</time>
      </trkpt>
      <trkpt lat="46.55603" lon="0.34201">
        <ele>168.2</ele>
        <time>2023-08-20T07:17:02Z</time>
      </trkpt>
      <trkpt lat="46.55585" lon="0.34202">
        <ele>168</ele>
        <time>2023-08-20T07:17:06Z</time>
      </trkpt>
      <trkpt lat="46.55548" lon="0.34209">
        <ele>167.8</ele>
        <time>2023-08-20T07:17:13Z</time>
      </trkpt>
      <trkpt lat="46.55505" lon="0.34216">
        <ele>168</ele>
        <time>2023-08-20T07:17:20Z</time>
      </trkpt>
      <trkpt lat="46.55469" lon="0.34219">
        <ele>167.2</ele>
        <time>2023-08-20T07:17:26Z</time>
      </trkpt>
      <trkpt lat="46.55463" lon="0.34223">
        <ele>167</ele>
        <time>2023-08-20T07:17:27Z</time>
      </trkpt>
      <trkpt lat="46.5546" lon="0.34229">
        <ele>167</ele>
        <time>2023-08-20T07:17:28Z</time>
      </trkpt>
      <trkpt lat="46.55458" lon="0.34236">
        <ele>166.8</ele>
        <time>2023-08-20T07:17:29Z</time>
      </trkpt>
      <trkpt lat="46.55461" lon="0.34243">
        <ele>166.8</ele>
        <time>2023-08-20T07:17:30Z</time>
      </trkpt>
      <trkpt lat="46.55472" lon="0.34274">
        <ele>166.2</ele>
        <time>2023-08-20T07:17:34Z</time>
      </trkpt>
      <trkpt lat="46.55477" lon="0.34281">
        <ele>166</ele>
        <time>2023-08-20T07:17:35Z</time>
      </trkpt>
      <trkpt lat="46.55481" lon="0.34288">
        <ele>165.8</ele>
        <time>2023-08-20T07:17:36Z</time>
      </trkpt>
      <trkpt lat="46.55488" lon="0.34299">
        <ele>164</ele>
        <time>2023-08-20T07:17:38Z</time>
      </trkpt>
      <trkpt lat="46.55488" lon="0.34299">
        <ele>162.8</ele>
        <time>2023-08-20T07:17:39Z</time>
      </trkpt>
      <trkpt lat="46.55493" lon="0.34307">
        <ele>162.8</ele>
        <time>2023-08-20T07:17:40Z</time>
      </trkpt>
      <trkpt lat="46.55495" lon="0.34309">
        <ele>162.4</ele>
        <time>2023-08-20T07:17:41Z</time>
      </trkpt>
      <trkpt lat="46.55494" lon="0.34312">
        <ele>161.6</ele>
        <time>2023-08-20T07:17:43Z</time>
      </trkpt>
      <trkpt lat="46.55492" lon="0.34312">
        <ele>160.6</ele>
        <time>2023-08-20T07:17:45Z</time>
      </trkpt>
      <trkpt lat="46.55488" lon="0.34312">
        <ele>160</ele>
        <time>2023-08-20T07:17:47Z</time>
      </trkpt>
      <trkpt lat="46.55475" lon="0.34312">
        <ele>159.4</ele>
        <time>2023-08-20T07:17:52Z</time>
      </trkpt>
      <trkpt lat="46.55474" lon="0.34312">
        <ele>159.4</ele>
        <time>2023-08-20T07:17:53Z</time>
      </trkpt>
      <trkpt lat="46.55469" lon="0.34311">
        <ele>158.4</ele>
        <time>2023-08-20T07:17:58Z</time>
      </trkpt>
      <trkpt lat="46.55467" lon="0.34311">
        <ele>158.2</ele>
        <time>2023-08-20T07:18:00Z</time>
      </trkpt>
      <trkpt lat="46.55459" lon="0.34308">
        <ele>158.4</ele>
        <time>2023-08-20T07:18:09Z</time>
      </trkpt>
      <trkpt lat="46.55455" lon="0.34309">
        <ele>158.4</ele>
        <time>2023-08-20T07:18:11Z</time>
      </trkpt>
      <trkpt lat="46.55447" lon="0.34311">
        <ele>158.6</ele>
        <time>2023-08-20T07:18:14Z</time>
      </trkpt>
      <trkpt lat="46.5543" lon="0.34321">
        <ele>158</ele>
        <time>2023-08-20T07:18:18Z</time>
      </trkpt>
      <trkpt lat="46.55421" lon="0.34325">
        <ele>157.2</ele>
        <time>2023-08-20T07:18:20Z</time>
      </trkpt>
      <trkpt lat="46.55407" lon="0.34334">
        <ele>156.8</ele>
        <time>2023-08-20T07:18:23Z</time>
      </trkpt>
      <trkpt lat="46.55401" lon="0.34337">
        <ele>156.4</ele>
        <time>2023-08-20T07:18:24Z</time>
      </trkpt>
      <trkpt lat="46.55391" lon="0.3434">
        <ele>156</ele>
        <time>2023-08-20T07:18:26Z</time>
      </trkpt>
      <trkpt lat="46.55381" lon="0.34342">
        <ele>156.2</ele>
        <time>2023-08-20T07:18:28Z</time>
      </trkpt>
      <trkpt lat="46.55348" lon="0.34339">
        <ele>157</ele>
        <time>2023-08-20T07:18:34Z</time>
      </trkpt>
      <trkpt lat="46.55314" lon="0.34341">
        <ele>155.6</ele>
        <time>2023-08-20T07:18:39Z</time>
      </trkpt>
      <trkpt lat="46.55308" lon="0.34342">
        <ele>155</ele>
        <time>2023-08-20T07:18:40Z</time>
      </trkpt>
      <trkpt lat="46.55302" lon="0.34342">
        <ele>154.2</ele>
        <time>2023-08-20T07:18:41Z</time>
      </trkpt>
      <trkpt lat="46.55288" lon="0.34341">
        <ele>152.8</ele>
        <time>2023-08-20T07:18:43Z</time>
      </trkpt>
      <trkpt lat="46.55275" lon="0.34339">
        <ele>151.8</ele>
        <time>2023-08-20T07:18:45Z</time>
      </trkpt>
      <trkpt lat="46.55268" lon="0.34338">
        <ele>151.2</ele>
        <time>2023-08-20T07:18:46Z</time>
      </trkpt>
      <trkpt lat="46.55256" lon="0.34335">
        <ele>150.2</ele>
        <time>2023-08-20T07:18:48Z</time>
      </trkpt>
      <trkpt lat="46.5525" lon="0.34334">
        <ele>150</ele>
        <time>2023-08-20T07:18:49Z</time>
      </trkpt>
      <trkpt lat="46.55244" lon="0.34334">
        <ele>149.8</ele>
        <time>2023-08-20T07:18:50Z</time>
      </trkpt>
      <trkpt lat="46.55229" lon="0.34331">
        <ele>149.2</ele>
        <time>2023-08-20T07:18:53Z</time>
      </trkpt>
      <trkpt lat="46.55219" lon="0.34328">
        <ele>148.6</ele>
        <time>2023-08-20T07:18:55Z</time>
      </trkpt>
      <trkpt lat="46.55214" lon="0.34328">
        <ele>148.4</ele>
        <time>2023-08-20T07:18:56Z</time>
      </trkpt>
      <trkpt lat="46.55203" lon="0.34325">
        <ele>148.2</ele>
        <time>2023-08-20T07:18:58Z</time>
      </trkpt>
      <trkpt lat="46.55192" lon="0.34321">
        <ele>148</ele>
        <time>2023-08-20T07:19:00Z</time>
      </trkpt>
      <trkpt lat="46.5518" lon="0.34317">
        <ele>147.8</ele>
        <time>2023-08-20T07:19:02Z</time>
      </trkpt>
      <trkpt lat="46.55163" lon="0.34305">
        <ele>147.6</ele>
        <time>2023-08-20T07:19:05Z</time>
      </trkpt>
      <trkpt lat="46.55145" lon="0.34287">
        <ele>147.2</ele>
        <time>2023-08-20T07:19:10Z</time>
      </trkpt>
      <trkpt lat="46.55142" lon="0.34283">
        <ele>147.2</ele>
        <time>2023-08-20T07:19:11Z</time>
      </trkpt>
      <trkpt lat="46.5513" lon="0.34271">
        <ele>147</ele>
        <time>2023-08-20T07:19:14Z</time>
      </trkpt>
      <trkpt lat="46.55126" lon="0.34269">
        <ele>146.4</ele>
        <time>2023-08-20T07:19:15Z</time>
      </trkpt>
      <trkpt lat="46.55115" lon="0.34266">
        <ele>145.4</ele>
        <time>2023-08-20T07:19:18Z</time>
      </trkpt>
      <trkpt lat="46.55099" lon="0.34261">
        <ele>144.2</ele>
        <time>2023-08-20T07:19:21Z</time>
      </trkpt>
      <trkpt lat="46.55088" lon="0.34254">
        <ele>142.8</ele>
        <time>2023-08-20T07:19:23Z</time>
      </trkpt>
      <trkpt lat="46.55078" lon="0.3424">
        <ele>141.4</ele>
        <time>2023-08-20T07:19:26Z</time>
      </trkpt>
      <trkpt lat="46.5507" lon="0.34225">
        <ele>140.8</ele>
        <time>2023-08-20T07:19:29Z</time>
      </trkpt>
      <trkpt lat="46.55064" lon="0.34217">
        <ele>140.4</ele>
        <time>2023-08-20T07:19:32Z</time>
      </trkpt>
      <trkpt lat="46.55063" lon="0.34214">
        <ele>140.2</ele>
        <time>2023-08-20T07:19:33Z</time>
      </trkpt>
      <trkpt lat="46.55059" lon="0.34208">
        <ele>139.4</ele>
        <time>2023-08-20T07:19:37Z</time>
      </trkpt>
      <trkpt lat="46.55057" lon="0.34206">
        <ele>139.2</ele>
        <time>2023-08-20T07:19:38Z</time>
      </trkpt>
      <trkpt lat="46.55055" lon="0.34205">
        <ele>139</ele>
        <time>2023-08-20T07:19:39Z</time>
      </trkpt>
      <trkpt lat="46.55048" lon="0.34201">
        <ele>138.8</ele>
        <time>2023-08-20T07:19:42Z</time>
      </trkpt>
      <trkpt lat="46.55044" lon="0.34198">
        <ele>138</ele>
        <time>2023-08-20T07:19:44Z</time>
      </trkpt>
      <trkpt lat="46.55043" lon="0.34198">
        <ele>137.8</ele>
        <time>2023-08-20T07:19:45Z</time>
      </trkpt>
      <trkpt lat="46.5504" lon="0.34195">
        <ele>137.4</ele>
        <time>2023-08-20T07:19:48Z</time>
      </trkpt>
      <trkpt lat="46.55037" lon="0.34192">
        <ele>137</ele>
        <time>2023-08-20T07:19:52Z</time>
      </trkpt>
      <trkpt lat="46.55036" lon="0.3419">
        <ele>135.8</ele>
        <time>2023-08-20T07:19:55Z</time>
      </trkpt>
      <trkpt lat="46.55037" lon="0.34188">
        <ele>134.8</ele>
        <time>2023-08-20T07:19:59Z</time>
      </trkpt>
      <trkpt lat="46.55033" lon="0.34188">
        <ele>133.8</ele>
        <time>2023-08-20T07:20:06Z</time>
      </trkpt>
      <trkpt lat="46.55031" lon="0.34191">
        <ele>133.6</ele>
        <time>2023-08-20T07:20:08Z</time>
      </trkpt>
      <trkpt lat="46.55029" lon="0.34186">
        <ele>133.4</ele>
        <time>2023-08-20T07:20:12Z</time>
      </trkpt>
      <trkpt lat="46.5503" lon="0.34185">
        <ele>133.4</ele>
        <time>2023-08-20T07:20:13Z</time>
      </trkpt>
      <trkpt lat="46.55031" lon="0.34182">
        <ele>133.4</ele>
        <time>2023-08-20T07:20:15Z</time>
      </trkpt>
      <trkpt lat="46.55032" lon="0.3418">
        <ele>133.4</ele>
        <time>2023-08-20T07:20:16Z</time>
      </trkpt>
      <trkpt lat="46.55032" lon="0.34179">
        <ele>133.6</ele>
        <time>2023-08-20T07:20:17Z</time>
      </trkpt>
      <trkpt lat="46.55036" lon="0.34155">
        <ele>134.8</ele>
        <time>2023-08-20T07:20:27Z</time>
      </trkpt>
      <trkpt lat="46.5504" lon="0.34144">
        <ele>134.6</ele>
        <time>2023-08-20T07:20:30Z</time>
      </trkpt>
      <trkpt lat="46.55039" lon="0.34137">
        <ele>134.4</ele>
        <time>2023-08-20T07:20:32Z</time>
      </trkpt>
      <trkpt lat="46.55022" lon="0.34124">
        <ele>134.2</ele>
        <time>2023-08-20T07:20:35Z</time>
      </trkpt>
      <trkpt lat="46.55014" lon="0.34111">
        <ele>133</ele>
        <time>2023-08-20T07:20:38Z</time>
      </trkpt>
      <trkpt lat="46.55013" lon="0.34105">
        <ele>132.8</ele>
        <time>2023-08-20T07:20:39Z</time>
      </trkpt>
      <trkpt lat="46.55011" lon="0.34098">
        <ele>132.4</ele>
        <time>2023-08-20T07:20:40Z</time>
      </trkpt>
      <trkpt lat="46.5501" lon="0.34081">
        <ele>131.6</ele>
        <time>2023-08-20T07:20:42Z</time>
      </trkpt>
      <trkpt lat="46.55008" lon="0.34074">
        <ele>131.2</ele>
        <time>2023-08-20T07:20:43Z</time>
      </trkpt>
      <trkpt lat="46.55004" lon="0.34068">
        <ele>130.8</ele>
        <time>2023-08-20T07:20:44Z</time>
      </trkpt>
      <trkpt lat="46.55" lon="0.34063">
        <ele>130.4</ele>
        <time>2023-08-20T07:20:45Z</time>
      </trkpt>
      <trkpt lat="46.54993" lon="0.34054">
        <ele>129.4</ele>
        <time>2023-08-20T07:20:47Z</time>
      </trkpt>
      <trkpt lat="46.54991" lon="0.34051">
        <ele>128.8</ele>
        <time>2023-08-20T07:20:48Z</time>
      </trkpt>
      <trkpt lat="46.54985" lon="0.34042">
        <ele>127.8</ele>
        <time>2023-08-20T07:20:50Z</time>
      </trkpt>
      <trkpt lat="46.54982" lon="0.34039">
        <ele>127.4</ele>
        <time>2023-08-20T07:20:51Z</time>
      </trkpt>
      <trkpt lat="46.54977" lon="0.34037">
        <ele>126.8</ele>
        <time>2023-08-20T07:20:52Z</time>
      </trkpt>
      <trkpt lat="46.54973" lon="0.34039">
        <ele>126.4</ele>
        <time>2023-08-20T07:20:53Z</time>
      </trkpt>
      <trkpt lat="46.54971" lon="0.34042">
        <ele>126.2</ele>
        <time>2023-08-20T07:20:54Z</time>
      </trkpt>
      <trkpt lat="46.54964" lon="0.34061">
        <ele>125.8</ele>
        <time>2023-08-20T07:20:59Z</time>
      </trkpt>
      <trkpt lat="46.54957" lon="0.34081">
        <ele>125.6</ele>
        <time>2023-08-20T07:21:05Z</time>
      </trkpt>
      <trkpt lat="46.54953" lon="0.34093">
        <ele>125.6</ele>
        <time>2023-08-20T07:21:07Z</time>
      </trkpt>
      <trkpt lat="46.54951" lon="0.34112">
        <ele>125.4</ele>
        <time>2023-08-20T07:21:10Z</time>
      </trkpt>
      <trkpt lat="46.5495" lon="0.34118">
        <ele>125.4</ele>
        <time>2023-08-20T07:21:11Z</time>
      </trkpt>
      <trkpt lat="46.54944" lon="0.34143">
        <ele>125.4</ele>
        <time>2023-08-20T07:21:15Z</time>
      </trkpt>
      <trkpt lat="46.54946" lon="0.34155">
        <ele>125.4</ele>
        <time>2023-08-20T07:21:17Z</time>
      </trkpt>
      <trkpt lat="46.54949" lon="0.34166">
        <ele>125.4</ele>
        <time>2023-08-20T07:21:19Z</time>
      </trkpt>
      <trkpt lat="46.5495" lon="0.34171">
        <ele>125.4</ele>
        <time>2023-08-20T07:21:20Z</time>
      </trkpt>
      <trkpt lat="46.54956" lon="0.34179">
        <ele>125</ele>
        <time>2023-08-20T07:21:23Z</time>
      </trkpt>
      <trkpt lat="46.54957" lon="0.34182">
        <ele>124.6</ele>
        <time>2023-08-20T07:21:27Z</time>
      </trkpt>
      <trkpt lat="46.54956" lon="0.34184">
        <ele>124.4</ele>
        <time>2023-08-20T07:21:32Z</time>
      </trkpt>
      <trkpt lat="46.54955" lon="0.34185">
        <ele>124.4</ele>
        <time>2023-08-20T07:21:37Z</time>
      </trkpt>
      <trkpt lat="46.54962" lon="0.34199">
        <ele>124.4</ele>
        <time>2023-08-20T07:21:44Z</time>
      </trkpt>
      <trkpt lat="46.54973" lon="0.34217">
        <ele>124.8</ele>
        <time>2023-08-20T07:21:49Z</time>
      </trkpt>
      <trkpt lat="46.54977" lon="0.34221">
        <ele>124.8</ele>
        <time>2023-08-20T07:21:50Z</time>
      </trkpt>
      <trkpt lat="46.54984" lon="0.34228">
        <ele>125.2</ele>
        <time>2023-08-20T07:21:52Z</time>
      </trkpt>
      <trkpt lat="46.54993" lon="0.34236">
        <ele>125.2</ele>
        <time>2023-08-20T07:21:55Z</time>
      </trkpt>
      <trkpt lat="46.54996" lon="0.34241">
        <ele>125.2</ele>
        <time>2023-08-20T07:21:56Z</time>
      </trkpt>
      <trkpt lat="46.54998" lon="0.34247">
        <ele>125.4</ele>
        <time>2023-08-20T07:21:57Z</time>
      </trkpt>
      <trkpt lat="46.55002" lon="0.34262">
        <ele>125.8</ele>
        <time>2023-08-20T07:21:59Z</time>
      </trkpt>
      <trkpt lat="46.55013" lon="0.34303">
        <ele>126.4</ele>
        <time>2023-08-20T07:22:04Z</time>
      </trkpt>
      <trkpt lat="46.55017" lon="0.34312">
        <ele>126.4</ele>
        <time>2023-08-20T07:22:05Z</time>
      </trkpt>
      <trkpt lat="46.55021" lon="0.3432">
        <ele>126.6</ele>
        <time>2023-08-20T07:22:06Z</time>
      </trkpt>
      <trkpt lat="46.5503" lon="0.34335">
        <ele>126.4</ele>
        <time>2023-08-20T07:22:08Z</time>
      </trkpt>
      <trkpt lat="46.55038" lon="0.34349">
        <ele>126.2</ele>
        <time>2023-08-20T07:22:10Z</time>
      </trkpt>
      <trkpt lat="46.55044" lon="0.34364">
        <ele>125.8</ele>
        <time>2023-08-20T07:22:12Z</time>
      </trkpt>
      <trkpt lat="46.55044" lon="0.34371">
        <ele>125.4</ele>
        <time>2023-08-20T07:22:13Z</time>
      </trkpt>
      <trkpt lat="46.55044" lon="0.34383">
        <ele>124.8</ele>
        <time>2023-08-20T07:22:15Z</time>
      </trkpt>
      <trkpt lat="46.55045" lon="0.34386">
        <ele>124.4</ele>
        <time>2023-08-20T07:22:16Z</time>
      </trkpt>
      <trkpt lat="46.55046" lon="0.34388">
        <ele>124.2</ele>
        <time>2023-08-20T07:22:17Z</time>
      </trkpt>
      <trkpt lat="46.55054" lon="0.34399">
        <ele>123.6</ele>
        <time>2023-08-20T07:22:21Z</time>
      </trkpt>
      <trkpt lat="46.55054" lon="0.34415">
        <ele>123.8</ele>
        <time>2023-08-20T07:22:25Z</time>
      </trkpt>
      <trkpt lat="46.55047" lon="0.34434">
        <ele>124.8</ele>
        <time>2023-08-20T07:22:30Z</time>
      </trkpt>
      <trkpt lat="46.55041" lon="0.34437">
        <ele>125.6</ele>
        <time>2023-08-20T07:22:33Z</time>
      </trkpt>
      <trkpt lat="46.55037" lon="0.34439">
        <ele>126.8</ele>
        <time>2023-08-20T07:22:36Z</time>
      </trkpt>
      <trkpt lat="46.55032" lon="0.34442">
        <ele>127.8</ele>
        <time>2023-08-20T07:22:39Z</time>
      </trkpt>
      <trkpt lat="46.55027" lon="0.34443">
        <ele>128.8</ele>
        <time>2023-08-20T07:22:41Z</time>
      </trkpt>
      <trkpt lat="46.5502" lon="0.34443">
        <ele>130.2</ele>
        <time>2023-08-20T07:22:44Z</time>
      </trkpt>
      <trkpt lat="46.55013" lon="0.34442">
        <ele>131.2</ele>
        <time>2023-08-20T07:22:48Z</time>
      </trkpt>
      <trkpt lat="46.55009" lon="0.34443">
        <ele>131.8</ele>
        <time>2023-08-20T07:22:51Z</time>
      </trkpt>
      <trkpt lat="46.5501" lon="0.34445">
        <ele>132</ele>
        <time>2023-08-20T07:22:53Z</time>
      </trkpt>
      <trkpt lat="46.55012" lon="0.34447">
        <ele>132.2</ele>
        <time>2023-08-20T07:22:55Z</time>
      </trkpt>
      <trkpt lat="46.55012" lon="0.34448">
        <ele>132.2</ele>
        <time>2023-08-20T07:22:56Z</time>
      </trkpt>
      <trkpt lat="46.55014" lon="0.34454">
        <ele>133.4</ele>
        <time>2023-08-20T07:23:02Z</time>
      </trkpt>
      <trkpt lat="46.55015" lon="0.34456">
        <ele>133.6</ele>
        <time>2023-08-20T07:23:03Z</time>
      </trkpt>
      <trkpt lat="46.5502" lon="0.34464">
        <ele>134.4</ele>
        <time>2023-08-20T07:23:08Z</time>
      </trkpt>
      <trkpt lat="46.55024" lon="0.34466">
        <ele>134.6</ele>
        <time>2023-08-20T07:23:10Z</time>
      </trkpt>
      <trkpt lat="46.5503" lon="0.34477">
        <ele>135.4</ele>
        <time>2023-08-20T07:23:16Z</time>
      </trkpt>
      <trkpt lat="46.55034" lon="0.3448">
        <ele>135.8</ele>
        <time>2023-08-20T07:23:18Z</time>
      </trkpt>
      <trkpt lat="46.55037" lon="0.34484">
        <ele>136.6</ele>
        <time>2023-08-20T07:23:21Z</time>
      </trkpt>
      <trkpt lat="46.55041" lon="0.34489">
        <ele>137</ele>
        <time>2023-08-20T07:23:24Z</time>
      </trkpt>
      <trkpt lat="46.55044" lon="0.34491">
        <ele>137.8</ele>
        <time>2023-08-20T07:23:26Z</time>
      </trkpt>
      <trkpt lat="46.55051" lon="0.34499">
        <ele>138.8</ele>
        <time>2023-08-20T07:23:31Z</time>
      </trkpt>
      <trkpt lat="46.55061" lon="0.3451">
        <ele>140</ele>
        <time>2023-08-20T07:23:38Z</time>
      </trkpt>
      <trkpt lat="46.55067" lon="0.34519">
        <ele>141.2</ele>
        <time>2023-08-20T07:23:43Z</time>
      </trkpt>
      <trkpt lat="46.55073" lon="0.34524">
        <ele>142.4</ele>
        <time>2023-08-20T07:23:46Z</time>
      </trkpt>
      <trkpt lat="46.55075" lon="0.34526">
        <ele>142.6</ele>
        <time>2023-08-20T07:23:47Z</time>
      </trkpt>
      <trkpt lat="46.55078" lon="0.34532">
        <ele>143.4</ele>
        <time>2023-08-20T07:23:51Z</time>
      </trkpt>
      <trkpt lat="46.55082" lon="0.34536">
        <ele>144.4</ele>
        <time>2023-08-20T07:23:54Z</time>
      </trkpt>
      <trkpt lat="46.55084" lon="0.34538">
        <ele>144.8</ele>
        <time>2023-08-20T07:23:55Z</time>
      </trkpt>
      <trkpt lat="46.55089" lon="0.34543">
        <ele>145.4</ele>
        <time>2023-08-20T07:23:58Z</time>
      </trkpt>
      <trkpt lat="46.55095" lon="0.34547">
        <ele>146.6</ele>
        <time>2023-08-20T07:24:02Z</time>
      </trkpt>
      <trkpt lat="46.55097" lon="0.3455">
        <ele>147.2</ele>
        <time>2023-08-20T07:24:04Z</time>
      </trkpt>
      <trkpt lat="46.55099" lon="0.34553">
        <ele>147.6</ele>
        <time>2023-08-20T07:24:06Z</time>
      </trkpt>
      <trkpt lat="46.55104" lon="0.34559">
        <ele>148.6</ele>
        <time>2023-08-20T07:24:09Z</time>
      </trkpt>
      <trkpt lat="46.55105" lon="0.34561">
        <ele>148.8</ele>
        <time>2023-08-20T07:24:10Z</time>
      </trkpt>
      <trkpt lat="46.55106" lon="0.34564">
        <ele>149.2</ele>
        <time>2023-08-20T07:24:12Z</time>
      </trkpt>
      <trkpt lat="46.55109" lon="0.34569">
        <ele>150</ele>
        <time>2023-08-20T07:24:15Z</time>
      </trkpt>
      <trkpt lat="46.55112" lon="0.34577">
        <ele>151</ele>
        <time>2023-08-20T07:24:19Z</time>
      </trkpt>
      <trkpt lat="46.55114" lon="0.34582">
        <ele>151.6</ele>
        <time>2023-08-20T07:24:22Z</time>
      </trkpt>
      <trkpt lat="46.55114" lon="0.34585">
        <ele>152</ele>
        <time>2023-08-20T07:24:24Z</time>
      </trkpt>
      <trkpt lat="46.55114" lon="0.34591">
        <ele>153.4</ele>
        <time>2023-08-20T07:24:28Z</time>
      </trkpt>
      <trkpt lat="46.55114" lon="0.34595">
        <ele>154</ele>
        <time>2023-08-20T07:24:30Z</time>
      </trkpt>
      <trkpt lat="46.55113" lon="0.34597">
        <ele>154.2</ele>
        <time>2023-08-20T07:24:31Z</time>
      </trkpt>
      <trkpt lat="46.55113" lon="0.34599">
        <ele>154.4</ele>
        <time>2023-08-20T07:24:32Z</time>
      </trkpt>
      <trkpt lat="46.55109" lon="0.34605">
        <ele>155.4</ele>
        <time>2023-08-20T07:24:37Z</time>
      </trkpt>
      <trkpt lat="46.55109" lon="0.34606">
        <ele>155.6</ele>
        <time>2023-08-20T07:24:38Z</time>
      </trkpt>
      <trkpt lat="46.55108" lon="0.34608">
        <ele>155.8</ele>
        <time>2023-08-20T07:24:39Z</time>
      </trkpt>
      <trkpt lat="46.551" lon="0.3462">
        <ele>156.6</ele>
        <time>2023-08-20T07:24:46Z</time>
      </trkpt>
      <trkpt lat="46.55099" lon="0.34622">
        <ele>156.8</ele>
        <time>2023-08-20T07:24:47Z</time>
      </trkpt>
      <trkpt lat="46.55092" lon="0.34629">
        <ele>157.6</ele>
        <time>2023-08-20T07:24:52Z</time>
      </trkpt>
      <trkpt lat="46.5509" lon="0.34632">
        <ele>157.8</ele>
        <time>2023-08-20T07:24:54Z</time>
      </trkpt>
      <trkpt lat="46.55085" lon="0.34639">
        <ele>158.6</ele>
        <time>2023-08-20T07:24:58Z</time>
      </trkpt>
      <trkpt lat="46.55082" lon="0.34646">
        <ele>159.6</ele>
        <time>2023-08-20T07:25:01Z</time>
      </trkpt>
      <trkpt lat="46.55082" lon="0.34656">
        <ele>160.4</ele>
        <time>2023-08-20T07:25:06Z</time>
      </trkpt>
      <trkpt lat="46.55083" lon="0.34661">
        <ele>160.6</ele>
        <time>2023-08-20T07:25:08Z</time>
      </trkpt>
      <trkpt lat="46.55085" lon="0.34681">
        <ele>161.6</ele>
        <time>2023-08-20T07:25:14Z</time>
      </trkpt>
      <trkpt lat="46.55087" lon="0.34684">
        <ele>161.8</ele>
        <time>2023-08-20T07:25:15Z</time>
      </trkpt>
      <trkpt lat="46.55092" lon="0.34707">
        <ele>161.8</ele>
        <time>2023-08-20T07:25:21Z</time>
      </trkpt>
      <trkpt lat="46.5509" lon="0.34732">
        <ele>162.2</ele>
        <time>2023-08-20T07:25:26Z</time>
      </trkpt>
      <trkpt lat="46.55084" lon="0.34744">
        <ele>162.4</ele>
        <time>2023-08-20T07:25:28Z</time>
      </trkpt>
      <trkpt lat="46.55075" lon="0.34755">
        <ele>162.8</ele>
        <time>2023-08-20T07:25:30Z</time>
      </trkpt>
      <trkpt lat="46.55052" lon="0.34784">
        <ele>163.8</ele>
        <time>2023-08-20T07:25:35Z</time>
      </trkpt>
      <trkpt lat="46.55047" lon="0.3479">
        <ele>164</ele>
        <time>2023-08-20T07:25:36Z</time>
      </trkpt>
      <trkpt lat="46.55037" lon="0.348">
        <ele>164.4</ele>
        <time>2023-08-20T07:25:38Z</time>
      </trkpt>
      <trkpt lat="46.55016" lon="0.34818">
        <ele>165</ele>
        <time>2023-08-20T07:25:42Z</time>
      </trkpt>
      <trkpt lat="46.55007" lon="0.34826">
        <ele>165</ele>
        <time>2023-08-20T07:25:44Z</time>
      </trkpt>
      <trkpt lat="46.54989" lon="0.3484">
        <ele>165.6</ele>
        <time>2023-08-20T07:25:48Z</time>
      </trkpt>
      <trkpt lat="46.54979" lon="0.34847">
        <ele>166</ele>
        <time>2023-08-20T07:25:50Z</time>
      </trkpt>
      <trkpt lat="46.54947" lon="0.34868">
        <ele>166.8</ele>
        <time>2023-08-20T07:25:57Z</time>
      </trkpt>
      <trkpt lat="46.54935" lon="0.34879">
        <ele>166.8</ele>
        <time>2023-08-20T07:26:00Z</time>
      </trkpt>
      <trkpt lat="46.54921" lon="0.34889">
        <ele>166.8</ele>
        <time>2023-08-20T07:26:03Z</time>
      </trkpt>
      <trkpt lat="46.5491" lon="0.34895">
        <ele>167.2</ele>
        <time>2023-08-20T07:26:05Z</time>
      </trkpt>
      <trkpt lat="46.54878" lon="0.34914">
        <ele>167.2</ele>
        <time>2023-08-20T07:26:11Z</time>
      </trkpt>
      <trkpt lat="46.54837" lon="0.3494">
        <ele>167.4</ele>
        <time>2023-08-20T07:26:19Z</time>
      </trkpt>
      <trkpt lat="46.54803" lon="0.3496">
        <ele>167</ele>
        <time>2023-08-20T07:26:26Z</time>
      </trkpt>
      <trkpt lat="46.54769" lon="0.34982">
        <ele>166.4</ele>
        <time>2023-08-20T07:26:34Z</time>
      </trkpt>
      <trkpt lat="46.5474" lon="0.34999">
        <ele>166.8</ele>
        <time>2023-08-20T07:26:41Z</time>
      </trkpt>
      <trkpt lat="46.54714" lon="0.35013">
        <ele>166.6</ele>
        <time>2023-08-20T07:26:48Z</time>
      </trkpt>
      <trkpt lat="46.54709" lon="0.35015">
        <ele>166.6</ele>
        <time>2023-08-20T07:26:49Z</time>
      </trkpt>
      <trkpt lat="46.54696" lon="0.35019">
        <ele>166.4</ele>
        <time>2023-08-20T07:26:52Z</time>
      </trkpt>
      <trkpt lat="46.54692" lon="0.3502">
        <ele>166.4</ele>
        <time>2023-08-20T07:26:53Z</time>
      </trkpt>
      <trkpt lat="46.54684" lon="0.3502">
        <ele>166.4</ele>
        <time>2023-08-20T07:26:55Z</time>
      </trkpt>
      <trkpt lat="46.54676" lon="0.35026">
        <ele>166.4</ele>
        <time>2023-08-20T07:26:58Z</time>
      </trkpt>
      <trkpt lat="46.54667" lon="0.35041">
        <ele>166</ele>
        <time>2023-08-20T07:27:03Z</time>
      </trkpt>
      <trkpt lat="46.54665" lon="0.35043">
        <ele>165.8</ele>
        <time>2023-08-20T07:27:04Z</time>
      </trkpt>
      <trkpt lat="46.54654" lon="0.35059">
        <ele>165</ele>
        <time>2023-08-20T07:27:09Z</time>
      </trkpt>
      <trkpt lat="46.54652" lon="0.3506">
        <ele>165</ele>
        <time>2023-08-20T07:27:10Z</time>
      </trkpt>
      <trkpt lat="46.54635" lon="0.3506">
        <ele>165</ele>
        <time>2023-08-20T07:27:16Z</time>
      </trkpt>
      <trkpt lat="46.54626" lon="0.35058">
        <ele>165.2</ele>
        <time>2023-08-20T07:27:19Z</time>
      </trkpt>
      <trkpt lat="46.54611" lon="0.35057">
        <ele>165.2</ele>
        <time>2023-08-20T07:27:22Z</time>
      </trkpt>
      <trkpt lat="46.54579" lon="0.35052">
        <ele>165</ele>
        <time>2023-08-20T07:27:30Z</time>
      </trkpt>
      <trkpt lat="46.54566" lon="0.35047">
        <ele>165</ele>
        <time>2023-08-20T07:27:33Z</time>
      </trkpt>
      <trkpt lat="46.54559" lon="0.3504">
        <ele>165</ele>
        <time>2023-08-20T07:27:35Z</time>
      </trkpt>
      <trkpt lat="46.54552" lon="0.35034">
        <ele>165.4</ele>
        <time>2023-08-20T07:27:37Z</time>
      </trkpt>
      <trkpt lat="46.54542" lon="0.35022">
        <ele>165.6</ele>
        <time>2023-08-20T07:27:41Z</time>
      </trkpt>
      <trkpt lat="46.54538" lon="0.35017">
        <ele>165.8</ele>
        <time>2023-08-20T07:27:43Z</time>
      </trkpt>
      <trkpt lat="46.54531" lon="0.35006">
        <ele>166</ele>
        <time>2023-08-20T07:27:46Z</time>
      </trkpt>
      <trkpt lat="46.54529" lon="0.35002">
        <ele>166</ele>
        <time>2023-08-20T07:27:47Z</time>
      </trkpt>
      <trkpt lat="46.54525" lon="0.34992">
        <ele>166</ele>
        <time>2023-08-20T07:27:49Z</time>
      </trkpt>
      <trkpt lat="46.54522" lon="0.34979">
        <ele>166</ele>
        <time>2023-08-20T07:27:51Z</time>
      </trkpt>
      <trkpt lat="46.54518" lon="0.34974">
        <ele>166</ele>
        <time>2023-08-20T07:27:52Z</time>
      </trkpt>
      <trkpt lat="46.54507" lon="0.34956">
        <ele>165.8</ele>
        <time>2023-08-20T07:27:56Z</time>
      </trkpt>
      <trkpt lat="46.54503" lon="0.34945">
        <ele>165.6</ele>
        <time>2023-08-20T07:27:58Z</time>
      </trkpt>
      <trkpt lat="46.545" lon="0.3494">
        <ele>165.6</ele>
        <time>2023-08-20T07:27:59Z</time>
      </trkpt>
      <trkpt lat="46.54492" lon="0.34934">
        <ele>165.6</ele>
        <time>2023-08-20T07:28:01Z</time>
      </trkpt>
      <trkpt lat="46.54457" lon="0.34919">
        <ele>165.2</ele>
        <time>2023-08-20T07:28:08Z</time>
      </trkpt>
      <trkpt lat="46.54453" lon="0.3492">
        <ele>165.2</ele>
        <time>2023-08-20T07:28:09Z</time>
      </trkpt>
      <trkpt lat="46.54436" lon="0.34922">
        <ele>165.2</ele>
        <time>2023-08-20T07:28:12Z</time>
      </trkpt>
      <trkpt lat="46.54421" lon="0.34942">
        <ele>165</ele>
        <time>2023-08-20T07:28:19Z</time>
      </trkpt>
      <trkpt lat="46.54403" lon="0.34977">
        <ele>165.4</ele>
        <time>2023-08-20T07:28:26Z</time>
      </trkpt>
      <trkpt lat="46.54398" lon="0.34986">
        <ele>165.6</ele>
        <time>2023-08-20T07:28:28Z</time>
      </trkpt>
      <trkpt lat="46.54389" lon="0.34998">
        <ele>165.8</ele>
        <time>2023-08-20T07:28:31Z</time>
      </trkpt>
      <trkpt lat="46.54387" lon="0.35002">
        <ele>165.8</ele>
        <time>2023-08-20T07:28:32Z</time>
      </trkpt>
      <trkpt lat="46.54382" lon="0.3501">
        <ele>165.6</ele>
        <time>2023-08-20T07:28:34Z</time>
      </trkpt>
      <trkpt lat="46.54373" lon="0.35023">
        <ele>165.4</ele>
        <time>2023-08-20T07:28:37Z</time>
      </trkpt>
      <trkpt lat="46.54369" lon="0.35033">
        <ele>165.4</ele>
        <time>2023-08-20T07:28:39Z</time>
      </trkpt>
      <trkpt lat="46.54368" lon="0.35043">
        <ele>165.6</ele>
        <time>2023-08-20T07:28:41Z</time>
      </trkpt>
      <trkpt lat="46.54367" lon="0.3505">
        <ele>165.8</ele>
        <time>2023-08-20T07:28:42Z</time>
      </trkpt>
      <trkpt lat="46.54364" lon="0.35061">
        <ele>165.8</ele>
        <time>2023-08-20T07:28:44Z</time>
      </trkpt>
      <trkpt lat="46.54363" lon="0.35066">
        <ele>166</ele>
        <time>2023-08-20T07:28:45Z</time>
      </trkpt>
      <trkpt lat="46.54362" lon="0.35072">
        <ele>166</ele>
        <time>2023-08-20T07:28:46Z</time>
      </trkpt>
      <trkpt lat="46.54364" lon="0.35081">
        <ele>166.2</ele>
        <time>2023-08-20T07:28:48Z</time>
      </trkpt>
      <trkpt lat="46.54367" lon="0.35085">
        <ele>166.2</ele>
        <time>2023-08-20T07:28:50Z</time>
      </trkpt>
      <trkpt lat="46.54371" lon="0.35091">
        <ele>166.4</ele>
        <time>2023-08-20T07:28:52Z</time>
      </trkpt>
      <trkpt lat="46.54375" lon="0.351">
        <ele>166.6</ele>
        <time>2023-08-20T07:28:54Z</time>
      </trkpt>
      <trkpt lat="46.5438" lon="0.3511">
        <ele>166.6</ele>
        <time>2023-08-20T07:28:56Z</time>
      </trkpt>
      <trkpt lat="46.54393" lon="0.35131">
        <ele>166.4</ele>
        <time>2023-08-20T07:29:01Z</time>
      </trkpt>
      <trkpt lat="46.54404" lon="0.35148">
        <ele>166.4</ele>
        <time>2023-08-20T07:29:04Z</time>
      </trkpt>
      <trkpt lat="46.5441" lon="0.35158">
        <ele>166.4</ele>
        <time>2023-08-20T07:29:06Z</time>
      </trkpt>
      <trkpt lat="46.54423" lon="0.35171">
        <ele>165.6</ele>
        <time>2023-08-20T07:29:10Z</time>
      </trkpt>
      <trkpt lat="46.54425" lon="0.35172">
        <ele>165.6</ele>
        <time>2023-08-20T07:29:11Z</time>
      </trkpt>
      <trkpt lat="46.54426" lon="0.35172">
        <ele>165.6</ele>
        <time>2023-08-20T07:29:12Z</time>
      </trkpt>
      <trkpt lat="46.5443" lon="0.35172">
        <ele>165.8</ele>
        <time>2023-08-20T07:29:14Z</time>
      </trkpt>
      <trkpt lat="46.54432" lon="0.35174">
        <ele>165.8</ele>
        <time>2023-08-20T07:29:15Z</time>
      </trkpt>
      <trkpt lat="46.54434" lon="0.35175">
        <ele>165.6</ele>
        <time>2023-08-20T07:29:16Z</time>
      </trkpt>
      <trkpt lat="46.5444" lon="0.35174">
        <ele>165.8</ele>
        <time>2023-08-20T07:29:18Z</time>
      </trkpt>
      <trkpt lat="46.54444" lon="0.35174">
        <ele>165.8</ele>
        <time>2023-08-20T07:29:19Z</time>
      </trkpt>
      <trkpt lat="46.54447" lon="0.35175">
        <ele>165.6</ele>
        <time>2023-08-20T07:29:20Z</time>
      </trkpt>
      <trkpt lat="46.54453" lon="0.35175">
        <ele>165.4</ele>
        <time>2023-08-20T07:29:22Z</time>
      </trkpt>
      <trkpt lat="46.54457" lon="0.35177">
        <ele>165.6</ele>
        <time>2023-08-20T07:29:23Z</time>
      </trkpt>
      <trkpt lat="46.5446" lon="0.35176">
        <ele>165.4</ele>
        <time>2023-08-20T07:29:24Z</time>
      </trkpt>
      <trkpt lat="46.54465" lon="0.35174">
        <ele>165</ele>
        <time>2023-08-20T07:29:26Z</time>
      </trkpt>
      <trkpt lat="46.54468" lon="0.35174">
        <ele>165</ele>
        <time>2023-08-20T07:29:27Z</time>
      </trkpt>
      <trkpt lat="46.5447" lon="0.35174">
        <ele>164.8</ele>
        <time>2023-08-20T07:29:28Z</time>
      </trkpt>
      <trkpt lat="46.54474" lon="0.35174">
        <ele>164.6</ele>
        <time>2023-08-20T07:29:29Z</time>
      </trkpt>
      <trkpt lat="46.54482" lon="0.35174">
        <ele>164.4</ele>
        <time>2023-08-20T07:29:31Z</time>
      </trkpt>
      <trkpt lat="46.54489" lon="0.35177">
        <ele>164</ele>
        <time>2023-08-20T07:29:33Z</time>
      </trkpt>
      <trkpt lat="46.54497" lon="0.35176">
        <ele>163.6</ele>
        <time>2023-08-20T07:29:34Z</time>
      </trkpt>
      <trkpt lat="46.54503" lon="0.35178">
        <ele>163.4</ele>
        <time>2023-08-20T07:29:35Z</time>
      </trkpt>
      <trkpt lat="46.5451" lon="0.35179">
        <ele>163.6</ele>
        <time>2023-08-20T07:29:37Z</time>
      </trkpt>
      <trkpt lat="46.54538" lon="0.35171">
        <ele>163.2</ele>
        <time>2023-08-20T07:29:42Z</time>
      </trkpt>
      <trkpt lat="46.54544" lon="0.35169">
        <ele>163</ele>
        <time>2023-08-20T07:29:43Z</time>
      </trkpt>
      <trkpt lat="46.54557" lon="0.35164">
        <ele>162.6</ele>
        <time>2023-08-20T07:29:45Z</time>
      </trkpt>
      <trkpt lat="46.54562" lon="0.35165">
        <ele>162.4</ele>
        <time>2023-08-20T07:29:46Z</time>
      </trkpt>
      <trkpt lat="46.54568" lon="0.35166">
        <ele>162</ele>
        <time>2023-08-20T07:29:47Z</time>
      </trkpt>
      <trkpt lat="46.54586" lon="0.3517">
        <ele>161.4</ele>
        <time>2023-08-20T07:29:49Z</time>
      </trkpt>
      <trkpt lat="46.54593" lon="0.35172">
        <ele>161.2</ele>
        <time>2023-08-20T07:29:50Z</time>
      </trkpt>
      <trkpt lat="46.54598" lon="0.35183">
        <ele>160.2</ele>
        <time>2023-08-20T07:29:54Z</time>
      </trkpt>
      <trkpt lat="46.54599" lon="0.35188">
        <ele>160</ele>
        <time>2023-08-20T07:29:56Z</time>
      </trkpt>
      <trkpt lat="46.54597" lon="0.35209">
        <ele>159.8</ele>
        <time>2023-08-20T07:30:01Z</time>
      </trkpt>
      <trkpt lat="46.54588" lon="0.35248">
        <ele>159.4</ele>
        <time>2023-08-20T07:30:08Z</time>
      </trkpt>
      <trkpt lat="46.54587" lon="0.35251">
        <ele>159.2</ele>
        <time>2023-08-20T07:30:09Z</time>
      </trkpt>
      <trkpt lat="46.54587" lon="0.35254">
        <ele>158.8</ele>
        <time>2023-08-20T07:30:10Z</time>
      </trkpt>
      <trkpt lat="46.54587" lon="0.35261">
        <ele>158.6</ele>
        <time>2023-08-20T07:30:12Z</time>
      </trkpt>
      <trkpt lat="46.54586" lon="0.35266">
        <ele>158.2</ele>
        <time>2023-08-20T07:30:13Z</time>
      </trkpt>
      <trkpt lat="46.54584" lon="0.3527">
        <ele>158</ele>
        <time>2023-08-20T07:30:14Z</time>
      </trkpt>
      <trkpt lat="46.54579" lon="0.35278">
        <ele>158.2</ele>
        <time>2023-08-20T07:30:16Z</time>
      </trkpt>
      <trkpt lat="46.54568" lon="0.35295">
        <ele>158.6</ele>
        <time>2023-08-20T07:30:22Z</time>
      </trkpt>
      <trkpt lat="46.54565" lon="0.35309">
        <ele>158.8</ele>
        <time>2023-08-20T07:30:27Z</time>
      </trkpt>
      <trkpt lat="46.5457" lon="0.35322">
        <ele>158.6</ele>
        <time>2023-08-20T07:30:32Z</time>
      </trkpt>
      <trkpt lat="46.54573" lon="0.35325">
        <ele>157.6</ele>
        <time>2023-08-20T07:30:34Z</time>
      </trkpt>
      <trkpt lat="46.54575" lon="0.35326">
        <ele>156.8</ele>
        <time>2023-08-20T07:30:35Z</time>
      </trkpt>
      <trkpt lat="46.54577" lon="0.35328">
        <ele>156.2</ele>
        <time>2023-08-20T07:30:36Z</time>
      </trkpt>
      <trkpt lat="46.54579" lon="0.35331">
        <ele>155.4</ele>
        <time>2023-08-20T07:30:37Z</time>
      </trkpt>
      <trkpt lat="46.54581" lon="0.35334">
        <ele>154.6</ele>
        <time>2023-08-20T07:30:38Z</time>
      </trkpt>
      <trkpt lat="46.54583" lon="0.35337">
        <ele>153.8</ele>
        <time>2023-08-20T07:30:39Z</time>
      </trkpt>
      <trkpt lat="46.54589" lon="0.3534">
        <ele>152</ele>
        <time>2023-08-20T07:30:41Z</time>
      </trkpt>
      <trkpt lat="46.54593" lon="0.35341">
        <ele>151.4</ele>
        <time>2023-08-20T07:30:42Z</time>
      </trkpt>
      <trkpt lat="46.54596" lon="0.35343">
        <ele>151</ele>
        <time>2023-08-20T07:30:43Z</time>
      </trkpt>
      <trkpt lat="46.546" lon="0.35347">
        <ele>149.6</ele>
        <time>2023-08-20T07:30:44Z</time>
      </trkpt>
      <trkpt lat="46.54604" lon="0.3535">
        <ele>147.8</ele>
        <time>2023-08-20T07:30:45Z</time>
      </trkpt>
      <trkpt lat="46.54609" lon="0.35355">
        <ele>146.6</ele>
        <time>2023-08-20T07:30:46Z</time>
      </trkpt>
      <trkpt lat="46.54613" lon="0.35359">
        <ele>146</ele>
        <time>2023-08-20T07:30:47Z</time>
      </trkpt>
      <trkpt lat="46.54618" lon="0.35365">
        <ele>145.6</ele>
        <time>2023-08-20T07:30:48Z</time>
      </trkpt>
      <trkpt lat="46.54628" lon="0.35377">
        <ele>144.6</ele>
        <time>2023-08-20T07:30:50Z</time>
      </trkpt>
      <trkpt lat="46.54633" lon="0.35383">
        <ele>144.2</ele>
        <time>2023-08-20T07:30:51Z</time>
      </trkpt>
      <trkpt lat="46.54638" lon="0.35388">
        <ele>143</ele>
        <time>2023-08-20T07:30:52Z</time>
      </trkpt>
      <trkpt lat="46.54643" lon="0.35392">
        <ele>141.8</ele>
        <time>2023-08-20T07:30:53Z</time>
      </trkpt>
      <trkpt lat="46.5466" lon="0.35411">
        <ele>140.8</ele>
        <time>2023-08-20T07:30:56Z</time>
      </trkpt>
      <trkpt lat="46.54665" lon="0.35415">
        <ele>140.2</ele>
        <time>2023-08-20T07:30:57Z</time>
      </trkpt>
      <trkpt lat="46.54669" lon="0.35417">
        <ele>139.4</ele>
        <time>2023-08-20T07:30:58Z</time>
      </trkpt>
      <trkpt lat="46.54672" lon="0.35416">
        <ele>139</ele>
        <time>2023-08-20T07:30:59Z</time>
      </trkpt>
      <trkpt lat="46.54675" lon="0.35414">
        <ele>138.8</ele>
        <time>2023-08-20T07:31:00Z</time>
      </trkpt>
      <trkpt lat="46.5468" lon="0.35409">
        <ele>138.4</ele>
        <time>2023-08-20T07:31:02Z</time>
      </trkpt>
      <trkpt lat="46.54687" lon="0.35401">
        <ele>137.6</ele>
        <time>2023-08-20T07:31:05Z</time>
      </trkpt>
      <trkpt lat="46.54688" lon="0.35399">
        <ele>137</ele>
        <time>2023-08-20T07:31:06Z</time>
      </trkpt>
      <trkpt lat="46.54696" lon="0.35394">
        <ele>136.2</ele>
        <time>2023-08-20T07:31:10Z</time>
      </trkpt>
      <trkpt lat="46.54704" lon="0.35381">
        <ele>136</ele>
        <time>2023-08-20T07:31:14Z</time>
      </trkpt>
      <trkpt lat="46.54707" lon="0.35377">
        <ele>136</ele>
        <time>2023-08-20T07:31:15Z</time>
      </trkpt>
      <trkpt lat="46.54715" lon="0.35361">
        <ele>135.2</ele>
        <time>2023-08-20T07:31:18Z</time>
      </trkpt>
      <trkpt lat="46.54717" lon="0.35357">
        <ele>135</ele>
        <time>2023-08-20T07:31:19Z</time>
      </trkpt>
      <trkpt lat="46.54722" lon="0.3535">
        <ele>134.6</ele>
        <time>2023-08-20T07:31:21Z</time>
      </trkpt>
      <trkpt lat="46.54724" lon="0.35341">
        <ele>134.2</ele>
        <time>2023-08-20T07:31:23Z</time>
      </trkpt>
      <trkpt lat="46.54726" lon="0.35335">
        <ele>134</ele>
        <time>2023-08-20T07:31:24Z</time>
      </trkpt>
      <trkpt lat="46.5473" lon="0.35324">
        <ele>134</ele>
        <time>2023-08-20T07:31:26Z</time>
      </trkpt>
      <trkpt lat="46.54736" lon="0.35316">
        <ele>134</ele>
        <time>2023-08-20T07:31:28Z</time>
      </trkpt>
      <trkpt lat="46.54741" lon="0.35305">
        <ele>134</ele>
        <time>2023-08-20T07:31:30Z</time>
      </trkpt>
      <trkpt lat="46.54752" lon="0.35274">
        <ele>134</ele>
        <time>2023-08-20T07:31:34Z</time>
      </trkpt>
      <trkpt lat="46.54754" lon="0.35268">
        <ele>134</ele>
        <time>2023-08-20T07:31:35Z</time>
      </trkpt>
      <trkpt lat="46.54755" lon="0.35262">
        <ele>134.2</ele>
        <time>2023-08-20T07:31:36Z</time>
      </trkpt>
      <trkpt lat="46.54759" lon="0.3525">
        <ele>134.4</ele>
        <time>2023-08-20T07:31:38Z</time>
      </trkpt>
      <trkpt lat="46.54761" lon="0.35245">
        <ele>134.6</ele>
        <time>2023-08-20T07:31:39Z</time>
      </trkpt>
      <trkpt lat="46.54765" lon="0.3524">
        <ele>134.8</ele>
        <time>2023-08-20T07:31:40Z</time>
      </trkpt>
      <trkpt lat="46.54778" lon="0.35227">
        <ele>134.8</ele>
        <time>2023-08-20T07:31:43Z</time>
      </trkpt>
      <trkpt lat="46.54781" lon="0.35222">
        <ele>134.4</ele>
        <time>2023-08-20T07:31:44Z</time>
      </trkpt>
      <trkpt lat="46.54788" lon="0.35211">
        <ele>133.2</ele>
        <time>2023-08-20T07:31:47Z</time>
      </trkpt>
      <trkpt lat="46.54791" lon="0.35207">
        <ele>132.2</ele>
        <time>2023-08-20T07:31:48Z</time>
      </trkpt>
      <trkpt lat="46.54796" lon="0.35204">
        <ele>131</ele>
        <time>2023-08-20T07:31:50Z</time>
      </trkpt>
      <trkpt lat="46.54803" lon="0.35201">
        <ele>130.2</ele>
        <time>2023-08-20T07:31:52Z</time>
      </trkpt>
      <trkpt lat="46.54807" lon="0.352">
        <ele>130</ele>
        <time>2023-08-20T07:31:53Z</time>
      </trkpt>
      <trkpt lat="46.54809" lon="0.352">
        <ele>129.6</ele>
        <time>2023-08-20T07:31:54Z</time>
      </trkpt>
      <trkpt lat="46.5481" lon="0.35202">
        <ele>129.2</ele>
        <time>2023-08-20T07:31:56Z</time>
      </trkpt>
      <trkpt lat="46.54811" lon="0.35202">
        <ele>129.2</ele>
        <time>2023-08-20T07:31:57Z</time>
      </trkpt>
      <trkpt lat="46.54811" lon="0.35205">
        <ele>129</ele>
        <time>2023-08-20T07:32:00Z</time>
      </trkpt>
      <trkpt lat="46.54811" lon="0.35209">
        <ele>129</ele>
        <time>2023-08-20T07:32:02Z</time>
      </trkpt>
      <trkpt lat="46.5481" lon="0.35212">
        <ele>129.2</ele>
        <time>2023-08-20T07:32:03Z</time>
      </trkpt>
      <trkpt lat="46.54802" lon="0.35231">
        <ele>129</ele>
        <time>2023-08-20T07:32:09Z</time>
      </trkpt>
      <trkpt lat="46.548" lon="0.35236">
        <ele>128.8</ele>
        <time>2023-08-20T07:32:11Z</time>
      </trkpt>
      <trkpt lat="46.54803" lon="0.3524">
        <ele>128.4</ele>
        <time>2023-08-20T07:32:13Z</time>
      </trkpt>
      <trkpt lat="46.54805" lon="0.35243">
        <ele>128.2</ele>
        <time>2023-08-20T07:32:14Z</time>
      </trkpt>
      <trkpt lat="46.54806" lon="0.35248">
        <ele>128.2</ele>
        <time>2023-08-20T07:32:16Z</time>
      </trkpt>
      <trkpt lat="46.54806" lon="0.35254">
        <ele>128</ele>
        <time>2023-08-20T07:32:18Z</time>
      </trkpt>
      <trkpt lat="46.54805" lon="0.35258">
        <ele>127.8</ele>
        <time>2023-08-20T07:32:19Z</time>
      </trkpt>
      <trkpt lat="46.54803" lon="0.35266">
        <ele>127.6</ele>
        <time>2023-08-20T07:32:21Z</time>
      </trkpt>
      <trkpt lat="46.54798" lon="0.35277">
        <ele>127.4</ele>
        <time>2023-08-20T07:32:24Z</time>
      </trkpt>
      <trkpt lat="46.54797" lon="0.3528">
        <ele>127.4</ele>
        <time>2023-08-20T07:32:25Z</time>
      </trkpt>
      <trkpt lat="46.54794" lon="0.3529">
        <ele>127</ele>
        <time>2023-08-20T07:32:27Z</time>
      </trkpt>
      <trkpt lat="46.5479" lon="0.35307">
        <ele>127.2</ele>
        <time>2023-08-20T07:32:30Z</time>
      </trkpt>
      <trkpt lat="46.54785" lon="0.35326">
        <ele>126.8</ele>
        <time>2023-08-20T07:32:33Z</time>
      </trkpt>
      <trkpt lat="46.54783" lon="0.35342">
        <ele>127</ele>
        <time>2023-08-20T07:32:35Z</time>
      </trkpt>
      <trkpt lat="46.54782" lon="0.35349">
        <ele>126.8</ele>
        <time>2023-08-20T07:32:36Z</time>
      </trkpt>
      <trkpt lat="46.54777" lon="0.35369">
        <ele>126.8</ele>
        <time>2023-08-20T07:32:39Z</time>
      </trkpt>
      <trkpt lat="46.54775" lon="0.35376">
        <ele>127</ele>
        <time>2023-08-20T07:32:40Z</time>
      </trkpt>
      <trkpt lat="46.54773" lon="0.35389">
        <ele>126.8</ele>
        <time>2023-08-20T07:32:42Z</time>
      </trkpt>
      <trkpt lat="46.54769" lon="0.35416">
        <ele>127</ele>
        <time>2023-08-20T07:32:46Z</time>
      </trkpt>
      <trkpt lat="46.54764" lon="0.35442">
        <ele>127</ele>
        <time>2023-08-20T07:32:49Z</time>
      </trkpt>
      <trkpt lat="46.5476" lon="0.35462">
        <ele>127</ele>
        <time>2023-08-20T07:32:51Z</time>
      </trkpt>
      <trkpt lat="46.54756" lon="0.35484">
        <ele>127.8</ele>
        <time>2023-08-20T07:32:54Z</time>
      </trkpt>
      <trkpt lat="46.54756" lon="0.35484">
        <ele>128</ele>
        <time>2023-08-20T07:32:55Z</time>
      </trkpt>
      <trkpt lat="46.54755" lon="0.35499">
        <ele>128</ele>
        <time>2023-08-20T07:32:57Z</time>
      </trkpt>
      <trkpt lat="46.54754" lon="0.35516">
        <ele>127.8</ele>
        <time>2023-08-20T07:33:02Z</time>
      </trkpt>
      <trkpt lat="46.54753" lon="0.3552">
        <ele>127.8</ele>
        <time>2023-08-20T07:33:03Z</time>
      </trkpt>
      <trkpt lat="46.54751" lon="0.35524">
        <ele>127.8</ele>
        <time>2023-08-20T07:33:05Z</time>
      </trkpt>
      <trkpt lat="46.5475" lon="0.35528">
        <ele>128</ele>
        <time>2023-08-20T07:33:07Z</time>
      </trkpt>
      <trkpt lat="46.54747" lon="0.35534">
        <ele>128</ele>
        <time>2023-08-20T07:33:09Z</time>
      </trkpt>
      <trkpt lat="46.54742" lon="0.35545">
        <ele>128.4</ele>
        <time>2023-08-20T07:33:14Z</time>
      </trkpt>
      <trkpt lat="46.5474" lon="0.35548">
        <ele>128.8</ele>
        <time>2023-08-20T07:33:16Z</time>
      </trkpt>
      <trkpt lat="46.54738" lon="0.35549">
        <ele>129</ele>
        <time>2023-08-20T07:33:17Z</time>
      </trkpt>
      <trkpt lat="46.54736" lon="0.35551">
        <ele>129.4</ele>
        <time>2023-08-20T07:33:19Z</time>
      </trkpt>
      <trkpt lat="46.54733" lon="0.35553">
        <ele>129.8</ele>
        <time>2023-08-20T07:33:23Z</time>
      </trkpt>
      <trkpt lat="46.5473" lon="0.35553">
        <ele>130.2</ele>
        <time>2023-08-20T07:33:25Z</time>
      </trkpt>
      <trkpt lat="46.54729" lon="0.35553">
        <ele>130.6</ele>
        <time>2023-08-20T07:33:27Z</time>
      </trkpt>
      <trkpt lat="46.54726" lon="0.3555">
        <ele>131</ele>
        <time>2023-08-20T07:33:30Z</time>
      </trkpt>
      <trkpt lat="46.54725" lon="0.3555">
        <ele>131.2</ele>
        <time>2023-08-20T07:33:32Z</time>
      </trkpt>
      <trkpt lat="46.54716" lon="0.35546">
        <ele>131.4</ele>
        <time>2023-08-20T07:33:38Z</time>
      </trkpt>
      <trkpt lat="46.54713" lon="0.35543">
        <ele>132.6</ele>
        <time>2023-08-20T07:33:40Z</time>
      </trkpt>
      <trkpt lat="46.54712" lon="0.35542">
        <ele>133</ele>
        <time>2023-08-20T07:33:41Z</time>
      </trkpt>
      <trkpt lat="46.5471" lon="0.35539">
        <ele>133.8</ele>
        <time>2023-08-20T07:33:43Z</time>
      </trkpt>
      <trkpt lat="46.54706" lon="0.35531">
        <ele>135</ele>
        <time>2023-08-20T07:33:48Z</time>
      </trkpt>
      <trkpt lat="46.54703" lon="0.35527">
        <ele>136</ele>
        <time>2023-08-20T07:33:51Z</time>
      </trkpt>
      <trkpt lat="46.547" lon="0.35527">
        <ele>136.6</ele>
        <time>2023-08-20T07:33:54Z</time>
      </trkpt>
      <trkpt lat="46.54695" lon="0.35526">
        <ele>137</ele>
        <time>2023-08-20T07:33:57Z</time>
      </trkpt>
      <trkpt lat="46.54688" lon="0.35519">
        <ele>138</ele>
        <time>2023-08-20T07:34:04Z</time>
      </trkpt>
      <trkpt lat="46.54688" lon="0.35517">
        <ele>138.2</ele>
        <time>2023-08-20T07:34:05Z</time>
      </trkpt>
      <trkpt lat="46.54671" lon="0.35508">
        <ele>139</ele>
        <time>2023-08-20T07:34:14Z</time>
      </trkpt>
      <trkpt lat="46.54665" lon="0.35503">
        <ele>139.4</ele>
        <time>2023-08-20T07:34:17Z</time>
      </trkpt>
      <trkpt lat="46.54651" lon="0.35501">
        <ele>139.8</ele>
        <time>2023-08-20T07:34:22Z</time>
      </trkpt>
      <trkpt lat="46.54647" lon="0.355">
        <ele>140</ele>
        <time>2023-08-20T07:34:24Z</time>
      </trkpt>
      <trkpt lat="46.54644" lon="0.35496">
        <ele>140.4</ele>
        <time>2023-08-20T07:34:26Z</time>
      </trkpt>
      <trkpt lat="46.54643" lon="0.35494">
        <ele>140.6</ele>
        <time>2023-08-20T07:34:27Z</time>
      </trkpt>
      <trkpt lat="46.54642" lon="0.35491">
        <ele>141.2</ele>
        <time>2023-08-20T07:34:29Z</time>
      </trkpt>
      <trkpt lat="46.54641" lon="0.35488">
        <ele>141.6</ele>
        <time>2023-08-20T07:34:30Z</time>
      </trkpt>
      <trkpt lat="46.5464" lon="0.35483">
        <ele>142</ele>
        <time>2023-08-20T07:34:32Z</time>
      </trkpt>
      <trkpt lat="46.54633" lon="0.35473">
        <ele>142.8</ele>
        <time>2023-08-20T07:34:36Z</time>
      </trkpt>
      <trkpt lat="46.54629" lon="0.35469">
        <ele>143.6</ele>
        <time>2023-08-20T07:34:39Z</time>
      </trkpt>
      <trkpt lat="46.54628" lon="0.35468">
        <ele>143.8</ele>
        <time>2023-08-20T07:34:40Z</time>
      </trkpt>
      <trkpt lat="46.54625" lon="0.35467">
        <ele>144</ele>
        <time>2023-08-20T07:34:41Z</time>
      </trkpt>
      <trkpt lat="46.54618" lon="0.35462">
        <ele>145.4</ele>
        <time>2023-08-20T07:34:45Z</time>
      </trkpt>
      <trkpt lat="46.54614" lon="0.3546">
        <ele>146.2</ele>
        <time>2023-08-20T07:34:48Z</time>
      </trkpt>
      <trkpt lat="46.54611" lon="0.3546">
        <ele>146.4</ele>
        <time>2023-08-20T07:34:49Z</time>
      </trkpt>
      <trkpt lat="46.54604" lon="0.35458">
        <ele>147.4</ele>
        <time>2023-08-20T07:34:53Z</time>
      </trkpt>
      <trkpt lat="46.54603" lon="0.35458">
        <ele>148</ele>
        <time>2023-08-20T07:34:54Z</time>
      </trkpt>
      <trkpt lat="46.546" lon="0.35456">
        <ele>148.8</ele>
        <time>2023-08-20T07:34:56Z</time>
      </trkpt>
      <trkpt lat="46.54595" lon="0.35453">
        <ele>149.8</ele>
        <time>2023-08-20T07:35:01Z</time>
      </trkpt>
      <trkpt lat="46.54593" lon="0.35452">
        <ele>150</ele>
        <time>2023-08-20T07:35:02Z</time>
      </trkpt>
      <trkpt lat="46.54588" lon="0.35449">
        <ele>150.6</ele>
        <time>2023-08-20T07:35:05Z</time>
      </trkpt>
      <trkpt lat="46.54586" lon="0.35447">
        <ele>150.8</ele>
        <time>2023-08-20T07:35:06Z</time>
      </trkpt>
      <trkpt lat="46.5458" lon="0.35443">
        <ele>151.6</ele>
        <time>2023-08-20T07:35:09Z</time>
      </trkpt>
      <trkpt lat="46.54578" lon="0.35442">
        <ele>151.8</ele>
        <time>2023-08-20T07:35:10Z</time>
      </trkpt>
      <trkpt lat="46.54576" lon="0.35441">
        <ele>152</ele>
        <time>2023-08-20T07:35:11Z</time>
      </trkpt>
      <trkpt lat="46.54566" lon="0.35436">
        <ele>152.4</ele>
        <time>2023-08-20T07:35:17Z</time>
      </trkpt>
      <trkpt lat="46.54559" lon="0.35434">
        <ele>153</ele>
        <time>2023-08-20T07:35:22Z</time>
      </trkpt>
      <trkpt lat="46.54557" lon="0.35433">
        <ele>153</ele>
        <time>2023-08-20T07:35:23Z</time>
      </trkpt>
      <trkpt lat="46.54555" lon="0.35431">
        <ele>153.2</ele>
        <time>2023-08-20T07:35:25Z</time>
      </trkpt>
      <trkpt lat="46.54552" lon="0.35428">
        <ele>154.2</ele>
        <time>2023-08-20T07:35:28Z</time>
      </trkpt>
      <trkpt lat="46.54551" lon="0.35427">
        <ele>154.6</ele>
        <time>2023-08-20T07:35:29Z</time>
      </trkpt>
      <trkpt lat="46.5455" lon="0.35427">
        <ele>155</ele>
        <time>2023-08-20T07:35:31Z</time>
      </trkpt>
      <trkpt lat="46.54549" lon="0.35427">
        <ele>155.2</ele>
        <time>2023-08-20T07:35:32Z</time>
      </trkpt>
      <trkpt lat="46.54546" lon="0.35428">
        <ele>155.4</ele>
        <time>2023-08-20T07:35:34Z</time>
      </trkpt>
      <trkpt lat="46.54543" lon="0.35428">
        <ele>155.4</ele>
        <time>2023-08-20T07:35:36Z</time>
      </trkpt>
      <trkpt lat="46.54543" lon="0.35429">
        <ele>155.4</ele>
        <time>2023-08-20T07:35:37Z</time>
      </trkpt>
      <trkpt lat="46.54539" lon="0.35431">
        <ele>155.4</ele>
        <time>2023-08-20T07:35:44Z</time>
      </trkpt>
      <trkpt lat="46.54539" lon="0.35431">
        <ele>155.4</ele>
        <time>2023-08-20T07:35:53Z</time>
      </trkpt>
      <trkpt lat="46.5454" lon="0.3543">
        <ele>155.2</ele>
        <time>2023-08-20T07:36:06Z</time>
      </trkpt>
      <trkpt lat="46.54537" lon="0.3543">
        <ele>155</ele>
        <time>2023-08-20T07:36:19Z</time>
      </trkpt>
      <trkpt lat="46.54536" lon="0.3543">
        <ele>155</ele>
        <time>2023-08-20T07:36:38Z</time>
      </trkpt>
      <trkpt lat="46.5453" lon="0.35427">
        <ele>155</ele>
        <time>2023-08-20T07:36:55Z</time>
      </trkpt>
      <trkpt lat="46.54527" lon="0.35435">
        <ele>155</ele>
        <time>2023-08-20T07:37:07Z</time>
      </trkpt>
      <trkpt lat="46.54527" lon="0.35436">
        <ele>155</ele>
        <time>2023-08-20T07:37:08Z</time>
      </trkpt>
      <trkpt lat="46.5453" lon="0.35454">
        <ele>156.2</ele>
        <time>2023-08-20T07:37:19Z</time>
      </trkpt>
      <trkpt lat="46.54537" lon="0.3548">
        <ele>156.2</ele>
        <time>2023-08-20T07:37:27Z</time>
      </trkpt>
      <trkpt lat="46.54544" lon="0.35498">
        <ele>156</ele>
        <time>2023-08-20T07:37:31Z</time>
      </trkpt>
      <trkpt lat="46.54548" lon="0.35509">
        <ele>155.4</ele>
        <time>2023-08-20T07:37:33Z</time>
      </trkpt>
      <trkpt lat="46.54552" lon="0.35522">
        <ele>155.2</ele>
        <time>2023-08-20T07:37:35Z</time>
      </trkpt>
      <trkpt lat="46.5456" lon="0.35545">
        <ele>154.4</ele>
        <time>2023-08-20T07:37:39Z</time>
      </trkpt>
      <trkpt lat="46.54564" lon="0.35555">
        <ele>154.2</ele>
        <time>2023-08-20T07:37:41Z</time>
      </trkpt>
      <trkpt lat="46.54566" lon="0.35561">
        <ele>154</ele>
        <time>2023-08-20T07:37:42Z</time>
      </trkpt>
      <trkpt lat="46.54572" lon="0.35578">
        <ele>153.4</ele>
        <time>2023-08-20T07:37:45Z</time>
      </trkpt>
      <trkpt lat="46.54574" lon="0.35582">
        <ele>153</ele>
        <time>2023-08-20T07:37:46Z</time>
      </trkpt>
      <trkpt lat="46.54576" lon="0.35584">
        <ele>152.6</ele>
        <time>2023-08-20T07:37:47Z</time>
      </trkpt>
      <trkpt lat="46.54582" lon="0.35587">
        <ele>152.4</ele>
        <time>2023-08-20T07:37:49Z</time>
      </trkpt>
      <trkpt lat="46.54586" lon="0.35588">
        <ele>151.8</ele>
        <time>2023-08-20T07:37:50Z</time>
      </trkpt>
      <trkpt lat="46.5459" lon="0.35589">
        <ele>151.4</ele>
        <time>2023-08-20T07:37:51Z</time>
      </trkpt>
      <trkpt lat="46.54599" lon="0.35592">
        <ele>150.2</ele>
        <time>2023-08-20T07:37:53Z</time>
      </trkpt>
      <trkpt lat="46.54604" lon="0.35591">
        <ele>149.4</ele>
        <time>2023-08-20T07:37:54Z</time>
      </trkpt>
      <trkpt lat="46.54609" lon="0.3559">
        <ele>148.6</ele>
        <time>2023-08-20T07:37:55Z</time>
      </trkpt>
      <trkpt lat="46.54613" lon="0.35587">
        <ele>147.8</ele>
        <time>2023-08-20T07:37:56Z</time>
      </trkpt>
      <trkpt lat="46.54617" lon="0.35584">
        <ele>146</ele>
        <time>2023-08-20T07:37:57Z</time>
      </trkpt>
      <trkpt lat="46.54621" lon="0.35582">
        <ele>144.8</ele>
        <time>2023-08-20T07:37:58Z</time>
      </trkpt>
      <trkpt lat="46.54625" lon="0.35579">
        <ele>143.6</ele>
        <time>2023-08-20T07:37:59Z</time>
      </trkpt>
      <trkpt lat="46.54628" lon="0.35576">
        <ele>142.4</ele>
        <time>2023-08-20T07:38:00Z</time>
      </trkpt>
      <trkpt lat="46.54634" lon="0.3557">
        <ele>141.2</ele>
        <time>2023-08-20T07:38:02Z</time>
      </trkpt>
      <trkpt lat="46.54641" lon="0.35566">
        <ele>139.2</ele>
        <time>2023-08-20T07:38:04Z</time>
      </trkpt>
      <trkpt lat="46.54645" lon="0.35566">
        <ele>138</ele>
        <time>2023-08-20T07:38:05Z</time>
      </trkpt>
      <trkpt lat="46.5465" lon="0.35567">
        <ele>136.4</ele>
        <time>2023-08-20T07:38:06Z</time>
      </trkpt>
      <trkpt lat="46.54657" lon="0.35567">
        <ele>135.2</ele>
        <time>2023-08-20T07:38:07Z</time>
      </trkpt>
      <trkpt lat="46.54672" lon="0.35567">
        <ele>134</ele>
        <time>2023-08-20T07:38:09Z</time>
      </trkpt>
      <trkpt lat="46.54683" lon="0.35568">
        <ele>132.6</ele>
        <time>2023-08-20T07:38:11Z</time>
      </trkpt>
      <trkpt lat="46.54688" lon="0.3557">
        <ele>130.2</ele>
        <time>2023-08-20T07:38:12Z</time>
      </trkpt>
      <trkpt lat="46.54693" lon="0.3557">
        <ele>128.8</ele>
        <time>2023-08-20T07:38:13Z</time>
      </trkpt>
      <trkpt lat="46.54699" lon="0.35573">
        <ele>127.8</ele>
        <time>2023-08-20T07:38:15Z</time>
      </trkpt>
      <trkpt lat="46.54705" lon="0.3558">
        <ele>128.4</ele>
        <time>2023-08-20T07:38:18Z</time>
      </trkpt>
      <trkpt lat="46.54706" lon="0.35582">
        <ele>128.8</ele>
        <time>2023-08-20T07:38:19Z</time>
      </trkpt>
      <trkpt lat="46.54713" lon="0.35589">
        <ele>130.2</ele>
        <time>2023-08-20T07:38:23Z</time>
      </trkpt>
      <trkpt lat="46.54717" lon="0.35594">
        <ele>131.2</ele>
        <time>2023-08-20T07:38:25Z</time>
      </trkpt>
      <trkpt lat="46.54718" lon="0.35598">
        <ele>132.2</ele>
        <time>2023-08-20T07:38:28Z</time>
      </trkpt>
      <trkpt lat="46.54719" lon="0.35599">
        <ele>132.4</ele>
        <time>2023-08-20T07:38:29Z</time>
      </trkpt>
      <trkpt lat="46.54721" lon="0.35604">
        <ele>133.8</ele>
        <time>2023-08-20T07:38:32Z</time>
      </trkpt>
      <trkpt lat="46.54725" lon="0.35618">
        <ele>134.8</ele>
        <time>2023-08-20T07:38:38Z</time>
      </trkpt>
      <trkpt lat="46.54729" lon="0.35632">
        <ele>134.4</ele>
        <time>2023-08-20T07:38:43Z</time>
      </trkpt>
      <trkpt lat="46.54731" lon="0.35646">
        <ele>134.2</ele>
        <time>2023-08-20T07:38:48Z</time>
      </trkpt>
      <trkpt lat="46.54731" lon="0.35651">
        <ele>134.4</ele>
        <time>2023-08-20T07:38:50Z</time>
      </trkpt>
      <trkpt lat="46.54733" lon="0.35668">
        <ele>136</ele>
        <time>2023-08-20T07:38:58Z</time>
      </trkpt>
      <trkpt lat="46.54732" lon="0.3567">
        <ele>136.4</ele>
        <time>2023-08-20T07:38:59Z</time>
      </trkpt>
      <trkpt lat="46.54731" lon="0.35674">
        <ele>137</ele>
        <time>2023-08-20T07:39:01Z</time>
      </trkpt>
      <trkpt lat="46.54729" lon="0.35679">
        <ele>138.2</ele>
        <time>2023-08-20T07:39:05Z</time>
      </trkpt>
      <trkpt lat="46.54728" lon="0.35682">
        <ele>138.8</ele>
        <time>2023-08-20T07:39:07Z</time>
      </trkpt>
      <trkpt lat="46.54728" lon="0.35682">
        <ele>139</ele>
        <time>2023-08-20T07:39:08Z</time>
      </trkpt>
      <trkpt lat="46.54728" lon="0.35682">
        <ele>139.4</ele>
        <time>2023-08-20T07:39:09Z</time>
      </trkpt>
      <trkpt lat="46.54727" lon="0.35687">
        <ele>139.8</ele>
        <time>2023-08-20T07:39:12Z</time>
      </trkpt>
      <trkpt lat="46.54726" lon="0.35688">
        <ele>140.4</ele>
        <time>2023-08-20T07:39:13Z</time>
      </trkpt>
      <trkpt lat="46.54726" lon="0.35689">
        <ele>141</ele>
        <time>2023-08-20T07:39:14Z</time>
      </trkpt>
      <trkpt lat="46.54725" lon="0.35691">
        <ele>141.2</ele>
        <time>2023-08-20T07:39:15Z</time>
      </trkpt>
      <trkpt lat="46.54723" lon="0.35693">
        <ele>141.6</ele>
        <time>2023-08-20T07:39:17Z</time>
      </trkpt>
      <trkpt lat="46.54722" lon="0.35694">
        <ele>141.8</ele>
        <time>2023-08-20T07:39:18Z</time>
      </trkpt>
      <trkpt lat="46.54718" lon="0.35698">
        <ele>142.6</ele>
        <time>2023-08-20T07:39:21Z</time>
      </trkpt>
      <trkpt lat="46.54717" lon="0.35699">
        <ele>142.8</ele>
        <time>2023-08-20T07:39:22Z</time>
      </trkpt>
      <trkpt lat="46.54715" lon="0.35701">
        <ele>143.2</ele>
        <time>2023-08-20T07:39:23Z</time>
      </trkpt>
      <trkpt lat="46.54714" lon="0.35702">
        <ele>143.4</ele>
        <time>2023-08-20T07:39:24Z</time>
      </trkpt>
      <trkpt lat="46.54712" lon="0.35703">
        <ele>143.8</ele>
        <time>2023-08-20T07:39:26Z</time>
      </trkpt>
      <trkpt lat="46.54708" lon="0.35705">
        <ele>144.4</ele>
        <time>2023-08-20T07:39:28Z</time>
      </trkpt>
      <trkpt lat="46.54707" lon="0.35707">
        <ele>145</ele>
        <time>2023-08-20T07:39:30Z</time>
      </trkpt>
      <trkpt lat="46.54705" lon="0.35708">
        <ele>145.2</ele>
        <time>2023-08-20T07:39:31Z</time>
      </trkpt>
      <trkpt lat="46.54703" lon="0.35712">
        <ele>145.8</ele>
        <time>2023-08-20T07:39:34Z</time>
      </trkpt>
      <trkpt lat="46.54701" lon="0.35713">
        <ele>146.2</ele>
        <time>2023-08-20T07:39:35Z</time>
      </trkpt>
      <trkpt lat="46.54701" lon="0.35714">
        <ele>146.2</ele>
        <time>2023-08-20T07:39:36Z</time>
      </trkpt>
      <trkpt lat="46.547" lon="0.35716">
        <ele>146.8</ele>
        <time>2023-08-20T07:39:38Z</time>
      </trkpt>
      <trkpt lat="46.54699" lon="0.35718">
        <ele>147</ele>
        <time>2023-08-20T07:39:39Z</time>
      </trkpt>
      <trkpt lat="46.54698" lon="0.3572">
        <ele>147.2</ele>
        <time>2023-08-20T07:39:40Z</time>
      </trkpt>
      <trkpt lat="46.54696" lon="0.35726">
        <ele>148.4</ele>
        <time>2023-08-20T07:39:45Z</time>
      </trkpt>
      <trkpt lat="46.54695" lon="0.3573">
        <ele>148.8</ele>
        <time>2023-08-20T07:39:46Z</time>
      </trkpt>
      <trkpt lat="46.54692" lon="0.35733">
        <ele>149.2</ele>
        <time>2023-08-20T07:39:49Z</time>
      </trkpt>
      <trkpt lat="46.5469" lon="0.35731">
        <ele>149.6</ele>
        <time>2023-08-20T07:39:52Z</time>
      </trkpt>
      <trkpt lat="46.54688" lon="0.35729">
        <ele>149.8</ele>
        <time>2023-08-20T07:39:54Z</time>
      </trkpt>
      <trkpt lat="46.54679" lon="0.35716">
        <ele>150.6</ele>
        <time>2023-08-20T07:40:01Z</time>
      </trkpt>
      <trkpt lat="46.54677" lon="0.35714">
        <ele>150.6</ele>
        <time>2023-08-20T07:40:02Z</time>
      </trkpt>
      <trkpt lat="46.54666" lon="0.35698">
        <ele>151.6</ele>
        <time>2023-08-20T07:40:09Z</time>
      </trkpt>
      <trkpt lat="46.54652" lon="0.35683">
        <ele>152.4</ele>
        <time>2023-08-20T07:40:15Z</time>
      </trkpt>
      <trkpt lat="46.54634" lon="0.35665">
        <ele>152.2</ele>
        <time>2023-08-20T07:40:21Z</time>
      </trkpt>
      <trkpt lat="46.54619" lon="0.35651">
        <ele>152.2</ele>
        <time>2023-08-20T07:40:27Z</time>
      </trkpt>
      <trkpt lat="46.546" lon="0.35634">
        <ele>152.6</ele>
        <time>2023-08-20T07:40:34Z</time>
      </trkpt>
      <trkpt lat="46.54599" lon="0.35632">
        <ele>152.8</ele>
        <time>2023-08-20T07:40:35Z</time>
      </trkpt>
      <trkpt lat="46.54595" lon="0.35625">
        <ele>154</ele>
        <time>2023-08-20T07:40:38Z</time>
      </trkpt>
      <trkpt lat="46.5459" lon="0.35618">
        <ele>154.6</ele>
        <time>2023-08-20T07:40:40Z</time>
      </trkpt>
      <trkpt lat="46.54587" lon="0.35611">
        <ele>155.2</ele>
        <time>2023-08-20T07:40:43Z</time>
      </trkpt>
      <trkpt lat="46.54578" lon="0.35598">
        <ele>156</ele>
        <time>2023-08-20T07:40:47Z</time>
      </trkpt>
      <trkpt lat="46.54575" lon="0.35592">
        <ele>156.4</ele>
        <time>2023-08-20T07:40:49Z</time>
      </trkpt>
      <trkpt lat="46.54568" lon="0.35581">
        <ele>157.4</ele>
        <time>2023-08-20T07:40:53Z</time>
      </trkpt>
      <trkpt lat="46.54566" lon="0.35579">
        <ele>157.6</ele>
        <time>2023-08-20T07:40:54Z</time>
      </trkpt>
      <trkpt lat="46.54562" lon="0.35569">
        <ele>158.6</ele>
        <time>2023-08-20T07:40:58Z</time>
      </trkpt>
      <trkpt lat="46.54556" lon="0.35563">
        <ele>159</ele>
        <time>2023-08-20T07:41:00Z</time>
      </trkpt>
      <trkpt lat="46.54552" lon="0.3556">
        <ele>159.2</ele>
        <time>2023-08-20T07:41:01Z</time>
      </trkpt>
      <trkpt lat="46.54541" lon="0.35557">
        <ele>159.6</ele>
        <time>2023-08-20T07:41:04Z</time>
      </trkpt>
      <trkpt lat="46.5452" lon="0.35556">
        <ele>160.6</ele>
        <time>2023-08-20T07:41:10Z</time>
      </trkpt>
      <trkpt lat="46.54517" lon="0.35554">
        <ele>160.8</ele>
        <time>2023-08-20T07:41:11Z</time>
      </trkpt>
      <trkpt lat="46.54501" lon="0.35551">
        <ele>162</ele>
        <time>2023-08-20T07:41:16Z</time>
      </trkpt>
      <trkpt lat="46.54485" lon="0.35547">
        <ele>162.6</ele>
        <time>2023-08-20T07:41:21Z</time>
      </trkpt>
      <trkpt lat="46.54478" lon="0.35544">
        <ele>163</ele>
        <time>2023-08-20T07:41:24Z</time>
      </trkpt>
      <trkpt lat="46.54467" lon="0.35537">
        <ele>163.4</ele>
        <time>2023-08-20T07:41:27Z</time>
      </trkpt>
      <trkpt lat="46.54457" lon="0.35528">
        <ele>163.8</ele>
        <time>2023-08-20T07:41:32Z</time>
      </trkpt>
      <trkpt lat="46.54446" lon="0.35521">
        <ele>164</ele>
        <time>2023-08-20T07:41:35Z</time>
      </trkpt>
      <trkpt lat="46.5444" lon="0.35516">
        <ele>164</ele>
        <time>2023-08-20T07:41:37Z</time>
      </trkpt>
      <trkpt lat="46.54434" lon="0.35511">
        <ele>164.4</ele>
        <time>2023-08-20T07:41:39Z</time>
      </trkpt>
      <trkpt lat="46.54424" lon="0.35501">
        <ele>164.8</ele>
        <time>2023-08-20T07:41:42Z</time>
      </trkpt>
      <trkpt lat="46.54422" lon="0.35499">
        <ele>164.8</ele>
        <time>2023-08-20T07:41:43Z</time>
      </trkpt>
      <trkpt lat="46.54403" lon="0.35483">
        <ele>165.2</ele>
        <time>2023-08-20T07:41:49Z</time>
      </trkpt>
      <trkpt lat="46.54402" lon="0.3548">
        <ele>165.2</ele>
        <time>2023-08-20T07:41:50Z</time>
      </trkpt>
      <trkpt lat="46.544" lon="0.35477">
        <ele>165.4</ele>
        <time>2023-08-20T07:41:51Z</time>
      </trkpt>
      <trkpt lat="46.54396" lon="0.35467">
        <ele>165.6</ele>
        <time>2023-08-20T07:41:54Z</time>
      </trkpt>
      <trkpt lat="46.54394" lon="0.35464">
        <ele>165.6</ele>
        <time>2023-08-20T07:41:55Z</time>
      </trkpt>
      <trkpt lat="46.54379" lon="0.35441">
        <ele>165.8</ele>
        <time>2023-08-20T07:42:00Z</time>
      </trkpt>
      <trkpt lat="46.54366" lon="0.35416">
        <ele>166</ele>
        <time>2023-08-20T07:42:06Z</time>
      </trkpt>
      <trkpt lat="46.54348" lon="0.35406">
        <ele>166</ele>
        <time>2023-08-20T07:42:10Z</time>
      </trkpt>
      <trkpt lat="46.54345" lon="0.35405">
        <ele>166</ele>
        <time>2023-08-20T07:42:11Z</time>
      </trkpt>
      <trkpt lat="46.54333" lon="0.35399">
        <ele>166.2</ele>
        <time>2023-08-20T07:42:14Z</time>
      </trkpt>
      <trkpt lat="46.54329" lon="0.35396">
        <ele>166.2</ele>
        <time>2023-08-20T07:42:15Z</time>
      </trkpt>
      <trkpt lat="46.54311" lon="0.35387">
        <ele>166.4</ele>
        <time>2023-08-20T07:42:19Z</time>
      </trkpt>
      <trkpt lat="46.54303" lon="0.35383">
        <ele>166.4</ele>
        <time>2023-08-20T07:42:21Z</time>
      </trkpt>
      <trkpt lat="46.54268" lon="0.35379">
        <ele>166.4</ele>
        <time>2023-08-20T07:42:27Z</time>
      </trkpt>
      <trkpt lat="46.5423" lon="0.35372">
        <ele>166.4</ele>
        <time>2023-08-20T07:42:34Z</time>
      </trkpt>
      <trkpt lat="46.54209" lon="0.35374">
        <ele>165.8</ele>
        <time>2023-08-20T07:42:38Z</time>
      </trkpt>
      <trkpt lat="46.54196" lon="0.35378">
        <ele>165.8</ele>
        <time>2023-08-20T07:42:41Z</time>
      </trkpt>
      <trkpt lat="46.54177" lon="0.35377">
        <ele>165.2</ele>
        <time>2023-08-20T07:42:46Z</time>
      </trkpt>
      <trkpt lat="46.54169" lon="0.35369">
        <ele>165.2</ele>
        <time>2023-08-20T07:42:50Z</time>
      </trkpt>
      <trkpt lat="46.54168" lon="0.35365">
        <ele>165.2</ele>
        <time>2023-08-20T07:42:51Z</time>
      </trkpt>
      <trkpt lat="46.54169" lon="0.35357">
        <ele>165.2</ele>
        <time>2023-08-20T07:42:53Z</time>
      </trkpt>
      <trkpt lat="46.54172" lon="0.35353">
        <ele>165</ele>
        <time>2023-08-20T07:42:54Z</time>
      </trkpt>
      <trkpt lat="46.5419" lon="0.35336">
        <ele>165</ele>
        <time>2023-08-20T07:42:59Z</time>
      </trkpt>
      <trkpt lat="46.54193" lon="0.35332">
        <ele>165.2</ele>
        <time>2023-08-20T07:43:00Z</time>
      </trkpt>
      <trkpt lat="46.54195" lon="0.35328">
        <ele>165.2</ele>
        <time>2023-08-20T07:43:01Z</time>
      </trkpt>
      <trkpt lat="46.54204" lon="0.35316">
        <ele>165.2</ele>
        <time>2023-08-20T07:43:05Z</time>
      </trkpt>
      <trkpt lat="46.54214" lon="0.35292">
        <ele>165.4</ele>
        <time>2023-08-20T07:43:12Z</time>
      </trkpt>
      <trkpt lat="46.54215" lon="0.35289">
        <ele>165.4</ele>
        <time>2023-08-20T07:43:13Z</time>
      </trkpt>
      <trkpt lat="46.54219" lon="0.35273">
        <ele>165.6</ele>
        <time>2023-08-20T07:43:17Z</time>
      </trkpt>
      <trkpt lat="46.54227" lon="0.35248">
        <ele>165.8</ele>
        <time>2023-08-20T07:43:22Z</time>
      </trkpt>
      <trkpt lat="46.54229" lon="0.35246">
        <ele>165.8</ele>
        <time>2023-08-20T07:43:23Z</time>
      </trkpt>
      <trkpt lat="46.54231" lon="0.35235">
        <ele>165.2</ele>
        <time>2023-08-20T07:43:26Z</time>
      </trkpt>
      <trkpt lat="46.54233" lon="0.35227">
        <ele>165</ele>
        <time>2023-08-20T07:43:28Z</time>
      </trkpt>
      <trkpt lat="46.54233" lon="0.35215">
        <ele>165</ele>
        <time>2023-08-20T07:43:31Z</time>
      </trkpt>
      <trkpt lat="46.54232" lon="0.3521">
        <ele>165</ele>
        <time>2023-08-20T07:43:32Z</time>
      </trkpt>
      <trkpt lat="46.54233" lon="0.35205">
        <ele>165</ele>
        <time>2023-08-20T07:43:33Z</time>
      </trkpt>
      <trkpt lat="46.54232" lon="0.35192">
        <ele>164.8</ele>
        <time>2023-08-20T07:43:35Z</time>
      </trkpt>
      <trkpt lat="46.54232" lon="0.35179">
        <ele>164.6</ele>
        <time>2023-08-20T07:43:37Z</time>
      </trkpt>
      <trkpt lat="46.54238" lon="0.35165">
        <ele>164.4</ele>
        <time>2023-08-20T07:43:40Z</time>
      </trkpt>
      <trkpt lat="46.54239" lon="0.35155">
        <ele>164.2</ele>
        <time>2023-08-20T07:43:42Z</time>
      </trkpt>
      <trkpt lat="46.54239" lon="0.35149">
        <ele>164.2</ele>
        <time>2023-08-20T07:43:43Z</time>
      </trkpt>
      <trkpt lat="46.54235" lon="0.35133">
        <ele>163.8</ele>
        <time>2023-08-20T07:43:46Z</time>
      </trkpt>
      <trkpt lat="46.54234" lon="0.35122">
        <ele>163.4</ele>
        <time>2023-08-20T07:43:48Z</time>
      </trkpt>
      <trkpt lat="46.54235" lon="0.35116">
        <ele>163.2</ele>
        <time>2023-08-20T07:43:49Z</time>
      </trkpt>
      <trkpt lat="46.54236" lon="0.35113">
        <ele>163.2</ele>
        <time>2023-08-20T07:43:50Z</time>
      </trkpt>
      <trkpt lat="46.54244" lon="0.35103">
        <ele>162.8</ele>
        <time>2023-08-20T07:43:53Z</time>
      </trkpt>
      <trkpt lat="46.54246" lon="0.35081">
        <ele>162</ele>
        <time>2023-08-20T07:43:59Z</time>
      </trkpt>
      <trkpt lat="46.54243" lon="0.3507">
        <ele>161.6</ele>
        <time>2023-08-20T07:44:01Z</time>
      </trkpt>
      <trkpt lat="46.54245" lon="0.35057">
        <ele>161</ele>
        <time>2023-08-20T07:44:04Z</time>
      </trkpt>
      <trkpt lat="46.54247" lon="0.35053">
        <ele>161</ele>
        <time>2023-08-20T07:44:05Z</time>
      </trkpt>
      <trkpt lat="46.54245" lon="0.35033">
        <ele>160.8</ele>
        <time>2023-08-20T07:44:09Z</time>
      </trkpt>
      <trkpt lat="46.54245" lon="0.35029">
        <ele>160.8</ele>
        <time>2023-08-20T07:44:10Z</time>
      </trkpt>
      <trkpt lat="46.54249" lon="0.35004">
        <ele>160.8</ele>
        <time>2023-08-20T07:44:16Z</time>
      </trkpt>
      <trkpt lat="46.54254" lon="0.35001">
        <ele>161.2</ele>
        <time>2023-08-20T07:44:19Z</time>
      </trkpt>
      <trkpt lat="46.54254" lon="0.35">
        <ele>161.2</ele>
        <time>2023-08-20T07:44:20Z</time>
      </trkpt>
      <trkpt lat="46.54256" lon="0.34998">
        <ele>161.2</ele>
        <time>2023-08-20T07:44:21Z</time>
      </trkpt>
      <trkpt lat="46.5426" lon="0.34991">
        <ele>161.6</ele>
        <time>2023-08-20T07:44:24Z</time>
      </trkpt>
      <trkpt lat="46.54261" lon="0.3499">
        <ele>161.8</ele>
        <time>2023-08-20T07:44:25Z</time>
      </trkpt>
      <trkpt lat="46.54265" lon="0.34988">
        <ele>161.8</ele>
        <time>2023-08-20T07:44:26Z</time>
      </trkpt>
      <trkpt lat="46.54273" lon="0.34986">
        <ele>162</ele>
        <time>2023-08-20T07:44:28Z</time>
      </trkpt>
      <trkpt lat="46.54276" lon="0.34985">
        <ele>162</ele>
        <time>2023-08-20T07:44:29Z</time>
      </trkpt>
      <trkpt lat="46.54278" lon="0.34983">
        <ele>162.2</ele>
        <time>2023-08-20T07:44:30Z</time>
      </trkpt>
      <trkpt lat="46.54284" lon="0.34979">
        <ele>162.4</ele>
        <time>2023-08-20T07:44:32Z</time>
      </trkpt>
      <trkpt lat="46.54288" lon="0.34973">
        <ele>162.6</ele>
        <time>2023-08-20T07:44:34Z</time>
      </trkpt>
      <trkpt lat="46.54289" lon="0.34965">
        <ele>162.8</ele>
        <time>2023-08-20T07:44:36Z</time>
      </trkpt>
      <trkpt lat="46.54291" lon="0.34959">
        <ele>163</ele>
        <time>2023-08-20T07:44:38Z</time>
      </trkpt>
      <trkpt lat="46.54292" lon="0.34954">
        <ele>162.8</ele>
        <time>2023-08-20T07:44:40Z</time>
      </trkpt>
      <trkpt lat="46.54292" lon="0.34951">
        <ele>163</ele>
        <time>2023-08-20T07:44:41Z</time>
      </trkpt>
      <trkpt lat="46.54291" lon="0.3494">
        <ele>162.8</ele>
        <time>2023-08-20T07:44:43Z</time>
      </trkpt>
      <trkpt lat="46.54291" lon="0.34936">
        <ele>163</ele>
        <time>2023-08-20T07:44:44Z</time>
      </trkpt>
      <trkpt lat="46.54289" lon="0.34923">
        <ele>163.4</ele>
        <time>2023-08-20T07:44:47Z</time>
      </trkpt>
      <trkpt lat="46.54284" lon="0.34917">
        <ele>163.4</ele>
        <time>2023-08-20T07:44:49Z</time>
      </trkpt>
      <trkpt lat="46.54272" lon="0.34902">
        <ele>163.6</ele>
        <time>2023-08-20T07:44:53Z</time>
      </trkpt>
      <trkpt lat="46.5427" lon="0.34896">
        <ele>163.8</ele>
        <time>2023-08-20T07:44:54Z</time>
      </trkpt>
      <trkpt lat="46.54268" lon="0.3489">
        <ele>163.6</ele>
        <time>2023-08-20T07:44:55Z</time>
      </trkpt>
      <trkpt lat="46.54261" lon="0.34879">
        <ele>163.8</ele>
        <time>2023-08-20T07:44:57Z</time>
      </trkpt>
      <trkpt lat="46.54257" lon="0.34871">
        <ele>164</ele>
        <time>2023-08-20T07:44:58Z</time>
      </trkpt>
      <trkpt lat="46.54254" lon="0.34853">
        <ele>163.6</ele>
        <time>2023-08-20T07:45:01Z</time>
      </trkpt>
      <trkpt lat="46.5425" lon="0.34833">
        <ele>163.8</ele>
        <time>2023-08-20T07:45:04Z</time>
      </trkpt>
      <trkpt lat="46.54245" lon="0.34814">
        <ele>163.6</ele>
        <time>2023-08-20T07:45:07Z</time>
      </trkpt>
      <trkpt lat="46.54244" lon="0.34804">
        <ele>163.4</ele>
        <time>2023-08-20T07:45:09Z</time>
      </trkpt>
      <trkpt lat="46.54247" lon="0.34785">
        <ele>163.2</ele>
        <time>2023-08-20T07:45:14Z</time>
      </trkpt>
      <trkpt lat="46.54246" lon="0.34768">
        <ele>163.2</ele>
        <time>2023-08-20T07:45:17Z</time>
      </trkpt>
      <trkpt lat="46.54247" lon="0.34755">
        <ele>163.2</ele>
        <time>2023-08-20T07:45:19Z</time>
      </trkpt>
      <trkpt lat="46.5425" lon="0.34737">
        <ele>163.2</ele>
        <time>2023-08-20T07:45:22Z</time>
      </trkpt>
      <trkpt lat="46.54249" lon="0.34728">
        <ele>163</ele>
        <time>2023-08-20T07:45:24Z</time>
      </trkpt>
      <trkpt lat="46.54254" lon="0.3472">
        <ele>162.6</ele>
        <time>2023-08-20T07:45:26Z</time>
      </trkpt>
      <trkpt lat="46.54257" lon="0.34715">
        <ele>162.6</ele>
        <time>2023-08-20T07:45:28Z</time>
      </trkpt>
      <trkpt lat="46.54258" lon="0.34712">
        <ele>162.6</ele>
        <time>2023-08-20T07:45:29Z</time>
      </trkpt>
      <trkpt lat="46.54263" lon="0.34698">
        <ele>162.4</ele>
        <time>2023-08-20T07:45:32Z</time>
      </trkpt>
      <trkpt lat="46.54274" lon="0.34683">
        <ele>162</ele>
        <time>2023-08-20T07:45:36Z</time>
      </trkpt>
      <trkpt lat="46.54279" lon="0.34675">
        <ele>162.4</ele>
        <time>2023-08-20T07:45:38Z</time>
      </trkpt>
      <trkpt lat="46.54281" lon="0.34672">
        <ele>162.4</ele>
        <time>2023-08-20T07:45:39Z</time>
      </trkpt>
      <trkpt lat="46.54285" lon="0.34665">
        <ele>162.4</ele>
        <time>2023-08-20T07:45:41Z</time>
      </trkpt>
      <trkpt lat="46.54291" lon="0.3466">
        <ele>162.4</ele>
        <time>2023-08-20T07:45:43Z</time>
      </trkpt>
      <trkpt lat="46.54295" lon="0.34653">
        <ele>162.4</ele>
        <time>2023-08-20T07:45:45Z</time>
      </trkpt>
      <trkpt lat="46.54304" lon="0.34642">
        <ele>162.8</ele>
        <time>2023-08-20T07:45:48Z</time>
      </trkpt>
      <trkpt lat="46.5431" lon="0.34635">
        <ele>163</ele>
        <time>2023-08-20T07:45:50Z</time>
      </trkpt>
      <trkpt lat="46.54312" lon="0.34628">
        <ele>163.2</ele>
        <time>2023-08-20T07:45:51Z</time>
      </trkpt>
      <trkpt lat="46.54316" lon="0.34623">
        <ele>163.2</ele>
        <time>2023-08-20T07:45:52Z</time>
      </trkpt>
      <trkpt lat="46.54322" lon="0.34617">
        <ele>163.2</ele>
        <time>2023-08-20T07:45:54Z</time>
      </trkpt>
      <trkpt lat="46.54326" lon="0.34616">
        <ele>163.2</ele>
        <time>2023-08-20T07:45:55Z</time>
      </trkpt>
      <trkpt lat="46.54329" lon="0.34615">
        <ele>163.4</ele>
        <time>2023-08-20T07:45:56Z</time>
      </trkpt>
      <trkpt lat="46.54346" lon="0.34605">
        <ele>163.6</ele>
        <time>2023-08-20T07:46:00Z</time>
      </trkpt>
      <trkpt lat="46.54351" lon="0.34595">
        <ele>163.6</ele>
        <time>2023-08-20T07:46:02Z</time>
      </trkpt>
      <trkpt lat="46.54354" lon="0.34589">
        <ele>163.6</ele>
        <time>2023-08-20T07:46:03Z</time>
      </trkpt>
      <trkpt lat="46.54356" lon="0.34583">
        <ele>163.6</ele>
        <time>2023-08-20T07:46:04Z</time>
      </trkpt>
      <trkpt lat="46.54358" lon="0.34573">
        <ele>163.4</ele>
        <time>2023-08-20T07:46:06Z</time>
      </trkpt>
      <trkpt lat="46.54362" lon="0.34563">
        <ele>163.2</ele>
        <time>2023-08-20T07:46:08Z</time>
      </trkpt>
      <trkpt lat="46.54362" lon="0.34563">
        <ele>163.2</ele>
        <time>2023-08-20T07:46:09Z</time>
      </trkpt>
      <trkpt lat="46.54369" lon="0.34556">
        <ele>163</ele>
        <time>2023-08-20T07:46:10Z</time>
      </trkpt>
      <trkpt lat="46.54382" lon="0.3454">
        <ele>163</ele>
        <time>2023-08-20T07:46:14Z</time>
      </trkpt>
      <trkpt lat="46.54388" lon="0.34532">
        <ele>163</ele>
        <time>2023-08-20T07:46:16Z</time>
      </trkpt>
      <trkpt lat="46.54395" lon="0.3452">
        <ele>163</ele>
        <time>2023-08-20T07:46:18Z</time>
      </trkpt>
      <trkpt lat="46.54399" lon="0.34513">
        <ele>162.6</ele>
        <time>2023-08-20T07:46:19Z</time>
      </trkpt>
      <trkpt lat="46.544" lon="0.34508">
        <ele>162.4</ele>
        <time>2023-08-20T07:46:20Z</time>
      </trkpt>
      <trkpt lat="46.54399" lon="0.34489">
        <ele>162.4</ele>
        <time>2023-08-20T07:46:23Z</time>
      </trkpt>
      <trkpt lat="46.54386" lon="0.34455">
        <ele>162.4</ele>
        <time>2023-08-20T07:46:28Z</time>
      </trkpt>
      <trkpt lat="46.54375" lon="0.34423">
        <ele>162.2</ele>
        <time>2023-08-20T07:46:33Z</time>
      </trkpt>
      <trkpt lat="46.54373" lon="0.34417">
        <ele>162.2</ele>
        <time>2023-08-20T07:46:34Z</time>
      </trkpt>
      <trkpt lat="46.54365" lon="0.34393">
        <ele>162</ele>
        <time>2023-08-20T07:46:38Z</time>
      </trkpt>
      <trkpt lat="46.54354" lon="0.34367">
        <ele>162</ele>
        <time>2023-08-20T07:46:42Z</time>
      </trkpt>
      <trkpt lat="46.54351" lon="0.34361">
        <ele>162</ele>
        <time>2023-08-20T07:46:43Z</time>
      </trkpt>
      <trkpt lat="46.54336" lon="0.34326">
        <ele>161.6</ele>
        <time>2023-08-20T07:46:49Z</time>
      </trkpt>
      <trkpt lat="46.54327" lon="0.34308">
        <ele>161.6</ele>
        <time>2023-08-20T07:46:54Z</time>
      </trkpt>
      <trkpt lat="46.54325" lon="0.34307">
        <ele>161.6</ele>
        <time>2023-08-20T07:46:55Z</time>
      </trkpt>
      <trkpt lat="46.54317" lon="0.34303">
        <ele>161.8</ele>
        <time>2023-08-20T07:46:58Z</time>
      </trkpt>
      <trkpt lat="46.54301" lon="0.34301">
        <ele>162.4</ele>
        <time>2023-08-20T07:47:04Z</time>
      </trkpt>
      <trkpt lat="46.54284" lon="0.34293">
        <ele>162.8</ele>
        <time>2023-08-20T07:47:12Z</time>
      </trkpt>
      <trkpt lat="46.54277" lon="0.3429">
        <ele>162.8</ele>
        <time>2023-08-20T07:47:16Z</time>
      </trkpt>
      <trkpt lat="46.54275" lon="0.34289">
        <ele>162.8</ele>
        <time>2023-08-20T07:47:17Z</time>
      </trkpt>
      <trkpt lat="46.54275" lon="0.34288">
        <ele>162.6</ele>
        <time>2023-08-20T07:47:18Z</time>
      </trkpt>
      <trkpt lat="46.54275" lon="0.34287">
        <ele>162.6</ele>
        <time>2023-08-20T07:47:20Z</time>
      </trkpt>
      <trkpt lat="46.54274" lon="0.34286">
        <ele>162.6</ele>
        <time>2023-08-20T07:47:23Z</time>
      </trkpt>
      <trkpt lat="46.54274" lon="0.34286">
        <ele>162.6</ele>
        <time>2023-08-20T07:47:24Z</time>
      </trkpt>
      <trkpt lat="46.54274" lon="0.34287">
        <ele>162.6</ele>
        <time>2023-08-20T07:47:25Z</time>
      </trkpt>
      <trkpt lat="46.54274" lon="0.34279">
        <ele>162.8</ele>
        <time>2023-08-20T07:47:30Z</time>
      </trkpt>
      <trkpt lat="46.5427" lon="0.34264">
        <ele>162.4</ele>
        <time>2023-08-20T07:47:36Z</time>
      </trkpt>
      <trkpt lat="46.54269" lon="0.34247">
        <ele>162.8</ele>
        <time>2023-08-20T07:47:42Z</time>
      </trkpt>
      <trkpt lat="46.54268" lon="0.34242">
        <ele>163</ele>
        <time>2023-08-20T07:47:43Z</time>
      </trkpt>
      <trkpt lat="46.54267" lon="0.34235">
        <ele>162.8</ele>
        <time>2023-08-20T07:47:45Z</time>
      </trkpt>
      <trkpt lat="46.54266" lon="0.3423">
        <ele>162.6</ele>
        <time>2023-08-20T07:47:47Z</time>
      </trkpt>
      <trkpt lat="46.54263" lon="0.34221">
        <ele>162</ele>
        <time>2023-08-20T07:47:52Z</time>
      </trkpt>
      <trkpt lat="46.54253" lon="0.34208">
        <ele>162</ele>
        <time>2023-08-20T07:47:57Z</time>
      </trkpt>
      <trkpt lat="46.54249" lon="0.34204">
        <ele>162.4</ele>
        <time>2023-08-20T07:47:59Z</time>
      </trkpt>
      <trkpt lat="46.54244" lon="0.34195">
        <ele>162.8</ele>
        <time>2023-08-20T07:48:01Z</time>
      </trkpt>
      <trkpt lat="46.54241" lon="0.34178">
        <ele>163</ele>
        <time>2023-08-20T07:48:06Z</time>
      </trkpt>
      <trkpt lat="46.5424" lon="0.34172">
        <ele>162.6</ele>
        <time>2023-08-20T07:48:08Z</time>
      </trkpt>
      <trkpt lat="46.54239" lon="0.34163">
        <ele>162.4</ele>
        <time>2023-08-20T07:48:11Z</time>
      </trkpt>
      <trkpt lat="46.54237" lon="0.34157">
        <ele>162.4</ele>
        <time>2023-08-20T07:48:13Z</time>
      </trkpt>
      <trkpt lat="46.54235" lon="0.3415">
        <ele>162.2</ele>
        <time>2023-08-20T07:48:15Z</time>
      </trkpt>
      <trkpt lat="46.54232" lon="0.34144">
        <ele>161.8</ele>
        <time>2023-08-20T07:48:17Z</time>
      </trkpt>
      <trkpt lat="46.5423" lon="0.34137">
        <ele>161.2</ele>
        <time>2023-08-20T07:48:19Z</time>
      </trkpt>
      <trkpt lat="46.54229" lon="0.34134">
        <ele>161</ele>
        <time>2023-08-20T07:48:20Z</time>
      </trkpt>
      <trkpt lat="46.54228" lon="0.34132">
        <ele>161</ele>
        <time>2023-08-20T07:48:21Z</time>
      </trkpt>
      <trkpt lat="46.54223" lon="0.34129">
        <ele>161</ele>
        <time>2023-08-20T07:48:23Z</time>
      </trkpt>
      <trkpt lat="46.54219" lon="0.34123">
        <ele>161.4</ele>
        <time>2023-08-20T07:48:25Z</time>
      </trkpt>
      <trkpt lat="46.54215" lon="0.34115">
        <ele>161.6</ele>
        <time>2023-08-20T07:48:27Z</time>
      </trkpt>
      <trkpt lat="46.54209" lon="0.34077">
        <ele>160.8</ele>
        <time>2023-08-20T07:48:33Z</time>
      </trkpt>
      <trkpt lat="46.54208" lon="0.3407">
        <ele>160.6</ele>
        <time>2023-08-20T07:48:34Z</time>
      </trkpt>
      <trkpt lat="46.54206" lon="0.34059">
        <ele>160.4</ele>
        <time>2023-08-20T07:48:36Z</time>
      </trkpt>
      <trkpt lat="46.54205" lon="0.34057">
        <ele>160</ele>
        <time>2023-08-20T07:48:37Z</time>
      </trkpt>
      <trkpt lat="46.54204" lon="0.34056">
        <ele>159.8</ele>
        <time>2023-08-20T07:48:38Z</time>
      </trkpt>
      <trkpt lat="46.54202" lon="0.34058">
        <ele>159.6</ele>
        <time>2023-08-20T07:48:40Z</time>
      </trkpt>
      <trkpt lat="46.54201" lon="0.3406">
        <ele>159.6</ele>
        <time>2023-08-20T07:48:41Z</time>
      </trkpt>
      <trkpt lat="46.54196" lon="0.34068">
        <ele>159</ele>
        <time>2023-08-20T07:48:45Z</time>
      </trkpt>
      <trkpt lat="46.54196" lon="0.3407">
        <ele>159</ele>
        <time>2023-08-20T07:48:46Z</time>
      </trkpt>
      <trkpt lat="46.54195" lon="0.34074">
        <ele>159</ele>
        <time>2023-08-20T07:48:47Z</time>
      </trkpt>
      <trkpt lat="46.54189" lon="0.34083">
        <ele>159.6</ele>
        <time>2023-08-20T07:48:51Z</time>
      </trkpt>
      <trkpt lat="46.54176" lon="0.34102">
        <ele>159.8</ele>
        <time>2023-08-20T07:48:57Z</time>
      </trkpt>
      <trkpt lat="46.54167" lon="0.34118">
        <ele>159.8</ele>
        <time>2023-08-20T07:49:01Z</time>
      </trkpt>
      <trkpt lat="46.54161" lon="0.34131">
        <ele>159.2</ele>
        <time>2023-08-20T07:49:04Z</time>
      </trkpt>
      <trkpt lat="46.54159" lon="0.34135">
        <ele>158.8</ele>
        <time>2023-08-20T07:49:05Z</time>
      </trkpt>
      <trkpt lat="46.54154" lon="0.34144">
        <ele>157.8</ele>
        <time>2023-08-20T07:49:08Z</time>
      </trkpt>
      <trkpt lat="46.54153" lon="0.34149">
        <ele>157.6</ele>
        <time>2023-08-20T07:49:09Z</time>
      </trkpt>
      <trkpt lat="46.54147" lon="0.34174">
        <ele>157.2</ele>
        <time>2023-08-20T07:49:14Z</time>
      </trkpt>
      <trkpt lat="46.54144" lon="0.34178">
        <ele>157.2</ele>
        <time>2023-08-20T07:49:15Z</time>
      </trkpt>
      <trkpt lat="46.54143" lon="0.34181">
        <ele>157.4</ele>
        <time>2023-08-20T07:49:16Z</time>
      </trkpt>
      <trkpt lat="46.54136" lon="0.34196">
        <ele>158.2</ele>
        <time>2023-08-20T07:49:20Z</time>
      </trkpt>
      <trkpt lat="46.54131" lon="0.34203">
        <ele>158.4</ele>
        <time>2023-08-20T07:49:22Z</time>
      </trkpt>
      <trkpt lat="46.54127" lon="0.34212">
        <ele>158</ele>
        <time>2023-08-20T07:49:24Z</time>
      </trkpt>
      <trkpt lat="46.54125" lon="0.34216">
        <ele>157.6</ele>
        <time>2023-08-20T07:49:25Z</time>
      </trkpt>
      <trkpt lat="46.54121" lon="0.34225">
        <ele>157.2</ele>
        <time>2023-08-20T07:49:27Z</time>
      </trkpt>
      <trkpt lat="46.54116" lon="0.34236">
        <ele>156</ele>
        <time>2023-08-20T07:49:30Z</time>
      </trkpt>
      <trkpt lat="46.54112" lon="0.34249">
        <ele>155</ele>
        <time>2023-08-20T07:49:33Z</time>
      </trkpt>
      <trkpt lat="46.5411" lon="0.34254">
        <ele>154.8</ele>
        <time>2023-08-20T07:49:34Z</time>
      </trkpt>
      <trkpt lat="46.54107" lon="0.3426">
        <ele>154.6</ele>
        <time>2023-08-20T07:49:35Z</time>
      </trkpt>
      <trkpt lat="46.54105" lon="0.34266">
        <ele>153.4</ele>
        <time>2023-08-20T07:49:37Z</time>
      </trkpt>
      <trkpt lat="46.54097" lon="0.34277">
        <ele>152.2</ele>
        <time>2023-08-20T07:49:40Z</time>
      </trkpt>
      <trkpt lat="46.54088" lon="0.34289">
        <ele>150.8</ele>
        <time>2023-08-20T07:49:43Z</time>
      </trkpt>
      <trkpt lat="46.54085" lon="0.34296">
        <ele>148.6</ele>
        <time>2023-08-20T07:49:45Z</time>
      </trkpt>
      <trkpt lat="46.5408" lon="0.34304">
        <ele>147.4</ele>
        <time>2023-08-20T07:49:47Z</time>
      </trkpt>
      <trkpt lat="46.54075" lon="0.34311">
        <ele>146.2</ele>
        <time>2023-08-20T07:49:49Z</time>
      </trkpt>
      <trkpt lat="46.5407" lon="0.34319">
        <ele>145</ele>
        <time>2023-08-20T07:49:51Z</time>
      </trkpt>
      <trkpt lat="46.54068" lon="0.34324">
        <ele>144</ele>
        <time>2023-08-20T07:49:53Z</time>
      </trkpt>
      <trkpt lat="46.54066" lon="0.34329">
        <ele>143.8</ele>
        <time>2023-08-20T07:49:54Z</time>
      </trkpt>
      <trkpt lat="46.54063" lon="0.34333">
        <ele>143.6</ele>
        <time>2023-08-20T07:49:56Z</time>
      </trkpt>
      <trkpt lat="46.54058" lon="0.34343">
        <ele>145</ele>
        <time>2023-08-20T07:50:01Z</time>
      </trkpt>
      <trkpt lat="46.54057" lon="0.34346">
        <ele>145.2</ele>
        <time>2023-08-20T07:50:03Z</time>
      </trkpt>
      <trkpt lat="46.54046" lon="0.34367">
        <ele>145</ele>
        <time>2023-08-20T07:50:10Z</time>
      </trkpt>
      <trkpt lat="46.54037" lon="0.34373">
        <ele>144.8</ele>
        <time>2023-08-20T07:50:15Z</time>
      </trkpt>
      <trkpt lat="46.54033" lon="0.34374">
        <ele>144.8</ele>
        <time>2023-08-20T07:50:16Z</time>
      </trkpt>
      <trkpt lat="46.54022" lon="0.34377">
        <ele>144.8</ele>
        <time>2023-08-20T07:50:24Z</time>
      </trkpt>
      <trkpt lat="46.5402" lon="0.34373">
        <ele>144.2</ele>
        <time>2023-08-20T07:50:27Z</time>
      </trkpt>
      <trkpt lat="46.54021" lon="0.34366">
        <ele>144</ele>
        <time>2023-08-20T07:50:29Z</time>
      </trkpt>
      <trkpt lat="46.54021" lon="0.34361">
        <ele>142.2</ele>
        <time>2023-08-20T07:50:31Z</time>
      </trkpt>
      <trkpt lat="46.54021" lon="0.34358">
        <ele>140.4</ele>
        <time>2023-08-20T07:50:33Z</time>
      </trkpt>
      <trkpt lat="46.54021" lon="0.34356">
        <ele>139.2</ele>
        <time>2023-08-20T07:50:34Z</time>
      </trkpt>
      <trkpt lat="46.5402" lon="0.34353">
        <ele>137.4</ele>
        <time>2023-08-20T07:50:36Z</time>
      </trkpt>
      <trkpt lat="46.54019" lon="0.34352">
        <ele>136</ele>
        <time>2023-08-20T07:50:37Z</time>
      </trkpt>
      <trkpt lat="46.54018" lon="0.34351">
        <ele>134.2</ele>
        <time>2023-08-20T07:50:38Z</time>
      </trkpt>
      <trkpt lat="46.54017" lon="0.34348">
        <ele>133.2</ele>
        <time>2023-08-20T07:50:39Z</time>
      </trkpt>
      <trkpt lat="46.54015" lon="0.34345">
        <ele>132</ele>
        <time>2023-08-20T07:50:40Z</time>
      </trkpt>
      <trkpt lat="46.54013" lon="0.34344">
        <ele>130.2</ele>
        <time>2023-08-20T07:50:41Z</time>
      </trkpt>
      <trkpt lat="46.54011" lon="0.34342">
        <ele>129.2</ele>
        <time>2023-08-20T07:50:42Z</time>
      </trkpt>
      <trkpt lat="46.54008" lon="0.34341">
        <ele>127.6</ele>
        <time>2023-08-20T07:50:43Z</time>
      </trkpt>
      <trkpt lat="46.54006" lon="0.3434">
        <ele>126.4</ele>
        <time>2023-08-20T07:50:44Z</time>
      </trkpt>
      <trkpt lat="46.54003" lon="0.34336">
        <ele>124.6</ele>
        <time>2023-08-20T07:50:46Z</time>
      </trkpt>
      <trkpt lat="46.54" lon="0.34333">
        <ele>122.8</ele>
        <time>2023-08-20T07:50:48Z</time>
      </trkpt>
      <trkpt lat="46.53998" lon="0.34334">
        <ele>121.8</ele>
        <time>2023-08-20T07:50:50Z</time>
      </trkpt>
      <trkpt lat="46.53994" lon="0.34338">
        <ele>121.6</ele>
        <time>2023-08-20T07:50:53Z</time>
      </trkpt>
      <trkpt lat="46.5398" lon="0.34353">
        <ele>122.8</ele>
        <time>2023-08-20T07:50:59Z</time>
      </trkpt>
      <trkpt lat="46.53979" lon="0.34354">
        <ele>122.8</ele>
        <time>2023-08-20T07:51:00Z</time>
      </trkpt>
      <trkpt lat="46.53972" lon="0.34358">
        <ele>123.8</ele>
        <time>2023-08-20T07:51:03Z</time>
      </trkpt>
      <trkpt lat="46.53969" lon="0.3436">
        <ele>123.8</ele>
        <time>2023-08-20T07:51:04Z</time>
      </trkpt>
      <trkpt lat="46.53966" lon="0.34362">
        <ele>124</ele>
        <time>2023-08-20T07:51:05Z</time>
      </trkpt>
      <trkpt lat="46.53964" lon="0.34365">
        <ele>124</ele>
        <time>2023-08-20T07:51:06Z</time>
      </trkpt>
      <trkpt lat="46.53953" lon="0.34376">
        <ele>124.6</ele>
        <time>2023-08-20T07:51:10Z</time>
      </trkpt>
      <trkpt lat="46.5395" lon="0.34381">
        <ele>124.6</ele>
        <time>2023-08-20T07:51:11Z</time>
      </trkpt>
      <trkpt lat="46.53945" lon="0.3439">
        <ele>125.6</ele>
        <time>2023-08-20T07:51:13Z</time>
      </trkpt>
      <trkpt lat="46.53942" lon="0.34397">
        <ele>125.8</ele>
        <time>2023-08-20T07:51:14Z</time>
      </trkpt>
      <trkpt lat="46.53939" lon="0.34404">
        <ele>126.8</ele>
        <time>2023-08-20T07:51:15Z</time>
      </trkpt>
      <trkpt lat="46.53938" lon="0.3441">
        <ele>127.4</ele>
        <time>2023-08-20T07:51:16Z</time>
      </trkpt>
      <trkpt lat="46.53937" lon="0.3442">
        <ele>128.2</ele>
        <time>2023-08-20T07:51:18Z</time>
      </trkpt>
      <trkpt lat="46.53936" lon="0.3443">
        <ele>129</ele>
        <time>2023-08-20T07:51:20Z</time>
      </trkpt>
      <trkpt lat="46.53937" lon="0.34435">
        <ele>129.4</ele>
        <time>2023-08-20T07:51:21Z</time>
      </trkpt>
      <trkpt lat="46.53939" lon="0.34452">
        <ele>130.2</ele>
        <time>2023-08-20T07:51:25Z</time>
      </trkpt>
      <trkpt lat="46.5394" lon="0.34455">
        <ele>130.4</ele>
        <time>2023-08-20T07:51:26Z</time>
      </trkpt>
      <trkpt lat="46.53941" lon="0.3446">
        <ele>131.6</ele>
        <time>2023-08-20T07:51:28Z</time>
      </trkpt>
      <trkpt lat="46.53939" lon="0.34466">
        <ele>132.4</ele>
        <time>2023-08-20T07:51:30Z</time>
      </trkpt>
      <trkpt lat="46.53936" lon="0.34471">
        <ele>132.8</ele>
        <time>2023-08-20T07:51:32Z</time>
      </trkpt>
      <trkpt lat="46.53928" lon="0.34478">
        <ele>132.8</ele>
        <time>2023-08-20T07:51:35Z</time>
      </trkpt>
      <trkpt lat="46.53924" lon="0.34483">
        <ele>133</ele>
        <time>2023-08-20T07:51:37Z</time>
      </trkpt>
      <trkpt lat="46.53916" lon="0.34487">
        <ele>133</ele>
        <time>2023-08-20T07:51:40Z</time>
      </trkpt>
      <trkpt lat="46.5389" lon="0.34493">
        <ele>132.8</ele>
        <time>2023-08-20T07:51:48Z</time>
      </trkpt>
      <trkpt lat="46.53861" lon="0.34498">
        <ele>133.6</ele>
        <time>2023-08-20T07:51:56Z</time>
      </trkpt>
      <trkpt lat="46.5385" lon="0.34499">
        <ele>133.8</ele>
        <time>2023-08-20T07:51:59Z</time>
      </trkpt>
      <trkpt lat="46.53838" lon="0.34495">
        <ele>134.2</ele>
        <time>2023-08-20T07:52:02Z</time>
      </trkpt>
      <trkpt lat="46.53803" lon="0.34485">
        <ele>133.6</ele>
        <time>2023-08-20T07:52:10Z</time>
      </trkpt>
      <trkpt lat="46.53776" lon="0.34479">
        <ele>133.4</ele>
        <time>2023-08-20T07:52:16Z</time>
      </trkpt>
      <trkpt lat="46.53747" lon="0.34469">
        <ele>133.6</ele>
        <time>2023-08-20T07:52:22Z</time>
      </trkpt>
      <trkpt lat="46.53717" lon="0.34455">
        <ele>133.6</ele>
        <time>2023-08-20T07:52:27Z</time>
      </trkpt>
      <trkpt lat="46.5367" lon="0.3443">
        <ele>133.2</ele>
        <time>2023-08-20T07:52:34Z</time>
      </trkpt>
      <trkpt lat="46.53665" lon="0.34426">
        <ele>133.2</ele>
        <time>2023-08-20T07:52:35Z</time>
      </trkpt>
      <trkpt lat="46.53633" lon="0.34415">
        <ele>132.6</ele>
        <time>2023-08-20T07:52:40Z</time>
      </trkpt>
      <trkpt lat="46.53627" lon="0.34413">
        <ele>132.4</ele>
        <time>2023-08-20T07:52:41Z</time>
      </trkpt>
      <trkpt lat="46.53604" lon="0.34412">
        <ele>131.6</ele>
        <time>2023-08-20T07:52:45Z</time>
      </trkpt>
      <trkpt lat="46.53578" lon="0.34412">
        <ele>131.2</ele>
        <time>2023-08-20T07:52:49Z</time>
      </trkpt>
      <trkpt lat="46.53571" lon="0.34409">
        <ele>131.2</ele>
        <time>2023-08-20T07:52:50Z</time>
      </trkpt>
      <trkpt lat="46.53565" lon="0.34406">
        <ele>131.2</ele>
        <time>2023-08-20T07:52:51Z</time>
      </trkpt>
      <trkpt lat="46.53543" lon="0.34389">
        <ele>131.4</ele>
        <time>2023-08-20T07:52:55Z</time>
      </trkpt>
      <trkpt lat="46.53503" lon="0.34366">
        <ele>132.2</ele>
        <time>2023-08-20T07:53:02Z</time>
      </trkpt>
      <trkpt lat="46.53484" lon="0.34359">
        <ele>132.8</ele>
        <time>2023-08-20T07:53:05Z</time>
      </trkpt>
      <trkpt lat="46.53452" lon="0.34348">
        <ele>134</ele>
        <time>2023-08-20T07:53:10Z</time>
      </trkpt>
      <trkpt lat="46.53446" lon="0.34346">
        <ele>134.2</ele>
        <time>2023-08-20T07:53:11Z</time>
      </trkpt>
      <trkpt lat="46.53434" lon="0.34344">
        <ele>134.4</ele>
        <time>2023-08-20T07:53:13Z</time>
      </trkpt>
      <trkpt lat="46.53416" lon="0.34345">
        <ele>134.8</ele>
        <time>2023-08-20T07:53:16Z</time>
      </trkpt>
      <trkpt lat="46.53404" lon="0.34344">
        <ele>134.6</ele>
        <time>2023-08-20T07:53:18Z</time>
      </trkpt>
      <trkpt lat="46.53385" lon="0.34338">
        <ele>134.6</ele>
        <time>2023-08-20T07:53:21Z</time>
      </trkpt>
      <trkpt lat="46.53365" lon="0.34328">
        <ele>134</ele>
        <time>2023-08-20T07:53:25Z</time>
      </trkpt>
      <trkpt lat="46.53363" lon="0.34326">
        <ele>133.6</ele>
        <time>2023-08-20T07:53:26Z</time>
      </trkpt>
      <trkpt lat="46.5336" lon="0.34323">
        <ele>133.2</ele>
        <time>2023-08-20T07:53:29Z</time>
      </trkpt>
      <trkpt lat="46.53359" lon="0.34322">
        <ele>133.2</ele>
        <time>2023-08-20T07:53:30Z</time>
      </trkpt>
      <trkpt lat="46.53361" lon="0.34321">
        <ele>133.2</ele>
        <time>2023-08-20T07:53:33Z</time>
      </trkpt>
      <trkpt lat="46.53363" lon="0.34322">
        <ele>133.2</ele>
        <time>2023-08-20T07:53:34Z</time>
      </trkpt>
      <trkpt lat="46.53374" lon="0.34334">
        <ele>133.4</ele>
        <time>2023-08-20T07:53:39Z</time>
      </trkpt>
      <trkpt lat="46.53374" lon="0.34337">
        <ele>133.4</ele>
        <time>2023-08-20T07:53:40Z</time>
      </trkpt>
      <trkpt lat="46.53372" lon="0.34343">
        <ele>133.2</ele>
        <time>2023-08-20T07:53:42Z</time>
      </trkpt>
      <trkpt lat="46.53359" lon="0.34358">
        <ele>133</ele>
        <time>2023-08-20T07:53:47Z</time>
      </trkpt>
      <trkpt lat="46.53356" lon="0.34361">
        <ele>133.4</ele>
        <time>2023-08-20T07:53:48Z</time>
      </trkpt>
      <trkpt lat="46.53353" lon="0.34364">
        <ele>133.8</ele>
        <time>2023-08-20T07:53:49Z</time>
      </trkpt>
      <trkpt lat="46.5335" lon="0.34366">
        <ele>134</ele>
        <time>2023-08-20T07:53:50Z</time>
      </trkpt>
      <trkpt lat="46.53342" lon="0.3437">
        <ele>134.4</ele>
        <time>2023-08-20T07:53:52Z</time>
      </trkpt>
      <trkpt lat="46.53338" lon="0.34371">
        <ele>134.4</ele>
        <time>2023-08-20T07:53:53Z</time>
      </trkpt>
      <trkpt lat="46.5332" lon="0.34377">
        <ele>134.6</ele>
        <time>2023-08-20T07:53:58Z</time>
      </trkpt>
      <trkpt lat="46.53313" lon="0.3438">
        <ele>134.6</ele>
        <time>2023-08-20T07:54:00Z</time>
      </trkpt>
      <trkpt lat="46.53309" lon="0.34381">
        <ele>134.8</ele>
        <time>2023-08-20T07:54:01Z</time>
      </trkpt>
      <trkpt lat="46.53301" lon="0.34383">
        <ele>135</ele>
        <time>2023-08-20T07:54:03Z</time>
      </trkpt>
      <trkpt lat="46.53293" lon="0.34384">
        <ele>135</ele>
        <time>2023-08-20T07:54:05Z</time>
      </trkpt>
      <trkpt lat="46.53263" lon="0.34385">
        <ele>136.4</ele>
        <time>2023-08-20T07:54:12Z</time>
      </trkpt>
      <trkpt lat="46.53239" lon="0.34379">
        <ele>137</ele>
        <time>2023-08-20T07:54:19Z</time>
      </trkpt>
      <trkpt lat="46.5323" lon="0.34376">
        <ele>137.4</ele>
        <time>2023-08-20T07:54:22Z</time>
      </trkpt>
      <trkpt lat="46.5322" lon="0.34371">
        <ele>137.6</ele>
        <time>2023-08-20T07:54:26Z</time>
      </trkpt>
      <trkpt lat="46.53214" lon="0.34369">
        <ele>137.6</ele>
        <time>2023-08-20T07:54:28Z</time>
      </trkpt>
      <trkpt lat="46.53195" lon="0.34364">
        <ele>137.8</ele>
        <time>2023-08-20T07:54:31Z</time>
      </trkpt>
      <trkpt lat="46.53154" lon="0.34347">
        <ele>138</ele>
        <time>2023-08-20T07:54:37Z</time>
      </trkpt>
      <trkpt lat="46.53127" lon="0.34342">
        <ele>138.2</ele>
        <time>2023-08-20T07:54:41Z</time>
      </trkpt>
      <trkpt lat="46.53117" lon="0.34344">
        <ele>138.6</ele>
        <time>2023-08-20T07:54:43Z</time>
      </trkpt>
      <trkpt lat="46.53083" lon="0.34348">
        <ele>138.8</ele>
        <time>2023-08-20T07:54:49Z</time>
      </trkpt>
      <trkpt lat="46.53066" lon="0.34351">
        <ele>138.6</ele>
        <time>2023-08-20T07:54:52Z</time>
      </trkpt>
      <trkpt lat="46.53055" lon="0.34349">
        <ele>138.6</ele>
        <time>2023-08-20T07:54:54Z</time>
      </trkpt>
      <trkpt lat="46.53022" lon="0.34338">
        <ele>138</ele>
        <time>2023-08-20T07:55:00Z</time>
      </trkpt>
      <trkpt lat="46.53009" lon="0.34337">
        <ele>138</ele>
        <time>2023-08-20T07:55:02Z</time>
      </trkpt>
      <trkpt lat="46.5299" lon="0.34335">
        <ele>137.4</ele>
        <time>2023-08-20T07:55:05Z</time>
      </trkpt>
      <trkpt lat="46.52986" lon="0.34332">
        <ele>137</ele>
        <time>2023-08-20T07:55:06Z</time>
      </trkpt>
      <trkpt lat="46.52983" lon="0.34328">
        <ele>136.6</ele>
        <time>2023-08-20T07:55:07Z</time>
      </trkpt>
      <trkpt lat="46.52977" lon="0.34314">
        <ele>136.2</ele>
        <time>2023-08-20T07:55:09Z</time>
      </trkpt>
      <trkpt lat="46.52967" lon="0.34295">
        <ele>136</ele>
        <time>2023-08-20T07:55:12Z</time>
      </trkpt>
      <trkpt lat="46.52958" lon="0.34283">
        <ele>135.6</ele>
        <time>2023-08-20T07:55:14Z</time>
      </trkpt>
      <trkpt lat="46.5295" lon="0.34268">
        <ele>135.4</ele>
        <time>2023-08-20T07:55:16Z</time>
      </trkpt>
      <trkpt lat="46.52948" lon="0.34251">
        <ele>135.2</ele>
        <time>2023-08-20T07:55:18Z</time>
      </trkpt>
      <trkpt lat="46.52949" lon="0.34233">
        <ele>135</ele>
        <time>2023-08-20T07:55:20Z</time>
      </trkpt>
      <trkpt lat="46.52952" lon="0.34217">
        <ele>134.8</ele>
        <time>2023-08-20T07:55:22Z</time>
      </trkpt>
      <trkpt lat="46.52955" lon="0.34202">
        <ele>134</ele>
        <time>2023-08-20T07:55:24Z</time>
      </trkpt>
      <trkpt lat="46.52959" lon="0.3418">
        <ele>133</ele>
        <time>2023-08-20T07:55:27Z</time>
      </trkpt>
      <trkpt lat="46.52963" lon="0.34164">
        <ele>132.6</ele>
        <time>2023-08-20T07:55:29Z</time>
      </trkpt>
      <trkpt lat="46.52966" lon="0.34135">
        <ele>132.2</ele>
        <time>2023-08-20T07:55:32Z</time>
      </trkpt>
      <trkpt lat="46.52968" lon="0.34124">
        <ele>132</ele>
        <time>2023-08-20T07:55:33Z</time>
      </trkpt>
      <trkpt lat="46.52969" lon="0.34114">
        <ele>131.8</ele>
        <time>2023-08-20T07:55:34Z</time>
      </trkpt>
      <trkpt lat="46.52971" lon="0.34092">
        <ele>130.8</ele>
        <time>2023-08-20T07:55:36Z</time>
      </trkpt>
      <trkpt lat="46.5297" lon="0.34081">
        <ele>130.6</ele>
        <time>2023-08-20T07:55:37Z</time>
      </trkpt>
      <trkpt lat="46.52969" lon="0.34072">
        <ele>130.4</ele>
        <time>2023-08-20T07:55:38Z</time>
      </trkpt>
      <trkpt lat="46.52966" lon="0.34064">
        <ele>130.2</ele>
        <time>2023-08-20T07:55:39Z</time>
      </trkpt>
      <trkpt lat="46.52957" lon="0.34055">
        <ele>130</ele>
        <time>2023-08-20T07:55:41Z</time>
      </trkpt>
      <trkpt lat="46.52951" lon="0.34051">
        <ele>129.4</ele>
        <time>2023-08-20T07:55:42Z</time>
      </trkpt>
      <trkpt lat="46.52946" lon="0.34046">
        <ele>128.8</ele>
        <time>2023-08-20T07:55:43Z</time>
      </trkpt>
      <trkpt lat="46.52941" lon="0.34036">
        <ele>128.2</ele>
        <time>2023-08-20T07:55:44Z</time>
      </trkpt>
      <trkpt lat="46.5294" lon="0.34025">
        <ele>127.6</ele>
        <time>2023-08-20T07:55:45Z</time>
      </trkpt>
      <trkpt lat="46.52938" lon="0.34001">
        <ele>126.8</ele>
        <time>2023-08-20T07:55:47Z</time>
      </trkpt>
      <trkpt lat="46.52932" lon="0.33951">
        <ele>125.8</ele>
        <time>2023-08-20T07:55:51Z</time>
      </trkpt>
      <trkpt lat="46.52927" lon="0.33929">
        <ele>125.4</ele>
        <time>2023-08-20T07:55:53Z</time>
      </trkpt>
      <trkpt lat="46.52922" lon="0.33912">
        <ele>125</ele>
        <time>2023-08-20T07:55:55Z</time>
      </trkpt>
      <trkpt lat="46.52916" lon="0.33906">
        <ele>124.8</ele>
        <time>2023-08-20T07:55:56Z</time>
      </trkpt>
      <trkpt lat="46.52909" lon="0.33903">
        <ele>124.8</ele>
        <time>2023-08-20T07:55:57Z</time>
      </trkpt>
      <trkpt lat="46.52901" lon="0.33902">
        <ele>124.6</ele>
        <time>2023-08-20T07:55:58Z</time>
      </trkpt>
      <trkpt lat="46.52894" lon="0.33902">
        <ele>124.4</ele>
        <time>2023-08-20T07:55:59Z</time>
      </trkpt>
      <trkpt lat="46.52881" lon="0.33904">
        <ele>124.2</ele>
        <time>2023-08-20T07:56:01Z</time>
      </trkpt>
      <trkpt lat="46.52868" lon="0.33904">
        <ele>123.8</ele>
        <time>2023-08-20T07:56:03Z</time>
      </trkpt>
      <trkpt lat="46.52857" lon="0.33905">
        <ele>123.6</ele>
        <time>2023-08-20T07:56:05Z</time>
      </trkpt>
      <trkpt lat="46.52848" lon="0.33907">
        <ele>123.4</ele>
        <time>2023-08-20T07:56:07Z</time>
      </trkpt>
      <trkpt lat="46.52817" lon="0.33913">
        <ele>123.4</ele>
        <time>2023-08-20T07:56:14Z</time>
      </trkpt>
      <trkpt lat="46.5279" lon="0.33921">
        <ele>123.4</ele>
        <time>2023-08-20T07:56:20Z</time>
      </trkpt>
      <trkpt lat="46.52785" lon="0.33927">
        <ele>123.4</ele>
        <time>2023-08-20T07:56:22Z</time>
      </trkpt>
      <trkpt lat="46.52782" lon="0.33935">
        <ele>123.6</ele>
        <time>2023-08-20T07:56:24Z</time>
      </trkpt>
      <trkpt lat="46.52778" lon="0.33945">
        <ele>123.6</ele>
        <time>2023-08-20T07:56:28Z</time>
      </trkpt>
      <trkpt lat="46.52778" lon="0.33949">
        <ele>123.6</ele>
        <time>2023-08-20T07:56:32Z</time>
      </trkpt>
      <trkpt lat="46.52778" lon="0.33952">
        <ele>123.6</ele>
        <time>2023-08-20T07:56:34Z</time>
      </trkpt>
      <trkpt lat="46.52774" lon="0.33973">
        <ele>123.8</ele>
        <time>2023-08-20T07:56:40Z</time>
      </trkpt>
      <trkpt lat="46.52771" lon="0.33995">
        <ele>124.6</ele>
        <time>2023-08-20T07:56:46Z</time>
      </trkpt>
      <trkpt lat="46.52765" lon="0.3401">
        <ele>126</ele>
        <time>2023-08-20T07:56:50Z</time>
      </trkpt>
      <trkpt lat="46.52762" lon="0.34015">
        <ele>126.4</ele>
        <time>2023-08-20T07:56:51Z</time>
      </trkpt>
      <trkpt lat="46.52759" lon="0.3402">
        <ele>127.6</ele>
        <time>2023-08-20T07:56:53Z</time>
      </trkpt>
      <trkpt lat="46.5275" lon="0.34027">
        <ele>128.8</ele>
        <time>2023-08-20T07:56:56Z</time>
      </trkpt>
      <trkpt lat="46.52745" lon="0.34031">
        <ele>129.6</ele>
        <time>2023-08-20T07:56:59Z</time>
      </trkpt>
      <trkpt lat="46.52744" lon="0.34032">
        <ele>130</ele>
        <time>2023-08-20T07:57:00Z</time>
      </trkpt>
      <trkpt lat="46.52743" lon="0.34034">
        <ele>130.6</ele>
        <time>2023-08-20T07:57:02Z</time>
      </trkpt>
      <trkpt lat="46.5274" lon="0.34035">
        <ele>131.2</ele>
        <time>2023-08-20T07:57:04Z</time>
      </trkpt>
      <trkpt lat="46.52732" lon="0.34038">
        <ele>131.4</ele>
        <time>2023-08-20T07:57:08Z</time>
      </trkpt>
      <trkpt lat="46.52717" lon="0.34043">
        <ele>132.2</ele>
        <time>2023-08-20T07:57:13Z</time>
      </trkpt>
      <trkpt lat="46.52708" lon="0.34043">
        <ele>132.4</ele>
        <time>2023-08-20T07:57:15Z</time>
      </trkpt>
      <trkpt lat="46.52675" lon="0.34042">
        <ele>133</ele>
        <time>2023-08-20T07:57:24Z</time>
      </trkpt>
      <trkpt lat="46.52671" lon="0.34041">
        <ele>133.2</ele>
        <time>2023-08-20T07:57:25Z</time>
      </trkpt>
      <trkpt lat="46.52648" lon="0.34039">
        <ele>133.8</ele>
        <time>2023-08-20T07:57:31Z</time>
      </trkpt>
      <trkpt lat="46.52628" lon="0.34037">
        <ele>134</ele>
        <time>2023-08-20T07:57:36Z</time>
      </trkpt>
      <trkpt lat="46.5262" lon="0.34039">
        <ele>134.2</ele>
        <time>2023-08-20T07:57:38Z</time>
      </trkpt>
      <trkpt lat="46.52603" lon="0.3404">
        <ele>135.2</ele>
        <time>2023-08-20T07:57:43Z</time>
      </trkpt>
      <trkpt lat="46.52601" lon="0.34041">
        <ele>135.6</ele>
        <time>2023-08-20T07:57:44Z</time>
      </trkpt>
      <trkpt lat="46.52589" lon="0.34042">
        <ele>136.6</ele>
        <time>2023-08-20T07:57:48Z</time>
      </trkpt>
      <trkpt lat="46.52582" lon="0.3404">
        <ele>136.8</ele>
        <time>2023-08-20T07:57:50Z</time>
      </trkpt>
      <trkpt lat="46.52569" lon="0.3404">
        <ele>137.4</ele>
        <time>2023-08-20T07:57:56Z</time>
      </trkpt>
      <trkpt lat="46.52568" lon="0.3404">
        <ele>137.8</ele>
        <time>2023-08-20T07:57:57Z</time>
      </trkpt>
      <trkpt lat="46.52567" lon="0.34041">
        <ele>138</ele>
        <time>2023-08-20T07:57:58Z</time>
      </trkpt>
      <trkpt lat="46.52565" lon="0.34044">
        <ele>138.6</ele>
        <time>2023-08-20T07:58:01Z</time>
      </trkpt>
      <trkpt lat="46.52563" lon="0.34045">
        <ele>139</ele>
        <time>2023-08-20T07:58:02Z</time>
      </trkpt>
      <trkpt lat="46.52551" lon="0.34047">
        <ele>139.6</ele>
        <time>2023-08-20T07:58:07Z</time>
      </trkpt>
      <trkpt lat="46.52547" lon="0.34047">
        <ele>140.2</ele>
        <time>2023-08-20T07:58:09Z</time>
      </trkpt>
      <trkpt lat="46.52534" lon="0.34051">
        <ele>141.2</ele>
        <time>2023-08-20T07:58:13Z</time>
      </trkpt>
      <trkpt lat="46.52532" lon="0.34053">
        <ele>141.6</ele>
        <time>2023-08-20T07:58:14Z</time>
      </trkpt>
      <trkpt lat="46.52521" lon="0.34061">
        <ele>142.4</ele>
        <time>2023-08-20T07:58:18Z</time>
      </trkpt>
      <trkpt lat="46.52516" lon="0.34069">
        <ele>143.2</ele>
        <time>2023-08-20T07:58:21Z</time>
      </trkpt>
      <trkpt lat="46.52514" lon="0.34073">
        <ele>143.4</ele>
        <time>2023-08-20T07:58:22Z</time>
      </trkpt>
      <trkpt lat="46.52504" lon="0.34092">
        <ele>144.6</ele>
        <time>2023-08-20T07:58:27Z</time>
      </trkpt>
      <trkpt lat="46.525" lon="0.34097">
        <ele>144.8</ele>
        <time>2023-08-20T07:58:28Z</time>
      </trkpt>
      <trkpt lat="46.52493" lon="0.34109">
        <ele>146</ele>
        <time>2023-08-20T07:58:32Z</time>
      </trkpt>
      <trkpt lat="46.52489" lon="0.34116">
        <ele>146.8</ele>
        <time>2023-08-20T07:58:36Z</time>
      </trkpt>
      <trkpt lat="46.52487" lon="0.34121">
        <ele>147.2</ele>
        <time>2023-08-20T07:58:38Z</time>
      </trkpt>
      <trkpt lat="46.52482" lon="0.3413">
        <ele>148.4</ele>
        <time>2023-08-20T07:58:42Z</time>
      </trkpt>
      <trkpt lat="46.52479" lon="0.34136">
        <ele>149.2</ele>
        <time>2023-08-20T07:58:45Z</time>
      </trkpt>
      <trkpt lat="46.52478" lon="0.34139">
        <ele>149.8</ele>
        <time>2023-08-20T07:58:46Z</time>
      </trkpt>
      <trkpt lat="46.52474" lon="0.34145">
        <ele>150.4</ele>
        <time>2023-08-20T07:58:49Z</time>
      </trkpt>
      <trkpt lat="46.52472" lon="0.34149">
        <ele>150.8</ele>
        <time>2023-08-20T07:58:51Z</time>
      </trkpt>
      <trkpt lat="46.5247" lon="0.34154">
        <ele>151.2</ele>
        <time>2023-08-20T07:58:53Z</time>
      </trkpt>
      <trkpt lat="46.52466" lon="0.34163">
        <ele>152</ele>
        <time>2023-08-20T07:58:57Z</time>
      </trkpt>
      <trkpt lat="46.52462" lon="0.34172">
        <ele>152.6</ele>
        <time>2023-08-20T07:59:00Z</time>
      </trkpt>
      <trkpt lat="46.52458" lon="0.34182">
        <ele>153.2</ele>
        <time>2023-08-20T07:59:03Z</time>
      </trkpt>
      <trkpt lat="46.52451" lon="0.34199">
        <ele>154</ele>
        <time>2023-08-20T07:59:08Z</time>
      </trkpt>
      <trkpt lat="46.52449" lon="0.34207">
        <ele>154.4</ele>
        <time>2023-08-20T07:59:10Z</time>
      </trkpt>
      <trkpt lat="46.52443" lon="0.34228">
        <ele>154.8</ele>
        <time>2023-08-20T07:59:15Z</time>
      </trkpt>
      <trkpt lat="46.52437" lon="0.34249">
        <ele>155.4</ele>
        <time>2023-08-20T07:59:20Z</time>
      </trkpt>
      <trkpt lat="46.52432" lon="0.34254">
        <ele>155.4</ele>
        <time>2023-08-20T07:59:22Z</time>
      </trkpt>
      <trkpt lat="46.52417" lon="0.34265">
        <ele>155.2</ele>
        <time>2023-08-20T07:59:26Z</time>
      </trkpt>
      <trkpt lat="46.52407" lon="0.34269">
        <ele>154.2</ele>
        <time>2023-08-20T07:59:28Z</time>
      </trkpt>
      <trkpt lat="46.52399" lon="0.34273">
        <ele>152.2</ele>
        <time>2023-08-20T07:59:30Z</time>
      </trkpt>
      <trkpt lat="46.52394" lon="0.34275">
        <ele>151</ele>
        <time>2023-08-20T07:59:31Z</time>
      </trkpt>
      <trkpt lat="46.5239" lon="0.34277">
        <ele>150.2</ele>
        <time>2023-08-20T07:59:32Z</time>
      </trkpt>
      <trkpt lat="46.52385" lon="0.34281">
        <ele>149.8</ele>
        <time>2023-08-20T07:59:33Z</time>
      </trkpt>
      <trkpt lat="46.52371" lon="0.34288">
        <ele>148.4</ele>
        <time>2023-08-20T07:59:36Z</time>
      </trkpt>
      <trkpt lat="46.52356" lon="0.34289">
        <ele>147.6</ele>
        <time>2023-08-20T07:59:38Z</time>
      </trkpt>
      <trkpt lat="46.52347" lon="0.34291">
        <ele>147.2</ele>
        <time>2023-08-20T07:59:39Z</time>
      </trkpt>
      <trkpt lat="46.52335" lon="0.34291">
        <ele>146</ele>
        <time>2023-08-20T07:59:41Z</time>
      </trkpt>
      <trkpt lat="46.52326" lon="0.34295">
        <ele>145</ele>
        <time>2023-08-20T07:59:43Z</time>
      </trkpt>
      <trkpt lat="46.52317" lon="0.34304">
        <ele>143</ele>
        <time>2023-08-20T07:59:45Z</time>
      </trkpt>
      <trkpt lat="46.52306" lon="0.34315">
        <ele>141.8</ele>
        <time>2023-08-20T07:59:47Z</time>
      </trkpt>
      <trkpt lat="46.52287" lon="0.34326">
        <ele>140.4</ele>
        <time>2023-08-20T07:59:50Z</time>
      </trkpt>
      <trkpt lat="46.52273" lon="0.34331">
        <ele>139.4</ele>
        <time>2023-08-20T07:59:52Z</time>
      </trkpt>
      <trkpt lat="46.52255" lon="0.34337">
        <ele>138.4</ele>
        <time>2023-08-20T07:59:55Z</time>
      </trkpt>
      <trkpt lat="46.52249" lon="0.34337">
        <ele>138.2</ele>
        <time>2023-08-20T07:59:56Z</time>
      </trkpt>
      <trkpt lat="46.52229" lon="0.34334">
        <ele>137.4</ele>
        <time>2023-08-20T07:59:59Z</time>
      </trkpt>
      <trkpt lat="46.52207" lon="0.34329">
        <ele>137.2</ele>
        <time>2023-08-20T08:00:02Z</time>
      </trkpt>
      <trkpt lat="46.52194" lon="0.34326">
        <ele>137</ele>
        <time>2023-08-20T08:00:04Z</time>
      </trkpt>
      <trkpt lat="46.5218" lon="0.3432">
        <ele>137</ele>
        <time>2023-08-20T08:00:06Z</time>
      </trkpt>
      <trkpt lat="46.52165" lon="0.34313">
        <ele>137</ele>
        <time>2023-08-20T08:00:08Z</time>
      </trkpt>
      <trkpt lat="46.52153" lon="0.34308">
        <ele>136.8</ele>
        <time>2023-08-20T08:00:10Z</time>
      </trkpt>
      <trkpt lat="46.52144" lon="0.34308">
        <ele>136.8</ele>
        <time>2023-08-20T08:00:12Z</time>
      </trkpt>
      <trkpt lat="46.52127" lon="0.34305">
        <ele>138.8</ele>
        <time>2023-08-20T08:00:16Z</time>
      </trkpt>
      <trkpt lat="46.5211" lon="0.34306">
        <ele>139.2</ele>
        <time>2023-08-20T08:00:19Z</time>
      </trkpt>
      <trkpt lat="46.52095" lon="0.34312">
        <ele>139.2</ele>
        <time>2023-08-20T08:00:21Z</time>
      </trkpt>
      <trkpt lat="46.52056" lon="0.34326">
        <ele>138.4</ele>
        <time>2023-08-20T08:00:26Z</time>
      </trkpt>
      <trkpt lat="46.52032" lon="0.34337">
        <ele>137.6</ele>
        <time>2023-08-20T08:00:29Z</time>
      </trkpt>
      <trkpt lat="46.52015" lon="0.34345">
        <ele>136.6</ele>
        <time>2023-08-20T08:00:31Z</time>
      </trkpt>
      <trkpt lat="46.52007" lon="0.34349">
        <ele>136.4</ele>
        <time>2023-08-20T08:00:32Z</time>
      </trkpt>
      <trkpt lat="46.51983" lon="0.34363">
        <ele>135.6</ele>
        <time>2023-08-20T08:00:36Z</time>
      </trkpt>
      <trkpt lat="46.5197" lon="0.34371">
        <ele>137.6</ele>
        <time>2023-08-20T08:00:39Z</time>
      </trkpt>
      <trkpt lat="46.51967" lon="0.34373">
        <ele>138.2</ele>
        <time>2023-08-20T08:00:40Z</time>
      </trkpt>
      <trkpt lat="46.51964" lon="0.34376">
        <ele>138.6</ele>
        <time>2023-08-20T08:00:41Z</time>
      </trkpt>
      <trkpt lat="46.51958" lon="0.3438">
        <ele>139.8</ele>
        <time>2023-08-20T08:00:43Z</time>
      </trkpt>
      <trkpt lat="46.51953" lon="0.34384">
        <ele>141.2</ele>
        <time>2023-08-20T08:00:45Z</time>
      </trkpt>
      <trkpt lat="46.5195" lon="0.34385">
        <ele>141.4</ele>
        <time>2023-08-20T08:00:46Z</time>
      </trkpt>
      <trkpt lat="46.51943" lon="0.34394">
        <ele>142.4</ele>
        <time>2023-08-20T08:00:50Z</time>
      </trkpt>
      <trkpt lat="46.51939" lon="0.34398">
        <ele>143.2</ele>
        <time>2023-08-20T08:00:52Z</time>
      </trkpt>
      <trkpt lat="46.51935" lon="0.34402">
        <ele>143.8</ele>
        <time>2023-08-20T08:00:54Z</time>
      </trkpt>
      <trkpt lat="46.51926" lon="0.34408">
        <ele>144.8</ele>
        <time>2023-08-20T08:00:58Z</time>
      </trkpt>
      <trkpt lat="46.51923" lon="0.34412">
        <ele>145.4</ele>
        <time>2023-08-20T08:01:00Z</time>
      </trkpt>
      <trkpt lat="46.51919" lon="0.34415">
        <ele>146</ele>
        <time>2023-08-20T08:01:02Z</time>
      </trkpt>
      <trkpt lat="46.51911" lon="0.3442">
        <ele>147</ele>
        <time>2023-08-20T08:01:06Z</time>
      </trkpt>
      <trkpt lat="46.51908" lon="0.34424">
        <ele>147.4</ele>
        <time>2023-08-20T08:01:08Z</time>
      </trkpt>
      <trkpt lat="46.51902" lon="0.34427">
        <ele>148.2</ele>
        <time>2023-08-20T08:01:11Z</time>
      </trkpt>
      <trkpt lat="46.51894" lon="0.34432">
        <ele>149.4</ele>
        <time>2023-08-20T08:01:16Z</time>
      </trkpt>
      <trkpt lat="46.51888" lon="0.34435">
        <ele>150.4</ele>
        <time>2023-08-20T08:01:19Z</time>
      </trkpt>
      <trkpt lat="46.51882" lon="0.34439">
        <ele>151</ele>
        <time>2023-08-20T08:01:23Z</time>
      </trkpt>
      <trkpt lat="46.51878" lon="0.34442">
        <ele>151.6</ele>
        <time>2023-08-20T08:01:25Z</time>
      </trkpt>
      <trkpt lat="46.5187" lon="0.34451">
        <ele>152.6</ele>
        <time>2023-08-20T08:01:30Z</time>
      </trkpt>
      <trkpt lat="46.51868" lon="0.34453">
        <ele>152.8</ele>
        <time>2023-08-20T08:01:31Z</time>
      </trkpt>
      <trkpt lat="46.5186" lon="0.34462">
        <ele>154</ele>
        <time>2023-08-20T08:01:36Z</time>
      </trkpt>
      <trkpt lat="46.51856" lon="0.34466">
        <ele>154.6</ele>
        <time>2023-08-20T08:01:38Z</time>
      </trkpt>
      <trkpt lat="46.5185" lon="0.34469">
        <ele>155</ele>
        <time>2023-08-20T08:01:41Z</time>
      </trkpt>
      <trkpt lat="46.51845" lon="0.34475">
        <ele>155.8</ele>
        <time>2023-08-20T08:01:44Z</time>
      </trkpt>
      <trkpt lat="46.51844" lon="0.34476">
        <ele>156</ele>
        <time>2023-08-20T08:01:45Z</time>
      </trkpt>
      <trkpt lat="46.51835" lon="0.34488">
        <ele>157.4</ele>
        <time>2023-08-20T08:01:51Z</time>
      </trkpt>
      <trkpt lat="46.51834" lon="0.34489">
        <ele>157.6</ele>
        <time>2023-08-20T08:01:52Z</time>
      </trkpt>
      <trkpt lat="46.51824" lon="0.34496">
        <ele>158.4</ele>
        <time>2023-08-20T08:01:57Z</time>
      </trkpt>
      <trkpt lat="46.51819" lon="0.34503">
        <ele>159.6</ele>
        <time>2023-08-20T08:02:00Z</time>
      </trkpt>
      <trkpt lat="46.51804" lon="0.34517">
        <ele>160.6</ele>
        <time>2023-08-20T08:02:07Z</time>
      </trkpt>
      <trkpt lat="46.51802" lon="0.34518">
        <ele>161</ele>
        <time>2023-08-20T08:02:08Z</time>
      </trkpt>
      <trkpt lat="46.51794" lon="0.34526">
        <ele>161.8</ele>
        <time>2023-08-20T08:02:12Z</time>
      </trkpt>
      <trkpt lat="46.51785" lon="0.34532">
        <ele>162.4</ele>
        <time>2023-08-20T08:02:16Z</time>
      </trkpt>
      <trkpt lat="46.51779" lon="0.34537">
        <ele>163</ele>
        <time>2023-08-20T08:02:19Z</time>
      </trkpt>
      <trkpt lat="46.5177" lon="0.34546">
        <ele>163.6</ele>
        <time>2023-08-20T08:02:23Z</time>
      </trkpt>
      <trkpt lat="46.51766" lon="0.34551">
        <ele>164.4</ele>
        <time>2023-08-20T08:02:25Z</time>
      </trkpt>
      <trkpt lat="46.51756" lon="0.34559">
        <ele>165.4</ele>
        <time>2023-08-20T08:02:29Z</time>
      </trkpt>
      <trkpt lat="46.51729" lon="0.34581">
        <ele>166</ele>
        <time>2023-08-20T08:02:37Z</time>
      </trkpt>
      <trkpt lat="46.51706" lon="0.34599">
        <ele>166.2</ele>
        <time>2023-08-20T08:02:43Z</time>
      </trkpt>
      <trkpt lat="46.51697" lon="0.34606">
        <ele>166.2</ele>
        <time>2023-08-20T08:02:45Z</time>
      </trkpt>
      <trkpt lat="46.51666" lon="0.34632">
        <ele>165.8</ele>
        <time>2023-08-20T08:02:52Z</time>
      </trkpt>
      <trkpt lat="46.5164" lon="0.34662">
        <ele>165</ele>
        <time>2023-08-20T08:02:58Z</time>
      </trkpt>
      <trkpt lat="46.5161" lon="0.34704">
        <ele>164.8</ele>
        <time>2023-08-20T08:03:05Z</time>
      </trkpt>
      <trkpt lat="46.51581" lon="0.34738">
        <ele>164.8</ele>
        <time>2023-08-20T08:03:12Z</time>
      </trkpt>
      <trkpt lat="46.51558" lon="0.34765">
        <ele>165.6</ele>
        <time>2023-08-20T08:03:18Z</time>
      </trkpt>
      <trkpt lat="46.51551" lon="0.34774">
        <ele>165.8</ele>
        <time>2023-08-20T08:03:20Z</time>
      </trkpt>
      <trkpt lat="46.51538" lon="0.34797">
        <ele>166.2</ele>
        <time>2023-08-20T08:03:24Z</time>
      </trkpt>
      <trkpt lat="46.51517" lon="0.34834">
        <ele>166.2</ele>
        <time>2023-08-20T08:03:29Z</time>
      </trkpt>
      <trkpt lat="46.5149" lon="0.34874">
        <ele>164.4</ele>
        <time>2023-08-20T08:03:34Z</time>
      </trkpt>
      <trkpt lat="46.51479" lon="0.34888">
        <ele>163.6</ele>
        <time>2023-08-20T08:03:36Z</time>
      </trkpt>
      <trkpt lat="46.51468" lon="0.349">
        <ele>163.2</ele>
        <time>2023-08-20T08:03:38Z</time>
      </trkpt>
      <trkpt lat="46.51446" lon="0.34921">
        <ele>163</ele>
        <time>2023-08-20T08:03:42Z</time>
      </trkpt>
      <trkpt lat="46.51431" lon="0.34936">
        <ele>162.6</ele>
        <time>2023-08-20T08:03:46Z</time>
      </trkpt>
      <trkpt lat="46.51427" lon="0.3494">
        <ele>162.2</ele>
        <time>2023-08-20T08:03:49Z</time>
      </trkpt>
      <trkpt lat="46.51426" lon="0.34941">
        <ele>162</ele>
        <time>2023-08-20T08:03:50Z</time>
      </trkpt>
      <trkpt lat="46.51426" lon="0.34942">
        <ele>161.8</ele>
        <time>2023-08-20T08:03:51Z</time>
      </trkpt>
      <trkpt lat="46.51422" lon="0.34951">
        <ele>161.4</ele>
        <time>2023-08-20T08:03:56Z</time>
      </trkpt>
      <trkpt lat="46.51412" lon="0.34968">
        <ele>161.2</ele>
        <time>2023-08-20T08:03:59Z</time>
      </trkpt>
      <trkpt lat="46.514" lon="0.34986">
        <ele>160.2</ele>
        <time>2023-08-20T08:04:03Z</time>
      </trkpt>
      <trkpt lat="46.51391" lon="0.34997">
        <ele>160.2</ele>
        <time>2023-08-20T08:04:05Z</time>
      </trkpt>
      <trkpt lat="46.51381" lon="0.35006">
        <ele>160.6</ele>
        <time>2023-08-20T08:04:07Z</time>
      </trkpt>
      <trkpt lat="46.51371" lon="0.35013">
        <ele>161.4</ele>
        <time>2023-08-20T08:04:09Z</time>
      </trkpt>
      <trkpt lat="46.51363" lon="0.35017">
        <ele>162.2</ele>
        <time>2023-08-20T08:04:11Z</time>
      </trkpt>
      <trkpt lat="46.5136" lon="0.35019">
        <ele>162.4</ele>
        <time>2023-08-20T08:04:12Z</time>
      </trkpt>
      <trkpt lat="46.51352" lon="0.35022">
        <ele>163.2</ele>
        <time>2023-08-20T08:04:14Z</time>
      </trkpt>
      <trkpt lat="46.51345" lon="0.35026">
        <ele>163.6</ele>
        <time>2023-08-20T08:04:16Z</time>
      </trkpt>
      <trkpt lat="46.51332" lon="0.35029">
        <ele>164.6</ele>
        <time>2023-08-20T08:04:20Z</time>
      </trkpt>
      <trkpt lat="46.5131" lon="0.35026">
        <ele>165</ele>
        <time>2023-08-20T08:04:26Z</time>
      </trkpt>
      <trkpt lat="46.51297" lon="0.35026">
        <ele>164.8</ele>
        <time>2023-08-20T08:04:29Z</time>
      </trkpt>
      <trkpt lat="46.51288" lon="0.35025">
        <ele>164.6</ele>
        <time>2023-08-20T08:04:31Z</time>
      </trkpt>
      <trkpt lat="46.51282" lon="0.35027">
        <ele>164</ele>
        <time>2023-08-20T08:04:32Z</time>
      </trkpt>
      <trkpt lat="46.51271" lon="0.35025">
        <ele>163.2</ele>
        <time>2023-08-20T08:04:34Z</time>
      </trkpt>
      <trkpt lat="46.51261" lon="0.35025">
        <ele>162.8</ele>
        <time>2023-08-20T08:04:36Z</time>
      </trkpt>
      <trkpt lat="46.51256" lon="0.35026">
        <ele>162.4</ele>
        <time>2023-08-20T08:04:37Z</time>
      </trkpt>
      <trkpt lat="46.51253" lon="0.35029">
        <ele>162.2</ele>
        <time>2023-08-20T08:04:38Z</time>
      </trkpt>
      <trkpt lat="46.51253" lon="0.35034">
        <ele>162.2</ele>
        <time>2023-08-20T08:04:39Z</time>
      </trkpt>
      <trkpt lat="46.51253" lon="0.35038">
        <ele>162</ele>
        <time>2023-08-20T08:04:40Z</time>
      </trkpt>
      <trkpt lat="46.51255" lon="0.35059">
        <ele>163.2</ele>
        <time>2023-08-20T08:04:45Z</time>
      </trkpt>
      <trkpt lat="46.51256" lon="0.35064">
        <ele>163.6</ele>
        <time>2023-08-20T08:04:46Z</time>
      </trkpt>
      <trkpt lat="46.51256" lon="0.35073">
        <ele>164.6</ele>
        <time>2023-08-20T08:04:48Z</time>
      </trkpt>
      <trkpt lat="46.51258" lon="0.35082">
        <ele>165.8</ele>
        <time>2023-08-20T08:04:50Z</time>
      </trkpt>
      <trkpt lat="46.51262" lon="0.35096">
        <ele>167.2</ele>
        <time>2023-08-20T08:04:53Z</time>
      </trkpt>
      <trkpt lat="46.51265" lon="0.35119">
        <ele>168.4</ele>
        <time>2023-08-20T08:04:57Z</time>
      </trkpt>
      <trkpt lat="46.51267" lon="0.35136">
        <ele>169</ele>
        <time>2023-08-20T08:05:00Z</time>
      </trkpt>
      <trkpt lat="46.51271" lon="0.35159">
        <ele>169.4</ele>
        <time>2023-08-20T08:05:04Z</time>
      </trkpt>
      <trkpt lat="46.51274" lon="0.35184">
        <ele>169.6</ele>
        <time>2023-08-20T08:05:08Z</time>
      </trkpt>
      <trkpt lat="46.51278" lon="0.35208">
        <ele>170.4</ele>
        <time>2023-08-20T08:05:12Z</time>
      </trkpt>
      <trkpt lat="46.51278" lon="0.35231">
        <ele>170.6</ele>
        <time>2023-08-20T08:05:15Z</time>
      </trkpt>
      <trkpt lat="46.51278" lon="0.35238">
        <ele>170.8</ele>
        <time>2023-08-20T08:05:16Z</time>
      </trkpt>
      <trkpt lat="46.5128" lon="0.35263">
        <ele>171</ele>
        <time>2023-08-20T08:05:21Z</time>
      </trkpt>
      <trkpt lat="46.51278" lon="0.3528">
        <ele>171.4</ele>
        <time>2023-08-20T08:05:25Z</time>
      </trkpt>
      <trkpt lat="46.51279" lon="0.35284">
        <ele>171.6</ele>
        <time>2023-08-20T08:05:26Z</time>
      </trkpt>
      <trkpt lat="46.51279" lon="0.35289">
        <ele>171.8</ele>
        <time>2023-08-20T08:05:28Z</time>
      </trkpt>
      <trkpt lat="46.51277" lon="0.35291">
        <ele>171.8</ele>
        <time>2023-08-20T08:05:29Z</time>
      </trkpt>
      <trkpt lat="46.51269" lon="0.35283">
        <ele>171.8</ele>
        <time>2023-08-20T08:05:33Z</time>
      </trkpt>
      <trkpt lat="46.51263" lon="0.35278">
        <ele>171.8</ele>
        <time>2023-08-20T08:05:35Z</time>
      </trkpt>
      <trkpt lat="46.51253" lon="0.35275">
        <ele>171.6</ele>
        <time>2023-08-20T08:05:37Z</time>
      </trkpt>
      <trkpt lat="46.51221" lon="0.35272">
        <ele>171.4</ele>
        <time>2023-08-20T08:05:43Z</time>
      </trkpt>
      <trkpt lat="46.51211" lon="0.35271">
        <ele>171.4</ele>
        <time>2023-08-20T08:05:45Z</time>
      </trkpt>
      <trkpt lat="46.51202" lon="0.35276">
        <ele>171.4</ele>
        <time>2023-08-20T08:05:47Z</time>
      </trkpt>
      <trkpt lat="46.512" lon="0.35284">
        <ele>171.4</ele>
        <time>2023-08-20T08:05:49Z</time>
      </trkpt>
      <trkpt lat="46.51199" lon="0.35288">
        <ele>171.6</ele>
        <time>2023-08-20T08:05:50Z</time>
      </trkpt>
      <trkpt lat="46.51198" lon="0.35297">
        <ele>172</ele>
        <time>2023-08-20T08:05:55Z</time>
      </trkpt>
      <trkpt lat="46.51196" lon="0.35317">
        <ele>172.6</ele>
        <time>2023-08-20T08:06:00Z</time>
      </trkpt>
      <trkpt lat="46.51196" lon="0.35335">
        <ele>173.4</ele>
        <time>2023-08-20T08:06:03Z</time>
      </trkpt>
      <trkpt lat="46.51195" lon="0.35346">
        <ele>174.2</ele>
        <time>2023-08-20T08:06:05Z</time>
      </trkpt>
      <trkpt lat="46.51189" lon="0.35373">
        <ele>175</ele>
        <time>2023-08-20T08:06:10Z</time>
      </trkpt>
      <trkpt lat="46.51189" lon="0.35373">
        <ele>175.6</ele>
        <time>2023-08-20T08:06:11Z</time>
      </trkpt>
      <trkpt lat="46.51187" lon="0.35388">
        <ele>175.6</ele>
        <time>2023-08-20T08:06:12Z</time>
      </trkpt>
      <trkpt lat="46.51189" lon="0.35402">
        <ele>176.2</ele>
        <time>2023-08-20T08:06:14Z</time>
      </trkpt>
      <trkpt lat="46.51192" lon="0.35415">
        <ele>176.8</ele>
        <time>2023-08-20T08:06:16Z</time>
      </trkpt>
      <trkpt lat="46.51201" lon="0.3544">
        <ele>177.4</ele>
        <time>2023-08-20T08:06:20Z</time>
      </trkpt>
      <trkpt lat="46.51209" lon="0.35459">
        <ele>177.8</ele>
        <time>2023-08-20T08:06:23Z</time>
      </trkpt>
      <trkpt lat="46.5121" lon="0.35464">
        <ele>178</ele>
        <time>2023-08-20T08:06:24Z</time>
      </trkpt>
      <trkpt lat="46.51209" lon="0.3547">
        <ele>178</ele>
        <time>2023-08-20T08:06:25Z</time>
      </trkpt>
      <trkpt lat="46.51207" lon="0.35483">
        <ele>178</ele>
        <time>2023-08-20T08:06:27Z</time>
      </trkpt>
      <trkpt lat="46.51205" lon="0.35495">
        <ele>178</ele>
        <time>2023-08-20T08:06:29Z</time>
      </trkpt>
      <trkpt lat="46.51201" lon="0.35508">
        <ele>178</ele>
        <time>2023-08-20T08:06:31Z</time>
      </trkpt>
      <trkpt lat="46.51195" lon="0.35526">
        <ele>178</ele>
        <time>2023-08-20T08:06:34Z</time>
      </trkpt>
      <trkpt lat="46.51196" lon="0.35537">
        <ele>178</ele>
        <time>2023-08-20T08:06:36Z</time>
      </trkpt>
      <trkpt lat="46.51206" lon="0.35551">
        <ele>178.2</ele>
        <time>2023-08-20T08:06:39Z</time>
      </trkpt>
      <trkpt lat="46.5121" lon="0.35556">
        <ele>178.4</ele>
        <time>2023-08-20T08:06:40Z</time>
      </trkpt>
      <trkpt lat="46.51212" lon="0.35563">
        <ele>178.6</ele>
        <time>2023-08-20T08:06:41Z</time>
      </trkpt>
      <trkpt lat="46.5122" lon="0.35591">
        <ele>178.8</ele>
        <time>2023-08-20T08:06:45Z</time>
      </trkpt>
      <trkpt lat="46.51225" lon="0.35604">
        <ele>179</ele>
        <time>2023-08-20T08:06:47Z</time>
      </trkpt>
      <trkpt lat="46.51231" lon="0.35614">
        <ele>179</ele>
        <time>2023-08-20T08:06:49Z</time>
      </trkpt>
      <trkpt lat="46.51235" lon="0.35616">
        <ele>179</ele>
        <time>2023-08-20T08:06:50Z</time>
      </trkpt>
      <trkpt lat="46.51239" lon="0.35616">
        <ele>179.4</ele>
        <time>2023-08-20T08:06:51Z</time>
      </trkpt>
      <trkpt lat="46.51248" lon="0.35613">
        <ele>179.6</ele>
        <time>2023-08-20T08:06:53Z</time>
      </trkpt>
      <trkpt lat="46.51282" lon="0.35594">
        <ele>179.2</ele>
        <time>2023-08-20T08:07:00Z</time>
      </trkpt>
      <trkpt lat="46.51297" lon="0.35586">
        <ele>179</ele>
        <time>2023-08-20T08:07:03Z</time>
      </trkpt>
      <trkpt lat="46.51305" lon="0.35585">
        <ele>178.6</ele>
        <time>2023-08-20T08:07:05Z</time>
      </trkpt>
      <trkpt lat="46.51316" lon="0.35585">
        <ele>178.6</ele>
        <time>2023-08-20T08:07:09Z</time>
      </trkpt>
      <trkpt lat="46.51331" lon="0.35588">
        <ele>178.2</ele>
        <time>2023-08-20T08:07:13Z</time>
      </trkpt>
      <trkpt lat="46.51335" lon="0.35593">
        <ele>178</ele>
        <time>2023-08-20T08:07:15Z</time>
      </trkpt>
      <trkpt lat="46.51336" lon="0.35598">
        <ele>178</ele>
        <time>2023-08-20T08:07:16Z</time>
      </trkpt>
      <trkpt lat="46.51337" lon="0.35603">
        <ele>177.8</ele>
        <time>2023-08-20T08:07:17Z</time>
      </trkpt>
      <trkpt lat="46.5134" lon="0.35615">
        <ele>178</ele>
        <time>2023-08-20T08:07:19Z</time>
      </trkpt>
      <trkpt lat="46.51345" lon="0.3563">
        <ele>178</ele>
        <time>2023-08-20T08:07:21Z</time>
      </trkpt>
      <trkpt lat="46.51347" lon="0.35646">
        <ele>178.2</ele>
        <time>2023-08-20T08:07:23Z</time>
      </trkpt>
      <trkpt lat="46.51349" lon="0.35664">
        <ele>178.6</ele>
        <time>2023-08-20T08:07:25Z</time>
      </trkpt>
      <trkpt lat="46.51351" lon="0.35681">
        <ele>179</ele>
        <time>2023-08-20T08:07:27Z</time>
      </trkpt>
      <trkpt lat="46.51358" lon="0.3574">
        <ele>179.6</ele>
        <time>2023-08-20T08:07:34Z</time>
      </trkpt>
      <trkpt lat="46.51361" lon="0.35766">
        <ele>179.4</ele>
        <time>2023-08-20T08:07:37Z</time>
      </trkpt>
      <trkpt lat="46.5136" lon="0.35783">
        <ele>179.4</ele>
        <time>2023-08-20T08:07:39Z</time>
      </trkpt>
      <trkpt lat="46.51358" lon="0.35791">
        <ele>179.4</ele>
        <time>2023-08-20T08:07:40Z</time>
      </trkpt>
      <trkpt lat="46.51355" lon="0.35806">
        <ele>179.2</ele>
        <time>2023-08-20T08:07:42Z</time>
      </trkpt>
      <trkpt lat="46.51355" lon="0.35827">
        <ele>178.8</ele>
        <time>2023-08-20T08:07:45Z</time>
      </trkpt>
      <trkpt lat="46.51356" lon="0.3585">
        <ele>178</ele>
        <time>2023-08-20T08:07:50Z</time>
      </trkpt>
      <trkpt lat="46.51359" lon="0.35875">
        <ele>178</ele>
        <time>2023-08-20T08:07:54Z</time>
      </trkpt>
      <trkpt lat="46.51365" lon="0.35919">
        <ele>177</ele>
        <time>2023-08-20T08:07:59Z</time>
      </trkpt>
      <trkpt lat="46.51372" lon="0.35954">
        <ele>176.4</ele>
        <time>2023-08-20T08:08:03Z</time>
      </trkpt>
      <trkpt lat="46.51375" lon="0.35971">
        <ele>176.4</ele>
        <time>2023-08-20T08:08:05Z</time>
      </trkpt>
      <trkpt lat="46.51379" lon="0.36002">
        <ele>175.8</ele>
        <time>2023-08-20T08:08:09Z</time>
      </trkpt>
      <trkpt lat="46.51381" lon="0.36017">
        <ele>175.6</ele>
        <time>2023-08-20T08:08:11Z</time>
      </trkpt>
      <trkpt lat="46.51385" lon="0.36053">
        <ele>174.4</ele>
        <time>2023-08-20T08:08:15Z</time>
      </trkpt>
      <trkpt lat="46.51391" lon="0.3609">
        <ele>173.4</ele>
        <time>2023-08-20T08:08:19Z</time>
      </trkpt>
      <trkpt lat="46.51398" lon="0.36122">
        <ele>172</ele>
        <time>2023-08-20T08:08:22Z</time>
      </trkpt>
      <trkpt lat="46.51403" lon="0.36145">
        <ele>171</ele>
        <time>2023-08-20T08:08:24Z</time>
      </trkpt>
      <trkpt lat="46.51406" lon="0.36157">
        <ele>170.8</ele>
        <time>2023-08-20T08:08:25Z</time>
      </trkpt>
      <trkpt lat="46.5141" lon="0.3618">
        <ele>169.6</ele>
        <time>2023-08-20T08:08:27Z</time>
      </trkpt>
      <trkpt lat="46.51413" lon="0.36202">
        <ele>168.4</ele>
        <time>2023-08-20T08:08:29Z</time>
      </trkpt>
      <trkpt lat="46.51415" lon="0.36212">
        <ele>168</ele>
        <time>2023-08-20T08:08:30Z</time>
      </trkpt>
      <trkpt lat="46.51419" lon="0.36232">
        <ele>167.4</ele>
        <time>2023-08-20T08:08:32Z</time>
      </trkpt>
      <trkpt lat="46.51428" lon="0.36278">
        <ele>166.4</ele>
        <time>2023-08-20T08:08:36Z</time>
      </trkpt>
      <trkpt lat="46.51434" lon="0.36329">
        <ele>165</ele>
        <time>2023-08-20T08:08:40Z</time>
      </trkpt>
      <trkpt lat="46.51433" lon="0.36343">
        <ele>164.6</ele>
        <time>2023-08-20T08:08:41Z</time>
      </trkpt>
      <trkpt lat="46.51433" lon="0.36373">
        <ele>164</ele>
        <time>2023-08-20T08:08:43Z</time>
      </trkpt>
      <trkpt lat="46.5143" lon="0.36402">
        <ele>163.2</ele>
        <time>2023-08-20T08:08:45Z</time>
      </trkpt>
      <trkpt lat="46.51428" lon="0.36417">
        <ele>161.6</ele>
        <time>2023-08-20T08:08:46Z</time>
      </trkpt>
      <trkpt lat="46.51422" lon="0.36447">
        <ele>160.4</ele>
        <time>2023-08-20T08:08:48Z</time>
      </trkpt>
      <trkpt lat="46.51411" lon="0.36495">
        <ele>159.4</ele>
        <time>2023-08-20T08:08:51Z</time>
      </trkpt>
      <trkpt lat="46.51398" lon="0.36542">
        <ele>158.2</ele>
        <time>2023-08-20T08:08:54Z</time>
      </trkpt>
      <trkpt lat="46.51389" lon="0.36574">
        <ele>156.2</ele>
        <time>2023-08-20T08:08:56Z</time>
      </trkpt>
      <trkpt lat="46.51385" lon="0.36589">
        <ele>155.4</ele>
        <time>2023-08-20T08:08:57Z</time>
      </trkpt>
      <trkpt lat="46.51381" lon="0.36603">
        <ele>154.6</ele>
        <time>2023-08-20T08:08:58Z</time>
      </trkpt>
      <trkpt lat="46.51376" lon="0.36627">
        <ele>152.8</ele>
        <time>2023-08-20T08:09:00Z</time>
      </trkpt>
      <trkpt lat="46.51377" lon="0.36638">
        <ele>151.8</ele>
        <time>2023-08-20T08:09:01Z</time>
      </trkpt>
      <trkpt lat="46.51379" lon="0.36648">
        <ele>151.2</ele>
        <time>2023-08-20T08:09:02Z</time>
      </trkpt>
      <trkpt lat="46.51382" lon="0.36658">
        <ele>151</ele>
        <time>2023-08-20T08:09:03Z</time>
      </trkpt>
      <trkpt lat="46.51391" lon="0.36673">
        <ele>150.6</ele>
        <time>2023-08-20T08:09:05Z</time>
      </trkpt>
      <trkpt lat="46.51397" lon="0.3668">
        <ele>150.4</ele>
        <time>2023-08-20T08:09:06Z</time>
      </trkpt>
      <trkpt lat="46.51403" lon="0.36687">
        <ele>150</ele>
        <time>2023-08-20T08:09:07Z</time>
      </trkpt>
      <trkpt lat="46.51424" lon="0.3671">
        <ele>149.6</ele>
        <time>2023-08-20T08:09:11Z</time>
      </trkpt>
      <trkpt lat="46.5144" lon="0.36732">
        <ele>148.8</ele>
        <time>2023-08-20T08:09:15Z</time>
      </trkpt>
      <trkpt lat="46.51443" lon="0.36736">
        <ele>148.6</ele>
        <time>2023-08-20T08:09:16Z</time>
      </trkpt>
      <trkpt lat="46.51453" lon="0.36751">
        <ele>148.2</ele>
        <time>2023-08-20T08:09:19Z</time>
      </trkpt>
      <trkpt lat="46.51458" lon="0.36765">
        <ele>148</ele>
        <time>2023-08-20T08:09:21Z</time>
      </trkpt>
      <trkpt lat="46.5146" lon="0.36772">
        <ele>148</ele>
        <time>2023-08-20T08:09:22Z</time>
      </trkpt>
      <trkpt lat="46.51463" lon="0.36787">
        <ele>147.8</ele>
        <time>2023-08-20T08:09:24Z</time>
      </trkpt>
      <trkpt lat="46.51464" lon="0.36795">
        <ele>147.8</ele>
        <time>2023-08-20T08:09:25Z</time>
      </trkpt>
      <trkpt lat="46.5147" lon="0.36812">
        <ele>147.4</ele>
        <time>2023-08-20T08:09:27Z</time>
      </trkpt>
      <trkpt lat="46.51469" lon="0.36828">
        <ele>147.2</ele>
        <time>2023-08-20T08:09:29Z</time>
      </trkpt>
      <trkpt lat="46.51468" lon="0.36833">
        <ele>147</ele>
        <time>2023-08-20T08:09:30Z</time>
      </trkpt>
      <trkpt lat="46.51467" lon="0.36837">
        <ele>147</ele>
        <time>2023-08-20T08:09:31Z</time>
      </trkpt>
      <trkpt lat="46.51463" lon="0.3685">
        <ele>147.8</ele>
        <time>2023-08-20T08:09:35Z</time>
      </trkpt>
      <trkpt lat="46.51462" lon="0.3686">
        <ele>148.8</ele>
        <time>2023-08-20T08:09:39Z</time>
      </trkpt>
      <trkpt lat="46.51462" lon="0.36866">
        <ele>149.4</ele>
        <time>2023-08-20T08:09:41Z</time>
      </trkpt>
      <trkpt lat="46.51461" lon="0.36867">
        <ele>149.6</ele>
        <time>2023-08-20T08:09:42Z</time>
      </trkpt>
      <trkpt lat="46.5146" lon="0.36873">
        <ele>150</ele>
        <time>2023-08-20T08:09:45Z</time>
      </trkpt>
      <trkpt lat="46.5146" lon="0.36874">
        <ele>150</ele>
        <time>2023-08-20T08:09:46Z</time>
      </trkpt>
      <trkpt lat="46.51459" lon="0.36874">
        <ele>150.4</ele>
        <time>2023-08-20T08:09:47Z</time>
      </trkpt>
      <trkpt lat="46.51458" lon="0.36874">
        <ele>151</ele>
        <time>2023-08-20T08:09:49Z</time>
      </trkpt>
      <trkpt lat="46.51457" lon="0.36875">
        <ele>151.6</ele>
        <time>2023-08-20T08:09:51Z</time>
      </trkpt>
      <trkpt lat="46.51457" lon="0.3688">
        <ele>152.4</ele>
        <time>2023-08-20T08:09:53Z</time>
      </trkpt>
      <trkpt lat="46.51457" lon="0.3688">
        <ele>153.2</ele>
        <time>2023-08-20T08:09:54Z</time>
      </trkpt>
      <trkpt lat="46.51457" lon="0.3688">
        <ele>153.2</ele>
        <time>2023-08-20T08:09:55Z</time>
      </trkpt>
      <trkpt lat="46.51457" lon="0.3688">
        <ele>153.6</ele>
        <time>2023-08-20T08:09:56Z</time>
      </trkpt>
      <trkpt lat="46.51454" lon="0.36876">
        <ele>154.2</ele>
        <time>2023-08-20T08:10:00Z</time>
      </trkpt>
      <trkpt lat="46.51453" lon="0.36875">
        <ele>154.2</ele>
        <time>2023-08-20T08:10:01Z</time>
      </trkpt>
      <trkpt lat="46.51449" lon="0.36873">
        <ele>154.8</ele>
        <time>2023-08-20T08:10:04Z</time>
      </trkpt>
      <trkpt lat="46.51447" lon="0.36873">
        <ele>155.2</ele>
        <time>2023-08-20T08:10:05Z</time>
      </trkpt>
      <trkpt lat="46.51441" lon="0.3687">
        <ele>155.8</ele>
        <time>2023-08-20T08:10:08Z</time>
      </trkpt>
      <trkpt lat="46.5144" lon="0.36869">
        <ele>156</ele>
        <time>2023-08-20T08:10:09Z</time>
      </trkpt>
      <trkpt lat="46.51435" lon="0.36869">
        <ele>157</ele>
        <time>2023-08-20T08:10:13Z</time>
      </trkpt>
      <trkpt lat="46.51431" lon="0.36866">
        <ele>157.6</ele>
        <time>2023-08-20T08:10:15Z</time>
      </trkpt>
      <trkpt lat="46.5143" lon="0.36865">
        <ele>157.8</ele>
        <time>2023-08-20T08:10:16Z</time>
      </trkpt>
      <trkpt lat="46.51429" lon="0.36865">
        <ele>158.2</ele>
        <time>2023-08-20T08:10:17Z</time>
      </trkpt>
      <trkpt lat="46.51428" lon="0.36864">
        <ele>158.4</ele>
        <time>2023-08-20T08:10:18Z</time>
      </trkpt>
      <trkpt lat="46.51426" lon="0.36864">
        <ele>159</ele>
        <time>2023-08-20T08:10:21Z</time>
      </trkpt>
      <trkpt lat="46.51425" lon="0.36862">
        <ele>159.2</ele>
        <time>2023-08-20T08:10:22Z</time>
      </trkpt>
      <trkpt lat="46.51422" lon="0.3686">
        <ele>159.6</ele>
        <time>2023-08-20T08:10:25Z</time>
      </trkpt>
      <trkpt lat="46.5142" lon="0.36858">
        <ele>160</ele>
        <time>2023-08-20T08:10:27Z</time>
      </trkpt>
      <trkpt lat="46.51419" lon="0.36856">
        <ele>160.4</ele>
        <time>2023-08-20T08:10:28Z</time>
      </trkpt>
      <trkpt lat="46.51417" lon="0.36855">
        <ele>160.6</ele>
        <time>2023-08-20T08:10:29Z</time>
      </trkpt>
      <trkpt lat="46.51412" lon="0.36854">
        <ele>161.2</ele>
        <time>2023-08-20T08:10:31Z</time>
      </trkpt>
      <trkpt lat="46.5141" lon="0.36854">
        <ele>161.4</ele>
        <time>2023-08-20T08:10:32Z</time>
      </trkpt>
      <trkpt lat="46.51409" lon="0.36854">
        <ele>161.6</ele>
        <time>2023-08-20T08:10:33Z</time>
      </trkpt>
      <trkpt lat="46.51408" lon="0.36855">
        <ele>161.8</ele>
        <time>2023-08-20T08:10:34Z</time>
      </trkpt>
      <trkpt lat="46.51406" lon="0.36854">
        <ele>162.4</ele>
        <time>2023-08-20T08:10:36Z</time>
      </trkpt>
      <trkpt lat="46.51403" lon="0.36856">
        <ele>163.2</ele>
        <time>2023-08-20T08:10:39Z</time>
      </trkpt>
      <trkpt lat="46.51401" lon="0.36855">
        <ele>163.4</ele>
        <time>2023-08-20T08:10:40Z</time>
      </trkpt>
      <trkpt lat="46.51386" lon="0.36849">
        <ele>164</ele>
        <time>2023-08-20T08:10:46Z</time>
      </trkpt>
      <trkpt lat="46.51385" lon="0.36849">
        <ele>164.2</ele>
        <time>2023-08-20T08:10:47Z</time>
      </trkpt>
      <trkpt lat="46.51382" lon="0.36847">
        <ele>164.6</ele>
        <time>2023-08-20T08:10:49Z</time>
      </trkpt>
      <trkpt lat="46.51381" lon="0.36846">
        <ele>165</ele>
        <time>2023-08-20T08:10:50Z</time>
      </trkpt>
      <trkpt lat="46.51375" lon="0.36844">
        <ele>165.6</ele>
        <time>2023-08-20T08:10:53Z</time>
      </trkpt>
      <trkpt lat="46.51375" lon="0.36844">
        <ele>165.8</ele>
        <time>2023-08-20T08:10:54Z</time>
      </trkpt>
      <trkpt lat="46.51368" lon="0.3684">
        <ele>166</ele>
        <time>2023-08-20T08:10:57Z</time>
      </trkpt>
      <trkpt lat="46.5136" lon="0.36836">
        <ele>166.2</ele>
        <time>2023-08-20T08:11:00Z</time>
      </trkpt>
      <trkpt lat="46.51352" lon="0.36834">
        <ele>167</ele>
        <time>2023-08-20T08:11:04Z</time>
      </trkpt>
      <trkpt lat="46.5135" lon="0.36833">
        <ele>167.4</ele>
        <time>2023-08-20T08:11:06Z</time>
      </trkpt>
      <trkpt lat="46.51348" lon="0.36832">
        <ele>167.6</ele>
        <time>2023-08-20T08:11:07Z</time>
      </trkpt>
      <trkpt lat="46.51345" lon="0.36829">
        <ele>168.2</ele>
        <time>2023-08-20T08:11:09Z</time>
      </trkpt>
      <trkpt lat="46.51337" lon="0.36823">
        <ele>168.6</ele>
        <time>2023-08-20T08:11:13Z</time>
      </trkpt>
      <trkpt lat="46.51332" lon="0.36821">
        <ele>169.4</ele>
        <time>2023-08-20T08:11:16Z</time>
      </trkpt>
      <trkpt lat="46.51328" lon="0.36817">
        <ele>169.6</ele>
        <time>2023-08-20T08:11:18Z</time>
      </trkpt>
      <trkpt lat="46.51324" lon="0.36817">
        <ele>169.8</ele>
        <time>2023-08-20T08:11:20Z</time>
      </trkpt>
      <trkpt lat="46.51316" lon="0.36818">
        <ele>170.4</ele>
        <time>2023-08-20T08:11:24Z</time>
      </trkpt>
      <trkpt lat="46.51311" lon="0.36818">
        <ele>171.2</ele>
        <time>2023-08-20T08:11:27Z</time>
      </trkpt>
      <trkpt lat="46.51305" lon="0.3682">
        <ele>171.6</ele>
        <time>2023-08-20T08:11:30Z</time>
      </trkpt>
      <trkpt lat="46.51299" lon="0.3682">
        <ele>172</ele>
        <time>2023-08-20T08:11:33Z</time>
      </trkpt>
      <trkpt lat="46.51288" lon="0.36816">
        <ele>172.8</ele>
        <time>2023-08-20T08:11:37Z</time>
      </trkpt>
      <trkpt lat="46.51284" lon="0.36815">
        <ele>173</ele>
        <time>2023-08-20T08:11:39Z</time>
      </trkpt>
      <trkpt lat="46.51281" lon="0.36814">
        <ele>173</ele>
        <time>2023-08-20T08:11:41Z</time>
      </trkpt>
      <trkpt lat="46.51273" lon="0.36813">
        <ele>173.4</ele>
        <time>2023-08-20T08:11:44Z</time>
      </trkpt>
      <trkpt lat="46.5126" lon="0.36814">
        <ele>173.8</ele>
        <time>2023-08-20T08:11:50Z</time>
      </trkpt>
      <trkpt lat="46.51256" lon="0.36815">
        <ele>173.8</ele>
        <time>2023-08-20T08:11:51Z</time>
      </trkpt>
      <trkpt lat="46.51242" lon="0.36816">
        <ele>173.8</ele>
        <time>2023-08-20T08:11:57Z</time>
      </trkpt>
      <trkpt lat="46.51224" lon="0.36818">
        <ele>174.4</ele>
        <time>2023-08-20T08:12:03Z</time>
      </trkpt>
      <trkpt lat="46.51222" lon="0.36819">
        <ele>174.4</ele>
        <time>2023-08-20T08:12:04Z</time>
      </trkpt>
      <trkpt lat="46.51211" lon="0.36817">
        <ele>174.6</ele>
        <time>2023-08-20T08:12:08Z</time>
      </trkpt>
      <trkpt lat="46.51198" lon="0.36817">
        <ele>174.8</ele>
        <time>2023-08-20T08:12:13Z</time>
      </trkpt>
      <trkpt lat="46.51192" lon="0.36819">
        <ele>174.8</ele>
        <time>2023-08-20T08:12:15Z</time>
      </trkpt>
      <trkpt lat="46.51174" lon="0.36831">
        <ele>175.8</ele>
        <time>2023-08-20T08:12:21Z</time>
      </trkpt>
      <trkpt lat="46.51171" lon="0.36832">
        <ele>176</ele>
        <time>2023-08-20T08:12:22Z</time>
      </trkpt>
      <trkpt lat="46.51154" lon="0.36837">
        <ele>176</ele>
        <time>2023-08-20T08:12:27Z</time>
      </trkpt>
      <trkpt lat="46.51139" lon="0.36858">
        <ele>176.8</ele>
        <time>2023-08-20T08:12:34Z</time>
      </trkpt>
      <trkpt lat="46.51138" lon="0.36861">
        <ele>177</ele>
        <time>2023-08-20T08:12:35Z</time>
      </trkpt>
      <trkpt lat="46.51133" lon="0.36872">
        <ele>177.8</ele>
        <time>2023-08-20T08:12:38Z</time>
      </trkpt>
      <trkpt lat="46.51129" lon="0.36883">
        <ele>177.8</ele>
        <time>2023-08-20T08:12:41Z</time>
      </trkpt>
      <trkpt lat="46.5112" lon="0.36889">
        <ele>177.8</ele>
        <time>2023-08-20T08:12:45Z</time>
      </trkpt>
      <trkpt lat="46.51109" lon="0.36895">
        <ele>177.8</ele>
        <time>2023-08-20T08:12:50Z</time>
      </trkpt>
      <trkpt lat="46.51101" lon="0.36909">
        <ele>177.8</ele>
        <time>2023-08-20T08:12:55Z</time>
      </trkpt>
      <trkpt lat="46.51098" lon="0.36918">
        <ele>178.2</ele>
        <time>2023-08-20T08:12:57Z</time>
      </trkpt>
      <trkpt lat="46.51097" lon="0.36927">
        <ele>178.4</ele>
        <time>2023-08-20T08:12:59Z</time>
      </trkpt>
      <trkpt lat="46.51096" lon="0.3693">
        <ele>178.6</ele>
        <time>2023-08-20T08:13:00Z</time>
      </trkpt>
      <trkpt lat="46.51093" lon="0.36934">
        <ele>178.6</ele>
        <time>2023-08-20T08:13:01Z</time>
      </trkpt>
      <trkpt lat="46.5109" lon="0.36936">
        <ele>178.8</ele>
        <time>2023-08-20T08:13:02Z</time>
      </trkpt>
      <trkpt lat="46.51083" lon="0.36938">
        <ele>178.8</ele>
        <time>2023-08-20T08:13:04Z</time>
      </trkpt>
      <trkpt lat="46.51069" lon="0.36944">
        <ele>179</ele>
        <time>2023-08-20T08:13:07Z</time>
      </trkpt>
      <trkpt lat="46.51062" lon="0.36951">
        <ele>179.2</ele>
        <time>2023-08-20T08:13:09Z</time>
      </trkpt>
      <trkpt lat="46.51042" lon="0.36966">
        <ele>179.6</ele>
        <time>2023-08-20T08:13:14Z</time>
      </trkpt>
      <trkpt lat="46.51037" lon="0.36968">
        <ele>179.6</ele>
        <time>2023-08-20T08:13:15Z</time>
      </trkpt>
      <trkpt lat="46.5103" lon="0.36972">
        <ele>179.6</ele>
        <time>2023-08-20T08:13:17Z</time>
      </trkpt>
      <trkpt lat="46.51027" lon="0.36978">
        <ele>179.4</ele>
        <time>2023-08-20T08:13:19Z</time>
      </trkpt>
      <trkpt lat="46.51028" lon="0.36993">
        <ele>179.4</ele>
        <time>2023-08-20T08:13:24Z</time>
      </trkpt>
      <trkpt lat="46.51035" lon="0.37012">
        <ele>179.4</ele>
        <time>2023-08-20T08:13:30Z</time>
      </trkpt>
      <trkpt lat="46.51036" lon="0.37017">
        <ele>179.4</ele>
        <time>2023-08-20T08:13:31Z</time>
      </trkpt>
      <trkpt lat="46.51037" lon="0.37022">
        <ele>179.4</ele>
        <time>2023-08-20T08:13:32Z</time>
      </trkpt>
      <trkpt lat="46.51042" lon="0.37028">
        <ele>179.6</ele>
        <time>2023-08-20T08:13:34Z</time>
      </trkpt>
      <trkpt lat="46.51044" lon="0.37031">
        <ele>179.6</ele>
        <time>2023-08-20T08:13:35Z</time>
      </trkpt>
      <trkpt lat="46.51054" lon="0.3704">
        <ele>179.4</ele>
        <time>2023-08-20T08:13:39Z</time>
      </trkpt>
      <trkpt lat="46.51062" lon="0.37045">
        <ele>179.4</ele>
        <time>2023-08-20T08:13:41Z</time>
      </trkpt>
      <trkpt lat="46.51069" lon="0.37043">
        <ele>179</ele>
        <time>2023-08-20T08:13:43Z</time>
      </trkpt>
      <trkpt lat="46.51074" lon="0.37041">
        <ele>178.8</ele>
        <time>2023-08-20T08:13:45Z</time>
      </trkpt>
      <trkpt lat="46.51085" lon="0.3704">
        <ele>178.6</ele>
        <time>2023-08-20T08:13:48Z</time>
      </trkpt>
      <trkpt lat="46.51091" lon="0.37043">
        <ele>178.6</ele>
        <time>2023-08-20T08:13:50Z</time>
      </trkpt>
      <trkpt lat="46.51103" lon="0.37048">
        <ele>178.4</ele>
        <time>2023-08-20T08:13:53Z</time>
      </trkpt>
      <trkpt lat="46.51107" lon="0.37051">
        <ele>178.4</ele>
        <time>2023-08-20T08:13:54Z</time>
      </trkpt>
      <trkpt lat="46.5111" lon="0.37054">
        <ele>178.4</ele>
        <time>2023-08-20T08:13:55Z</time>
      </trkpt>
      <trkpt lat="46.51117" lon="0.37064">
        <ele>178</ele>
        <time>2023-08-20T08:13:58Z</time>
      </trkpt>
      <trkpt lat="46.51122" lon="0.3707">
        <ele>177.8</ele>
        <time>2023-08-20T08:14:01Z</time>
      </trkpt>
      <trkpt lat="46.51125" lon="0.37073">
        <ele>177.6</ele>
        <time>2023-08-20T08:14:03Z</time>
      </trkpt>
      <trkpt lat="46.51132" lon="0.37085">
        <ele>177.4</ele>
        <time>2023-08-20T08:14:16Z</time>
      </trkpt>
      <trkpt lat="46.51132" lon="0.37085">
        <ele>177.6</ele>
        <time>2023-08-20T08:14:20Z</time>
      </trkpt>
      <trkpt lat="46.51134" lon="0.37084">
        <ele>177.4</ele>
        <time>2023-08-20T08:14:24Z</time>
      </trkpt>
      <trkpt lat="46.51136" lon="0.37085">
        <ele>177.4</ele>
        <time>2023-08-20T08:14:27Z</time>
      </trkpt>
      <trkpt lat="46.51139" lon="0.37084">
        <ele>177.4</ele>
        <time>2023-08-20T08:14:31Z</time>
      </trkpt>
      <trkpt lat="46.51148" lon="0.3708">
        <ele>177</ele>
        <time>2023-08-20T08:14:35Z</time>
      </trkpt>
      <trkpt lat="46.51167" lon="0.37068">
        <ele>176.6</ele>
        <time>2023-08-20T08:14:42Z</time>
      </trkpt>
      <trkpt lat="46.51173" lon="0.37064">
        <ele>176</ele>
        <time>2023-08-20T08:14:44Z</time>
      </trkpt>
      <trkpt lat="46.51176" lon="0.37061">
        <ele>175.6</ele>
        <time>2023-08-20T08:14:45Z</time>
      </trkpt>
      <trkpt lat="46.51183" lon="0.37056">
        <ele>175</ele>
        <time>2023-08-20T08:14:47Z</time>
      </trkpt>
      <trkpt lat="46.51185" lon="0.37053">
        <ele>174.8</ele>
        <time>2023-08-20T08:14:48Z</time>
      </trkpt>
      <trkpt lat="46.51187" lon="0.37051">
        <ele>174.4</ele>
        <time>2023-08-20T08:14:49Z</time>
      </trkpt>
      <trkpt lat="46.51187" lon="0.37048">
        <ele>173.8</ele>
        <time>2023-08-20T08:14:51Z</time>
      </trkpt>
      <trkpt lat="46.51188" lon="0.37047">
        <ele>173.6</ele>
        <time>2023-08-20T08:14:52Z</time>
      </trkpt>
      <trkpt lat="46.51188" lon="0.37045">
        <ele>173.4</ele>
        <time>2023-08-20T08:14:53Z</time>
      </trkpt>
      <trkpt lat="46.5119" lon="0.37044">
        <ele>173.6</ele>
        <time>2023-08-20T08:14:57Z</time>
      </trkpt>
      <trkpt lat="46.51191" lon="0.37043">
        <ele>173.8</ele>
        <time>2023-08-20T08:14:58Z</time>
      </trkpt>
      <trkpt lat="46.51188" lon="0.37035">
        <ele>174.2</ele>
        <time>2023-08-20T08:15:03Z</time>
      </trkpt>
      <trkpt lat="46.51189" lon="0.37022">
        <ele>174.8</ele>
        <time>2023-08-20T08:15:08Z</time>
      </trkpt>
      <trkpt lat="46.51201" lon="0.37012">
        <ele>174.6</ele>
        <time>2023-08-20T08:15:13Z</time>
      </trkpt>
      <trkpt lat="46.51212" lon="0.3701">
        <ele>174.6</ele>
        <time>2023-08-20T08:15:16Z</time>
      </trkpt>
      <trkpt lat="46.51218" lon="0.37005">
        <ele>174.4</ele>
        <time>2023-08-20T08:15:18Z</time>
      </trkpt>
      <trkpt lat="46.51228" lon="0.36997">
        <ele>174.2</ele>
        <time>2023-08-20T08:15:21Z</time>
      </trkpt>
      <trkpt lat="46.51233" lon="0.3699">
        <ele>174</ele>
        <time>2023-08-20T08:15:23Z</time>
      </trkpt>
      <trkpt lat="46.51237" lon="0.36987">
        <ele>173.8</ele>
        <time>2023-08-20T08:15:24Z</time>
      </trkpt>
      <trkpt lat="46.51241" lon="0.36986">
        <ele>173.8</ele>
        <time>2023-08-20T08:15:25Z</time>
      </trkpt>
      <trkpt lat="46.51254" lon="0.36979">
        <ele>173.6</ele>
        <time>2023-08-20T08:15:28Z</time>
      </trkpt>
      <trkpt lat="46.51258" lon="0.36976">
        <ele>173.6</ele>
        <time>2023-08-20T08:15:29Z</time>
      </trkpt>
      <trkpt lat="46.51261" lon="0.36974">
        <ele>173.4</ele>
        <time>2023-08-20T08:15:30Z</time>
      </trkpt>
      <trkpt lat="46.51267" lon="0.36974">
        <ele>172.8</ele>
        <time>2023-08-20T08:15:32Z</time>
      </trkpt>
      <trkpt lat="46.51272" lon="0.36977">
        <ele>172.2</ele>
        <time>2023-08-20T08:15:33Z</time>
      </trkpt>
      <trkpt lat="46.51276" lon="0.36978">
        <ele>172</ele>
        <time>2023-08-20T08:15:34Z</time>
      </trkpt>
      <trkpt lat="46.51287" lon="0.36983">
        <ele>171.6</ele>
        <time>2023-08-20T08:15:36Z</time>
      </trkpt>
      <trkpt lat="46.51293" lon="0.36983">
        <ele>171.6</ele>
        <time>2023-08-20T08:15:37Z</time>
      </trkpt>
      <trkpt lat="46.51297" lon="0.36983">
        <ele>171</ele>
        <time>2023-08-20T08:15:38Z</time>
      </trkpt>
      <trkpt lat="46.51302" lon="0.36984">
        <ele>170.6</ele>
        <time>2023-08-20T08:15:39Z</time>
      </trkpt>
      <trkpt lat="46.5131" lon="0.36986">
        <ele>170.4</ele>
        <time>2023-08-20T08:15:40Z</time>
      </trkpt>
      <trkpt lat="46.51315" lon="0.36988">
        <ele>169.6</ele>
        <time>2023-08-20T08:15:41Z</time>
      </trkpt>
      <trkpt lat="46.51326" lon="0.36993">
        <ele>168.6</ele>
        <time>2023-08-20T08:15:43Z</time>
      </trkpt>
      <trkpt lat="46.51337" lon="0.36999">
        <ele>167.6</ele>
        <time>2023-08-20T08:15:45Z</time>
      </trkpt>
      <trkpt lat="46.51342" lon="0.37002">
        <ele>167</ele>
        <time>2023-08-20T08:15:46Z</time>
      </trkpt>
      <trkpt lat="46.51347" lon="0.37005">
        <ele>166.2</ele>
        <time>2023-08-20T08:15:47Z</time>
      </trkpt>
      <trkpt lat="46.51351" lon="0.37007">
        <ele>165.4</ele>
        <time>2023-08-20T08:15:48Z</time>
      </trkpt>
      <trkpt lat="46.51357" lon="0.37009">
        <ele>163.6</ele>
        <time>2023-08-20T08:15:50Z</time>
      </trkpt>
      <trkpt lat="46.51363" lon="0.37014">
        <ele>162.6</ele>
        <time>2023-08-20T08:15:52Z</time>
      </trkpt>
      <trkpt lat="46.51368" lon="0.37017">
        <ele>162.2</ele>
        <time>2023-08-20T08:15:53Z</time>
      </trkpt>
      <trkpt lat="46.51372" lon="0.3702">
        <ele>162</ele>
        <time>2023-08-20T08:15:54Z</time>
      </trkpt>
      <trkpt lat="46.51377" lon="0.37023">
        <ele>161</ele>
        <time>2023-08-20T08:15:55Z</time>
      </trkpt>
      <trkpt lat="46.51383" lon="0.37026">
        <ele>160.6</ele>
        <time>2023-08-20T08:15:56Z</time>
      </trkpt>
      <trkpt lat="46.51387" lon="0.3703">
        <ele>160</ele>
        <time>2023-08-20T08:15:57Z</time>
      </trkpt>
      <trkpt lat="46.51393" lon="0.37035">
        <ele>158.6</ele>
        <time>2023-08-20T08:15:58Z</time>
      </trkpt>
      <trkpt lat="46.51398" lon="0.37037">
        <ele>157.2</ele>
        <time>2023-08-20T08:15:59Z</time>
      </trkpt>
      <trkpt lat="46.51398" lon="0.37037">
        <ele>155</ele>
        <time>2023-08-20T08:16:00Z</time>
      </trkpt>
      <trkpt lat="46.51407" lon="0.37038">
        <ele>155</ele>
        <time>2023-08-20T08:16:01Z</time>
      </trkpt>
      <trkpt lat="46.51411" lon="0.37035">
        <ele>153.8</ele>
        <time>2023-08-20T08:16:03Z</time>
      </trkpt>
      <trkpt lat="46.51416" lon="0.37031">
        <ele>153.4</ele>
        <time>2023-08-20T08:16:05Z</time>
      </trkpt>
      <trkpt lat="46.51422" lon="0.37025">
        <ele>152.6</ele>
        <time>2023-08-20T08:16:07Z</time>
      </trkpt>
      <trkpt lat="46.51425" lon="0.37022">
        <ele>152.4</ele>
        <time>2023-08-20T08:16:08Z</time>
      </trkpt>
      <trkpt lat="46.51431" lon="0.37015">
        <ele>152.2</ele>
        <time>2023-08-20T08:16:10Z</time>
      </trkpt>
      <trkpt lat="46.51435" lon="0.37">
        <ele>151.8</ele>
        <time>2023-08-20T08:16:13Z</time>
      </trkpt>
      <trkpt lat="46.51436" lon="0.36996">
        <ele>151.6</ele>
        <time>2023-08-20T08:16:14Z</time>
      </trkpt>
      <trkpt lat="46.51442" lon="0.36992">
        <ele>151</ele>
        <time>2023-08-20T08:16:16Z</time>
      </trkpt>
      <trkpt lat="46.51446" lon="0.36989">
        <ele>150.2</ele>
        <time>2023-08-20T08:16:18Z</time>
      </trkpt>
      <trkpt lat="46.51447" lon="0.36986">
        <ele>149</ele>
        <time>2023-08-20T08:16:19Z</time>
      </trkpt>
      <trkpt lat="46.51448" lon="0.36979">
        <ele>147.6</ele>
        <time>2023-08-20T08:16:21Z</time>
      </trkpt>
      <trkpt lat="46.51449" lon="0.36977">
        <ele>147.2</ele>
        <time>2023-08-20T08:16:22Z</time>
      </trkpt>
      <trkpt lat="46.51452" lon="0.36977">
        <ele>146.4</ele>
        <time>2023-08-20T08:16:24Z</time>
      </trkpt>
      <trkpt lat="46.51456" lon="0.36981">
        <ele>145.4</ele>
        <time>2023-08-20T08:16:26Z</time>
      </trkpt>
      <trkpt lat="46.51458" lon="0.36985">
        <ele>145.2</ele>
        <time>2023-08-20T08:16:27Z</time>
      </trkpt>
      <trkpt lat="46.5146" lon="0.36994">
        <ele>144.6</ele>
        <time>2023-08-20T08:16:29Z</time>
      </trkpt>
      <trkpt lat="46.51463" lon="0.37003">
        <ele>144.8</ele>
        <time>2023-08-20T08:16:31Z</time>
      </trkpt>
      <trkpt lat="46.51469" lon="0.37016">
        <ele>145.2</ele>
        <time>2023-08-20T08:16:34Z</time>
      </trkpt>
      <trkpt lat="46.51473" lon="0.37028">
        <ele>145.6</ele>
        <time>2023-08-20T08:16:37Z</time>
      </trkpt>
      <trkpt lat="46.51474" lon="0.37031">
        <ele>145.4</ele>
        <time>2023-08-20T08:16:38Z</time>
      </trkpt>
      <trkpt lat="46.51476" lon="0.37034">
        <ele>145.2</ele>
        <time>2023-08-20T08:16:39Z</time>
      </trkpt>
      <trkpt lat="46.51483" lon="0.37043">
        <ele>145</ele>
        <time>2023-08-20T08:16:42Z</time>
      </trkpt>
      <trkpt lat="46.51484" lon="0.37045">
        <ele>145</ele>
        <time>2023-08-20T08:16:43Z</time>
      </trkpt>
      <trkpt lat="46.51488" lon="0.37057">
        <ele>144.6</ele>
        <time>2023-08-20T08:16:48Z</time>
      </trkpt>
      <trkpt lat="46.51493" lon="0.37069">
        <ele>144.8</ele>
        <time>2023-08-20T08:16:51Z</time>
      </trkpt>
      <trkpt lat="46.51492" lon="0.37072">
        <ele>145</ele>
        <time>2023-08-20T08:16:52Z</time>
      </trkpt>
      <trkpt lat="46.5149" lon="0.37078">
        <ele>146.2</ele>
        <time>2023-08-20T08:16:55Z</time>
      </trkpt>
      <trkpt lat="46.51489" lon="0.3708">
        <ele>146.8</ele>
        <time>2023-08-20T08:16:56Z</time>
      </trkpt>
      <trkpt lat="46.51488" lon="0.37083">
        <ele>147.4</ele>
        <time>2023-08-20T08:16:58Z</time>
      </trkpt>
      <trkpt lat="46.51485" lon="0.37088">
        <ele>148.4</ele>
        <time>2023-08-20T08:17:02Z</time>
      </trkpt>
      <trkpt lat="46.51484" lon="0.3709">
        <ele>149.6</ele>
        <time>2023-08-20T08:17:04Z</time>
      </trkpt>
      <trkpt lat="46.51478" lon="0.37093">
        <ele>150.6</ele>
        <time>2023-08-20T08:17:09Z</time>
      </trkpt>
      <trkpt lat="46.51475" lon="0.37093">
        <ele>151.2</ele>
        <time>2023-08-20T08:17:11Z</time>
      </trkpt>
      <trkpt lat="46.51473" lon="0.37094">
        <ele>151.6</ele>
        <time>2023-08-20T08:17:12Z</time>
      </trkpt>
      <trkpt lat="46.51469" lon="0.37097">
        <ele>152.6</ele>
        <time>2023-08-20T08:17:15Z</time>
      </trkpt>
      <trkpt lat="46.51468" lon="0.37098">
        <ele>152.8</ele>
        <time>2023-08-20T08:17:16Z</time>
      </trkpt>
      <trkpt lat="46.51461" lon="0.37102">
        <ele>154</ele>
        <time>2023-08-20T08:17:21Z</time>
      </trkpt>
      <trkpt lat="46.51458" lon="0.37105">
        <ele>154.4</ele>
        <time>2023-08-20T08:17:23Z</time>
      </trkpt>
      <trkpt lat="46.51456" lon="0.37107">
        <ele>155</ele>
        <time>2023-08-20T08:17:25Z</time>
      </trkpt>
      <trkpt lat="46.51454" lon="0.37108">
        <ele>155.4</ele>
        <time>2023-08-20T08:17:26Z</time>
      </trkpt>
      <trkpt lat="46.51451" lon="0.37112">
        <ele>156.6</ele>
        <time>2023-08-20T08:17:30Z</time>
      </trkpt>
      <trkpt lat="46.51447" lon="0.37116">
        <ele>157.6</ele>
        <time>2023-08-20T08:17:34Z</time>
      </trkpt>
      <trkpt lat="46.51446" lon="0.37121">
        <ele>158.2</ele>
        <time>2023-08-20T08:17:37Z</time>
      </trkpt>
      <trkpt lat="46.51445" lon="0.37127">
        <ele>158.8</ele>
        <time>2023-08-20T08:17:40Z</time>
      </trkpt>
      <trkpt lat="46.51444" lon="0.3714">
        <ele>159.6</ele>
        <time>2023-08-20T08:17:45Z</time>
      </trkpt>
      <trkpt lat="46.51442" lon="0.3715">
        <ele>159.8</ele>
        <time>2023-08-20T08:17:48Z</time>
      </trkpt>
      <trkpt lat="46.51437" lon="0.37164">
        <ele>160.8</ele>
        <time>2023-08-20T08:17:53Z</time>
      </trkpt>
      <trkpt lat="46.51436" lon="0.37167">
        <ele>161.2</ele>
        <time>2023-08-20T08:17:54Z</time>
      </trkpt>
      <trkpt lat="46.51436" lon="0.37179">
        <ele>161.8</ele>
        <time>2023-08-20T08:17:59Z</time>
      </trkpt>
      <trkpt lat="46.51437" lon="0.3718">
        <ele>162.2</ele>
        <time>2023-08-20T08:18:00Z</time>
      </trkpt>
      <trkpt lat="46.51449" lon="0.37176">
        <ele>162.2</ele>
        <time>2023-08-20T08:18:04Z</time>
      </trkpt>
      <trkpt lat="46.51463" lon="0.37173">
        <ele>160.8</ele>
        <time>2023-08-20T08:18:07Z</time>
      </trkpt>
      <trkpt lat="46.51467" lon="0.37173">
        <ele>159.8</ele>
        <time>2023-08-20T08:18:08Z</time>
      </trkpt>
      <trkpt lat="46.5147" lon="0.3717">
        <ele>159.2</ele>
        <time>2023-08-20T08:18:09Z</time>
      </trkpt>
      <trkpt lat="46.51479" lon="0.37165">
        <ele>157</ele>
        <time>2023-08-20T08:18:11Z</time>
      </trkpt>
      <trkpt lat="46.51482" lon="0.37162">
        <ele>155.6</ele>
        <time>2023-08-20T08:18:12Z</time>
      </trkpt>
      <trkpt lat="46.51488" lon="0.37155">
        <ele>154.2</ele>
        <time>2023-08-20T08:18:14Z</time>
      </trkpt>
      <trkpt lat="46.51489" lon="0.37152">
        <ele>153</ele>
        <time>2023-08-20T08:18:15Z</time>
      </trkpt>
      <trkpt lat="46.5149" lon="0.3715">
        <ele>152</ele>
        <time>2023-08-20T08:18:16Z</time>
      </trkpt>
      <trkpt lat="46.5149" lon="0.37149">
        <ele>151</ele>
        <time>2023-08-20T08:18:17Z</time>
      </trkpt>
      <trkpt lat="46.51491" lon="0.3715">
        <ele>148.4</ele>
        <time>2023-08-20T08:18:18Z</time>
      </trkpt>
      <trkpt lat="46.51499" lon="0.37154">
        <ele>147</ele>
        <time>2023-08-20T08:18:21Z</time>
      </trkpt>
      <trkpt lat="46.51508" lon="0.37162">
        <ele>144.6</ele>
        <time>2023-08-20T08:18:23Z</time>
      </trkpt>
      <trkpt lat="46.51511" lon="0.37165">
        <ele>142.8</ele>
        <time>2023-08-20T08:18:24Z</time>
      </trkpt>
      <trkpt lat="46.51513" lon="0.37169">
        <ele>141.8</ele>
        <time>2023-08-20T08:18:25Z</time>
      </trkpt>
      <trkpt lat="46.51514" lon="0.37173">
        <ele>141</ele>
        <time>2023-08-20T08:18:26Z</time>
      </trkpt>
      <trkpt lat="46.51516" lon="0.3718">
        <ele>140</ele>
        <time>2023-08-20T08:18:28Z</time>
      </trkpt>
      <trkpt lat="46.51517" lon="0.37182">
        <ele>139.8</ele>
        <time>2023-08-20T08:18:29Z</time>
      </trkpt>
      <trkpt lat="46.51521" lon="0.37187">
        <ele>139.4</ele>
        <time>2023-08-20T08:18:32Z</time>
      </trkpt>
      <trkpt lat="46.51523" lon="0.37188">
        <ele>139.4</ele>
        <time>2023-08-20T08:18:33Z</time>
      </trkpt>
      <trkpt lat="46.51524" lon="0.37189">
        <ele>139.2</ele>
        <time>2023-08-20T08:18:34Z</time>
      </trkpt>
      <trkpt lat="46.51527" lon="0.37194">
        <ele>139.2</ele>
        <time>2023-08-20T08:18:37Z</time>
      </trkpt>
      <trkpt lat="46.51532" lon="0.37203">
        <ele>139</ele>
        <time>2023-08-20T08:18:44Z</time>
      </trkpt>
      <trkpt lat="46.51534" lon="0.37207">
        <ele>138.8</ele>
        <time>2023-08-20T08:18:51Z</time>
      </trkpt>
      <trkpt lat="46.51534" lon="0.37208">
        <ele>138.8</ele>
        <time>2023-08-20T08:18:54Z</time>
      </trkpt>
      <trkpt lat="46.51534" lon="0.37212">
        <ele>139</ele>
        <time>2023-08-20T08:19:02Z</time>
      </trkpt>
      <trkpt lat="46.51534" lon="0.37215">
        <ele>138.8</ele>
        <time>2023-08-20T08:19:04Z</time>
      </trkpt>
      <trkpt lat="46.51535" lon="0.37218">
        <ele>138.6</ele>
        <time>2023-08-20T08:19:06Z</time>
      </trkpt>
      <trkpt lat="46.51534" lon="0.3724">
        <ele>138.8</ele>
        <time>2023-08-20T08:19:18Z</time>
      </trkpt>
      <trkpt lat="46.51544" lon="0.37266">
        <ele>139.2</ele>
        <time>2023-08-20T08:19:27Z</time>
      </trkpt>
      <trkpt lat="46.51545" lon="0.37272">
        <ele>139</ele>
        <time>2023-08-20T08:19:29Z</time>
      </trkpt>
      <trkpt lat="46.51545" lon="0.37279">
        <ele>139.2</ele>
        <time>2023-08-20T08:19:32Z</time>
      </trkpt>
      <trkpt lat="46.51546" lon="0.37289">
        <ele>139.8</ele>
        <time>2023-08-20T08:19:36Z</time>
      </trkpt>
      <trkpt lat="46.51546" lon="0.37295">
        <ele>140.8</ele>
        <time>2023-08-20T08:19:39Z</time>
      </trkpt>
      <trkpt lat="46.51545" lon="0.37296">
        <ele>141</ele>
        <time>2023-08-20T08:19:40Z</time>
      </trkpt>
      <trkpt lat="46.51544" lon="0.37299">
        <ele>141.6</ele>
        <time>2023-08-20T08:19:42Z</time>
      </trkpt>
      <trkpt lat="46.51543" lon="0.373">
        <ele>142.2</ele>
        <time>2023-08-20T08:19:43Z</time>
      </trkpt>
      <trkpt lat="46.51542" lon="0.37302">
        <ele>143.4</ele>
        <time>2023-08-20T08:19:45Z</time>
      </trkpt>
      <trkpt lat="46.5154" lon="0.37304">
        <ele>144</ele>
        <time>2023-08-20T08:19:47Z</time>
      </trkpt>
      <trkpt lat="46.51539" lon="0.37305">
        <ele>144.4</ele>
        <time>2023-08-20T08:19:48Z</time>
      </trkpt>
      <trkpt lat="46.51539" lon="0.37308">
        <ele>145</ele>
        <time>2023-08-20T08:19:50Z</time>
      </trkpt>
      <trkpt lat="46.51538" lon="0.37309">
        <ele>145.2</ele>
        <time>2023-08-20T08:19:51Z</time>
      </trkpt>
      <trkpt lat="46.51538" lon="0.37311">
        <ele>145.8</ele>
        <time>2023-08-20T08:19:52Z</time>
      </trkpt>
      <trkpt lat="46.51538" lon="0.37313">
        <ele>146.4</ele>
        <time>2023-08-20T08:19:53Z</time>
      </trkpt>
      <trkpt lat="46.51536" lon="0.37316">
        <ele>147.2</ele>
        <time>2023-08-20T08:19:55Z</time>
      </trkpt>
      <trkpt lat="46.51535" lon="0.37321">
        <ele>147.8</ele>
        <time>2023-08-20T08:19:58Z</time>
      </trkpt>
      <trkpt lat="46.51534" lon="0.37322">
        <ele>148.2</ele>
        <time>2023-08-20T08:19:59Z</time>
      </trkpt>
      <trkpt lat="46.51534" lon="0.37322">
        <ele>148.6</ele>
        <time>2023-08-20T08:20:00Z</time>
      </trkpt>
      <trkpt lat="46.51532" lon="0.37325">
        <ele>149.2</ele>
        <time>2023-08-20T08:20:02Z</time>
      </trkpt>
      <trkpt lat="46.5153" lon="0.37327">
        <ele>149.8</ele>
        <time>2023-08-20T08:20:04Z</time>
      </trkpt>
      <trkpt lat="46.51529" lon="0.3733">
        <ele>150.2</ele>
        <time>2023-08-20T08:20:06Z</time>
      </trkpt>
      <trkpt lat="46.51528" lon="0.37332">
        <ele>150.4</ele>
        <time>2023-08-20T08:20:07Z</time>
      </trkpt>
      <trkpt lat="46.51528" lon="0.37334">
        <ele>150.8</ele>
        <time>2023-08-20T08:20:08Z</time>
      </trkpt>
      <trkpt lat="46.51526" lon="0.37337">
        <ele>151.6</ele>
        <time>2023-08-20T08:20:10Z</time>
      </trkpt>
      <trkpt lat="46.51525" lon="0.37337">
        <ele>151.8</ele>
        <time>2023-08-20T08:20:11Z</time>
      </trkpt>
      <trkpt lat="46.51522" lon="0.37342">
        <ele>152.8</ele>
        <time>2023-08-20T08:20:14Z</time>
      </trkpt>
      <trkpt lat="46.51521" lon="0.37343">
        <ele>153</ele>
        <time>2023-08-20T08:20:15Z</time>
      </trkpt>
      <trkpt lat="46.51519" lon="0.37347">
        <ele>154</ele>
        <time>2023-08-20T08:20:18Z</time>
      </trkpt>
      <trkpt lat="46.51518" lon="0.37347">
        <ele>154</ele>
        <time>2023-08-20T08:20:19Z</time>
      </trkpt>
      <trkpt lat="46.51513" lon="0.37349">
        <ele>155</ele>
        <time>2023-08-20T08:20:23Z</time>
      </trkpt>
      <trkpt lat="46.51512" lon="0.37349">
        <ele>155.4</ele>
        <time>2023-08-20T08:20:24Z</time>
      </trkpt>
      <trkpt lat="46.5151" lon="0.3735">
        <ele>155.8</ele>
        <time>2023-08-20T08:20:26Z</time>
      </trkpt>
      <trkpt lat="46.51507" lon="0.3735">
        <ele>156.2</ele>
        <time>2023-08-20T08:20:28Z</time>
      </trkpt>
      <trkpt lat="46.51503" lon="0.37353">
        <ele>156.8</ele>
        <time>2023-08-20T08:20:31Z</time>
      </trkpt>
      <trkpt lat="46.51501" lon="0.37352">
        <ele>157.2</ele>
        <time>2023-08-20T08:20:33Z</time>
      </trkpt>
      <trkpt lat="46.515" lon="0.37351">
        <ele>157.4</ele>
        <time>2023-08-20T08:20:34Z</time>
      </trkpt>
      <trkpt lat="46.51498" lon="0.37352">
        <ele>158.2</ele>
        <time>2023-08-20T08:20:38Z</time>
      </trkpt>
      <trkpt lat="46.51497" lon="0.37352">
        <ele>158.4</ele>
        <time>2023-08-20T08:20:39Z</time>
      </trkpt>
      <trkpt lat="46.51497" lon="0.37352">
        <ele>158.6</ele>
        <time>2023-08-20T08:20:40Z</time>
      </trkpt>
      <trkpt lat="46.51495" lon="0.37352">
        <ele>159.2</ele>
        <time>2023-08-20T08:20:43Z</time>
      </trkpt>
      <trkpt lat="46.51494" lon="0.37351">
        <ele>159.6</ele>
        <time>2023-08-20T08:20:44Z</time>
      </trkpt>
      <trkpt lat="46.51491" lon="0.3735">
        <ele>160</ele>
        <time>2023-08-20T08:20:47Z</time>
      </trkpt>
      <trkpt lat="46.5149" lon="0.3735">
        <ele>160.2</ele>
        <time>2023-08-20T08:20:48Z</time>
      </trkpt>
      <trkpt lat="46.51489" lon="0.3735">
        <ele>160.4</ele>
        <time>2023-08-20T08:20:49Z</time>
      </trkpt>
      <trkpt lat="46.51488" lon="0.37351">
        <ele>160.6</ele>
        <time>2023-08-20T08:20:50Z</time>
      </trkpt>
      <trkpt lat="46.51483" lon="0.3735">
        <ele>161.4</ele>
        <time>2023-08-20T08:20:56Z</time>
      </trkpt>
      <trkpt lat="46.51482" lon="0.3735">
        <ele>161.8</ele>
        <time>2023-08-20T08:20:57Z</time>
      </trkpt>
      <trkpt lat="46.5148" lon="0.3735">
        <ele>162.2</ele>
        <time>2023-08-20T08:20:59Z</time>
      </trkpt>
      <trkpt lat="46.51478" lon="0.3735">
        <ele>162.8</ele>
        <time>2023-08-20T08:21:01Z</time>
      </trkpt>
      <trkpt lat="46.51476" lon="0.37351">
        <ele>163.2</ele>
        <time>2023-08-20T08:21:04Z</time>
      </trkpt>
      <trkpt lat="46.51475" lon="0.37352">
        <ele>163.4</ele>
        <time>2023-08-20T08:21:05Z</time>
      </trkpt>
      <trkpt lat="46.51475" lon="0.37353">
        <ele>163.4</ele>
        <time>2023-08-20T08:21:06Z</time>
      </trkpt>
      <trkpt lat="46.51473" lon="0.37353">
        <ele>163.4</ele>
        <time>2023-08-20T08:21:09Z</time>
      </trkpt>
      <trkpt lat="46.51472" lon="0.37354">
        <ele>163.4</ele>
        <time>2023-08-20T08:21:12Z</time>
      </trkpt>
      <trkpt lat="46.51468" lon="0.37358">
        <ele>163.4</ele>
        <time>2023-08-20T08:21:18Z</time>
      </trkpt>
      <trkpt lat="46.51467" lon="0.37359">
        <ele>163.4</ele>
        <time>2023-08-20T08:21:20Z</time>
      </trkpt>
      <trkpt lat="46.51467" lon="0.3736">
        <ele>163.4</ele>
        <time>2023-08-20T08:21:21Z</time>
      </trkpt>
      <trkpt lat="46.51466" lon="0.37361">
        <ele>163.6</ele>
        <time>2023-08-20T08:21:22Z</time>
      </trkpt>
      <trkpt lat="46.51465" lon="0.37362">
        <ele>163.6</ele>
        <time>2023-08-20T08:21:24Z</time>
      </trkpt>
      <trkpt lat="46.51462" lon="0.37366">
        <ele>163.8</ele>
        <time>2023-08-20T08:21:28Z</time>
      </trkpt>
      <trkpt lat="46.51456" lon="0.37378">
        <ele>164.4</ele>
        <time>2023-08-20T08:21:37Z</time>
      </trkpt>
      <trkpt lat="46.51454" lon="0.37383">
        <ele>164.6</ele>
        <time>2023-08-20T08:21:42Z</time>
      </trkpt>
      <trkpt lat="46.51453" lon="0.37386">
        <ele>164.8</ele>
        <time>2023-08-20T08:21:44Z</time>
      </trkpt>
      <trkpt lat="46.51454" lon="0.37386">
        <ele>164.8</ele>
        <time>2023-08-20T08:21:45Z</time>
      </trkpt>
      <trkpt lat="46.51455" lon="0.37387">
        <ele>164.8</ele>
        <time>2023-08-20T08:21:46Z</time>
      </trkpt>
      <trkpt lat="46.51465" lon="0.37392">
        <ele>164.4</ele>
        <time>2023-08-20T08:21:54Z</time>
      </trkpt>
      <trkpt lat="46.51469" lon="0.37393">
        <ele>164.4</ele>
        <time>2023-08-20T08:21:56Z</time>
      </trkpt>
      <trkpt lat="46.5147" lon="0.3739">
        <ele>162.8</ele>
        <time>2023-08-20T08:21:58Z</time>
      </trkpt>
      <trkpt lat="46.5147" lon="0.37387">
        <ele>162</ele>
        <time>2023-08-20T08:21:59Z</time>
      </trkpt>
      <trkpt lat="46.51471" lon="0.37385">
        <ele>161.6</ele>
        <time>2023-08-20T08:22:00Z</time>
      </trkpt>
      <trkpt lat="46.51472" lon="0.37382">
        <ele>161.2</ele>
        <time>2023-08-20T08:22:01Z</time>
      </trkpt>
      <trkpt lat="46.51476" lon="0.37377">
        <ele>161</ele>
        <time>2023-08-20T08:22:03Z</time>
      </trkpt>
      <trkpt lat="46.51479" lon="0.37377">
        <ele>160</ele>
        <time>2023-08-20T08:22:04Z</time>
      </trkpt>
      <trkpt lat="46.51481" lon="0.37376">
        <ele>159</ele>
        <time>2023-08-20T08:22:05Z</time>
      </trkpt>
      <trkpt lat="46.51482" lon="0.37377">
        <ele>158.2</ele>
        <time>2023-08-20T08:22:06Z</time>
      </trkpt>
      <trkpt lat="46.51484" lon="0.37383">
        <ele>157</ele>
        <time>2023-08-20T08:22:09Z</time>
      </trkpt>
      <trkpt lat="46.51487" lon="0.3739">
        <ele>157.6</ele>
        <time>2023-08-20T08:22:12Z</time>
      </trkpt>
      <trkpt lat="46.5149" lon="0.37391">
        <ele>158.2</ele>
        <time>2023-08-20T08:22:14Z</time>
      </trkpt>
      <trkpt lat="46.51491" lon="0.3739">
        <ele>158.4</ele>
        <time>2023-08-20T08:22:16Z</time>
      </trkpt>
      <trkpt lat="46.51492" lon="0.37389">
        <ele>158.4</ele>
        <time>2023-08-20T08:22:17Z</time>
      </trkpt>
      <trkpt lat="46.51495" lon="0.37389">
        <ele>158.2</ele>
        <time>2023-08-20T08:22:19Z</time>
      </trkpt>
      <trkpt lat="46.515" lon="0.37391">
        <ele>157.6</ele>
        <time>2023-08-20T08:22:21Z</time>
      </trkpt>
      <trkpt lat="46.51501" lon="0.37392">
        <ele>157.6</ele>
        <time>2023-08-20T08:22:22Z</time>
      </trkpt>
      <trkpt lat="46.51505" lon="0.37403">
        <ele>157.4</ele>
        <time>2023-08-20T08:22:27Z</time>
      </trkpt>
      <trkpt lat="46.51506" lon="0.37405">
        <ele>158.2</ele>
        <time>2023-08-20T08:22:28Z</time>
      </trkpt>
      <trkpt lat="46.51515" lon="0.37415">
        <ele>159.4</ele>
        <time>2023-08-20T08:22:32Z</time>
      </trkpt>
      <trkpt lat="46.51519" lon="0.37419">
        <ele>159.4</ele>
        <time>2023-08-20T08:22:34Z</time>
      </trkpt>
      <trkpt lat="46.51524" lon="0.37432">
        <ele>160.6</ele>
        <time>2023-08-20T08:22:39Z</time>
      </trkpt>
      <trkpt lat="46.51526" lon="0.37439">
        <ele>161.8</ele>
        <time>2023-08-20T08:22:42Z</time>
      </trkpt>
      <trkpt lat="46.5153" lon="0.37444">
        <ele>162.4</ele>
        <time>2023-08-20T08:22:44Z</time>
      </trkpt>
      <trkpt lat="46.51533" lon="0.37447">
        <ele>162.8</ele>
        <time>2023-08-20T08:22:46Z</time>
      </trkpt>
      <trkpt lat="46.51535" lon="0.37452">
        <ele>162.8</ele>
        <time>2023-08-20T08:22:48Z</time>
      </trkpt>
      <trkpt lat="46.51534" lon="0.37455">
        <ele>162.8</ele>
        <time>2023-08-20T08:22:49Z</time>
      </trkpt>
      <trkpt lat="46.51533" lon="0.37458">
        <ele>162.8</ele>
        <time>2023-08-20T08:22:50Z</time>
      </trkpt>
      <trkpt lat="46.51531" lon="0.37461">
        <ele>163</ele>
        <time>2023-08-20T08:22:53Z</time>
      </trkpt>
      <trkpt lat="46.51529" lon="0.37463">
        <ele>163</ele>
        <time>2023-08-20T08:22:55Z</time>
      </trkpt>
      <trkpt lat="46.51527" lon="0.37469">
        <ele>163.2</ele>
        <time>2023-08-20T08:22:58Z</time>
      </trkpt>
      <trkpt lat="46.51526" lon="0.37472">
        <ele>163.4</ele>
        <time>2023-08-20T08:23:00Z</time>
      </trkpt>
      <trkpt lat="46.51524" lon="0.37474">
        <ele>163.8</ele>
        <time>2023-08-20T08:23:02Z</time>
      </trkpt>
      <trkpt lat="46.51522" lon="0.37477">
        <ele>164</ele>
        <time>2023-08-20T08:23:04Z</time>
      </trkpt>
      <trkpt lat="46.51522" lon="0.37482">
        <ele>164.2</ele>
        <time>2023-08-20T08:23:06Z</time>
      </trkpt>
      <trkpt lat="46.51523" lon="0.37488">
        <ele>164.6</ele>
        <time>2023-08-20T08:23:09Z</time>
      </trkpt>
      <trkpt lat="46.51522" lon="0.37492">
        <ele>164.8</ele>
        <time>2023-08-20T08:23:11Z</time>
      </trkpt>
      <trkpt lat="46.51519" lon="0.37491">
        <ele>165.6</ele>
        <time>2023-08-20T08:23:14Z</time>
      </trkpt>
      <trkpt lat="46.51517" lon="0.37489">
        <ele>165.6</ele>
        <time>2023-08-20T08:23:17Z</time>
      </trkpt>
      <trkpt lat="46.51513" lon="0.37487">
        <ele>165.4</ele>
        <time>2023-08-20T08:23:20Z</time>
      </trkpt>
      <trkpt lat="46.51512" lon="0.37478">
        <ele>164.6</ele>
        <time>2023-08-20T08:23:25Z</time>
      </trkpt>
      <trkpt lat="46.51505" lon="0.37478">
        <ele>164</ele>
        <time>2023-08-20T08:23:30Z</time>
      </trkpt>
      <trkpt lat="46.51502" lon="0.37472">
        <ele>164</ele>
        <time>2023-08-20T08:23:31Z</time>
      </trkpt>
      <trkpt lat="46.51499" lon="0.37464">
        <ele>164</ele>
        <time>2023-08-20T08:23:33Z</time>
      </trkpt>
      <trkpt lat="46.51497" lon="0.37461">
        <ele>163.8</ele>
        <time>2023-08-20T08:23:35Z</time>
      </trkpt>
      <trkpt lat="46.51496" lon="0.37459">
        <ele>163.4</ele>
        <time>2023-08-20T08:23:37Z</time>
      </trkpt>
      <trkpt lat="46.51489" lon="0.37457">
        <ele>163.8</ele>
        <time>2023-08-20T08:23:44Z</time>
      </trkpt>
      <trkpt lat="46.51485" lon="0.37458">
        <ele>164.8</ele>
        <time>2023-08-20T08:23:47Z</time>
      </trkpt>
      <trkpt lat="46.51477" lon="0.37456">
        <ele>165.6</ele>
        <time>2023-08-20T08:23:51Z</time>
      </trkpt>
      <trkpt lat="46.51472" lon="0.37457">
        <ele>166</ele>
        <time>2023-08-20T08:23:53Z</time>
      </trkpt>
      <trkpt lat="46.51461" lon="0.37458">
        <ele>166.8</ele>
        <time>2023-08-20T08:23:57Z</time>
      </trkpt>
      <trkpt lat="46.5146" lon="0.37459">
        <ele>167</ele>
        <time>2023-08-20T08:23:58Z</time>
      </trkpt>
      <trkpt lat="46.51458" lon="0.3746">
        <ele>167.2</ele>
        <time>2023-08-20T08:23:59Z</time>
      </trkpt>
      <trkpt lat="46.51451" lon="0.37468">
        <ele>168</ele>
        <time>2023-08-20T08:24:03Z</time>
      </trkpt>
      <trkpt lat="46.51448" lon="0.37471">
        <ele>168.2</ele>
        <time>2023-08-20T08:24:05Z</time>
      </trkpt>
      <trkpt lat="46.51442" lon="0.37479">
        <ele>168.6</ele>
        <time>2023-08-20T08:24:09Z</time>
      </trkpt>
      <trkpt lat="46.51433" lon="0.37494">
        <ele>169.4</ele>
        <time>2023-08-20T08:24:16Z</time>
      </trkpt>
      <trkpt lat="46.51432" lon="0.37497">
        <ele>169.4</ele>
        <time>2023-08-20T08:24:17Z</time>
      </trkpt>
      <trkpt lat="46.51422" lon="0.37516">
        <ele>169.6</ele>
        <time>2023-08-20T08:24:23Z</time>
      </trkpt>
      <trkpt lat="46.5142" lon="0.37517">
        <ele>169.6</ele>
        <time>2023-08-20T08:24:24Z</time>
      </trkpt>
      <trkpt lat="46.51414" lon="0.37518">
        <ele>169.6</ele>
        <time>2023-08-20T08:24:27Z</time>
      </trkpt>
      <trkpt lat="46.51413" lon="0.3752">
        <ele>169.8</ele>
        <time>2023-08-20T08:24:28Z</time>
      </trkpt>
      <trkpt lat="46.51403" lon="0.37524">
        <ele>170.2</ele>
        <time>2023-08-20T08:24:32Z</time>
      </trkpt>
      <trkpt lat="46.514" lon="0.37524">
        <ele>170.4</ele>
        <time>2023-08-20T08:24:33Z</time>
      </trkpt>
      <trkpt lat="46.51384" lon="0.37527">
        <ele>171.2</ele>
        <time>2023-08-20T08:24:39Z</time>
      </trkpt>
      <trkpt lat="46.51381" lon="0.37528">
        <ele>171.4</ele>
        <time>2023-08-20T08:24:40Z</time>
      </trkpt>
      <trkpt lat="46.5138" lon="0.3753">
        <ele>171.6</ele>
        <time>2023-08-20T08:24:41Z</time>
      </trkpt>
      <trkpt lat="46.51378" lon="0.37535">
        <ele>171.6</ele>
        <time>2023-08-20T08:24:43Z</time>
      </trkpt>
      <trkpt lat="46.51378" lon="0.37537">
        <ele>171.6</ele>
        <time>2023-08-20T08:24:44Z</time>
      </trkpt>
      <trkpt lat="46.51378" lon="0.37541">
        <ele>171.2</ele>
        <time>2023-08-20T08:24:46Z</time>
      </trkpt>
      <trkpt lat="46.51379" lon="0.37548">
        <ele>170.8</ele>
        <time>2023-08-20T08:24:48Z</time>
      </trkpt>
      <trkpt lat="46.51379" lon="0.37556">
        <ele>170.6</ele>
        <time>2023-08-20T08:24:50Z</time>
      </trkpt>
      <trkpt lat="46.51378" lon="0.37566">
        <ele>170.2</ele>
        <time>2023-08-20T08:24:52Z</time>
      </trkpt>
      <trkpt lat="46.51377" lon="0.3757">
        <ele>170.2</ele>
        <time>2023-08-20T08:24:53Z</time>
      </trkpt>
      <trkpt lat="46.51376" lon="0.37576">
        <ele>170</ele>
        <time>2023-08-20T08:24:54Z</time>
      </trkpt>
      <trkpt lat="46.51375" lon="0.37591">
        <ele>170</ele>
        <time>2023-08-20T08:24:57Z</time>
      </trkpt>
      <trkpt lat="46.51376" lon="0.37602">
        <ele>170</ele>
        <time>2023-08-20T08:24:59Z</time>
      </trkpt>
      <trkpt lat="46.51379" lon="0.37608">
        <ele>170.2</ele>
        <time>2023-08-20T08:25:00Z</time>
      </trkpt>
      <trkpt lat="46.51383" lon="0.37617">
        <ele>170</ele>
        <time>2023-08-20T08:25:02Z</time>
      </trkpt>
      <trkpt lat="46.51385" lon="0.37629">
        <ele>170</ele>
        <time>2023-08-20T08:25:04Z</time>
      </trkpt>
      <trkpt lat="46.51388" lon="0.3764">
        <ele>169.6</ele>
        <time>2023-08-20T08:25:06Z</time>
      </trkpt>
      <trkpt lat="46.51391" lon="0.37658">
        <ele>169.2</ele>
        <time>2023-08-20T08:25:09Z</time>
      </trkpt>
      <trkpt lat="46.51393" lon="0.37665">
        <ele>169.2</ele>
        <time>2023-08-20T08:25:10Z</time>
      </trkpt>
      <trkpt lat="46.51396" lon="0.37671">
        <ele>169</ele>
        <time>2023-08-20T08:25:11Z</time>
      </trkpt>
      <trkpt lat="46.51399" lon="0.37676">
        <ele>169</ele>
        <time>2023-08-20T08:25:12Z</time>
      </trkpt>
      <trkpt lat="46.51411" lon="0.3769">
        <ele>168.6</ele>
        <time>2023-08-20T08:25:15Z</time>
      </trkpt>
      <trkpt lat="46.51417" lon="0.37698">
        <ele>168</ele>
        <time>2023-08-20T08:25:17Z</time>
      </trkpt>
      <trkpt lat="46.51421" lon="0.37709">
        <ele>167.4</ele>
        <time>2023-08-20T08:25:19Z</time>
      </trkpt>
      <trkpt lat="46.51422" lon="0.37715">
        <ele>167.4</ele>
        <time>2023-08-20T08:25:20Z</time>
      </trkpt>
      <trkpt lat="46.51423" lon="0.37721">
        <ele>167.2</ele>
        <time>2023-08-20T08:25:21Z</time>
      </trkpt>
      <trkpt lat="46.51421" lon="0.37737">
        <ele>167</ele>
        <time>2023-08-20T08:25:24Z</time>
      </trkpt>
      <trkpt lat="46.5142" lon="0.37742">
        <ele>167.2</ele>
        <time>2023-08-20T08:25:25Z</time>
      </trkpt>
      <trkpt lat="46.51418" lon="0.37762">
        <ele>167.2</ele>
        <time>2023-08-20T08:25:28Z</time>
      </trkpt>
      <trkpt lat="46.51418" lon="0.37775">
        <ele>167.2</ele>
        <time>2023-08-20T08:25:30Z</time>
      </trkpt>
      <trkpt lat="46.51423" lon="0.37796">
        <ele>166.8</ele>
        <time>2023-08-20T08:25:33Z</time>
      </trkpt>
      <trkpt lat="46.51428" lon="0.37811">
        <ele>166.6</ele>
        <time>2023-08-20T08:25:35Z</time>
      </trkpt>
      <trkpt lat="46.51433" lon="0.37827">
        <ele>166.4</ele>
        <time>2023-08-20T08:25:37Z</time>
      </trkpt>
      <trkpt lat="46.51433" lon="0.37842">
        <ele>166</ele>
        <time>2023-08-20T08:25:39Z</time>
      </trkpt>
      <trkpt lat="46.51431" lon="0.37859">
        <ele>165.6</ele>
        <time>2023-08-20T08:25:41Z</time>
      </trkpt>
      <trkpt lat="46.51431" lon="0.37875">
        <ele>164.6</ele>
        <time>2023-08-20T08:25:43Z</time>
      </trkpt>
      <trkpt lat="46.51433" lon="0.37886">
        <ele>163.6</ele>
        <time>2023-08-20T08:25:45Z</time>
      </trkpt>
      <trkpt lat="46.51434" lon="0.37891">
        <ele>163.4</ele>
        <time>2023-08-20T08:25:46Z</time>
      </trkpt>
      <trkpt lat="46.51436" lon="0.37896">
        <ele>163</ele>
        <time>2023-08-20T08:25:47Z</time>
      </trkpt>
      <trkpt lat="46.51438" lon="0.37899">
        <ele>162.8</ele>
        <time>2023-08-20T08:25:48Z</time>
      </trkpt>
      <trkpt lat="46.51442" lon="0.37905">
        <ele>162</ele>
        <time>2023-08-20T08:25:50Z</time>
      </trkpt>
      <trkpt lat="46.51444" lon="0.37908">
        <ele>161.6</ele>
        <time>2023-08-20T08:25:51Z</time>
      </trkpt>
      <trkpt lat="46.51447" lon="0.37917">
        <ele>160.8</ele>
        <time>2023-08-20T08:25:54Z</time>
      </trkpt>
      <trkpt lat="46.51447" lon="0.37923">
        <ele>160.8</ele>
        <time>2023-08-20T08:25:57Z</time>
      </trkpt>
      <trkpt lat="46.51443" lon="0.37933">
        <ele>161</ele>
        <time>2023-08-20T08:26:02Z</time>
      </trkpt>
      <trkpt lat="46.51439" lon="0.37937">
        <ele>161</ele>
        <time>2023-08-20T08:26:05Z</time>
      </trkpt>
      <trkpt lat="46.51439" lon="0.37943">
        <ele>161</ele>
        <time>2023-08-20T08:26:07Z</time>
      </trkpt>
      <trkpt lat="46.5144" lon="0.37947">
        <ele>161</ele>
        <time>2023-08-20T08:26:08Z</time>
      </trkpt>
      <trkpt lat="46.51445" lon="0.37955">
        <ele>160.8</ele>
        <time>2023-08-20T08:26:10Z</time>
      </trkpt>
      <trkpt lat="46.5145" lon="0.37959">
        <ele>160.4</ele>
        <time>2023-08-20T08:26:11Z</time>
      </trkpt>
      <trkpt lat="46.51455" lon="0.37962">
        <ele>160</ele>
        <time>2023-08-20T08:26:12Z</time>
      </trkpt>
      <trkpt lat="46.51461" lon="0.37966">
        <ele>159.6</ele>
        <time>2023-08-20T08:26:13Z</time>
      </trkpt>
      <trkpt lat="46.51473" lon="0.37971">
        <ele>158.6</ele>
        <time>2023-08-20T08:26:15Z</time>
      </trkpt>
      <trkpt lat="46.5148" lon="0.37974">
        <ele>158.4</ele>
        <time>2023-08-20T08:26:16Z</time>
      </trkpt>
      <trkpt lat="46.51497" lon="0.37981">
        <ele>157.8</ele>
        <time>2023-08-20T08:26:19Z</time>
      </trkpt>
      <trkpt lat="46.51501" lon="0.37982">
        <ele>157.4</ele>
        <time>2023-08-20T08:26:20Z</time>
      </trkpt>
      <trkpt lat="46.51504" lon="0.37983">
        <ele>157</ele>
        <time>2023-08-20T08:26:21Z</time>
      </trkpt>
      <trkpt lat="46.51507" lon="0.37987">
        <ele>156.8</ele>
        <time>2023-08-20T08:26:23Z</time>
      </trkpt>
      <trkpt lat="46.51506" lon="0.37997">
        <ele>156.6</ele>
        <time>2023-08-20T08:26:25Z</time>
      </trkpt>
      <trkpt lat="46.51503" lon="0.38008">
        <ele>156.2</ele>
        <time>2023-08-20T08:26:27Z</time>
      </trkpt>
      <trkpt lat="46.51499" lon="0.38023">
        <ele>155</ele>
        <time>2023-08-20T08:26:29Z</time>
      </trkpt>
      <trkpt lat="46.51495" lon="0.38034">
        <ele>153.2</ele>
        <time>2023-08-20T08:26:31Z</time>
      </trkpt>
      <trkpt lat="46.51492" lon="0.38042">
        <ele>151.8</ele>
        <time>2023-08-20T08:26:33Z</time>
      </trkpt>
      <trkpt lat="46.51488" lon="0.38057">
        <ele>150.6</ele>
        <time>2023-08-20T08:26:35Z</time>
      </trkpt>
      <trkpt lat="46.51487" lon="0.38063">
        <ele>150</ele>
        <time>2023-08-20T08:26:36Z</time>
      </trkpt>
      <trkpt lat="46.51485" lon="0.38068">
        <ele>148.2</ele>
        <time>2023-08-20T08:26:37Z</time>
      </trkpt>
      <trkpt lat="46.51482" lon="0.3807">
        <ele>146.4</ele>
        <time>2023-08-20T08:26:38Z</time>
      </trkpt>
      <trkpt lat="46.51481" lon="0.38072">
        <ele>145.6</ele>
        <time>2023-08-20T08:26:39Z</time>
      </trkpt>
      <trkpt lat="46.51477" lon="0.38074">
        <ele>145</ele>
        <time>2023-08-20T08:26:40Z</time>
      </trkpt>
      <trkpt lat="46.51474" lon="0.38076">
        <ele>144.4</ele>
        <time>2023-08-20T08:26:41Z</time>
      </trkpt>
      <trkpt lat="46.51466" lon="0.38076">
        <ele>143.8</ele>
        <time>2023-08-20T08:26:43Z</time>
      </trkpt>
      <trkpt lat="46.51462" lon="0.38078">
        <ele>143.8</ele>
        <time>2023-08-20T08:26:44Z</time>
      </trkpt>
      <trkpt lat="46.51453" lon="0.38081">
        <ele>143.6</ele>
        <time>2023-08-20T08:26:46Z</time>
      </trkpt>
      <trkpt lat="46.51444" lon="0.38082">
        <ele>143.6</ele>
        <time>2023-08-20T08:26:48Z</time>
      </trkpt>
      <trkpt lat="46.5144" lon="0.38083">
        <ele>143.6</ele>
        <time>2023-08-20T08:26:49Z</time>
      </trkpt>
      <trkpt lat="46.51423" lon="0.3809">
        <ele>143</ele>
        <time>2023-08-20T08:26:53Z</time>
      </trkpt>
      <trkpt lat="46.51419" lon="0.38092">
        <ele>142.8</ele>
        <time>2023-08-20T08:26:54Z</time>
      </trkpt>
      <trkpt lat="46.51401" lon="0.38102">
        <ele>142</ele>
        <time>2023-08-20T08:26:58Z</time>
      </trkpt>
      <trkpt lat="46.51393" lon="0.38102">
        <ele>141.6</ele>
        <time>2023-08-20T08:27:00Z</time>
      </trkpt>
      <trkpt lat="46.51385" lon="0.38101">
        <ele>141.2</ele>
        <time>2023-08-20T08:27:02Z</time>
      </trkpt>
      <trkpt lat="46.51382" lon="0.381">
        <ele>141</ele>
        <time>2023-08-20T08:27:03Z</time>
      </trkpt>
      <trkpt lat="46.51375" lon="0.38099">
        <ele>141</ele>
        <time>2023-08-20T08:27:05Z</time>
      </trkpt>
      <trkpt lat="46.51365" lon="0.38098">
        <ele>141.2</ele>
        <time>2023-08-20T08:27:08Z</time>
      </trkpt>
      <trkpt lat="46.51338" lon="0.38094">
        <ele>141.2</ele>
        <time>2023-08-20T08:27:14Z</time>
      </trkpt>
      <trkpt lat="46.51324" lon="0.38091">
        <ele>141.2</ele>
        <time>2023-08-20T08:27:19Z</time>
      </trkpt>
      <trkpt lat="46.51309" lon="0.38088">
        <ele>141.2</ele>
        <time>2023-08-20T08:27:26Z</time>
      </trkpt>
      <trkpt lat="46.5129" lon="0.38078">
        <ele>141.4</ele>
        <time>2023-08-20T08:27:33Z</time>
      </trkpt>
      <trkpt lat="46.51284" lon="0.38076">
        <ele>141.6</ele>
        <time>2023-08-20T08:27:37Z</time>
      </trkpt>
      <trkpt lat="46.51284" lon="0.38076">
        <ele>141.6</ele>
        <time>2023-08-20T08:27:38Z</time>
      </trkpt>
      <trkpt lat="46.51275" lon="0.38065">
        <ele>141.2</ele>
        <time>2023-08-20T08:27:46Z</time>
      </trkpt>
      <trkpt lat="46.51264" lon="0.38059">
        <ele>141.2</ele>
        <time>2023-08-20T08:27:52Z</time>
      </trkpt>
      <trkpt lat="46.51249" lon="0.38049">
        <ele>142.4</ele>
        <time>2023-08-20T08:27:59Z</time>
      </trkpt>
      <trkpt lat="46.51247" lon="0.38046">
        <ele>143</ele>
        <time>2023-08-20T08:28:00Z</time>
      </trkpt>
      <trkpt lat="46.51236" lon="0.38038">
        <ele>144</ele>
        <time>2023-08-20T08:28:05Z</time>
      </trkpt>
      <trkpt lat="46.51233" lon="0.38037">
        <ele>144</ele>
        <time>2023-08-20T08:28:06Z</time>
      </trkpt>
      <trkpt lat="46.51218" lon="0.38029">
        <ele>145</ele>
        <time>2023-08-20T08:28:11Z</time>
      </trkpt>
      <trkpt lat="46.51206" lon="0.38022">
        <ele>146.2</ele>
        <time>2023-08-20T08:28:16Z</time>
      </trkpt>
      <trkpt lat="46.51198" lon="0.38018">
        <ele>146.6</ele>
        <time>2023-08-20T08:28:20Z</time>
      </trkpt>
      <trkpt lat="46.51189" lon="0.38014">
        <ele>147.2</ele>
        <time>2023-08-20T08:28:23Z</time>
      </trkpt>
      <trkpt lat="46.51181" lon="0.38011">
        <ele>147.6</ele>
        <time>2023-08-20T08:28:27Z</time>
      </trkpt>
      <trkpt lat="46.51174" lon="0.38009">
        <ele>148.4</ele>
        <time>2023-08-20T08:28:31Z</time>
      </trkpt>
      <trkpt lat="46.51174" lon="0.38009">
        <ele>148.4</ele>
        <time>2023-08-20T08:28:32Z</time>
      </trkpt>
      <trkpt lat="46.51173" lon="0.38009">
        <ele>148.6</ele>
        <time>2023-08-20T08:28:33Z</time>
      </trkpt>
      <trkpt lat="46.51171" lon="0.38008">
        <ele>148.8</ele>
        <time>2023-08-20T08:28:35Z</time>
      </trkpt>
      <trkpt lat="46.51169" lon="0.38006">
        <ele>148.8</ele>
        <time>2023-08-20T08:28:37Z</time>
      </trkpt>
      <trkpt lat="46.51167" lon="0.38006">
        <ele>149</ele>
        <time>2023-08-20T08:28:40Z</time>
      </trkpt>
      <trkpt lat="46.51163" lon="0.38005">
        <ele>149.4</ele>
        <time>2023-08-20T08:28:43Z</time>
      </trkpt>
      <trkpt lat="46.51163" lon="0.38005">
        <ele>149.4</ele>
        <time>2023-08-20T08:28:44Z</time>
      </trkpt>
      <trkpt lat="46.51162" lon="0.38005">
        <ele>149.6</ele>
        <time>2023-08-20T08:28:45Z</time>
      </trkpt>
      <trkpt lat="46.51162" lon="0.38004">
        <ele>149.6</ele>
        <time>2023-08-20T08:28:46Z</time>
      </trkpt>
      <trkpt lat="46.51161" lon="0.38001">
        <ele>149.6</ele>
        <time>2023-08-20T08:28:49Z</time>
      </trkpt>
      <trkpt lat="46.51159" lon="0.38">
        <ele>149.6</ele>
        <time>2023-08-20T08:28:53Z</time>
      </trkpt>
      <trkpt lat="46.51159" lon="0.37997">
        <ele>149.2</ele>
        <time>2023-08-20T08:28:59Z</time>
      </trkpt>
      <trkpt lat="46.51157" lon="0.38004">
        <ele>150.4</ele>
        <time>2023-08-20T08:29:04Z</time>
      </trkpt>
      <trkpt lat="46.51155" lon="0.38004">
        <ele>151.4</ele>
        <time>2023-08-20T08:29:06Z</time>
      </trkpt>
      <trkpt lat="46.51153" lon="0.38007">
        <ele>152.6</ele>
        <time>2023-08-20T08:29:09Z</time>
      </trkpt>
      <trkpt lat="46.51152" lon="0.38013">
        <ele>153.6</ele>
        <time>2023-08-20T08:29:13Z</time>
      </trkpt>
      <trkpt lat="46.5115" lon="0.38017">
        <ele>154.6</ele>
        <time>2023-08-20T08:29:18Z</time>
      </trkpt>
      <trkpt lat="46.51149" lon="0.3802">
        <ele>155.4</ele>
        <time>2023-08-20T08:29:20Z</time>
      </trkpt>
      <trkpt lat="46.51149" lon="0.38021">
        <ele>155.6</ele>
        <time>2023-08-20T08:29:21Z</time>
      </trkpt>
      <trkpt lat="46.51145" lon="0.38026">
        <ele>157</ele>
        <time>2023-08-20T08:29:26Z</time>
      </trkpt>
      <trkpt lat="46.51144" lon="0.38027">
        <ele>157.2</ele>
        <time>2023-08-20T08:29:27Z</time>
      </trkpt>
      <trkpt lat="46.51142" lon="0.38028">
        <ele>157.4</ele>
        <time>2023-08-20T08:29:29Z</time>
      </trkpt>
      <trkpt lat="46.51141" lon="0.38029">
        <ele>157.8</ele>
        <time>2023-08-20T08:29:30Z</time>
      </trkpt>
      <trkpt lat="46.5114" lon="0.3803">
        <ele>158</ele>
        <time>2023-08-20T08:29:31Z</time>
      </trkpt>
      <trkpt lat="46.51136" lon="0.38033">
        <ele>159</ele>
        <time>2023-08-20T08:29:35Z</time>
      </trkpt>
      <trkpt lat="46.51131" lon="0.38037">
        <ele>159.8</ele>
        <time>2023-08-20T08:29:40Z</time>
      </trkpt>
      <trkpt lat="46.5113" lon="0.38039">
        <ele>160</ele>
        <time>2023-08-20T08:29:41Z</time>
      </trkpt>
      <trkpt lat="46.51126" lon="0.38045">
        <ele>160.6</ele>
        <time>2023-08-20T08:29:44Z</time>
      </trkpt>
      <trkpt lat="46.51117" lon="0.38053">
        <ele>161.2</ele>
        <time>2023-08-20T08:29:50Z</time>
      </trkpt>
      <trkpt lat="46.5111" lon="0.38058">
        <ele>161.8</ele>
        <time>2023-08-20T08:29:54Z</time>
      </trkpt>
      <trkpt lat="46.51104" lon="0.38063">
        <ele>162.2</ele>
        <time>2023-08-20T08:29:57Z</time>
      </trkpt>
      <trkpt lat="46.51097" lon="0.38067">
        <ele>162.6</ele>
        <time>2023-08-20T08:30:00Z</time>
      </trkpt>
      <trkpt lat="46.51091" lon="0.38071">
        <ele>163.2</ele>
        <time>2023-08-20T08:30:04Z</time>
      </trkpt>
      <trkpt lat="46.51089" lon="0.38075">
        <ele>163.4</ele>
        <time>2023-08-20T08:30:06Z</time>
      </trkpt>
      <trkpt lat="46.51089" lon="0.38079">
        <ele>163.6</ele>
        <time>2023-08-20T08:30:08Z</time>
      </trkpt>
      <trkpt lat="46.5109" lon="0.38082">
        <ele>163.6</ele>
        <time>2023-08-20T08:30:10Z</time>
      </trkpt>
      <trkpt lat="46.5109" lon="0.38095">
        <ele>162.8</ele>
        <time>2023-08-20T08:30:15Z</time>
      </trkpt>
      <trkpt lat="46.5109" lon="0.38102">
        <ele>162.4</ele>
        <time>2023-08-20T08:30:17Z</time>
      </trkpt>
      <trkpt lat="46.5109" lon="0.38103">
        <ele>161.6</ele>
        <time>2023-08-20T08:30:18Z</time>
      </trkpt>
      <trkpt lat="46.51092" lon="0.38104">
        <ele>161.2</ele>
        <time>2023-08-20T08:30:19Z</time>
      </trkpt>
      <trkpt lat="46.51093" lon="0.38103">
        <ele>160.4</ele>
        <time>2023-08-20T08:30:20Z</time>
      </trkpt>
      <trkpt lat="46.51098" lon="0.38106">
        <ele>158.2</ele>
        <time>2023-08-20T08:30:23Z</time>
      </trkpt>
      <trkpt lat="46.511" lon="0.38108">
        <ele>157.2</ele>
        <time>2023-08-20T08:30:24Z</time>
      </trkpt>
      <trkpt lat="46.51101" lon="0.38109">
        <ele>156.8</ele>
        <time>2023-08-20T08:30:25Z</time>
      </trkpt>
      <trkpt lat="46.51105" lon="0.38111">
        <ele>155.4</ele>
        <time>2023-08-20T08:30:27Z</time>
      </trkpt>
      <trkpt lat="46.51109" lon="0.38113">
        <ele>153.6</ele>
        <time>2023-08-20T08:30:29Z</time>
      </trkpt>
      <trkpt lat="46.51112" lon="0.38112">
        <ele>153</ele>
        <time>2023-08-20T08:30:30Z</time>
      </trkpt>
      <trkpt lat="46.51115" lon="0.38111">
        <ele>152.6</ele>
        <time>2023-08-20T08:30:31Z</time>
      </trkpt>
      <trkpt lat="46.5112" lon="0.38112">
        <ele>151.8</ele>
        <time>2023-08-20T08:30:35Z</time>
      </trkpt>
      <trkpt lat="46.51124" lon="0.38113">
        <ele>152</ele>
        <time>2023-08-20T08:30:38Z</time>
      </trkpt>
      <trkpt lat="46.51129" lon="0.38112">
        <ele>152.4</ele>
        <time>2023-08-20T08:30:41Z</time>
      </trkpt>
      <trkpt lat="46.51138" lon="0.38109">
        <ele>152.8</ele>
        <time>2023-08-20T08:30:46Z</time>
      </trkpt>
      <trkpt lat="46.51139" lon="0.38109">
        <ele>152.8</ele>
        <time>2023-08-20T08:30:47Z</time>
      </trkpt>
      <trkpt lat="46.51148" lon="0.38108">
        <ele>152.4</ele>
        <time>2023-08-20T08:30:52Z</time>
      </trkpt>
      <trkpt lat="46.51151" lon="0.38106">
        <ele>152.2</ele>
        <time>2023-08-20T08:30:54Z</time>
      </trkpt>
      <trkpt lat="46.51157" lon="0.38104">
        <ele>152.6</ele>
        <time>2023-08-20T08:30:58Z</time>
      </trkpt>
      <trkpt lat="46.51158" lon="0.38103">
        <ele>152.6</ele>
        <time>2023-08-20T08:30:59Z</time>
      </trkpt>
      <trkpt lat="46.51169" lon="0.38102">
        <ele>153.2</ele>
        <time>2023-08-20T08:31:04Z</time>
      </trkpt>
      <trkpt lat="46.5118" lon="0.38101">
        <ele>151.6</ele>
        <time>2023-08-20T08:31:10Z</time>
      </trkpt>
      <trkpt lat="46.51182" lon="0.381">
        <ele>150.8</ele>
        <time>2023-08-20T08:31:11Z</time>
      </trkpt>
      <trkpt lat="46.51185" lon="0.38101">
        <ele>149.4</ele>
        <time>2023-08-20T08:31:13Z</time>
      </trkpt>
      <trkpt lat="46.51191" lon="0.38103">
        <ele>148.2</ele>
        <time>2023-08-20T08:31:15Z</time>
      </trkpt>
      <trkpt lat="46.51194" lon="0.38103">
        <ele>147.2</ele>
        <time>2023-08-20T08:31:16Z</time>
      </trkpt>
      <trkpt lat="46.51198" lon="0.38103">
        <ele>145.8</ele>
        <time>2023-08-20T08:31:18Z</time>
      </trkpt>
      <trkpt lat="46.512" lon="0.38102">
        <ele>145.4</ele>
        <time>2023-08-20T08:31:20Z</time>
      </trkpt>
      <trkpt lat="46.51214" lon="0.38098">
        <ele>145.2</ele>
        <time>2023-08-20T08:31:26Z</time>
      </trkpt>
      <trkpt lat="46.51228" lon="0.38095">
        <ele>145.2</ele>
        <time>2023-08-20T08:31:33Z</time>
      </trkpt>
      <trkpt lat="46.5123" lon="0.38091">
        <ele>144.8</ele>
        <time>2023-08-20T08:31:36Z</time>
      </trkpt>
      <trkpt lat="46.51232" lon="0.38088">
        <ele>144.4</ele>
        <time>2023-08-20T08:31:39Z</time>
      </trkpt>
      <trkpt lat="46.51238" lon="0.38084">
        <ele>143.2</ele>
        <time>2023-08-20T08:31:41Z</time>
      </trkpt>
      <trkpt lat="46.51243" lon="0.38077">
        <ele>142.4</ele>
        <time>2023-08-20T08:31:43Z</time>
      </trkpt>
      <trkpt lat="46.51246" lon="0.38075">
        <ele>142.2</ele>
        <time>2023-08-20T08:31:44Z</time>
      </trkpt>
      <trkpt lat="46.51247" lon="0.38073">
        <ele>142.2</ele>
        <time>2023-08-20T08:31:45Z</time>
      </trkpt>
      <trkpt lat="46.5125" lon="0.38067">
        <ele>142.8</ele>
        <time>2023-08-20T08:31:49Z</time>
      </trkpt>
      <trkpt lat="46.5125" lon="0.38067">
        <ele>142.8</ele>
        <time>2023-08-20T08:31:50Z</time>
      </trkpt>
      <trkpt lat="46.51257" lon="0.38063">
        <ele>143.2</ele>
        <time>2023-08-20T08:31:53Z</time>
      </trkpt>
      <trkpt lat="46.51267" lon="0.38052">
        <ele>144.4</ele>
        <time>2023-08-20T08:32:00Z</time>
      </trkpt>
      <trkpt lat="46.51269" lon="0.38048">
        <ele>145.6</ele>
        <time>2023-08-20T08:32:06Z</time>
      </trkpt>
      <trkpt lat="46.51272" lon="0.38046">
        <ele>146.6</ele>
        <time>2023-08-20T08:32:13Z</time>
      </trkpt>
      <trkpt lat="46.51272" lon="0.38045">
        <ele>147.2</ele>
        <time>2023-08-20T08:32:15Z</time>
      </trkpt>
      <trkpt lat="46.51272" lon="0.38044">
        <ele>147.6</ele>
        <time>2023-08-20T08:32:17Z</time>
      </trkpt>
      <trkpt lat="46.51273" lon="0.38038">
        <ele>148.8</ele>
        <time>2023-08-20T08:32:24Z</time>
      </trkpt>
      <trkpt lat="46.51273" lon="0.38036">
        <ele>149.8</ele>
        <time>2023-08-20T08:32:27Z</time>
      </trkpt>
      <trkpt lat="46.51274" lon="0.38034">
        <ele>150.2</ele>
        <time>2023-08-20T08:32:29Z</time>
      </trkpt>
      <trkpt lat="46.51274" lon="0.38024">
        <ele>151</ele>
        <time>2023-08-20T08:32:37Z</time>
      </trkpt>
      <trkpt lat="46.51274" lon="0.38021">
        <ele>151.4</ele>
        <time>2023-08-20T08:32:42Z</time>
      </trkpt>
      <trkpt lat="46.51273" lon="0.38017">
        <ele>151.4</ele>
        <time>2023-08-20T08:32:57Z</time>
      </trkpt>
      <trkpt lat="46.51273" lon="0.38016">
        <ele>150.2</ele>
        <time>2023-08-20T08:33:11Z</time>
      </trkpt>
      <trkpt lat="46.51273" lon="0.38016">
        <ele>150</ele>
        <time>2023-08-20T08:33:27Z</time>
      </trkpt>
      <trkpt lat="46.51273" lon="0.38016">
        <ele>150.2</ele>
        <time>2023-08-20T08:33:48Z</time>
      </trkpt>
      <trkpt lat="46.51273" lon="0.38016">
        <ele>150</ele>
        <time>2023-08-20T08:34:02Z</time>
      </trkpt>
      <trkpt lat="46.51273" lon="0.38017">
        <ele>149.8</ele>
        <time>2023-08-20T08:34:41Z</time>
      </trkpt>
      <trkpt lat="46.51273" lon="0.38018">
        <ele>150</ele>
        <time>2023-08-20T08:34:48Z</time>
      </trkpt>
      <trkpt lat="46.51272" lon="0.38017">
        <ele>151</ele>
        <time>2023-08-20T08:34:54Z</time>
      </trkpt>
      <trkpt lat="46.51266" lon="0.3801">
        <ele>151.8</ele>
        <time>2023-08-20T08:35:19Z</time>
      </trkpt>
      <trkpt lat="46.51258" lon="0.3801">
        <ele>151.6</ele>
        <time>2023-08-20T08:35:25Z</time>
      </trkpt>
      <trkpt lat="46.51248" lon="0.38006">
        <ele>151.2</ele>
        <time>2023-08-20T08:35:29Z</time>
      </trkpt>
      <trkpt lat="46.51246" lon="0.38004">
        <ele>151.2</ele>
        <time>2023-08-20T08:35:30Z</time>
      </trkpt>
      <trkpt lat="46.51239" lon="0.38001">
        <ele>151.2</ele>
        <time>2023-08-20T08:35:32Z</time>
      </trkpt>
      <trkpt lat="46.51233" lon="0.37999">
        <ele>151.2</ele>
        <time>2023-08-20T08:35:34Z</time>
      </trkpt>
      <trkpt lat="46.51226" lon="0.37997">
        <ele>151.4</ele>
        <time>2023-08-20T08:35:36Z</time>
      </trkpt>
      <trkpt lat="46.51214" lon="0.37994">
        <ele>151.4</ele>
        <time>2023-08-20T08:35:39Z</time>
      </trkpt>
      <trkpt lat="46.51206" lon="0.37992">
        <ele>151.6</ele>
        <time>2023-08-20T08:35:41Z</time>
      </trkpt>
      <trkpt lat="46.51191" lon="0.37993">
        <ele>151.4</ele>
        <time>2023-08-20T08:35:44Z</time>
      </trkpt>
      <trkpt lat="46.51164" lon="0.37988">
        <ele>150.4</ele>
        <time>2023-08-20T08:35:49Z</time>
      </trkpt>
      <trkpt lat="46.51156" lon="0.37984">
        <ele>150</ele>
        <time>2023-08-20T08:35:52Z</time>
      </trkpt>
      <trkpt lat="46.51153" lon="0.37981">
        <ele>150</ele>
        <time>2023-08-20T08:35:53Z</time>
      </trkpt>
      <trkpt lat="46.51146" lon="0.37975">
        <ele>150.4</ele>
        <time>2023-08-20T08:35:57Z</time>
      </trkpt>
      <trkpt lat="46.51143" lon="0.3797">
        <ele>150.8</ele>
        <time>2023-08-20T08:35:59Z</time>
      </trkpt>
      <trkpt lat="46.5114" lon="0.37966">
        <ele>151</ele>
        <time>2023-08-20T08:36:01Z</time>
      </trkpt>
      <trkpt lat="46.51137" lon="0.37959">
        <ele>152</ele>
        <time>2023-08-20T08:36:05Z</time>
      </trkpt>
      <trkpt lat="46.51135" lon="0.37956">
        <ele>153.2</ele>
        <time>2023-08-20T08:36:07Z</time>
      </trkpt>
      <trkpt lat="46.51135" lon="0.37954">
        <ele>153.6</ele>
        <time>2023-08-20T08:36:08Z</time>
      </trkpt>
      <trkpt lat="46.51132" lon="0.37951">
        <ele>154.4</ele>
        <time>2023-08-20T08:36:10Z</time>
      </trkpt>
      <trkpt lat="46.51132" lon="0.37949">
        <ele>154.6</ele>
        <time>2023-08-20T08:36:11Z</time>
      </trkpt>
      <trkpt lat="46.51131" lon="0.37946">
        <ele>155.6</ele>
        <time>2023-08-20T08:36:13Z</time>
      </trkpt>
      <trkpt lat="46.5113" lon="0.37942">
        <ele>156.6</ele>
        <time>2023-08-20T08:36:15Z</time>
      </trkpt>
      <trkpt lat="46.5113" lon="0.3794">
        <ele>157</ele>
        <time>2023-08-20T08:36:16Z</time>
      </trkpt>
      <trkpt lat="46.5113" lon="0.37938">
        <ele>157.2</ele>
        <time>2023-08-20T08:36:17Z</time>
      </trkpt>
      <trkpt lat="46.5113" lon="0.37932">
        <ele>158.2</ele>
        <time>2023-08-20T08:36:21Z</time>
      </trkpt>
      <trkpt lat="46.5113" lon="0.37925">
        <ele>159.4</ele>
        <time>2023-08-20T08:36:25Z</time>
      </trkpt>
      <trkpt lat="46.51131" lon="0.37921">
        <ele>159.8</ele>
        <time>2023-08-20T08:36:27Z</time>
      </trkpt>
      <trkpt lat="46.51132" lon="0.37918">
        <ele>160.4</ele>
        <time>2023-08-20T08:36:29Z</time>
      </trkpt>
      <trkpt lat="46.51132" lon="0.37915">
        <ele>160.6</ele>
        <time>2023-08-20T08:36:30Z</time>
      </trkpt>
      <trkpt lat="46.51133" lon="0.37913">
        <ele>160.8</ele>
        <time>2023-08-20T08:36:31Z</time>
      </trkpt>
      <trkpt lat="46.51134" lon="0.3791">
        <ele>161.2</ele>
        <time>2023-08-20T08:36:33Z</time>
      </trkpt>
      <trkpt lat="46.51134" lon="0.37905">
        <ele>161.6</ele>
        <time>2023-08-20T08:36:36Z</time>
      </trkpt>
      <trkpt lat="46.51135" lon="0.37903">
        <ele>161.8</ele>
        <time>2023-08-20T08:36:37Z</time>
      </trkpt>
      <trkpt lat="46.51136" lon="0.379">
        <ele>162.4</ele>
        <time>2023-08-20T08:36:39Z</time>
      </trkpt>
      <trkpt lat="46.51136" lon="0.37897">
        <ele>162.8</ele>
        <time>2023-08-20T08:36:41Z</time>
      </trkpt>
      <trkpt lat="46.51136" lon="0.37896">
        <ele>163</ele>
        <time>2023-08-20T08:36:42Z</time>
      </trkpt>
      <trkpt lat="46.51136" lon="0.37892">
        <ele>163.2</ele>
        <time>2023-08-20T08:36:44Z</time>
      </trkpt>
      <trkpt lat="46.51137" lon="0.37887">
        <ele>164</ele>
        <time>2023-08-20T08:36:48Z</time>
      </trkpt>
      <trkpt lat="46.51138" lon="0.37883">
        <ele>164.6</ele>
        <time>2023-08-20T08:36:50Z</time>
      </trkpt>
      <trkpt lat="46.5114" lon="0.37879">
        <ele>165</ele>
        <time>2023-08-20T08:36:53Z</time>
      </trkpt>
      <trkpt lat="46.51141" lon="0.37876">
        <ele>165.2</ele>
        <time>2023-08-20T08:36:54Z</time>
      </trkpt>
      <trkpt lat="46.51142" lon="0.37872">
        <ele>165.8</ele>
        <time>2023-08-20T08:36:57Z</time>
      </trkpt>
      <trkpt lat="46.51143" lon="0.37869">
        <ele>166.2</ele>
        <time>2023-08-20T08:36:59Z</time>
      </trkpt>
      <trkpt lat="46.51146" lon="0.37862">
        <ele>167.2</ele>
        <time>2023-08-20T08:37:03Z</time>
      </trkpt>
      <trkpt lat="46.51146" lon="0.3786">
        <ele>167.4</ele>
        <time>2023-08-20T08:37:04Z</time>
      </trkpt>
      <trkpt lat="46.51149" lon="0.37849">
        <ele>168.6</ele>
        <time>2023-08-20T08:37:12Z</time>
      </trkpt>
      <trkpt lat="46.51152" lon="0.37841">
        <ele>169.2</ele>
        <time>2023-08-20T08:37:17Z</time>
      </trkpt>
      <trkpt lat="46.51157" lon="0.37833">
        <ele>169.6</ele>
        <time>2023-08-20T08:37:23Z</time>
      </trkpt>
      <trkpt lat="46.51157" lon="0.37832">
        <ele>169.6</ele>
        <time>2023-08-20T08:37:24Z</time>
      </trkpt>
      <trkpt lat="46.51154" lon="0.37831">
        <ele>169.8</ele>
        <time>2023-08-20T08:37:28Z</time>
      </trkpt>
      <trkpt lat="46.51139" lon="0.37825">
        <ele>169.8</ele>
        <time>2023-08-20T08:37:35Z</time>
      </trkpt>
      <trkpt lat="46.51126" lon="0.37818">
        <ele>169.6</ele>
        <time>2023-08-20T08:37:40Z</time>
      </trkpt>
      <trkpt lat="46.51114" lon="0.3781">
        <ele>169.8</ele>
        <time>2023-08-20T08:37:45Z</time>
      </trkpt>
      <trkpt lat="46.51102" lon="0.37801">
        <ele>170.2</ele>
        <time>2023-08-20T08:37:50Z</time>
      </trkpt>
      <trkpt lat="46.51096" lon="0.37796">
        <ele>170.6</ele>
        <time>2023-08-20T08:37:52Z</time>
      </trkpt>
      <trkpt lat="46.51093" lon="0.37793">
        <ele>170.8</ele>
        <time>2023-08-20T08:37:53Z</time>
      </trkpt>
      <trkpt lat="46.51076" lon="0.37775">
        <ele>171</ele>
        <time>2023-08-20T08:37:58Z</time>
      </trkpt>
      <trkpt lat="46.51063" lon="0.37763">
        <ele>171.2</ele>
        <time>2023-08-20T08:38:03Z</time>
      </trkpt>
      <trkpt lat="46.51061" lon="0.37763">
        <ele>171.2</ele>
        <time>2023-08-20T08:38:04Z</time>
      </trkpt>
      <trkpt lat="46.51054" lon="0.37768">
        <ele>170.8</ele>
        <time>2023-08-20T08:38:07Z</time>
      </trkpt>
      <trkpt lat="46.51047" lon="0.37781">
        <ele>170.4</ele>
        <time>2023-08-20T08:38:11Z</time>
      </trkpt>
      <trkpt lat="46.51045" lon="0.37784">
        <ele>170.4</ele>
        <time>2023-08-20T08:38:12Z</time>
      </trkpt>
      <trkpt lat="46.51044" lon="0.37787">
        <ele>170.2</ele>
        <time>2023-08-20T08:38:13Z</time>
      </trkpt>
      <trkpt lat="46.51039" lon="0.37791">
        <ele>169.6</ele>
        <time>2023-08-20T08:38:15Z</time>
      </trkpt>
      <trkpt lat="46.51033" lon="0.37798">
        <ele>169.4</ele>
        <time>2023-08-20T08:38:17Z</time>
      </trkpt>
      <trkpt lat="46.51023" lon="0.37819">
        <ele>168.8</ele>
        <time>2023-08-20T08:38:21Z</time>
      </trkpt>
      <trkpt lat="46.5102" lon="0.37826">
        <ele>168.2</ele>
        <time>2023-08-20T08:38:22Z</time>
      </trkpt>
      <trkpt lat="46.51014" lon="0.37844">
        <ele>166.6</ele>
        <time>2023-08-20T08:38:24Z</time>
      </trkpt>
      <trkpt lat="46.51005" lon="0.37867">
        <ele>165.4</ele>
        <time>2023-08-20T08:38:27Z</time>
      </trkpt>
      <trkpt lat="46.50995" lon="0.37892">
        <ele>164</ele>
        <time>2023-08-20T08:38:30Z</time>
      </trkpt>
      <trkpt lat="46.50986" lon="0.37914">
        <ele>162.8</ele>
        <time>2023-08-20T08:38:33Z</time>
      </trkpt>
      <trkpt lat="46.50982" lon="0.3792">
        <ele>159.8</ele>
        <time>2023-08-20T08:38:35Z</time>
      </trkpt>
      <trkpt lat="46.5098" lon="0.37922">
        <ele>158.2</ele>
        <time>2023-08-20T08:38:36Z</time>
      </trkpt>
      <trkpt lat="46.50975" lon="0.37924">
        <ele>156.4</ele>
        <time>2023-08-20T08:38:38Z</time>
      </trkpt>
      <trkpt lat="46.50968" lon="0.37926">
        <ele>155.2</ele>
        <time>2023-08-20T08:38:40Z</time>
      </trkpt>
      <trkpt lat="46.50964" lon="0.37927">
        <ele>155</ele>
        <time>2023-08-20T08:38:41Z</time>
      </trkpt>
      <trkpt lat="46.50949" lon="0.37929">
        <ele>154.6</ele>
        <time>2023-08-20T08:38:45Z</time>
      </trkpt>
      <trkpt lat="46.50946" lon="0.3793">
        <ele>154.6</ele>
        <time>2023-08-20T08:38:47Z</time>
      </trkpt>
      <trkpt lat="46.50945" lon="0.37928">
        <ele>154.8</ele>
        <time>2023-08-20T08:38:49Z</time>
      </trkpt>
      <trkpt lat="46.50946" lon="0.37925">
        <ele>155</ele>
        <time>2023-08-20T08:38:51Z</time>
      </trkpt>
      <trkpt lat="46.50946" lon="0.37919">
        <ele>156.6</ele>
        <time>2023-08-20T08:38:56Z</time>
      </trkpt>
      <trkpt lat="46.50947" lon="0.37915">
        <ele>158</ele>
        <time>2023-08-20T08:39:00Z</time>
      </trkpt>
      <trkpt lat="46.50951" lon="0.37908">
        <ele>159.2</ele>
        <time>2023-08-20T08:39:05Z</time>
      </trkpt>
      <trkpt lat="46.50953" lon="0.37903">
        <ele>160</ele>
        <time>2023-08-20T08:39:07Z</time>
      </trkpt>
      <trkpt lat="46.50953" lon="0.37901">
        <ele>160.4</ele>
        <time>2023-08-20T08:39:08Z</time>
      </trkpt>
      <trkpt lat="46.50955" lon="0.37896">
        <ele>160.8</ele>
        <time>2023-08-20T08:39:11Z</time>
      </trkpt>
      <trkpt lat="46.50957" lon="0.37892">
        <ele>161.4</ele>
        <time>2023-08-20T08:39:14Z</time>
      </trkpt>
      <trkpt lat="46.5096" lon="0.37889">
        <ele>162</ele>
        <time>2023-08-20T08:39:17Z</time>
      </trkpt>
      <trkpt lat="46.50963" lon="0.37884">
        <ele>162.4</ele>
        <time>2023-08-20T08:39:21Z</time>
      </trkpt>
      <trkpt lat="46.50968" lon="0.37878">
        <ele>163</ele>
        <time>2023-08-20T08:39:24Z</time>
      </trkpt>
      <trkpt lat="46.50968" lon="0.37877">
        <ele>163.6</ele>
        <time>2023-08-20T08:39:27Z</time>
      </trkpt>
      <trkpt lat="46.5097" lon="0.37872">
        <ele>164.6</ele>
        <time>2023-08-20T08:39:30Z</time>
      </trkpt>
      <trkpt lat="46.50971" lon="0.3787">
        <ele>164.8</ele>
        <time>2023-08-20T08:39:31Z</time>
      </trkpt>
      <trkpt lat="46.50974" lon="0.37864">
        <ele>165.2</ele>
        <time>2023-08-20T08:39:35Z</time>
      </trkpt>
      <trkpt lat="46.50975" lon="0.37859">
        <ele>165.8</ele>
        <time>2023-08-20T08:39:38Z</time>
      </trkpt>
      <trkpt lat="46.50976" lon="0.37855">
        <ele>166.2</ele>
        <time>2023-08-20T08:39:40Z</time>
      </trkpt>
      <trkpt lat="46.50977" lon="0.37852">
        <ele>166.6</ele>
        <time>2023-08-20T08:39:42Z</time>
      </trkpt>
      <trkpt lat="46.50979" lon="0.3785">
        <ele>167</ele>
        <time>2023-08-20T08:39:43Z</time>
      </trkpt>
      <trkpt lat="46.50981" lon="0.37844">
        <ele>167.6</ele>
        <time>2023-08-20T08:39:46Z</time>
      </trkpt>
      <trkpt lat="46.50983" lon="0.37838">
        <ele>168.2</ele>
        <time>2023-08-20T08:39:49Z</time>
      </trkpt>
      <trkpt lat="46.50985" lon="0.37833">
        <ele>168.8</ele>
        <time>2023-08-20T08:39:51Z</time>
      </trkpt>
      <trkpt lat="46.5099" lon="0.37819">
        <ele>169.2</ele>
        <time>2023-08-20T08:39:56Z</time>
      </trkpt>
      <trkpt lat="46.50993" lon="0.37811">
        <ele>169.8</ele>
        <time>2023-08-20T08:39:59Z</time>
      </trkpt>
      <trkpt lat="46.50998" lon="0.37795">
        <ele>170.4</ele>
        <time>2023-08-20T08:40:04Z</time>
      </trkpt>
      <trkpt lat="46.50999" lon="0.37789">
        <ele>170.4</ele>
        <time>2023-08-20T08:40:06Z</time>
      </trkpt>
      <trkpt lat="46.51002" lon="0.37778">
        <ele>171</ele>
        <time>2023-08-20T08:40:10Z</time>
      </trkpt>
      <trkpt lat="46.51002" lon="0.37778">
        <ele>171.4</ele>
        <time>2023-08-20T08:40:11Z</time>
      </trkpt>
      <trkpt lat="46.51006" lon="0.37772">
        <ele>171.4</ele>
        <time>2023-08-20T08:40:12Z</time>
      </trkpt>
      <trkpt lat="46.51008" lon="0.3777">
        <ele>171.6</ele>
        <time>2023-08-20T08:40:13Z</time>
      </trkpt>
      <trkpt lat="46.51013" lon="0.37767">
        <ele>171.6</ele>
        <time>2023-08-20T08:40:15Z</time>
      </trkpt>
      <trkpt lat="46.51016" lon="0.37764">
        <ele>171.6</ele>
        <time>2023-08-20T08:40:16Z</time>
      </trkpt>
      <trkpt lat="46.51018" lon="0.3776">
        <ele>171.6</ele>
        <time>2023-08-20T08:40:18Z</time>
      </trkpt>
      <trkpt lat="46.5102" lon="0.37754">
        <ele>171.8</ele>
        <time>2023-08-20T08:40:21Z</time>
      </trkpt>
      <trkpt lat="46.5102" lon="0.37752">
        <ele>171.8</ele>
        <time>2023-08-20T08:40:22Z</time>
      </trkpt>
      <trkpt lat="46.51021" lon="0.37742">
        <ele>172</ele>
        <time>2023-08-20T08:40:26Z</time>
      </trkpt>
      <trkpt lat="46.51021" lon="0.37731">
        <ele>172</ele>
        <time>2023-08-20T08:40:29Z</time>
      </trkpt>
      <trkpt lat="46.51021" lon="0.37721">
        <ele>172.4</ele>
        <time>2023-08-20T08:40:32Z</time>
      </trkpt>
      <trkpt lat="46.5102" lon="0.37707">
        <ele>172.8</ele>
        <time>2023-08-20T08:40:36Z</time>
      </trkpt>
      <trkpt lat="46.51021" lon="0.37687">
        <ele>173.2</ele>
        <time>2023-08-20T08:40:43Z</time>
      </trkpt>
      <trkpt lat="46.51022" lon="0.37672">
        <ele>173.6</ele>
        <time>2023-08-20T08:40:48Z</time>
      </trkpt>
      <trkpt lat="46.51023" lon="0.37664">
        <ele>173.8</ele>
        <time>2023-08-20T08:40:50Z</time>
      </trkpt>
      <trkpt lat="46.51025" lon="0.37646">
        <ele>174</ele>
        <time>2023-08-20T08:40:55Z</time>
      </trkpt>
      <trkpt lat="46.51027" lon="0.37642">
        <ele>174.2</ele>
        <time>2023-08-20T08:40:56Z</time>
      </trkpt>
      <trkpt lat="46.51031" lon="0.37622">
        <ele>174.6</ele>
        <time>2023-08-20T08:41:02Z</time>
      </trkpt>
      <trkpt lat="46.51031" lon="0.37607">
        <ele>175.4</ele>
        <time>2023-08-20T08:41:07Z</time>
      </trkpt>
      <trkpt lat="46.51032" lon="0.37605">
        <ele>175.4</ele>
        <time>2023-08-20T08:41:09Z</time>
      </trkpt>
      <trkpt lat="46.51034" lon="0.37595">
        <ele>175.2</ele>
        <time>2023-08-20T08:41:17Z</time>
      </trkpt>
      <trkpt lat="46.51034" lon="0.37594">
        <ele>175.2</ele>
        <time>2023-08-20T08:41:34Z</time>
      </trkpt>
      <trkpt lat="46.51035" lon="0.37595">
        <ele>175.2</ele>
        <time>2023-08-20T08:41:51Z</time>
      </trkpt>
      <trkpt lat="46.51035" lon="0.37595">
        <ele>175.2</ele>
        <time>2023-08-20T08:42:07Z</time>
      </trkpt>
      <trkpt lat="46.51034" lon="0.37593">
        <ele>175.4</ele>
        <time>2023-08-20T08:42:24Z</time>
      </trkpt>
      <trkpt lat="46.51033" lon="0.37593">
        <ele>175.4</ele>
        <time>2023-08-20T08:42:41Z</time>
      </trkpt>
      <trkpt lat="46.51034" lon="0.37593">
        <ele>175.4</ele>
        <time>2023-08-20T08:42:53Z</time>
      </trkpt>
      <trkpt lat="46.51036" lon="0.37594">
        <ele>175.4</ele>
        <time>2023-08-20T08:43:08Z</time>
      </trkpt>
      <trkpt lat="46.51035" lon="0.37595">
        <ele>175.4</ele>
        <time>2023-08-20T08:43:25Z</time>
      </trkpt>
      <trkpt lat="46.51037" lon="0.37596">
        <ele>175.4</ele>
        <time>2023-08-20T08:43:41Z</time>
      </trkpt>
      <trkpt lat="46.51037" lon="0.37597">
        <ele>175.4</ele>
        <time>2023-08-20T08:43:56Z</time>
      </trkpt>
      <trkpt lat="46.51036" lon="0.37593">
        <ele>175.4</ele>
        <time>2023-08-20T08:44:15Z</time>
      </trkpt>
      <trkpt lat="46.51033" lon="0.3759">
        <ele>175.4</ele>
        <time>2023-08-20T08:44:35Z</time>
      </trkpt>
      <trkpt lat="46.51032" lon="0.37591">
        <ele>175.4</ele>
        <time>2023-08-20T08:44:52Z</time>
      </trkpt>
      <trkpt lat="46.51034" lon="0.37593">
        <ele>175.4</ele>
        <time>2023-08-20T08:45:08Z</time>
      </trkpt>
      <trkpt lat="46.51034" lon="0.37592">
        <ele>175.4</ele>
        <time>2023-08-20T08:45:27Z</time>
      </trkpt>
      <trkpt lat="46.51033" lon="0.37591">
        <ele>175.4</ele>
        <time>2023-08-20T08:45:41Z</time>
      </trkpt>
      <trkpt lat="46.51031" lon="0.37585">
        <ele>175.4</ele>
        <time>2023-08-20T08:45:58Z</time>
      </trkpt>
      <trkpt lat="46.51032" lon="0.37583">
        <ele>175.4</ele>
        <time>2023-08-20T08:46:12Z</time>
      </trkpt>
      <trkpt lat="46.51033" lon="0.37581">
        <ele>175.4</ele>
        <time>2023-08-20T08:46:27Z</time>
      </trkpt>
      <trkpt lat="46.51033" lon="0.37581">
        <ele>175.4</ele>
        <time>2023-08-20T08:46:28Z</time>
      </trkpt>
      <trkpt lat="46.51033" lon="0.37581">
        <ele>175.4</ele>
        <time>2023-08-20T08:46:42Z</time>
      </trkpt>
      <trkpt lat="46.51033" lon="0.37582">
        <ele>175.4</ele>
        <time>2023-08-20T08:46:59Z</time>
      </trkpt>
      <trkpt lat="46.51036" lon="0.37579">
        <ele>175.4</ele>
        <time>2023-08-20T08:47:17Z</time>
      </trkpt>
      <trkpt lat="46.51044" lon="0.37578">
        <ele>175.4</ele>
        <time>2023-08-20T08:47:26Z</time>
      </trkpt>
      <trkpt lat="46.51044" lon="0.37579">
        <ele>175.4</ele>
        <time>2023-08-20T08:47:27Z</time>
      </trkpt>
      <trkpt lat="46.51044" lon="0.3758">
        <ele>175.8</ele>
        <time>2023-08-20T08:47:28Z</time>
      </trkpt>
      <trkpt lat="46.51044" lon="0.37582">
        <ele>176</ele>
        <time>2023-08-20T08:47:29Z</time>
      </trkpt>
      <trkpt lat="46.51045" lon="0.37595">
        <ele>176</ele>
        <time>2023-08-20T08:47:33Z</time>
      </trkpt>
      <trkpt lat="46.51055" lon="0.37604">
        <ele>176</ele>
        <time>2023-08-20T08:47:38Z</time>
      </trkpt>
      <trkpt lat="46.51072" lon="0.37616">
        <ele>176</ele>
        <time>2023-08-20T08:47:45Z</time>
      </trkpt>
      <trkpt lat="46.51079" lon="0.3762">
        <ele>175.8</ele>
        <time>2023-08-20T08:47:47Z</time>
      </trkpt>
      <trkpt lat="46.51089" lon="0.37627">
        <ele>175.8</ele>
        <time>2023-08-20T08:47:50Z</time>
      </trkpt>
      <trkpt lat="46.51099" lon="0.37634">
        <ele>175.8</ele>
        <time>2023-08-20T08:47:53Z</time>
      </trkpt>
      <trkpt lat="46.51111" lon="0.37642">
        <ele>175.8</ele>
        <time>2023-08-20T08:47:56Z</time>
      </trkpt>
      <trkpt lat="46.5113" lon="0.37658">
        <ele>175.6</ele>
        <time>2023-08-20T08:48:01Z</time>
      </trkpt>
      <trkpt lat="46.51135" lon="0.37659">
        <ele>175.6</ele>
        <time>2023-08-20T08:48:03Z</time>
      </trkpt>
      <trkpt lat="46.51137" lon="0.37658">
        <ele>175.6</ele>
        <time>2023-08-20T08:48:04Z</time>
      </trkpt>
      <trkpt lat="46.51138" lon="0.37656">
        <ele>175.4</ele>
        <time>2023-08-20T08:48:05Z</time>
      </trkpt>
      <trkpt lat="46.51143" lon="0.37652">
        <ele>175.4</ele>
        <time>2023-08-20T08:48:07Z</time>
      </trkpt>
      <trkpt lat="46.51148" lon="0.37647">
        <ele>175.4</ele>
        <time>2023-08-20T08:48:09Z</time>
      </trkpt>
      <trkpt lat="46.51155" lon="0.37642">
        <ele>175.4</ele>
        <time>2023-08-20T08:48:11Z</time>
      </trkpt>
      <trkpt lat="46.51163" lon="0.37637">
        <ele>175.8</ele>
        <time>2023-08-20T08:48:13Z</time>
      </trkpt>
      <trkpt lat="46.51171" lon="0.37627">
        <ele>176</ele>
        <time>2023-08-20T08:48:16Z</time>
      </trkpt>
      <trkpt lat="46.51176" lon="0.37621">
        <ele>176.2</ele>
        <time>2023-08-20T08:48:18Z</time>
      </trkpt>
      <trkpt lat="46.51179" lon="0.37619">
        <ele>176.2</ele>
        <time>2023-08-20T08:48:19Z</time>
      </trkpt>
      <trkpt lat="46.51183" lon="0.37616">
        <ele>176.2</ele>
        <time>2023-08-20T08:48:20Z</time>
      </trkpt>
      <trkpt lat="46.51189" lon="0.37612">
        <ele>176.4</ele>
        <time>2023-08-20T08:48:22Z</time>
      </trkpt>
      <trkpt lat="46.51195" lon="0.3761">
        <ele>176</ele>
        <time>2023-08-20T08:48:24Z</time>
      </trkpt>
      <trkpt lat="46.51198" lon="0.37609">
        <ele>175.8</ele>
        <time>2023-08-20T08:48:25Z</time>
      </trkpt>
      <trkpt lat="46.51203" lon="0.37606">
        <ele>175.6</ele>
        <time>2023-08-20T08:48:27Z</time>
      </trkpt>
      <trkpt lat="46.51206" lon="0.37604">
        <ele>175.4</ele>
        <time>2023-08-20T08:48:28Z</time>
      </trkpt>
      <trkpt lat="46.51218" lon="0.37597">
        <ele>175.4</ele>
        <time>2023-08-20T08:48:31Z</time>
      </trkpt>
      <trkpt lat="46.51217" lon="0.37593">
        <ele>175.4</ele>
        <time>2023-08-20T08:48:33Z</time>
      </trkpt>
      <trkpt lat="46.51219" lon="0.37589">
        <ele>175.2</ele>
        <time>2023-08-20T08:48:35Z</time>
      </trkpt>
      <trkpt lat="46.51223" lon="0.37583">
        <ele>175.4</ele>
        <time>2023-08-20T08:48:37Z</time>
      </trkpt>
      <trkpt lat="46.51224" lon="0.37579">
        <ele>175.4</ele>
        <time>2023-08-20T08:48:38Z</time>
      </trkpt>
      <trkpt lat="46.51234" lon="0.37564">
        <ele>175.2</ele>
        <time>2023-08-20T08:48:43Z</time>
      </trkpt>
      <trkpt lat="46.51236" lon="0.3756">
        <ele>175.2</ele>
        <time>2023-08-20T08:48:44Z</time>
      </trkpt>
      <trkpt lat="46.51237" lon="0.37556">
        <ele>175.2</ele>
        <time>2023-08-20T08:48:45Z</time>
      </trkpt>
      <trkpt lat="46.51241" lon="0.37548">
        <ele>175</ele>
        <time>2023-08-20T08:48:47Z</time>
      </trkpt>
      <trkpt lat="46.51241" lon="0.37548">
        <ele>174.8</ele>
        <time>2023-08-20T08:48:48Z</time>
      </trkpt>
      <trkpt lat="46.51249" lon="0.37536">
        <ele>174.6</ele>
        <time>2023-08-20T08:48:50Z</time>
      </trkpt>
      <trkpt lat="46.51258" lon="0.3753">
        <ele>174.4</ele>
        <time>2023-08-20T08:48:52Z</time>
      </trkpt>
      <trkpt lat="46.5126" lon="0.37525">
        <ele>174.4</ele>
        <time>2023-08-20T08:48:54Z</time>
      </trkpt>
      <trkpt lat="46.51252" lon="0.37512">
        <ele>174.6</ele>
        <time>2023-08-20T08:49:00Z</time>
      </trkpt>
      <trkpt lat="46.51245" lon="0.37504">
        <ele>175.6</ele>
        <time>2023-08-20T08:49:04Z</time>
      </trkpt>
      <trkpt lat="46.51243" lon="0.37502">
        <ele>175.8</ele>
        <time>2023-08-20T08:49:05Z</time>
      </trkpt>
      <trkpt lat="46.51238" lon="0.37497">
        <ele>176.2</ele>
        <time>2023-08-20T08:49:07Z</time>
      </trkpt>
      <trkpt lat="46.51234" lon="0.37492">
        <ele>176.4</ele>
        <time>2023-08-20T08:49:09Z</time>
      </trkpt>
      <trkpt lat="46.51232" lon="0.37491">
        <ele>176.6</ele>
        <time>2023-08-20T08:49:11Z</time>
      </trkpt>
      <trkpt lat="46.51225" lon="0.37489">
        <ele>176.6</ele>
        <time>2023-08-20T08:49:12Z</time>
      </trkpt>
      <trkpt lat="46.51214" lon="0.37487">
        <ele>177</ele>
        <time>2023-08-20T08:49:15Z</time>
      </trkpt>
      <trkpt lat="46.51211" lon="0.37485">
        <ele>177</ele>
        <time>2023-08-20T08:49:16Z</time>
      </trkpt>
      <trkpt lat="46.51204" lon="0.37482">
        <ele>177.2</ele>
        <time>2023-08-20T08:49:18Z</time>
      </trkpt>
      <trkpt lat="46.51196" lon="0.37481">
        <ele>177.4</ele>
        <time>2023-08-20T08:49:20Z</time>
      </trkpt>
      <trkpt lat="46.5119" lon="0.37483">
        <ele>177.4</ele>
        <time>2023-08-20T08:49:22Z</time>
      </trkpt>
      <trkpt lat="46.51182" lon="0.37484">
        <ele>177.4</ele>
        <time>2023-08-20T08:49:24Z</time>
      </trkpt>
      <trkpt lat="46.51178" lon="0.37486">
        <ele>177.4</ele>
        <time>2023-08-20T08:49:25Z</time>
      </trkpt>
      <trkpt lat="46.51155" lon="0.37492">
        <ele>177.6</ele>
        <time>2023-08-20T08:49:31Z</time>
      </trkpt>
      <trkpt lat="46.51152" lon="0.37493">
        <ele>177.6</ele>
        <time>2023-08-20T08:49:32Z</time>
      </trkpt>
      <trkpt lat="46.51148" lon="0.37495">
        <ele>177.8</ele>
        <time>2023-08-20T08:49:33Z</time>
      </trkpt>
      <trkpt lat="46.51139" lon="0.37501">
        <ele>177.8</ele>
        <time>2023-08-20T08:49:36Z</time>
      </trkpt>
      <trkpt lat="46.51128" lon="0.37509">
        <ele>177.8</ele>
        <time>2023-08-20T08:49:39Z</time>
      </trkpt>
      <trkpt lat="46.51113" lon="0.37516">
        <ele>178</ele>
        <time>2023-08-20T08:49:42Z</time>
      </trkpt>
      <trkpt lat="46.51096" lon="0.37524">
        <ele>177.8</ele>
        <time>2023-08-20T08:49:45Z</time>
      </trkpt>
      <trkpt lat="46.5109" lon="0.37528">
        <ele>177.8</ele>
        <time>2023-08-20T08:49:46Z</time>
      </trkpt>
      <trkpt lat="46.51081" lon="0.37534">
        <ele>177.6</ele>
        <time>2023-08-20T08:49:48Z</time>
      </trkpt>
      <trkpt lat="46.5107" lon="0.37537">
        <ele>177.4</ele>
        <time>2023-08-20T08:49:50Z</time>
      </trkpt>
      <trkpt lat="46.51061" lon="0.37535">
        <ele>177.4</ele>
        <time>2023-08-20T08:49:52Z</time>
      </trkpt>
      <trkpt lat="46.51055" lon="0.37532">
        <ele>177.6</ele>
        <time>2023-08-20T08:49:54Z</time>
      </trkpt>
      <trkpt lat="46.51035" lon="0.37505">
        <ele>177.8</ele>
        <time>2023-08-20T08:50:00Z</time>
      </trkpt>
      <trkpt lat="46.51028" lon="0.37494">
        <ele>177.6</ele>
        <time>2023-08-20T08:50:03Z</time>
      </trkpt>
      <trkpt lat="46.51025" lon="0.3749">
        <ele>177.6</ele>
        <time>2023-08-20T08:50:04Z</time>
      </trkpt>
      <trkpt lat="46.51022" lon="0.37488">
        <ele>177.6</ele>
        <time>2023-08-20T08:50:05Z</time>
      </trkpt>
      <trkpt lat="46.51013" lon="0.37479">
        <ele>177.6</ele>
        <time>2023-08-20T08:50:09Z</time>
      </trkpt>
      <trkpt lat="46.51006" lon="0.37476">
        <ele>177.6</ele>
        <time>2023-08-20T08:50:11Z</time>
      </trkpt>
      <trkpt lat="46.51003" lon="0.37475">
        <ele>177.6</ele>
        <time>2023-08-20T08:50:13Z</time>
      </trkpt>
      <trkpt lat="46.51002" lon="0.37476">
        <ele>177.6</ele>
        <time>2023-08-20T08:50:14Z</time>
      </trkpt>
      <trkpt lat="46.51001" lon="0.37478">
        <ele>177.4</ele>
        <time>2023-08-20T08:50:17Z</time>
      </trkpt>
      <trkpt lat="46.51" lon="0.37478">
        <ele>177.2</ele>
        <time>2023-08-20T08:50:20Z</time>
      </trkpt>
      <trkpt lat="46.50997" lon="0.37475">
        <ele>177.2</ele>
        <time>2023-08-20T08:50:23Z</time>
      </trkpt>
      <trkpt lat="46.50997" lon="0.37474">
        <ele>177.4</ele>
        <time>2023-08-20T08:50:42Z</time>
      </trkpt>
      <trkpt lat="46.50997" lon="0.37471">
        <ele>177.2</ele>
        <time>2023-08-20T08:50:56Z</time>
      </trkpt>
      <trkpt lat="46.50996" lon="0.37467">
        <ele>177.2</ele>
        <time>2023-08-20T08:51:13Z</time>
      </trkpt>
      <trkpt lat="46.50994" lon="0.37463">
        <ele>177.4</ele>
        <time>2023-08-20T08:51:32Z</time>
      </trkpt>
      <trkpt lat="46.50992" lon="0.37461">
        <ele>177.4</ele>
        <time>2023-08-20T08:51:49Z</time>
      </trkpt>
      <trkpt lat="46.50992" lon="0.37461">
        <ele>177.4</ele>
        <time>2023-08-20T08:52:11Z</time>
      </trkpt>
      <trkpt lat="46.50989" lon="0.37458">
        <ele>177.4</ele>
        <time>2023-08-20T08:52:27Z</time>
      </trkpt>
      <trkpt lat="46.50988" lon="0.37456">
        <ele>177.4</ele>
        <time>2023-08-20T08:52:36Z</time>
      </trkpt>
      <trkpt lat="46.50985" lon="0.37454">
        <ele>177.4</ele>
        <time>2023-08-20T08:52:40Z</time>
      </trkpt>
      <trkpt lat="46.50983" lon="0.37454">
        <ele>177.4</ele>
        <time>2023-08-20T08:52:41Z</time>
      </trkpt>
      <trkpt lat="46.50981" lon="0.37455">
        <ele>177.4</ele>
        <time>2023-08-20T08:52:43Z</time>
      </trkpt>
      <trkpt lat="46.50972" lon="0.37459">
        <ele>177.4</ele>
        <time>2023-08-20T08:52:48Z</time>
      </trkpt>
      <trkpt lat="46.50959" lon="0.37476">
        <ele>177</ele>
        <time>2023-08-20T08:52:54Z</time>
      </trkpt>
      <trkpt lat="46.50948" lon="0.37491">
        <ele>177</ele>
        <time>2023-08-20T08:52:58Z</time>
      </trkpt>
      <trkpt lat="46.50946" lon="0.37495">
        <ele>176.8</ele>
        <time>2023-08-20T08:52:59Z</time>
      </trkpt>
      <trkpt lat="46.50944" lon="0.37498">
        <ele>176.8</ele>
        <time>2023-08-20T08:53:00Z</time>
      </trkpt>
      <trkpt lat="46.50934" lon="0.37509">
        <ele>176.4</ele>
        <time>2023-08-20T08:53:03Z</time>
      </trkpt>
      <trkpt lat="46.50931" lon="0.37513">
        <ele>176.2</ele>
        <time>2023-08-20T08:53:04Z</time>
      </trkpt>
      <trkpt lat="46.50931" lon="0.37513">
        <ele>175.6</ele>
        <time>2023-08-20T08:53:05Z</time>
      </trkpt>
      <trkpt lat="46.50924" lon="0.37523">
        <ele>175.6</ele>
        <time>2023-08-20T08:53:06Z</time>
      </trkpt>
      <trkpt lat="46.50915" lon="0.3754">
        <ele>174.6</ele>
        <time>2023-08-20T08:53:09Z</time>
      </trkpt>
      <trkpt lat="46.50905" lon="0.37555">
        <ele>174.2</ele>
        <time>2023-08-20T08:53:11Z</time>
      </trkpt>
      <trkpt lat="46.50894" lon="0.3757">
        <ele>173.4</ele>
        <time>2023-08-20T08:53:13Z</time>
      </trkpt>
      <trkpt lat="46.50877" lon="0.37594">
        <ele>172</ele>
        <time>2023-08-20T08:53:16Z</time>
      </trkpt>
      <trkpt lat="46.50871" lon="0.37602">
        <ele>171</ele>
        <time>2023-08-20T08:53:17Z</time>
      </trkpt>
      <trkpt lat="46.50866" lon="0.3761">
        <ele>170.2</ele>
        <time>2023-08-20T08:53:18Z</time>
      </trkpt>
      <trkpt lat="46.5086" lon="0.37618">
        <ele>169.4</ele>
        <time>2023-08-20T08:53:19Z</time>
      </trkpt>
      <trkpt lat="46.50845" lon="0.37638">
        <ele>167.4</ele>
        <time>2023-08-20T08:53:21Z</time>
      </trkpt>
      <trkpt lat="46.50838" lon="0.37648">
        <ele>166.4</ele>
        <time>2023-08-20T08:53:22Z</time>
      </trkpt>
      <trkpt lat="46.50829" lon="0.3766">
        <ele>165.8</ele>
        <time>2023-08-20T08:53:23Z</time>
      </trkpt>
      <trkpt lat="46.50823" lon="0.37668">
        <ele>164.8</ele>
        <time>2023-08-20T08:53:24Z</time>
      </trkpt>
      <trkpt lat="46.50812" lon="0.37686">
        <ele>163.8</ele>
        <time>2023-08-20T08:53:26Z</time>
      </trkpt>
      <trkpt lat="46.50797" lon="0.37707">
        <ele>163</ele>
        <time>2023-08-20T08:53:30Z</time>
      </trkpt>
      <trkpt lat="46.50795" lon="0.37711">
        <ele>162.6</ele>
        <time>2023-08-20T08:53:31Z</time>
      </trkpt>
      <trkpt lat="46.50792" lon="0.37714">
        <ele>162</ele>
        <time>2023-08-20T08:53:32Z</time>
      </trkpt>
      <trkpt lat="46.50787" lon="0.3772">
        <ele>161.6</ele>
        <time>2023-08-20T08:53:34Z</time>
      </trkpt>
      <trkpt lat="46.50784" lon="0.37722">
        <ele>161.4</ele>
        <time>2023-08-20T08:53:35Z</time>
      </trkpt>
      <trkpt lat="46.50776" lon="0.3773">
        <ele>160.4</ele>
        <time>2023-08-20T08:53:38Z</time>
      </trkpt>
      <trkpt lat="46.50771" lon="0.37739">
        <ele>159.8</ele>
        <time>2023-08-20T08:53:42Z</time>
      </trkpt>
      <trkpt lat="46.50762" lon="0.37758">
        <ele>159.6</ele>
        <time>2023-08-20T08:53:47Z</time>
      </trkpt>
      <trkpt lat="46.50747" lon="0.37779">
        <ele>160.4</ele>
        <time>2023-08-20T08:53:54Z</time>
      </trkpt>
      <trkpt lat="46.50744" lon="0.37783">
        <ele>160.4</ele>
        <time>2023-08-20T08:53:55Z</time>
      </trkpt>
      <trkpt lat="46.50735" lon="0.37786">
        <ele>161.4</ele>
        <time>2023-08-20T08:53:59Z</time>
      </trkpt>
      <trkpt lat="46.5073" lon="0.37787">
        <ele>161.4</ele>
        <time>2023-08-20T08:54:01Z</time>
      </trkpt>
      <trkpt lat="46.50715" lon="0.37794">
        <ele>161.6</ele>
        <time>2023-08-20T08:54:06Z</time>
      </trkpt>
      <trkpt lat="46.50699" lon="0.37796">
        <ele>161.8</ele>
        <time>2023-08-20T08:54:12Z</time>
      </trkpt>
      <trkpt lat="46.50687" lon="0.37789">
        <ele>162.4</ele>
        <time>2023-08-20T08:54:16Z</time>
      </trkpt>
      <trkpt lat="46.50684" lon="0.37788">
        <ele>162.4</ele>
        <time>2023-08-20T08:54:17Z</time>
      </trkpt>
      <trkpt lat="46.5068" lon="0.37787">
        <ele>162.4</ele>
        <time>2023-08-20T08:54:18Z</time>
      </trkpt>
      <trkpt lat="46.50666" lon="0.3778">
        <ele>162.4</ele>
        <time>2023-08-20T08:54:22Z</time>
      </trkpt>
      <trkpt lat="46.50662" lon="0.37779">
        <ele>162.6</ele>
        <time>2023-08-20T08:54:23Z</time>
      </trkpt>
      <trkpt lat="46.50642" lon="0.37776">
        <ele>163.6</ele>
        <time>2023-08-20T08:54:28Z</time>
      </trkpt>
      <trkpt lat="46.50621" lon="0.37767">
        <ele>164.6</ele>
        <time>2023-08-20T08:54:33Z</time>
      </trkpt>
      <trkpt lat="46.50617" lon="0.37764">
        <ele>164.8</ele>
        <time>2023-08-20T08:54:34Z</time>
      </trkpt>
      <trkpt lat="46.50602" lon="0.37755">
        <ele>165.8</ele>
        <time>2023-08-20T08:54:38Z</time>
      </trkpt>
      <trkpt lat="46.50592" lon="0.37749">
        <ele>166.4</ele>
        <time>2023-08-20T08:54:41Z</time>
      </trkpt>
      <trkpt lat="46.50585" lon="0.37745">
        <ele>166.8</ele>
        <time>2023-08-20T08:54:44Z</time>
      </trkpt>
      <trkpt lat="46.50579" lon="0.37743">
        <ele>167.4</ele>
        <time>2023-08-20T08:54:46Z</time>
      </trkpt>
      <trkpt lat="46.5057" lon="0.37741">
        <ele>168</ele>
        <time>2023-08-20T08:54:49Z</time>
      </trkpt>
      <trkpt lat="46.5056" lon="0.37734">
        <ele>169</ele>
        <time>2023-08-20T08:54:53Z</time>
      </trkpt>
      <trkpt lat="46.50557" lon="0.37731">
        <ele>169.2</ele>
        <time>2023-08-20T08:54:54Z</time>
      </trkpt>
      <trkpt lat="46.50548" lon="0.37722">
        <ele>169.6</ele>
        <time>2023-08-20T08:54:58Z</time>
      </trkpt>
      <trkpt lat="46.50541" lon="0.37718">
        <ele>170.2</ele>
        <time>2023-08-20T08:55:00Z</time>
      </trkpt>
      <trkpt lat="46.50531" lon="0.37717">
        <ele>170.8</ele>
        <time>2023-08-20T08:55:03Z</time>
      </trkpt>
      <trkpt lat="46.50522" lon="0.37716">
        <ele>171.4</ele>
        <time>2023-08-20T08:55:06Z</time>
      </trkpt>
      <trkpt lat="46.5051" lon="0.37713">
        <ele>171.8</ele>
        <time>2023-08-20T08:55:10Z</time>
      </trkpt>
      <trkpt lat="46.50504" lon="0.37714">
        <ele>172.4</ele>
        <time>2023-08-20T08:55:13Z</time>
      </trkpt>
      <trkpt lat="46.50501" lon="0.37716">
        <ele>172.8</ele>
        <time>2023-08-20T08:55:15Z</time>
      </trkpt>
      <trkpt lat="46.505" lon="0.3772">
        <ele>173.6</ele>
        <time>2023-08-20T08:55:17Z</time>
      </trkpt>
      <trkpt lat="46.50495" lon="0.37733">
        <ele>174.4</ele>
        <time>2023-08-20T08:55:22Z</time>
      </trkpt>
      <trkpt lat="46.50494" lon="0.37736">
        <ele>174.6</ele>
        <time>2023-08-20T08:55:23Z</time>
      </trkpt>
      <trkpt lat="46.50488" lon="0.37752">
        <ele>175</ele>
        <time>2023-08-20T08:55:28Z</time>
      </trkpt>
      <trkpt lat="46.50485" lon="0.37771">
        <ele>175.6</ele>
        <time>2023-08-20T08:55:32Z</time>
      </trkpt>
      <trkpt lat="46.50484" lon="0.37784">
        <ele>175.8</ele>
        <time>2023-08-20T08:55:35Z</time>
      </trkpt>
      <trkpt lat="46.50485" lon="0.3781">
        <ele>176</ele>
        <time>2023-08-20T08:55:41Z</time>
      </trkpt>
      <trkpt lat="46.50487" lon="0.37814">
        <ele>176</ele>
        <time>2023-08-20T08:55:42Z</time>
      </trkpt>
      <trkpt lat="46.5049" lon="0.37822">
        <ele>175.8</ele>
        <time>2023-08-20T08:55:44Z</time>
      </trkpt>
      <trkpt lat="46.50491" lon="0.37834">
        <ele>175.8</ele>
        <time>2023-08-20T08:55:46Z</time>
      </trkpt>
      <trkpt lat="46.50493" lon="0.37845">
        <ele>175.8</ele>
        <time>2023-08-20T08:55:48Z</time>
      </trkpt>
      <trkpt lat="46.50497" lon="0.3787">
        <ele>176</ele>
        <time>2023-08-20T08:55:52Z</time>
      </trkpt>
      <trkpt lat="46.50498" lon="0.37877">
        <ele>176</ele>
        <time>2023-08-20T08:55:53Z</time>
      </trkpt>
      <trkpt lat="46.505" lon="0.37906">
        <ele>175.8</ele>
        <time>2023-08-20T08:55:58Z</time>
      </trkpt>
      <trkpt lat="46.50501" lon="0.37912">
        <ele>175.8</ele>
        <time>2023-08-20T08:55:59Z</time>
      </trkpt>
      <trkpt lat="46.50508" lon="0.37941">
        <ele>176.4</ele>
        <time>2023-08-20T08:56:05Z</time>
      </trkpt>
      <trkpt lat="46.50511" lon="0.37953">
        <ele>176.8</ele>
        <time>2023-08-20T08:56:07Z</time>
      </trkpt>
      <trkpt lat="46.50514" lon="0.3798">
        <ele>177</ele>
        <time>2023-08-20T08:56:11Z</time>
      </trkpt>
      <trkpt lat="46.50516" lon="0.38004">
        <ele>177.2</ele>
        <time>2023-08-20T08:56:15Z</time>
      </trkpt>
      <trkpt lat="46.5052" lon="0.38019">
        <ele>177.2</ele>
        <time>2023-08-20T08:56:17Z</time>
      </trkpt>
      <trkpt lat="46.50518" lon="0.38029">
        <ele>177</ele>
        <time>2023-08-20T08:56:19Z</time>
      </trkpt>
      <trkpt lat="46.50516" lon="0.38041">
        <ele>177</ele>
        <time>2023-08-20T08:56:21Z</time>
      </trkpt>
      <trkpt lat="46.50513" lon="0.38054">
        <ele>177</ele>
        <time>2023-08-20T08:56:23Z</time>
      </trkpt>
      <trkpt lat="46.50507" lon="0.38073">
        <ele>177</ele>
        <time>2023-08-20T08:56:26Z</time>
      </trkpt>
      <trkpt lat="46.50502" lon="0.38084">
        <ele>177</ele>
        <time>2023-08-20T08:56:28Z</time>
      </trkpt>
      <trkpt lat="46.50495" lon="0.38101">
        <ele>177</ele>
        <time>2023-08-20T08:56:31Z</time>
      </trkpt>
      <trkpt lat="46.50481" lon="0.38136">
        <ele>177.4</ele>
        <time>2023-08-20T08:56:37Z</time>
      </trkpt>
      <trkpt lat="46.50458" lon="0.38172">
        <ele>177.2</ele>
        <time>2023-08-20T08:56:43Z</time>
      </trkpt>
      <trkpt lat="46.50443" lon="0.38198">
        <ele>176.8</ele>
        <time>2023-08-20T08:56:48Z</time>
      </trkpt>
      <trkpt lat="46.5044" lon="0.38206">
        <ele>176.6</ele>
        <time>2023-08-20T08:56:50Z</time>
      </trkpt>
      <trkpt lat="46.5044" lon="0.38215">
        <ele>176.4</ele>
        <time>2023-08-20T08:56:52Z</time>
      </trkpt>
      <trkpt lat="46.50444" lon="0.38233">
        <ele>176.6</ele>
        <time>2023-08-20T08:56:56Z</time>
      </trkpt>
      <trkpt lat="46.50446" lon="0.38236">
        <ele>176.6</ele>
        <time>2023-08-20T08:56:57Z</time>
      </trkpt>
      <trkpt lat="46.50448" lon="0.38245">
        <ele>176.4</ele>
        <time>2023-08-20T08:56:59Z</time>
      </trkpt>
      <trkpt lat="46.50451" lon="0.38258">
        <ele>176</ele>
        <time>2023-08-20T08:57:01Z</time>
      </trkpt>
      <trkpt lat="46.50452" lon="0.38263">
        <ele>175.8</ele>
        <time>2023-08-20T08:57:02Z</time>
      </trkpt>
      <trkpt lat="46.50454" lon="0.38275">
        <ele>175.8</ele>
        <time>2023-08-20T08:57:04Z</time>
      </trkpt>
      <trkpt lat="46.50461" lon="0.38293">
        <ele>175.8</ele>
        <time>2023-08-20T08:57:07Z</time>
      </trkpt>
      <trkpt lat="46.50468" lon="0.38312">
        <ele>175.6</ele>
        <time>2023-08-20T08:57:10Z</time>
      </trkpt>
      <trkpt lat="46.50473" lon="0.38322">
        <ele>175.2</ele>
        <time>2023-08-20T08:57:12Z</time>
      </trkpt>
      <trkpt lat="46.50475" lon="0.38325">
        <ele>175</ele>
        <time>2023-08-20T08:57:13Z</time>
      </trkpt>
      <trkpt lat="46.50479" lon="0.38335">
        <ele>174.8</ele>
        <time>2023-08-20T08:57:15Z</time>
      </trkpt>
      <trkpt lat="46.50481" lon="0.38341">
        <ele>174.6</ele>
        <time>2023-08-20T08:57:16Z</time>
      </trkpt>
      <trkpt lat="46.50487" lon="0.38361">
        <ele>174.4</ele>
        <time>2023-08-20T08:57:19Z</time>
      </trkpt>
      <trkpt lat="46.50492" lon="0.38374">
        <ele>174.6</ele>
        <time>2023-08-20T08:57:21Z</time>
      </trkpt>
      <trkpt lat="46.50498" lon="0.38381">
        <ele>174.4</ele>
        <time>2023-08-20T08:57:23Z</time>
      </trkpt>
      <trkpt lat="46.50503" lon="0.38389">
        <ele>174</ele>
        <time>2023-08-20T08:57:25Z</time>
      </trkpt>
      <trkpt lat="46.50506" lon="0.38395">
        <ele>173.6</ele>
        <time>2023-08-20T08:57:27Z</time>
      </trkpt>
      <trkpt lat="46.5051" lon="0.38403">
        <ele>173.6</ele>
        <time>2023-08-20T08:57:29Z</time>
      </trkpt>
      <trkpt lat="46.50516" lon="0.3841">
        <ele>173.8</ele>
        <time>2023-08-20T08:57:31Z</time>
      </trkpt>
      <trkpt lat="46.50521" lon="0.38415">
        <ele>174</ele>
        <time>2023-08-20T08:57:33Z</time>
      </trkpt>
      <trkpt lat="46.50526" lon="0.38424">
        <ele>173.8</ele>
        <time>2023-08-20T08:57:35Z</time>
      </trkpt>
      <trkpt lat="46.50528" lon="0.38429">
        <ele>173.6</ele>
        <time>2023-08-20T08:57:36Z</time>
      </trkpt>
      <trkpt lat="46.50537" lon="0.38449">
        <ele>174</ele>
        <time>2023-08-20T08:57:40Z</time>
      </trkpt>
      <trkpt lat="46.50539" lon="0.38451">
        <ele>174</ele>
        <time>2023-08-20T08:57:41Z</time>
      </trkpt>
      <trkpt lat="46.50542" lon="0.38452">
        <ele>174.2</ele>
        <time>2023-08-20T08:57:43Z</time>
      </trkpt>
      <trkpt lat="46.50545" lon="0.38451">
        <ele>174</ele>
        <time>2023-08-20T08:57:46Z</time>
      </trkpt>
      <trkpt lat="46.50549" lon="0.38453">
        <ele>174</ele>
        <time>2023-08-20T08:57:48Z</time>
      </trkpt>
      <trkpt lat="46.50557" lon="0.3846">
        <ele>174</ele>
        <time>2023-08-20T08:57:50Z</time>
      </trkpt>
      <trkpt lat="46.50568" lon="0.38471">
        <ele>174</ele>
        <time>2023-08-20T08:57:54Z</time>
      </trkpt>
      <trkpt lat="46.5057" lon="0.38474">
        <ele>174</ele>
        <time>2023-08-20T08:57:55Z</time>
      </trkpt>
      <trkpt lat="46.50571" lon="0.38477">
        <ele>174</ele>
        <time>2023-08-20T08:57:56Z</time>
      </trkpt>
      <trkpt lat="46.50567" lon="0.38484">
        <ele>174</ele>
        <time>2023-08-20T08:57:59Z</time>
      </trkpt>
      <trkpt lat="46.50565" lon="0.38486">
        <ele>174</ele>
        <time>2023-08-20T08:58:00Z</time>
      </trkpt>
      <trkpt lat="46.50562" lon="0.38491">
        <ele>174.2</ele>
        <time>2023-08-20T08:58:02Z</time>
      </trkpt>
      <trkpt lat="46.50559" lon="0.38495">
        <ele>174.4</ele>
        <time>2023-08-20T08:58:04Z</time>
      </trkpt>
      <trkpt lat="46.50557" lon="0.38495">
        <ele>174.4</ele>
        <time>2023-08-20T08:58:05Z</time>
      </trkpt>
      <trkpt lat="46.50557" lon="0.38493">
        <ele>174.4</ele>
        <time>2023-08-20T08:58:07Z</time>
      </trkpt>
      <trkpt lat="46.50559" lon="0.38492">
        <ele>174.2</ele>
        <time>2023-08-20T08:58:08Z</time>
      </trkpt>
      <trkpt lat="46.50563" lon="0.38483">
        <ele>173.6</ele>
        <time>2023-08-20T08:58:13Z</time>
      </trkpt>
      <trkpt lat="46.50566" lon="0.38481">
        <ele>173.6</ele>
        <time>2023-08-20T08:58:16Z</time>
      </trkpt>
      <trkpt lat="46.5057" lon="0.38482">
        <ele>173.6</ele>
        <time>2023-08-20T08:58:18Z</time>
      </trkpt>
      <trkpt lat="46.50571" lon="0.38483">
        <ele>173.6</ele>
        <time>2023-08-20T08:58:19Z</time>
      </trkpt>
      <trkpt lat="46.50582" lon="0.38492">
        <ele>174</ele>
        <time>2023-08-20T08:58:25Z</time>
      </trkpt>
      <trkpt lat="46.50578" lon="0.38499">
        <ele>173.6</ele>
        <time>2023-08-20T08:58:29Z</time>
      </trkpt>
      <trkpt lat="46.5057" lon="0.38507">
        <ele>173.6</ele>
        <time>2023-08-20T08:58:35Z</time>
      </trkpt>
      <trkpt lat="46.5057" lon="0.38511">
        <ele>173.8</ele>
        <time>2023-08-20T08:58:39Z</time>
      </trkpt>
      <trkpt lat="46.50563" lon="0.38508">
        <ele>173.8</ele>
        <time>2023-08-20T08:58:50Z</time>
      </trkpt>
      <trkpt lat="46.50562" lon="0.38504">
        <ele>173.8</ele>
        <time>2023-08-20T08:58:53Z</time>
      </trkpt>
      <trkpt lat="46.50564" lon="0.38497">
        <ele>173.6</ele>
        <time>2023-08-20T08:58:57Z</time>
      </trkpt>
      <trkpt lat="46.5057" lon="0.38476">
        <ele>173.2</ele>
        <time>2023-08-20T08:59:07Z</time>
      </trkpt>
      <trkpt lat="46.50576" lon="0.38463">
        <ele>172.4</ele>
        <time>2023-08-20T08:59:12Z</time>
      </trkpt>
      <trkpt lat="46.50584" lon="0.38446">
        <ele>171.4</ele>
        <time>2023-08-20T08:59:17Z</time>
      </trkpt>
      <trkpt lat="46.50588" lon="0.38439">
        <ele>170.8</ele>
        <time>2023-08-20T08:59:19Z</time>
      </trkpt>
      <trkpt lat="46.5059" lon="0.38434">
        <ele>170.2</ele>
        <time>2023-08-20T08:59:20Z</time>
      </trkpt>
      <trkpt lat="46.50593" lon="0.38426">
        <ele>169.6</ele>
        <time>2023-08-20T08:59:22Z</time>
      </trkpt>
      <trkpt lat="46.50601" lon="0.3842">
        <ele>169.2</ele>
        <time>2023-08-20T08:59:24Z</time>
      </trkpt>
      <trkpt lat="46.50608" lon="0.38413">
        <ele>168.8</ele>
        <time>2023-08-20T08:59:26Z</time>
      </trkpt>
      <trkpt lat="46.50615" lon="0.38405">
        <ele>168</ele>
        <time>2023-08-20T08:59:28Z</time>
      </trkpt>
      <trkpt lat="46.50618" lon="0.38401">
        <ele>167.8</ele>
        <time>2023-08-20T08:59:29Z</time>
      </trkpt>
      <trkpt lat="46.50625" lon="0.3839">
        <ele>167.6</ele>
        <time>2023-08-20T08:59:31Z</time>
      </trkpt>
      <trkpt lat="46.50639" lon="0.38376">
        <ele>167.6</ele>
        <time>2023-08-20T08:59:35Z</time>
      </trkpt>
      <trkpt lat="46.50646" lon="0.3837">
        <ele>167.8</ele>
        <time>2023-08-20T08:59:37Z</time>
      </trkpt>
      <trkpt lat="46.50663" lon="0.38358">
        <ele>168.2</ele>
        <time>2023-08-20T08:59:41Z</time>
      </trkpt>
      <trkpt lat="46.50673" lon="0.38354">
        <ele>168.8</ele>
        <time>2023-08-20T08:59:44Z</time>
      </trkpt>
      <trkpt lat="46.50681" lon="0.38352">
        <ele>169.2</ele>
        <time>2023-08-20T08:59:46Z</time>
      </trkpt>
      <trkpt lat="46.50689" lon="0.38353">
        <ele>169.2</ele>
        <time>2023-08-20T08:59:48Z</time>
      </trkpt>
      <trkpt lat="46.50699" lon="0.38359">
        <ele>169</ele>
        <time>2023-08-20T08:59:51Z</time>
      </trkpt>
      <trkpt lat="46.5071" lon="0.38373">
        <ele>168.4</ele>
        <time>2023-08-20T08:59:54Z</time>
      </trkpt>
      <trkpt lat="46.50712" lon="0.38377">
        <ele>168</ele>
        <time>2023-08-20T08:59:55Z</time>
      </trkpt>
      <trkpt lat="46.50715" lon="0.3838">
        <ele>167.6</ele>
        <time>2023-08-20T08:59:56Z</time>
      </trkpt>
      <trkpt lat="46.50726" lon="0.38387">
        <ele>166.8</ele>
        <time>2023-08-20T08:59:59Z</time>
      </trkpt>
      <trkpt lat="46.50734" lon="0.38391">
        <ele>166.2</ele>
        <time>2023-08-20T09:00:01Z</time>
      </trkpt>
      <trkpt lat="46.50741" lon="0.3839">
        <ele>166.2</ele>
        <time>2023-08-20T09:00:03Z</time>
      </trkpt>
      <trkpt lat="46.50747" lon="0.3839">
        <ele>166.4</ele>
        <time>2023-08-20T09:00:04Z</time>
      </trkpt>
      <trkpt lat="46.50767" lon="0.38391">
        <ele>166.4</ele>
        <time>2023-08-20T09:00:07Z</time>
      </trkpt>
      <trkpt lat="46.5078" lon="0.38393">
        <ele>166.6</ele>
        <time>2023-08-20T09:00:09Z</time>
      </trkpt>
      <trkpt lat="46.50793" lon="0.38393">
        <ele>166.6</ele>
        <time>2023-08-20T09:00:11Z</time>
      </trkpt>
      <trkpt lat="46.50799" lon="0.38392">
        <ele>166.6</ele>
        <time>2023-08-20T09:00:13Z</time>
      </trkpt>
      <trkpt lat="46.50816" lon="0.38386">
        <ele>167</ele>
        <time>2023-08-20T09:00:20Z</time>
      </trkpt>
      <trkpt lat="46.50821" lon="0.38379">
        <ele>167.8</ele>
        <time>2023-08-20T09:00:24Z</time>
      </trkpt>
      <trkpt lat="46.50824" lon="0.38377">
        <ele>168</ele>
        <time>2023-08-20T09:00:25Z</time>
      </trkpt>
      <trkpt lat="46.50826" lon="0.38375">
        <ele>168</ele>
        <time>2023-08-20T09:00:26Z</time>
      </trkpt>
      <trkpt lat="46.50839" lon="0.38359">
        <ele>169</ele>
        <time>2023-08-20T09:00:31Z</time>
      </trkpt>
      <trkpt lat="46.50845" lon="0.38352">
        <ele>169.2</ele>
        <time>2023-08-20T09:00:33Z</time>
      </trkpt>
      <trkpt lat="46.50848" lon="0.38349">
        <ele>169.2</ele>
        <time>2023-08-20T09:00:34Z</time>
      </trkpt>
      <trkpt lat="46.50857" lon="0.38345">
        <ele>169.2</ele>
        <time>2023-08-20T09:00:36Z</time>
      </trkpt>
      <trkpt lat="46.50861" lon="0.38341">
        <ele>169.4</ele>
        <time>2023-08-20T09:00:37Z</time>
      </trkpt>
      <trkpt lat="46.50864" lon="0.38336">
        <ele>169.4</ele>
        <time>2023-08-20T09:00:38Z</time>
      </trkpt>
      <trkpt lat="46.5087" lon="0.38327">
        <ele>169</ele>
        <time>2023-08-20T09:00:40Z</time>
      </trkpt>
      <trkpt lat="46.50872" lon="0.38322">
        <ele>168.8</ele>
        <time>2023-08-20T09:00:41Z</time>
      </trkpt>
      <trkpt lat="46.50874" lon="0.38316">
        <ele>168.6</ele>
        <time>2023-08-20T09:00:42Z</time>
      </trkpt>
      <trkpt lat="46.50879" lon="0.38303">
        <ele>168.6</ele>
        <time>2023-08-20T09:00:44Z</time>
      </trkpt>
      <trkpt lat="46.50886" lon="0.38293">
        <ele>169</ele>
        <time>2023-08-20T09:00:46Z</time>
      </trkpt>
      <trkpt lat="46.5091" lon="0.38245">
        <ele>169.6</ele>
        <time>2023-08-20T09:00:54Z</time>
      </trkpt>
      <trkpt lat="46.50918" lon="0.38231">
        <ele>169.2</ele>
        <time>2023-08-20T09:00:57Z</time>
      </trkpt>
      <trkpt lat="46.50921" lon="0.38226">
        <ele>169.2</ele>
        <time>2023-08-20T09:00:58Z</time>
      </trkpt>
      <trkpt lat="46.50923" lon="0.3822">
        <ele>169</ele>
        <time>2023-08-20T09:00:59Z</time>
      </trkpt>
      <trkpt lat="46.50936" lon="0.38193">
        <ele>168.8</ele>
        <time>2023-08-20T09:01:03Z</time>
      </trkpt>
      <trkpt lat="46.50938" lon="0.38189">
        <ele>168.8</ele>
        <time>2023-08-20T09:01:04Z</time>
      </trkpt>
      <trkpt lat="46.50944" lon="0.38185">
        <ele>168.8</ele>
        <time>2023-08-20T09:01:07Z</time>
      </trkpt>
      <trkpt lat="46.50954" lon="0.38189">
        <ele>168.4</ele>
        <time>2023-08-20T09:01:10Z</time>
      </trkpt>
      <trkpt lat="46.50961" lon="0.38194">
        <ele>168.2</ele>
        <time>2023-08-20T09:01:12Z</time>
      </trkpt>
      <trkpt lat="46.50963" lon="0.38196">
        <ele>168</ele>
        <time>2023-08-20T09:01:13Z</time>
      </trkpt>
      <trkpt lat="46.50964" lon="0.38199">
        <ele>168</ele>
        <time>2023-08-20T09:01:14Z</time>
      </trkpt>
      <trkpt lat="46.50965" lon="0.38216">
        <ele>166.6</ele>
        <time>2023-08-20T09:01:18Z</time>
      </trkpt>
      <trkpt lat="46.50965" lon="0.38222">
        <ele>166.4</ele>
        <time>2023-08-20T09:01:19Z</time>
      </trkpt>
      <trkpt lat="46.50963" lon="0.38248">
        <ele>165.6</ele>
        <time>2023-08-20T09:01:23Z</time>
      </trkpt>
      <trkpt lat="46.50961" lon="0.38267">
        <ele>164.4</ele>
        <time>2023-08-20T09:01:26Z</time>
      </trkpt>
      <trkpt lat="46.50961" lon="0.38271">
        <ele>164</ele>
        <time>2023-08-20T09:01:27Z</time>
      </trkpt>
      <trkpt lat="46.5096" lon="0.38278">
        <ele>163.4</ele>
        <time>2023-08-20T09:01:29Z</time>
      </trkpt>
      <trkpt lat="46.50958" lon="0.38284">
        <ele>163</ele>
        <time>2023-08-20T09:01:31Z</time>
      </trkpt>
      <trkpt lat="46.50948" lon="0.38298">
        <ele>163.6</ele>
        <time>2023-08-20T09:01:36Z</time>
      </trkpt>
      <trkpt lat="46.50934" lon="0.3832">
        <ele>164.4</ele>
        <time>2023-08-20T09:01:43Z</time>
      </trkpt>
      <trkpt lat="46.50932" lon="0.38324">
        <ele>164.6</ele>
        <time>2023-08-20T09:01:44Z</time>
      </trkpt>
      <trkpt lat="46.50921" lon="0.38337">
        <ele>165.2</ele>
        <time>2023-08-20T09:01:49Z</time>
      </trkpt>
      <trkpt lat="46.50912" lon="0.38352">
        <ele>165.4</ele>
        <time>2023-08-20T09:01:53Z</time>
      </trkpt>
      <trkpt lat="46.50907" lon="0.38357">
        <ele>165.2</ele>
        <time>2023-08-20T09:01:55Z</time>
      </trkpt>
      <trkpt lat="46.50892" lon="0.38372">
        <ele>165</ele>
        <time>2023-08-20T09:02:02Z</time>
      </trkpt>
      <trkpt lat="46.50879" lon="0.38384">
        <ele>165.2</ele>
        <time>2023-08-20T09:02:07Z</time>
      </trkpt>
      <trkpt lat="46.50872" lon="0.3839">
        <ele>165.2</ele>
        <time>2023-08-20T09:02:09Z</time>
      </trkpt>
      <trkpt lat="46.50864" lon="0.38397">
        <ele>165.2</ele>
        <time>2023-08-20T09:02:11Z</time>
      </trkpt>
      <trkpt lat="46.50861" lon="0.38399">
        <ele>164.8</ele>
        <time>2023-08-20T09:02:12Z</time>
      </trkpt>
      <trkpt lat="46.50857" lon="0.38404">
        <ele>164.2</ele>
        <time>2023-08-20T09:02:14Z</time>
      </trkpt>
      <trkpt lat="46.50852" lon="0.38411">
        <ele>163.6</ele>
        <time>2023-08-20T09:02:16Z</time>
      </trkpt>
      <trkpt lat="46.5085" lon="0.38414">
        <ele>162.8</ele>
        <time>2023-08-20T09:02:17Z</time>
      </trkpt>
      <trkpt lat="46.50846" lon="0.38418">
        <ele>162.2</ele>
        <time>2023-08-20T09:02:18Z</time>
      </trkpt>
      <trkpt lat="46.50843" lon="0.38422">
        <ele>162</ele>
        <time>2023-08-20T09:02:19Z</time>
      </trkpt>
      <trkpt lat="46.50837" lon="0.38432">
        <ele>161.4</ele>
        <time>2023-08-20T09:02:21Z</time>
      </trkpt>
      <trkpt lat="46.50836" lon="0.38436">
        <ele>161</ele>
        <time>2023-08-20T09:02:22Z</time>
      </trkpt>
      <trkpt lat="46.50836" lon="0.38439">
        <ele>160.8</ele>
        <time>2023-08-20T09:02:23Z</time>
      </trkpt>
      <trkpt lat="46.50836" lon="0.38444">
        <ele>160.4</ele>
        <time>2023-08-20T09:02:25Z</time>
      </trkpt>
      <trkpt lat="46.50837" lon="0.38446">
        <ele>160</ele>
        <time>2023-08-20T09:02:26Z</time>
      </trkpt>
      <trkpt lat="46.50837" lon="0.38451">
        <ele>159.6</ele>
        <time>2023-08-20T09:02:27Z</time>
      </trkpt>
      <trkpt lat="46.50838" lon="0.38457">
        <ele>159</ele>
        <time>2023-08-20T09:02:29Z</time>
      </trkpt>
      <trkpt lat="46.50839" lon="0.38459">
        <ele>158.8</ele>
        <time>2023-08-20T09:02:30Z</time>
      </trkpt>
      <trkpt lat="46.5084" lon="0.38462">
        <ele>158.4</ele>
        <time>2023-08-20T09:02:31Z</time>
      </trkpt>
      <trkpt lat="46.50846" lon="0.38473">
        <ele>158</ele>
        <time>2023-08-20T09:02:34Z</time>
      </trkpt>
      <trkpt lat="46.50849" lon="0.38477">
        <ele>157.8</ele>
        <time>2023-08-20T09:02:35Z</time>
      </trkpt>
      <trkpt lat="46.50854" lon="0.38488">
        <ele>157.6</ele>
        <time>2023-08-20T09:02:37Z</time>
      </trkpt>
      <trkpt lat="46.50859" lon="0.38501">
        <ele>157.6</ele>
        <time>2023-08-20T09:02:39Z</time>
      </trkpt>
      <trkpt lat="46.50864" lon="0.38516">
        <ele>158</ele>
        <time>2023-08-20T09:02:42Z</time>
      </trkpt>
      <trkpt lat="46.50868" lon="0.38525">
        <ele>158.8</ele>
        <time>2023-08-20T09:02:44Z</time>
      </trkpt>
      <trkpt lat="46.50875" lon="0.38543">
        <ele>159.8</ele>
        <time>2023-08-20T09:02:48Z</time>
      </trkpt>
      <trkpt lat="46.50877" lon="0.38547">
        <ele>160</ele>
        <time>2023-08-20T09:02:49Z</time>
      </trkpt>
      <trkpt lat="46.50879" lon="0.38557">
        <ele>160.6</ele>
        <time>2023-08-20T09:02:52Z</time>
      </trkpt>
      <trkpt lat="46.50878" lon="0.38561">
        <ele>160.8</ele>
        <time>2023-08-20T09:02:53Z</time>
      </trkpt>
      <trkpt lat="46.50877" lon="0.38571">
        <ele>161.2</ele>
        <time>2023-08-20T09:02:56Z</time>
      </trkpt>
      <trkpt lat="46.50875" lon="0.38585">
        <ele>162</ele>
        <time>2023-08-20T09:03:00Z</time>
      </trkpt>
      <trkpt lat="46.5087" lon="0.38597">
        <ele>162.4</ele>
        <time>2023-08-20T09:03:03Z</time>
      </trkpt>
      <trkpt lat="46.50866" lon="0.38604">
        <ele>162.8</ele>
        <time>2023-08-20T09:03:05Z</time>
      </trkpt>
      <trkpt lat="46.5086" lon="0.38615">
        <ele>163.4</ele>
        <time>2023-08-20T09:03:09Z</time>
      </trkpt>
      <trkpt lat="46.50855" lon="0.38621">
        <ele>164</ele>
        <time>2023-08-20T09:03:12Z</time>
      </trkpt>
      <trkpt lat="46.50852" lon="0.38625">
        <ele>164.6</ele>
        <time>2023-08-20T09:03:14Z</time>
      </trkpt>
      <trkpt lat="46.50846" lon="0.38633">
        <ele>165.6</ele>
        <time>2023-08-20T09:03:18Z</time>
      </trkpt>
      <trkpt lat="46.50838" lon="0.38647">
        <ele>166.4</ele>
        <time>2023-08-20T09:03:23Z</time>
      </trkpt>
      <trkpt lat="46.50836" lon="0.38648">
        <ele>166.6</ele>
        <time>2023-08-20T09:03:24Z</time>
      </trkpt>
      <trkpt lat="46.50824" lon="0.38658">
        <ele>167.4</ele>
        <time>2023-08-20T09:03:29Z</time>
      </trkpt>
      <trkpt lat="46.50819" lon="0.38666">
        <ele>167.8</ele>
        <time>2023-08-20T09:03:32Z</time>
      </trkpt>
      <trkpt lat="46.50812" lon="0.38673">
        <ele>168.4</ele>
        <time>2023-08-20T09:03:35Z</time>
      </trkpt>
      <trkpt lat="46.50804" lon="0.38682">
        <ele>169</ele>
        <time>2023-08-20T09:03:38Z</time>
      </trkpt>
      <trkpt lat="46.50793" lon="0.38692">
        <ele>169.2</ele>
        <time>2023-08-20T09:03:42Z</time>
      </trkpt>
      <trkpt lat="46.50776" lon="0.3871">
        <ele>169.4</ele>
        <time>2023-08-20T09:03:48Z</time>
      </trkpt>
      <trkpt lat="46.50765" lon="0.3872">
        <ele>169.2</ele>
        <time>2023-08-20T09:03:51Z</time>
      </trkpt>
      <trkpt lat="46.50756" lon="0.38725">
        <ele>169</ele>
        <time>2023-08-20T09:03:53Z</time>
      </trkpt>
      <trkpt lat="46.5074" lon="0.38733">
        <ele>169.2</ele>
        <time>2023-08-20T09:03:57Z</time>
      </trkpt>
      <trkpt lat="46.50732" lon="0.3874">
        <ele>169.2</ele>
        <time>2023-08-20T09:03:59Z</time>
      </trkpt>
      <trkpt lat="46.50723" lon="0.38746">
        <ele>169.4</ele>
        <time>2023-08-20T09:04:01Z</time>
      </trkpt>
      <trkpt lat="46.50704" lon="0.38758">
        <ele>169.4</ele>
        <time>2023-08-20T09:04:05Z</time>
      </trkpt>
      <trkpt lat="46.50682" lon="0.38768">
        <ele>169.4</ele>
        <time>2023-08-20T09:04:10Z</time>
      </trkpt>
      <trkpt lat="46.50678" lon="0.38769">
        <ele>169.2</ele>
        <time>2023-08-20T09:04:11Z</time>
      </trkpt>
      <trkpt lat="46.50636" lon="0.38787">
        <ele>169.4</ele>
        <time>2023-08-20T09:04:19Z</time>
      </trkpt>
      <trkpt lat="46.50617" lon="0.38797">
        <ele>169.4</ele>
        <time>2023-08-20T09:04:22Z</time>
      </trkpt>
      <trkpt lat="46.50607" lon="0.38805">
        <ele>169.4</ele>
        <time>2023-08-20T09:04:24Z</time>
      </trkpt>
      <trkpt lat="46.50571" lon="0.38847">
        <ele>168.8</ele>
        <time>2023-08-20T09:04:32Z</time>
      </trkpt>
      <trkpt lat="46.50552" lon="0.38875">
        <ele>168.4</ele>
        <time>2023-08-20T09:04:38Z</time>
      </trkpt>
      <trkpt lat="46.50548" lon="0.3888">
        <ele>168.2</ele>
        <time>2023-08-20T09:04:39Z</time>
      </trkpt>
      <trkpt lat="46.50544" lon="0.38894">
        <ele>168.2</ele>
        <time>2023-08-20T09:04:41Z</time>
      </trkpt>
      <trkpt lat="46.50542" lon="0.38902">
        <ele>168.2</ele>
        <time>2023-08-20T09:04:42Z</time>
      </trkpt>
      <trkpt lat="46.5054" lon="0.38909">
        <ele>168.2</ele>
        <time>2023-08-20T09:04:43Z</time>
      </trkpt>
      <trkpt lat="46.50536" lon="0.38925">
        <ele>167.8</ele>
        <time>2023-08-20T09:04:45Z</time>
      </trkpt>
      <trkpt lat="46.50531" lon="0.38941">
        <ele>167</ele>
        <time>2023-08-20T09:04:47Z</time>
      </trkpt>
      <trkpt lat="46.50526" lon="0.38956">
        <ele>166.6</ele>
        <time>2023-08-20T09:04:49Z</time>
      </trkpt>
      <trkpt lat="46.50518" lon="0.38986">
        <ele>165.8</ele>
        <time>2023-08-20T09:04:53Z</time>
      </trkpt>
      <trkpt lat="46.50511" lon="0.39011">
        <ele>165.6</ele>
        <time>2023-08-20T09:04:56Z</time>
      </trkpt>
      <trkpt lat="46.50504" lon="0.39038">
        <ele>165</ele>
        <time>2023-08-20T09:04:59Z</time>
      </trkpt>
      <trkpt lat="46.50502" lon="0.39048">
        <ele>164.8</ele>
        <time>2023-08-20T09:05:00Z</time>
      </trkpt>
      <trkpt lat="46.50495" lon="0.39072">
        <ele>164.4</ele>
        <time>2023-08-20T09:05:03Z</time>
      </trkpt>
      <trkpt lat="46.50488" lon="0.39095">
        <ele>164.2</ele>
        <time>2023-08-20T09:05:06Z</time>
      </trkpt>
      <trkpt lat="46.50482" lon="0.39131">
        <ele>163.4</ele>
        <time>2023-08-20T09:05:11Z</time>
      </trkpt>
      <trkpt lat="46.5048" lon="0.39148">
        <ele>162.8</ele>
        <time>2023-08-20T09:05:13Z</time>
      </trkpt>
      <trkpt lat="46.50477" lon="0.39162">
        <ele>162.8</ele>
        <time>2023-08-20T09:05:15Z</time>
      </trkpt>
      <trkpt lat="46.50475" lon="0.39182">
        <ele>162.6</ele>
        <time>2023-08-20T09:05:18Z</time>
      </trkpt>
      <trkpt lat="46.50473" lon="0.39189">
        <ele>162.4</ele>
        <time>2023-08-20T09:05:19Z</time>
      </trkpt>
      <trkpt lat="46.5047" lon="0.39196">
        <ele>162.4</ele>
        <time>2023-08-20T09:05:20Z</time>
      </trkpt>
      <trkpt lat="46.50454" lon="0.39225">
        <ele>161.4</ele>
        <time>2023-08-20T09:05:24Z</time>
      </trkpt>
      <trkpt lat="46.50448" lon="0.39233">
        <ele>161.2</ele>
        <time>2023-08-20T09:05:25Z</time>
      </trkpt>
      <trkpt lat="46.50442" lon="0.39238">
        <ele>161</ele>
        <time>2023-08-20T09:05:26Z</time>
      </trkpt>
      <trkpt lat="46.50429" lon="0.39246">
        <ele>160.8</ele>
        <time>2023-08-20T09:05:28Z</time>
      </trkpt>
      <trkpt lat="46.50407" lon="0.39249">
        <ele>160</ele>
        <time>2023-08-20T09:05:32Z</time>
      </trkpt>
      <trkpt lat="46.50391" lon="0.39252">
        <ele>159</ele>
        <time>2023-08-20T09:05:35Z</time>
      </trkpt>
      <trkpt lat="46.50385" lon="0.39252">
        <ele>159</ele>
        <time>2023-08-20T09:05:36Z</time>
      </trkpt>
      <trkpt lat="46.50373" lon="0.39254">
        <ele>158.4</ele>
        <time>2023-08-20T09:05:38Z</time>
      </trkpt>
      <trkpt lat="46.50361" lon="0.39255">
        <ele>158.2</ele>
        <time>2023-08-20T09:05:40Z</time>
      </trkpt>
      <trkpt lat="46.50343" lon="0.39253">
        <ele>157.6</ele>
        <time>2023-08-20T09:05:43Z</time>
      </trkpt>
      <trkpt lat="46.50338" lon="0.39252">
        <ele>157</ele>
        <time>2023-08-20T09:05:44Z</time>
      </trkpt>
      <trkpt lat="46.50332" lon="0.39246">
        <ele>156.4</ele>
        <time>2023-08-20T09:05:46Z</time>
      </trkpt>
      <trkpt lat="46.5033" lon="0.39242">
        <ele>156.2</ele>
        <time>2023-08-20T09:05:47Z</time>
      </trkpt>
      <trkpt lat="46.50328" lon="0.39238">
        <ele>156.2</ele>
        <time>2023-08-20T09:05:48Z</time>
      </trkpt>
      <trkpt lat="46.50325" lon="0.39219">
        <ele>157</ele>
        <time>2023-08-20T09:05:52Z</time>
      </trkpt>
      <trkpt lat="46.50324" lon="0.3921">
        <ele>157.6</ele>
        <time>2023-08-20T09:05:54Z</time>
      </trkpt>
      <trkpt lat="46.50324" lon="0.39205">
        <ele>157.8</ele>
        <time>2023-08-20T09:05:55Z</time>
      </trkpt>
      <trkpt lat="46.50324" lon="0.39198">
        <ele>158.2</ele>
        <time>2023-08-20T09:05:57Z</time>
      </trkpt>
      <trkpt lat="46.50324" lon="0.39195">
        <ele>158.4</ele>
        <time>2023-08-20T09:05:58Z</time>
      </trkpt>
      <trkpt lat="46.50324" lon="0.39191">
        <ele>158.8</ele>
        <time>2023-08-20T09:05:59Z</time>
      </trkpt>
      <trkpt lat="46.50323" lon="0.39188">
        <ele>159.2</ele>
        <time>2023-08-20T09:06:00Z</time>
      </trkpt>
      <trkpt lat="46.50323" lon="0.39179">
        <ele>160</ele>
        <time>2023-08-20T09:06:02Z</time>
      </trkpt>
      <trkpt lat="46.50323" lon="0.39174">
        <ele>160.2</ele>
        <time>2023-08-20T09:06:03Z</time>
      </trkpt>
      <trkpt lat="46.50323" lon="0.39169">
        <ele>160.4</ele>
        <time>2023-08-20T09:06:04Z</time>
      </trkpt>
      <trkpt lat="46.50322" lon="0.39159">
        <ele>160.6</ele>
        <time>2023-08-20T09:06:06Z</time>
      </trkpt>
      <trkpt lat="46.50321" lon="0.39148">
        <ele>161</ele>
        <time>2023-08-20T09:06:08Z</time>
      </trkpt>
      <trkpt lat="46.50321" lon="0.39143">
        <ele>161.2</ele>
        <time>2023-08-20T09:06:09Z</time>
      </trkpt>
      <trkpt lat="46.50321" lon="0.39128">
        <ele>162</ele>
        <time>2023-08-20T09:06:12Z</time>
      </trkpt>
      <trkpt lat="46.50321" lon="0.39122">
        <ele>162</ele>
        <time>2023-08-20T09:06:13Z</time>
      </trkpt>
      <trkpt lat="46.5032" lon="0.39117">
        <ele>162.2</ele>
        <time>2023-08-20T09:06:14Z</time>
      </trkpt>
      <trkpt lat="46.50319" lon="0.39096">
        <ele>163.2</ele>
        <time>2023-08-20T09:06:18Z</time>
      </trkpt>
      <trkpt lat="46.50317" lon="0.39086">
        <ele>163.4</ele>
        <time>2023-08-20T09:06:20Z</time>
      </trkpt>
      <trkpt lat="46.50314" lon="0.39069">
        <ele>164.2</ele>
        <time>2023-08-20T09:06:23Z</time>
      </trkpt>
      <trkpt lat="46.50304" lon="0.39038">
        <ele>165.2</ele>
        <time>2023-08-20T09:06:28Z</time>
      </trkpt>
      <trkpt lat="46.50301" lon="0.3903">
        <ele>165.4</ele>
        <time>2023-08-20T09:06:30Z</time>
      </trkpt>
      <trkpt lat="46.50301" lon="0.39025">
        <ele>165.4</ele>
        <time>2023-08-20T09:06:31Z</time>
      </trkpt>
      <trkpt lat="46.50297" lon="0.39007">
        <ele>165.6</ele>
        <time>2023-08-20T09:06:33Z</time>
      </trkpt>
      <trkpt lat="46.50296" lon="0.39003">
        <ele>165.8</ele>
        <time>2023-08-20T09:06:34Z</time>
      </trkpt>
      <trkpt lat="46.50292" lon="0.38971">
        <ele>166.6</ele>
        <time>2023-08-20T09:06:40Z</time>
      </trkpt>
      <trkpt lat="46.50292" lon="0.38966">
        <ele>166.6</ele>
        <time>2023-08-20T09:06:41Z</time>
      </trkpt>
      <trkpt lat="46.50297" lon="0.3893">
        <ele>167.4</ele>
        <time>2023-08-20T09:06:48Z</time>
      </trkpt>
      <trkpt lat="46.50297" lon="0.38923">
        <ele>167.6</ele>
        <time>2023-08-20T09:06:49Z</time>
      </trkpt>
      <trkpt lat="46.50297" lon="0.38909">
        <ele>168</ele>
        <time>2023-08-20T09:06:51Z</time>
      </trkpt>
      <trkpt lat="46.50298" lon="0.38898">
        <ele>168.4</ele>
        <time>2023-08-20T09:06:53Z</time>
      </trkpt>
      <trkpt lat="46.50299" lon="0.38892">
        <ele>168.6</ele>
        <time>2023-08-20T09:06:54Z</time>
      </trkpt>
      <trkpt lat="46.503" lon="0.38886">
        <ele>168.8</ele>
        <time>2023-08-20T09:06:55Z</time>
      </trkpt>
      <trkpt lat="46.50301" lon="0.38877">
        <ele>169</ele>
        <time>2023-08-20T09:06:57Z</time>
      </trkpt>
      <trkpt lat="46.50302" lon="0.38872">
        <ele>169</ele>
        <time>2023-08-20T09:06:58Z</time>
      </trkpt>
      <trkpt lat="46.50298" lon="0.38847">
        <ele>169.4</ele>
        <time>2023-08-20T09:07:03Z</time>
      </trkpt>
      <trkpt lat="46.50297" lon="0.38837">
        <ele>169.6</ele>
        <time>2023-08-20T09:07:05Z</time>
      </trkpt>
      <trkpt lat="46.50296" lon="0.38826">
        <ele>169.6</ele>
        <time>2023-08-20T09:07:07Z</time>
      </trkpt>
      <trkpt lat="46.50297" lon="0.38806">
        <ele>169.8</ele>
        <time>2023-08-20T09:07:10Z</time>
      </trkpt>
      <trkpt lat="46.50297" lon="0.3879">
        <ele>170</ele>
        <time>2023-08-20T09:07:12Z</time>
      </trkpt>
      <trkpt lat="46.50299" lon="0.38783">
        <ele>170</ele>
        <time>2023-08-20T09:07:13Z</time>
      </trkpt>
      <trkpt lat="46.50301" lon="0.38769">
        <ele>170</ele>
        <time>2023-08-20T09:07:15Z</time>
      </trkpt>
      <trkpt lat="46.50307" lon="0.38748">
        <ele>170.4</ele>
        <time>2023-08-20T09:07:18Z</time>
      </trkpt>
      <trkpt lat="46.50313" lon="0.38734">
        <ele>170.8</ele>
        <time>2023-08-20T09:07:20Z</time>
      </trkpt>
      <trkpt lat="46.50319" lon="0.38705">
        <ele>171</ele>
        <time>2023-08-20T09:07:23Z</time>
      </trkpt>
      <trkpt lat="46.50325" lon="0.38667">
        <ele>171.4</ele>
        <time>2023-08-20T09:07:28Z</time>
      </trkpt>
      <trkpt lat="46.50326" lon="0.38656">
        <ele>171.4</ele>
        <time>2023-08-20T09:07:29Z</time>
      </trkpt>
      <trkpt lat="46.50329" lon="0.38644">
        <ele>171.6</ele>
        <time>2023-08-20T09:07:30Z</time>
      </trkpt>
      <trkpt lat="46.50333" lon="0.38634">
        <ele>171.8</ele>
        <time>2023-08-20T09:07:31Z</time>
      </trkpt>
      <trkpt lat="46.50338" lon="0.3862">
        <ele>172</ele>
        <time>2023-08-20T09:07:33Z</time>
      </trkpt>
      <trkpt lat="46.50342" lon="0.38593">
        <ele>172</ele>
        <time>2023-08-20T09:07:37Z</time>
      </trkpt>
      <trkpt lat="46.50344" lon="0.38579">
        <ele>172</ele>
        <time>2023-08-20T09:07:39Z</time>
      </trkpt>
      <trkpt lat="46.50344" lon="0.38565">
        <ele>172.2</ele>
        <time>2023-08-20T09:07:41Z</time>
      </trkpt>
      <trkpt lat="46.50345" lon="0.38535">
        <ele>172.2</ele>
        <time>2023-08-20T09:07:46Z</time>
      </trkpt>
      <trkpt lat="46.50346" lon="0.3852">
        <ele>172</ele>
        <time>2023-08-20T09:07:50Z</time>
      </trkpt>
      <trkpt lat="46.50346" lon="0.38519">
        <ele>172</ele>
        <time>2023-08-20T09:07:51Z</time>
      </trkpt>
      <trkpt lat="46.50346" lon="0.38519">
        <ele>172</ele>
        <time>2023-08-20T09:07:52Z</time>
      </trkpt>
      <trkpt lat="46.50347" lon="0.38516">
        <ele>172</ele>
        <time>2023-08-20T09:07:55Z</time>
      </trkpt>
      <trkpt lat="46.50346" lon="0.3851">
        <ele>171.4</ele>
        <time>2023-08-20T09:08:00Z</time>
      </trkpt>
      <trkpt lat="46.50338" lon="0.38502">
        <ele>171</ele>
        <time>2023-08-20T09:08:07Z</time>
      </trkpt>
      <trkpt lat="46.50331" lon="0.38494">
        <ele>171</ele>
        <time>2023-08-20T09:08:11Z</time>
      </trkpt>
      <trkpt lat="46.50317" lon="0.38482">
        <ele>171.4</ele>
        <time>2023-08-20T09:08:14Z</time>
      </trkpt>
      <trkpt lat="46.50309" lon="0.38477">
        <ele>171.4</ele>
        <time>2023-08-20T09:08:16Z</time>
      </trkpt>
      <trkpt lat="46.50299" lon="0.38472">
        <ele>171.2</ele>
        <time>2023-08-20T09:08:18Z</time>
      </trkpt>
      <trkpt lat="46.50289" lon="0.38468">
        <ele>170.6</ele>
        <time>2023-08-20T09:08:20Z</time>
      </trkpt>
      <trkpt lat="46.50278" lon="0.38464">
        <ele>170.2</ele>
        <time>2023-08-20T09:08:22Z</time>
      </trkpt>
      <trkpt lat="46.50268" lon="0.38462">
        <ele>169.4</ele>
        <time>2023-08-20T09:08:24Z</time>
      </trkpt>
      <trkpt lat="46.50256" lon="0.38464">
        <ele>168.8</ele>
        <time>2023-08-20T09:08:26Z</time>
      </trkpt>
      <trkpt lat="46.50238" lon="0.38465">
        <ele>168.6</ele>
        <time>2023-08-20T09:08:29Z</time>
      </trkpt>
      <trkpt lat="46.50232" lon="0.38465">
        <ele>168.6</ele>
        <time>2023-08-20T09:08:30Z</time>
      </trkpt>
      <trkpt lat="46.50222" lon="0.38465">
        <ele>169</ele>
        <time>2023-08-20T09:08:32Z</time>
      </trkpt>
      <trkpt lat="46.50213" lon="0.38465">
        <ele>169.4</ele>
        <time>2023-08-20T09:08:34Z</time>
      </trkpt>
      <trkpt lat="46.50211" lon="0.38465">
        <ele>170</ele>
        <time>2023-08-20T09:08:35Z</time>
      </trkpt>
      <trkpt lat="46.50208" lon="0.38466">
        <ele>170.6</ele>
        <time>2023-08-20T09:08:36Z</time>
      </trkpt>
      <trkpt lat="46.50192" lon="0.38468">
        <ele>171.4</ele>
        <time>2023-08-20T09:08:40Z</time>
      </trkpt>
      <trkpt lat="46.5019" lon="0.38469">
        <ele>171.8</ele>
        <time>2023-08-20T09:08:41Z</time>
      </trkpt>
      <trkpt lat="46.50173" lon="0.38474">
        <ele>172.8</ele>
        <time>2023-08-20T09:08:46Z</time>
      </trkpt>
      <trkpt lat="46.50169" lon="0.38477">
        <ele>172.8</ele>
        <time>2023-08-20T09:08:47Z</time>
      </trkpt>
      <trkpt lat="46.50152" lon="0.38485">
        <ele>173.4</ele>
        <time>2023-08-20T09:08:52Z</time>
      </trkpt>
      <trkpt lat="46.50141" lon="0.38488">
        <ele>174</ele>
        <time>2023-08-20T09:08:57Z</time>
      </trkpt>
      <trkpt lat="46.50139" lon="0.38486">
        <ele>174</ele>
        <time>2023-08-20T09:08:58Z</time>
      </trkpt>
      <trkpt lat="46.50131" lon="0.38479">
        <ele>174.4</ele>
        <time>2023-08-20T09:09:02Z</time>
      </trkpt>
      <trkpt lat="46.50126" lon="0.38475">
        <ele>174.8</ele>
        <time>2023-08-20T09:09:04Z</time>
      </trkpt>
      <trkpt lat="46.5012" lon="0.38472">
        <ele>175</ele>
        <time>2023-08-20T09:09:06Z</time>
      </trkpt>
      <trkpt lat="46.50115" lon="0.38469">
        <ele>175.2</ele>
        <time>2023-08-20T09:09:08Z</time>
      </trkpt>
      <trkpt lat="46.5011" lon="0.38464">
        <ele>175.4</ele>
        <time>2023-08-20T09:09:10Z</time>
      </trkpt>
      <trkpt lat="46.50104" lon="0.38458">
        <ele>175.4</ele>
        <time>2023-08-20T09:09:12Z</time>
      </trkpt>
      <trkpt lat="46.50094" lon="0.38451">
        <ele>175.6</ele>
        <time>2023-08-20T09:09:15Z</time>
      </trkpt>
      <trkpt lat="46.50091" lon="0.38448">
        <ele>175.6</ele>
        <time>2023-08-20T09:09:16Z</time>
      </trkpt>
      <trkpt lat="46.50084" lon="0.38439">
        <ele>175.8</ele>
        <time>2023-08-20T09:09:19Z</time>
      </trkpt>
      <trkpt lat="46.50081" lon="0.38437">
        <ele>175.8</ele>
        <time>2023-08-20T09:09:20Z</time>
      </trkpt>
      <trkpt lat="46.50075" lon="0.38429">
        <ele>176</ele>
        <time>2023-08-20T09:09:23Z</time>
      </trkpt>
      <trkpt lat="46.50075" lon="0.38429">
        <ele>176.4</ele>
        <time>2023-08-20T09:09:24Z</time>
      </trkpt>
      <trkpt lat="46.50066" lon="0.38414">
        <ele>176.6</ele>
        <time>2023-08-20T09:09:27Z</time>
      </trkpt>
      <trkpt lat="46.50063" lon="0.3841">
        <ele>176.8</ele>
        <time>2023-08-20T09:09:28Z</time>
      </trkpt>
      <trkpt lat="46.50059" lon="0.38405">
        <ele>177</ele>
        <time>2023-08-20T09:09:29Z</time>
      </trkpt>
      <trkpt lat="46.50051" lon="0.38389">
        <ele>177.2</ele>
        <time>2023-08-20T09:09:32Z</time>
      </trkpt>
      <trkpt lat="46.50048" lon="0.38382">
        <ele>177.6</ele>
        <time>2023-08-20T09:09:34Z</time>
      </trkpt>
      <trkpt lat="46.50042" lon="0.38371">
        <ele>178.4</ele>
        <time>2023-08-20T09:09:37Z</time>
      </trkpt>
      <trkpt lat="46.50039" lon="0.38365">
        <ele>178.4</ele>
        <time>2023-08-20T09:09:38Z</time>
      </trkpt>
      <trkpt lat="46.50033" lon="0.38357">
        <ele>178.6</ele>
        <time>2023-08-20T09:09:40Z</time>
      </trkpt>
      <trkpt lat="46.50016" lon="0.38337">
        <ele>178.6</ele>
        <time>2023-08-20T09:09:45Z</time>
      </trkpt>
      <trkpt lat="46.50012" lon="0.38332">
        <ele>178.6</ele>
        <time>2023-08-20T09:09:46Z</time>
      </trkpt>
      <trkpt lat="46.50008" lon="0.38327">
        <ele>178.8</ele>
        <time>2023-08-20T09:09:47Z</time>
      </trkpt>
      <trkpt lat="46.49993" lon="0.38306">
        <ele>178.8</ele>
        <time>2023-08-20T09:09:52Z</time>
      </trkpt>
      <trkpt lat="46.4999" lon="0.38302">
        <ele>178.8</ele>
        <time>2023-08-20T09:09:53Z</time>
      </trkpt>
      <trkpt lat="46.49973" lon="0.38278">
        <ele>179.6</ele>
        <time>2023-08-20T09:09:58Z</time>
      </trkpt>
      <trkpt lat="46.49967" lon="0.3827">
        <ele>179.8</ele>
        <time>2023-08-20T09:10:00Z</time>
      </trkpt>
      <trkpt lat="46.49948" lon="0.38244">
        <ele>179.8</ele>
        <time>2023-08-20T09:10:05Z</time>
      </trkpt>
      <trkpt lat="46.49932" lon="0.38218">
        <ele>180</ele>
        <time>2023-08-20T09:10:10Z</time>
      </trkpt>
      <trkpt lat="46.4992" lon="0.38195">
        <ele>180</ele>
        <time>2023-08-20T09:10:14Z</time>
      </trkpt>
      <trkpt lat="46.49909" lon="0.38173">
        <ele>180</ele>
        <time>2023-08-20T09:10:16Z</time>
      </trkpt>
      <trkpt lat="46.49912" lon="0.38141">
        <ele>179.6</ele>
        <time>2023-08-20T09:10:20Z</time>
      </trkpt>
      <trkpt lat="46.49915" lon="0.38135">
        <ele>179.6</ele>
        <time>2023-08-20T09:10:21Z</time>
      </trkpt>
      <trkpt lat="46.49925" lon="0.3812">
        <ele>179.8</ele>
        <time>2023-08-20T09:10:24Z</time>
      </trkpt>
      <trkpt lat="46.49929" lon="0.38114">
        <ele>179.8</ele>
        <time>2023-08-20T09:10:25Z</time>
      </trkpt>
      <trkpt lat="46.49954" lon="0.38067">
        <ele>179.2</ele>
        <time>2023-08-20T09:10:33Z</time>
      </trkpt>
      <trkpt lat="46.49964" lon="0.38054">
        <ele>179.2</ele>
        <time>2023-08-20T09:10:36Z</time>
      </trkpt>
      <trkpt lat="46.49969" lon="0.38044">
        <ele>179.4</ele>
        <time>2023-08-20T09:10:38Z</time>
      </trkpt>
      <trkpt lat="46.49971" lon="0.3804">
        <ele>179.4</ele>
        <time>2023-08-20T09:10:39Z</time>
      </trkpt>
      <trkpt lat="46.49973" lon="0.38038">
        <ele>179.6</ele>
        <time>2023-08-20T09:10:40Z</time>
      </trkpt>
      <trkpt lat="46.49979" lon="0.38032">
        <ele>179.6</ele>
        <time>2023-08-20T09:10:42Z</time>
      </trkpt>
      <trkpt lat="46.49982" lon="0.38028">
        <ele>179.4</ele>
        <time>2023-08-20T09:10:43Z</time>
      </trkpt>
      <trkpt lat="46.49991" lon="0.38015">
        <ele>179.2</ele>
        <time>2023-08-20T09:10:47Z</time>
      </trkpt>
      <trkpt lat="46.49994" lon="0.38014">
        <ele>179</ele>
        <time>2023-08-20T09:10:48Z</time>
      </trkpt>
      <trkpt lat="46.50003" lon="0.38022">
        <ele>179.4</ele>
        <time>2023-08-20T09:10:51Z</time>
      </trkpt>
      <trkpt lat="46.5002" lon="0.38043">
        <ele>179.4</ele>
        <time>2023-08-20T09:10:56Z</time>
      </trkpt>
      <trkpt lat="46.5003" lon="0.38052">
        <ele>179.4</ele>
        <time>2023-08-20T09:10:59Z</time>
      </trkpt>
      <trkpt lat="46.5004" lon="0.38056">
        <ele>179</ele>
        <time>2023-08-20T09:11:01Z</time>
      </trkpt>
      <trkpt lat="46.50048" lon="0.38056">
        <ele>178.8</ele>
        <time>2023-08-20T09:11:03Z</time>
      </trkpt>
      <trkpt lat="46.50051" lon="0.38056">
        <ele>178.8</ele>
        <time>2023-08-20T09:11:04Z</time>
      </trkpt>
      <trkpt lat="46.50059" lon="0.38059">
        <ele>179</ele>
        <time>2023-08-20T09:11:06Z</time>
      </trkpt>
      <trkpt lat="46.50066" lon="0.38064">
        <ele>179</ele>
        <time>2023-08-20T09:11:08Z</time>
      </trkpt>
      <trkpt lat="46.50069" lon="0.38067">
        <ele>179</ele>
        <time>2023-08-20T09:11:09Z</time>
      </trkpt>
      <trkpt lat="46.50079" lon="0.38075">
        <ele>179</ele>
        <time>2023-08-20T09:11:11Z</time>
      </trkpt>
      <trkpt lat="46.50084" lon="0.38081">
        <ele>179</ele>
        <time>2023-08-20T09:11:12Z</time>
      </trkpt>
      <trkpt lat="46.50101" lon="0.381">
        <ele>179.4</ele>
        <time>2023-08-20T09:11:16Z</time>
      </trkpt>
      <trkpt lat="46.50105" lon="0.38103">
        <ele>179.4</ele>
        <time>2023-08-20T09:11:17Z</time>
      </trkpt>
      <trkpt lat="46.5011" lon="0.38106">
        <ele>179.4</ele>
        <time>2023-08-20T09:11:18Z</time>
      </trkpt>
      <trkpt lat="46.50123" lon="0.38119">
        <ele>179.4</ele>
        <time>2023-08-20T09:11:21Z</time>
      </trkpt>
      <trkpt lat="46.50128" lon="0.38122">
        <ele>179.4</ele>
        <time>2023-08-20T09:11:22Z</time>
      </trkpt>
      <trkpt lat="46.50133" lon="0.38124">
        <ele>179.2</ele>
        <time>2023-08-20T09:11:23Z</time>
      </trkpt>
      <trkpt lat="46.50151" lon="0.3813">
        <ele>179.2</ele>
        <time>2023-08-20T09:11:27Z</time>
      </trkpt>
      <trkpt lat="46.50166" lon="0.38135">
        <ele>179.2</ele>
        <time>2023-08-20T09:11:30Z</time>
      </trkpt>
      <trkpt lat="46.50175" lon="0.3814">
        <ele>179</ele>
        <time>2023-08-20T09:11:32Z</time>
      </trkpt>
      <trkpt lat="46.50194" lon="0.3815">
        <ele>179</ele>
        <time>2023-08-20T09:11:36Z</time>
      </trkpt>
      <trkpt lat="46.50196" lon="0.38149">
        <ele>179</ele>
        <time>2023-08-20T09:11:37Z</time>
      </trkpt>
      <trkpt lat="46.50198" lon="0.38148">
        <ele>178.8</ele>
        <time>2023-08-20T09:11:38Z</time>
      </trkpt>
      <trkpt lat="46.50206" lon="0.38138">
        <ele>178.8</ele>
        <time>2023-08-20T09:11:41Z</time>
      </trkpt>
      <trkpt lat="46.50209" lon="0.38134">
        <ele>179</ele>
        <time>2023-08-20T09:11:42Z</time>
      </trkpt>
      <trkpt lat="46.50216" lon="0.38122">
        <ele>179.6</ele>
        <time>2023-08-20T09:11:45Z</time>
      </trkpt>
      <trkpt lat="46.50223" lon="0.38116">
        <ele>179.8</ele>
        <time>2023-08-20T09:11:47Z</time>
      </trkpt>
      <trkpt lat="46.50233" lon="0.38112">
        <ele>179.8</ele>
        <time>2023-08-20T09:11:49Z</time>
      </trkpt>
      <trkpt lat="46.50241" lon="0.38108">
        <ele>180</ele>
        <time>2023-08-20T09:11:51Z</time>
      </trkpt>
      <trkpt lat="46.50245" lon="0.38109">
        <ele>180</ele>
        <time>2023-08-20T09:11:52Z</time>
      </trkpt>
      <trkpt lat="46.50261" lon="0.3811">
        <ele>179.6</ele>
        <time>2023-08-20T09:11:55Z</time>
      </trkpt>
      <trkpt lat="46.50266" lon="0.3811">
        <ele>179.8</ele>
        <time>2023-08-20T09:11:56Z</time>
      </trkpt>
      <trkpt lat="46.50274" lon="0.38106">
        <ele>180</ele>
        <time>2023-08-20T09:11:58Z</time>
      </trkpt>
      <trkpt lat="46.50279" lon="0.38103">
        <ele>180</ele>
        <time>2023-08-20T09:11:59Z</time>
      </trkpt>
      <trkpt lat="46.50299" lon="0.38085">
        <ele>179.8</ele>
        <time>2023-08-20T09:12:04Z</time>
      </trkpt>
      <trkpt lat="46.50307" lon="0.38082">
        <ele>179.8</ele>
        <time>2023-08-20T09:12:05Z</time>
      </trkpt>
      <trkpt lat="46.50332" lon="0.38052">
        <ele>180</ele>
        <time>2023-08-20T09:12:12Z</time>
      </trkpt>
      <trkpt lat="46.50334" lon="0.38048">
        <ele>179.8</ele>
        <time>2023-08-20T09:12:13Z</time>
      </trkpt>
      <trkpt lat="46.50338" lon="0.38041">
        <ele>179.6</ele>
        <time>2023-08-20T09:12:15Z</time>
      </trkpt>
      <trkpt lat="46.5034" lon="0.38039">
        <ele>179.4</ele>
        <time>2023-08-20T09:12:16Z</time>
      </trkpt>
      <trkpt lat="46.50341" lon="0.38029">
        <ele>179.4</ele>
        <time>2023-08-20T09:12:20Z</time>
      </trkpt>
      <trkpt lat="46.50338" lon="0.38026">
        <ele>179.6</ele>
        <time>2023-08-20T09:12:21Z</time>
      </trkpt>
      <trkpt lat="46.50334" lon="0.38017">
        <ele>179.8</ele>
        <time>2023-08-20T09:12:23Z</time>
      </trkpt>
      <trkpt lat="46.50324" lon="0.38004">
        <ele>180</ele>
        <time>2023-08-20T09:12:26Z</time>
      </trkpt>
      <trkpt lat="46.50302" lon="0.3798">
        <ele>180</ele>
        <time>2023-08-20T09:12:32Z</time>
      </trkpt>
      <trkpt lat="46.50283" lon="0.37961">
        <ele>180.6</ele>
        <time>2023-08-20T09:12:38Z</time>
      </trkpt>
      <trkpt lat="46.50272" lon="0.37949">
        <ele>180.8</ele>
        <time>2023-08-20T09:12:41Z</time>
      </trkpt>
      <trkpt lat="46.50254" lon="0.37934">
        <ele>181</ele>
        <time>2023-08-20T09:12:45Z</time>
      </trkpt>
      <trkpt lat="46.50233" lon="0.37916">
        <ele>180.4</ele>
        <time>2023-08-20T09:12:50Z</time>
      </trkpt>
      <trkpt lat="46.50218" lon="0.37901">
        <ele>180.4</ele>
        <time>2023-08-20T09:12:53Z</time>
      </trkpt>
      <trkpt lat="46.50202" lon="0.37885">
        <ele>180.8</ele>
        <time>2023-08-20T09:12:56Z</time>
      </trkpt>
      <trkpt lat="46.50198" lon="0.37882">
        <ele>181</ele>
        <time>2023-08-20T09:12:57Z</time>
      </trkpt>
      <trkpt lat="46.50176" lon="0.37863">
        <ele>181.2</ele>
        <time>2023-08-20T09:13:02Z</time>
      </trkpt>
      <trkpt lat="46.50158" lon="0.37847">
        <ele>181</ele>
        <time>2023-08-20T09:13:06Z</time>
      </trkpt>
      <trkpt lat="46.50149" lon="0.37837">
        <ele>181</ele>
        <time>2023-08-20T09:13:08Z</time>
      </trkpt>
      <trkpt lat="46.50119" lon="0.37808">
        <ele>181</ele>
        <time>2023-08-20T09:13:15Z</time>
      </trkpt>
      <trkpt lat="46.50089" lon="0.37779">
        <ele>181.8</ele>
        <time>2023-08-20T09:13:21Z</time>
      </trkpt>
      <trkpt lat="46.50084" lon="0.37775">
        <ele>181.8</ele>
        <time>2023-08-20T09:13:22Z</time>
      </trkpt>
      <trkpt lat="46.5006" lon="0.37751">
        <ele>182.2</ele>
        <time>2023-08-20T09:13:27Z</time>
      </trkpt>
      <trkpt lat="46.50034" lon="0.37726">
        <ele>182</ele>
        <time>2023-08-20T09:13:33Z</time>
      </trkpt>
      <trkpt lat="46.50017" lon="0.37709">
        <ele>182</ele>
        <time>2023-08-20T09:13:37Z</time>
      </trkpt>
      <trkpt lat="46.50004" lon="0.37697">
        <ele>181.8</ele>
        <time>2023-08-20T09:13:40Z</time>
      </trkpt>
      <trkpt lat="46.49994" lon="0.37688">
        <ele>181.8</ele>
        <time>2023-08-20T09:13:42Z</time>
      </trkpt>
      <trkpt lat="46.49974" lon="0.37667">
        <ele>182.2</ele>
        <time>2023-08-20T09:13:46Z</time>
      </trkpt>
      <trkpt lat="46.49947" lon="0.37638">
        <ele>182.4</ele>
        <time>2023-08-20T09:13:52Z</time>
      </trkpt>
      <trkpt lat="46.49941" lon="0.37635">
        <ele>182.4</ele>
        <time>2023-08-20T09:13:53Z</time>
      </trkpt>
      <trkpt lat="46.4993" lon="0.37633">
        <ele>182.4</ele>
        <time>2023-08-20T09:13:55Z</time>
      </trkpt>
      <trkpt lat="46.49922" lon="0.3764">
        <ele>182.4</ele>
        <time>2023-08-20T09:13:57Z</time>
      </trkpt>
      <trkpt lat="46.49913" lon="0.3765">
        <ele>182.6</ele>
        <time>2023-08-20T09:13:59Z</time>
      </trkpt>
      <trkpt lat="46.49893" lon="0.37672">
        <ele>182.4</ele>
        <time>2023-08-20T09:14:04Z</time>
      </trkpt>
      <trkpt lat="46.49877" lon="0.37694">
        <ele>182.6</ele>
        <time>2023-08-20T09:14:08Z</time>
      </trkpt>
      <trkpt lat="46.49873" lon="0.37698">
        <ele>182.8</ele>
        <time>2023-08-20T09:14:09Z</time>
      </trkpt>
      <trkpt lat="46.49856" lon="0.37718">
        <ele>182.2</ele>
        <time>2023-08-20T09:14:15Z</time>
      </trkpt>
      <trkpt lat="46.4985" lon="0.3772">
        <ele>182.2</ele>
        <time>2023-08-20T09:14:17Z</time>
      </trkpt>
      <trkpt lat="46.49845" lon="0.3772">
        <ele>182.2</ele>
        <time>2023-08-20T09:14:19Z</time>
      </trkpt>
      <trkpt lat="46.49829" lon="0.37716">
        <ele>182</ele>
        <time>2023-08-20T09:14:24Z</time>
      </trkpt>
      <trkpt lat="46.49812" lon="0.37703">
        <ele>182</ele>
        <time>2023-08-20T09:14:30Z</time>
      </trkpt>
      <trkpt lat="46.49803" lon="0.37699">
        <ele>182</ele>
        <time>2023-08-20T09:14:32Z</time>
      </trkpt>
      <trkpt lat="46.49793" lon="0.37692">
        <ele>181.8</ele>
        <time>2023-08-20T09:14:34Z</time>
      </trkpt>
      <trkpt lat="46.49783" lon="0.37688">
        <ele>182</ele>
        <time>2023-08-20T09:14:37Z</time>
      </trkpt>
      <trkpt lat="46.4976" lon="0.37682">
        <ele>182.4</ele>
        <time>2023-08-20T09:14:43Z</time>
      </trkpt>
      <trkpt lat="46.49747" lon="0.3767">
        <ele>182.6</ele>
        <time>2023-08-20T09:14:46Z</time>
      </trkpt>
      <trkpt lat="46.49742" lon="0.37666">
        <ele>182.6</ele>
        <time>2023-08-20T09:14:47Z</time>
      </trkpt>
      <trkpt lat="46.49723" lon="0.37652">
        <ele>182.4</ele>
        <time>2023-08-20T09:14:52Z</time>
      </trkpt>
      <trkpt lat="46.49706" lon="0.37638">
        <ele>182</ele>
        <time>2023-08-20T09:14:58Z</time>
      </trkpt>
      <trkpt lat="46.49698" lon="0.37629">
        <ele>182</ele>
        <time>2023-08-20T09:15:03Z</time>
      </trkpt>
      <trkpt lat="46.49696" lon="0.37621">
        <ele>182</ele>
        <time>2023-08-20T09:15:05Z</time>
      </trkpt>
      <trkpt lat="46.49694" lon="0.37604">
        <ele>182</ele>
        <time>2023-08-20T09:15:12Z</time>
      </trkpt>
      <trkpt lat="46.49694" lon="0.37588">
        <ele>182.2</ele>
        <time>2023-08-20T09:15:16Z</time>
      </trkpt>
      <trkpt lat="46.49693" lon="0.37564">
        <ele>182.6</ele>
        <time>2023-08-20T09:15:22Z</time>
      </trkpt>
      <trkpt lat="46.49695" lon="0.37549">
        <ele>182.8</ele>
        <time>2023-08-20T09:15:25Z</time>
      </trkpt>
      <trkpt lat="46.49696" lon="0.37534">
        <ele>182.8</ele>
        <time>2023-08-20T09:15:27Z</time>
      </trkpt>
      <trkpt lat="46.49703" lon="0.37502">
        <ele>182.6</ele>
        <time>2023-08-20T09:15:33Z</time>
      </trkpt>
      <trkpt lat="46.49708" lon="0.37488">
        <ele>182.6</ele>
        <time>2023-08-20T09:15:36Z</time>
      </trkpt>
      <trkpt lat="46.49711" lon="0.37476">
        <ele>182.4</ele>
        <time>2023-08-20T09:15:38Z</time>
      </trkpt>
      <trkpt lat="46.49714" lon="0.37469">
        <ele>182.4</ele>
        <time>2023-08-20T09:15:39Z</time>
      </trkpt>
      <trkpt lat="46.49722" lon="0.37447">
        <ele>182.6</ele>
        <time>2023-08-20T09:15:42Z</time>
      </trkpt>
      <trkpt lat="46.49725" lon="0.3744">
        <ele>182.2</ele>
        <time>2023-08-20T09:15:43Z</time>
      </trkpt>
      <trkpt lat="46.49733" lon="0.37412">
        <ele>181.8</ele>
        <time>2023-08-20T09:15:47Z</time>
      </trkpt>
      <trkpt lat="46.49737" lon="0.37384">
        <ele>181.8</ele>
        <time>2023-08-20T09:15:51Z</time>
      </trkpt>
      <trkpt lat="46.49741" lon="0.37372">
        <ele>181.8</ele>
        <time>2023-08-20T09:15:53Z</time>
      </trkpt>
      <trkpt lat="46.49746" lon="0.37358">
        <ele>181.6</ele>
        <time>2023-08-20T09:15:56Z</time>
      </trkpt>
      <trkpt lat="46.49749" lon="0.37354">
        <ele>181.4</ele>
        <time>2023-08-20T09:15:57Z</time>
      </trkpt>
      <trkpt lat="46.49753" lon="0.37351">
        <ele>181.4</ele>
        <time>2023-08-20T09:15:58Z</time>
      </trkpt>
      <trkpt lat="46.49766" lon="0.37338">
        <ele>181.2</ele>
        <time>2023-08-20T09:16:02Z</time>
      </trkpt>
      <trkpt lat="46.4977" lon="0.37336">
        <ele>181.2</ele>
        <time>2023-08-20T09:16:03Z</time>
      </trkpt>
      <trkpt lat="46.49776" lon="0.37335">
        <ele>181.4</ele>
        <time>2023-08-20T09:16:05Z</time>
      </trkpt>
      <trkpt lat="46.4978" lon="0.37335">
        <ele>181.4</ele>
        <time>2023-08-20T09:16:06Z</time>
      </trkpt>
      <trkpt lat="46.49791" lon="0.37337">
        <ele>182</ele>
        <time>2023-08-20T09:16:08Z</time>
      </trkpt>
      <trkpt lat="46.49802" lon="0.3734">
        <ele>182.2</ele>
        <time>2023-08-20T09:16:11Z</time>
      </trkpt>
      <trkpt lat="46.49817" lon="0.37348">
        <ele>181.8</ele>
        <time>2023-08-20T09:16:14Z</time>
      </trkpt>
      <trkpt lat="46.49823" lon="0.37348">
        <ele>181.6</ele>
        <time>2023-08-20T09:16:16Z</time>
      </trkpt>
      <trkpt lat="46.49827" lon="0.37343">
        <ele>181.6</ele>
        <time>2023-08-20T09:16:18Z</time>
      </trkpt>
      <trkpt lat="46.4983" lon="0.37337">
        <ele>181.8</ele>
        <time>2023-08-20T09:16:20Z</time>
      </trkpt>
      <trkpt lat="46.49833" lon="0.37335">
        <ele>181.8</ele>
        <time>2023-08-20T09:16:21Z</time>
      </trkpt>
      <trkpt lat="46.49843" lon="0.37324">
        <ele>182</ele>
        <time>2023-08-20T09:16:24Z</time>
      </trkpt>
      <trkpt lat="46.49849" lon="0.37318">
        <ele>182</ele>
        <time>2023-08-20T09:16:26Z</time>
      </trkpt>
      <trkpt lat="46.49853" lon="0.37314">
        <ele>182</ele>
        <time>2023-08-20T09:16:27Z</time>
      </trkpt>
      <trkpt lat="46.49855" lon="0.3731">
        <ele>181.8</ele>
        <time>2023-08-20T09:16:28Z</time>
      </trkpt>
      <trkpt lat="46.49865" lon="0.37296">
        <ele>181.2</ele>
        <time>2023-08-20T09:16:32Z</time>
      </trkpt>
      <trkpt lat="46.49873" lon="0.37281">
        <ele>181</ele>
        <time>2023-08-20T09:16:35Z</time>
      </trkpt>
      <trkpt lat="46.49873" lon="0.37277">
        <ele>181</ele>
        <time>2023-08-20T09:16:36Z</time>
      </trkpt>
      <trkpt lat="46.49872" lon="0.37275">
        <ele>181.2</ele>
        <time>2023-08-20T09:16:37Z</time>
      </trkpt>
      <trkpt lat="46.49868" lon="0.37268">
        <ele>181.2</ele>
        <time>2023-08-20T09:16:40Z</time>
      </trkpt>
      <trkpt lat="46.49865" lon="0.37249">
        <ele>181</ele>
        <time>2023-08-20T09:16:47Z</time>
      </trkpt>
      <trkpt lat="46.49861" lon="0.37233">
        <ele>181.2</ele>
        <time>2023-08-20T09:16:54Z</time>
      </trkpt>
      <trkpt lat="46.49862" lon="0.37228">
        <ele>180.8</ele>
        <time>2023-08-20T09:16:56Z</time>
      </trkpt>
      <trkpt lat="46.49863" lon="0.37226">
        <ele>180.8</ele>
        <time>2023-08-20T09:16:57Z</time>
      </trkpt>
      <trkpt lat="46.49864" lon="0.37217">
        <ele>180.6</ele>
        <time>2023-08-20T09:16:59Z</time>
      </trkpt>
      <trkpt lat="46.49867" lon="0.37212">
        <ele>180.6</ele>
        <time>2023-08-20T09:17:01Z</time>
      </trkpt>
      <trkpt lat="46.49869" lon="0.37201">
        <ele>180.6</ele>
        <time>2023-08-20T09:17:03Z</time>
      </trkpt>
      <trkpt lat="46.4987" lon="0.37195">
        <ele>180.8</ele>
        <time>2023-08-20T09:17:04Z</time>
      </trkpt>
      <trkpt lat="46.49872" lon="0.3719">
        <ele>180.8</ele>
        <time>2023-08-20T09:17:05Z</time>
      </trkpt>
      <trkpt lat="46.49879" lon="0.37174">
        <ele>180.8</ele>
        <time>2023-08-20T09:17:09Z</time>
      </trkpt>
      <trkpt lat="46.49886" lon="0.37151">
        <ele>181.2</ele>
        <time>2023-08-20T09:17:14Z</time>
      </trkpt>
      <trkpt lat="46.49889" lon="0.37146">
        <ele>181.2</ele>
        <time>2023-08-20T09:17:15Z</time>
      </trkpt>
      <trkpt lat="46.49895" lon="0.37136">
        <ele>181</ele>
        <time>2023-08-20T09:17:17Z</time>
      </trkpt>
      <trkpt lat="46.49898" lon="0.37132">
        <ele>181</ele>
        <time>2023-08-20T09:17:18Z</time>
      </trkpt>
      <trkpt lat="46.499" lon="0.3713">
        <ele>180.8</ele>
        <time>2023-08-20T09:17:19Z</time>
      </trkpt>
      <trkpt lat="46.49907" lon="0.37113">
        <ele>180.6</ele>
        <time>2023-08-20T09:17:23Z</time>
      </trkpt>
      <trkpt lat="46.49911" lon="0.37103">
        <ele>180.6</ele>
        <time>2023-08-20T09:17:25Z</time>
      </trkpt>
      <trkpt lat="46.49916" lon="0.37097">
        <ele>180.6</ele>
        <time>2023-08-20T09:17:27Z</time>
      </trkpt>
      <trkpt lat="46.49919" lon="0.37094">
        <ele>180.6</ele>
        <time>2023-08-20T09:17:28Z</time>
      </trkpt>
      <trkpt lat="46.49926" lon="0.37088">
        <ele>180.4</ele>
        <time>2023-08-20T09:17:31Z</time>
      </trkpt>
      <trkpt lat="46.49934" lon="0.3708">
        <ele>180</ele>
        <time>2023-08-20T09:17:35Z</time>
      </trkpt>
      <trkpt lat="46.49941" lon="0.37075">
        <ele>179.8</ele>
        <time>2023-08-20T09:17:38Z</time>
      </trkpt>
      <trkpt lat="46.49949" lon="0.37069">
        <ele>179.6</ele>
        <time>2023-08-20T09:17:42Z</time>
      </trkpt>
      <trkpt lat="46.49957" lon="0.37062">
        <ele>179.6</ele>
        <time>2023-08-20T09:17:45Z</time>
      </trkpt>
      <trkpt lat="46.49964" lon="0.37062">
        <ele>179.4</ele>
        <time>2023-08-20T09:17:47Z</time>
      </trkpt>
      <trkpt lat="46.49971" lon="0.37062">
        <ele>179.6</ele>
        <time>2023-08-20T09:17:49Z</time>
      </trkpt>
      <trkpt lat="46.49979" lon="0.37063">
        <ele>180</ele>
        <time>2023-08-20T09:17:52Z</time>
      </trkpt>
      <trkpt lat="46.49982" lon="0.37061">
        <ele>180.2</ele>
        <time>2023-08-20T09:17:54Z</time>
      </trkpt>
      <trkpt lat="46.4999" lon="0.37055">
        <ele>180</ele>
        <time>2023-08-20T09:17:57Z</time>
      </trkpt>
      <trkpt lat="46.49994" lon="0.37052">
        <ele>180</ele>
        <time>2023-08-20T09:17:59Z</time>
      </trkpt>
      <trkpt lat="46.50001" lon="0.37051">
        <ele>180</ele>
        <time>2023-08-20T09:18:01Z</time>
      </trkpt>
      <trkpt lat="46.50005" lon="0.37052">
        <ele>180</ele>
        <time>2023-08-20T09:18:02Z</time>
      </trkpt>
      <trkpt lat="46.50027" lon="0.37066">
        <ele>179.2</ele>
        <time>2023-08-20T09:18:08Z</time>
      </trkpt>
      <trkpt lat="46.50032" lon="0.37071">
        <ele>179</ele>
        <time>2023-08-20T09:18:10Z</time>
      </trkpt>
      <trkpt lat="46.50037" lon="0.37074">
        <ele>179</ele>
        <time>2023-08-20T09:18:12Z</time>
      </trkpt>
      <trkpt lat="46.50044" lon="0.37079">
        <ele>179.2</ele>
        <time>2023-08-20T09:18:14Z</time>
      </trkpt>
      <trkpt lat="46.50051" lon="0.37085">
        <ele>179.4</ele>
        <time>2023-08-20T09:18:16Z</time>
      </trkpt>
      <trkpt lat="46.50055" lon="0.37089">
        <ele>179.4</ele>
        <time>2023-08-20T09:18:17Z</time>
      </trkpt>
      <trkpt lat="46.50058" lon="0.37091">
        <ele>179.6</ele>
        <time>2023-08-20T09:18:18Z</time>
      </trkpt>
      <trkpt lat="46.50064" lon="0.37093">
        <ele>179.4</ele>
        <time>2023-08-20T09:18:20Z</time>
      </trkpt>
      <trkpt lat="46.50066" lon="0.37094">
        <ele>179.6</ele>
        <time>2023-08-20T09:18:21Z</time>
      </trkpt>
      <trkpt lat="46.50069" lon="0.37094">
        <ele>179.6</ele>
        <time>2023-08-20T09:18:22Z</time>
      </trkpt>
      <trkpt lat="46.50074" lon="0.37091">
        <ele>179.6</ele>
        <time>2023-08-20T09:18:24Z</time>
      </trkpt>
      <trkpt lat="46.50076" lon="0.37088">
        <ele>179.6</ele>
        <time>2023-08-20T09:18:25Z</time>
      </trkpt>
      <trkpt lat="46.50078" lon="0.37085">
        <ele>179.4</ele>
        <time>2023-08-20T09:18:26Z</time>
      </trkpt>
      <trkpt lat="46.50086" lon="0.37071">
        <ele>179</ele>
        <time>2023-08-20T09:18:30Z</time>
      </trkpt>
      <trkpt lat="46.50089" lon="0.37065">
        <ele>178.8</ele>
        <time>2023-08-20T09:18:32Z</time>
      </trkpt>
      <trkpt lat="46.50099" lon="0.37058">
        <ele>178.6</ele>
        <time>2023-08-20T09:18:35Z</time>
      </trkpt>
      <trkpt lat="46.50117" lon="0.37061">
        <ele>179</ele>
        <time>2023-08-20T09:18:39Z</time>
      </trkpt>
      <trkpt lat="46.50137" lon="0.3707">
        <ele>179</ele>
        <time>2023-08-20T09:18:46Z</time>
      </trkpt>
      <trkpt lat="46.50156" lon="0.37082">
        <ele>178.8</ele>
        <time>2023-08-20T09:18:53Z</time>
      </trkpt>
      <trkpt lat="46.50159" lon="0.37084">
        <ele>178.8</ele>
        <time>2023-08-20T09:18:54Z</time>
      </trkpt>
      <trkpt lat="46.50165" lon="0.37085">
        <ele>178.8</ele>
        <time>2023-08-20T09:18:56Z</time>
      </trkpt>
      <trkpt lat="46.50167" lon="0.37083">
        <ele>178.8</ele>
        <time>2023-08-20T09:18:57Z</time>
      </trkpt>
      <trkpt lat="46.50173" lon="0.3707">
        <ele>178.6</ele>
        <time>2023-08-20T09:19:02Z</time>
      </trkpt>
      <trkpt lat="46.50175" lon="0.37057">
        <ele>178.8</ele>
        <time>2023-08-20T09:19:06Z</time>
      </trkpt>
      <trkpt lat="46.50174" lon="0.37046">
        <ele>179.2</ele>
        <time>2023-08-20T09:19:09Z</time>
      </trkpt>
      <trkpt lat="46.50172" lon="0.37032">
        <ele>179.2</ele>
        <time>2023-08-20T09:19:12Z</time>
      </trkpt>
      <trkpt lat="46.50172" lon="0.37022">
        <ele>179.4</ele>
        <time>2023-08-20T09:19:14Z</time>
      </trkpt>
      <trkpt lat="46.50172" lon="0.37018">
        <ele>179.6</ele>
        <time>2023-08-20T09:19:15Z</time>
      </trkpt>
      <trkpt lat="46.50172" lon="0.37005">
        <ele>179.8</ele>
        <time>2023-08-20T09:19:18Z</time>
      </trkpt>
      <trkpt lat="46.50171" lon="0.36984">
        <ele>180</ele>
        <time>2023-08-20T09:19:21Z</time>
      </trkpt>
      <trkpt lat="46.5017" lon="0.36971">
        <ele>180</ele>
        <time>2023-08-20T09:19:23Z</time>
      </trkpt>
      <trkpt lat="46.50169" lon="0.36959">
        <ele>180</ele>
        <time>2023-08-20T09:19:25Z</time>
      </trkpt>
      <trkpt lat="46.50167" lon="0.36946">
        <ele>180.2</ele>
        <time>2023-08-20T09:19:27Z</time>
      </trkpt>
      <trkpt lat="46.50168" lon="0.36936">
        <ele>180.2</ele>
        <time>2023-08-20T09:19:29Z</time>
      </trkpt>
      <trkpt lat="46.50166" lon="0.36918">
        <ele>180.2</ele>
        <time>2023-08-20T09:19:31Z</time>
      </trkpt>
      <trkpt lat="46.50167" lon="0.36904">
        <ele>180.2</ele>
        <time>2023-08-20T09:19:33Z</time>
      </trkpt>
      <trkpt lat="46.50169" lon="0.36897">
        <ele>180.2</ele>
        <time>2023-08-20T09:19:35Z</time>
      </trkpt>
      <trkpt lat="46.50174" lon="0.36887">
        <ele>180</ele>
        <time>2023-08-20T09:19:38Z</time>
      </trkpt>
      <trkpt lat="46.5018" lon="0.36877">
        <ele>179.6</ele>
        <time>2023-08-20T09:19:41Z</time>
      </trkpt>
      <trkpt lat="46.50182" lon="0.36873">
        <ele>179.6</ele>
        <time>2023-08-20T09:19:42Z</time>
      </trkpt>
      <trkpt lat="46.50186" lon="0.36866">
        <ele>179.6</ele>
        <time>2023-08-20T09:19:44Z</time>
      </trkpt>
      <trkpt lat="46.50187" lon="0.36863">
        <ele>179.6</ele>
        <time>2023-08-20T09:19:45Z</time>
      </trkpt>
      <trkpt lat="46.50191" lon="0.36846">
        <ele>179.8</ele>
        <time>2023-08-20T09:19:49Z</time>
      </trkpt>
      <trkpt lat="46.50194" lon="0.3683">
        <ele>180</ele>
        <time>2023-08-20T09:19:52Z</time>
      </trkpt>
      <trkpt lat="46.50196" lon="0.36819">
        <ele>180</ele>
        <time>2023-08-20T09:19:54Z</time>
      </trkpt>
      <trkpt lat="46.50196" lon="0.36814">
        <ele>180</ele>
        <time>2023-08-20T09:19:55Z</time>
      </trkpt>
      <trkpt lat="46.50199" lon="0.36804">
        <ele>180</ele>
        <time>2023-08-20T09:19:57Z</time>
      </trkpt>
      <trkpt lat="46.50194" lon="0.36802">
        <ele>180.2</ele>
        <time>2023-08-20T09:19:59Z</time>
      </trkpt>
      <trkpt lat="46.5019" lon="0.368">
        <ele>179.8</ele>
        <time>2023-08-20T09:20:01Z</time>
      </trkpt>
      <trkpt lat="46.50188" lon="0.36794">
        <ele>179.8</ele>
        <time>2023-08-20T09:20:03Z</time>
      </trkpt>
      <trkpt lat="46.50181" lon="0.36786">
        <ele>179.8</ele>
        <time>2023-08-20T09:20:07Z</time>
      </trkpt>
      <trkpt lat="46.50176" lon="0.36781">
        <ele>179.8</ele>
        <time>2023-08-20T09:20:09Z</time>
      </trkpt>
      <trkpt lat="46.50172" lon="0.36773">
        <ele>179.6</ele>
        <time>2023-08-20T09:20:11Z</time>
      </trkpt>
      <trkpt lat="46.50162" lon="0.36767">
        <ele>179.2</ele>
        <time>2023-08-20T09:20:14Z</time>
      </trkpt>
      <trkpt lat="46.50159" lon="0.36767">
        <ele>179</ele>
        <time>2023-08-20T09:20:15Z</time>
      </trkpt>
      <trkpt lat="46.50152" lon="0.36765">
        <ele>179</ele>
        <time>2023-08-20T09:20:18Z</time>
      </trkpt>
      <trkpt lat="46.50149" lon="0.36764">
        <ele>179.2</ele>
        <time>2023-08-20T09:20:19Z</time>
      </trkpt>
      <trkpt lat="46.50139" lon="0.36761">
        <ele>179.6</ele>
        <time>2023-08-20T09:20:22Z</time>
      </trkpt>
      <trkpt lat="46.50136" lon="0.3676">
        <ele>179.6</ele>
        <time>2023-08-20T09:20:23Z</time>
      </trkpt>
      <trkpt lat="46.50132" lon="0.36757">
        <ele>179.6</ele>
        <time>2023-08-20T09:20:24Z</time>
      </trkpt>
      <trkpt lat="46.50126" lon="0.3675">
        <ele>179.8</ele>
        <time>2023-08-20T09:20:26Z</time>
      </trkpt>
      <trkpt lat="46.50121" lon="0.36743">
        <ele>179.6</ele>
        <time>2023-08-20T09:20:28Z</time>
      </trkpt>
      <trkpt lat="46.50118" lon="0.36737">
        <ele>179.4</ele>
        <time>2023-08-20T09:20:30Z</time>
      </trkpt>
      <trkpt lat="46.50116" lon="0.36728">
        <ele>179.4</ele>
        <time>2023-08-20T09:20:32Z</time>
      </trkpt>
      <trkpt lat="46.50115" lon="0.36725">
        <ele>179.2</ele>
        <time>2023-08-20T09:20:33Z</time>
      </trkpt>
      <trkpt lat="46.50114" lon="0.36716">
        <ele>179.4</ele>
        <time>2023-08-20T09:20:35Z</time>
      </trkpt>
      <trkpt lat="46.50113" lon="0.36707">
        <ele>179.2</ele>
        <time>2023-08-20T09:20:37Z</time>
      </trkpt>
      <trkpt lat="46.50115" lon="0.36687">
        <ele>179.2</ele>
        <time>2023-08-20T09:20:42Z</time>
      </trkpt>
      <trkpt lat="46.50118" lon="0.36682">
        <ele>179.2</ele>
        <time>2023-08-20T09:20:44Z</time>
      </trkpt>
      <trkpt lat="46.50122" lon="0.3667">
        <ele>179.2</ele>
        <time>2023-08-20T09:20:47Z</time>
      </trkpt>
      <trkpt lat="46.50125" lon="0.36666">
        <ele>179.4</ele>
        <time>2023-08-20T09:20:48Z</time>
      </trkpt>
      <trkpt lat="46.50127" lon="0.36663">
        <ele>179.4</ele>
        <time>2023-08-20T09:20:49Z</time>
      </trkpt>
      <trkpt lat="46.5013" lon="0.36658">
        <ele>179.2</ele>
        <time>2023-08-20T09:20:51Z</time>
      </trkpt>
      <trkpt lat="46.50133" lon="0.3665">
        <ele>179</ele>
        <time>2023-08-20T09:20:53Z</time>
      </trkpt>
      <trkpt lat="46.50138" lon="0.36637">
        <ele>178.8</ele>
        <time>2023-08-20T09:20:57Z</time>
      </trkpt>
      <trkpt lat="46.50141" lon="0.36636">
        <ele>178.8</ele>
        <time>2023-08-20T09:20:58Z</time>
      </trkpt>
      <trkpt lat="46.50146" lon="0.36635">
        <ele>179</ele>
        <time>2023-08-20T09:21:00Z</time>
      </trkpt>
      <trkpt lat="46.50154" lon="0.36637">
        <ele>178.4</ele>
        <time>2023-08-20T09:21:03Z</time>
      </trkpt>
      <trkpt lat="46.50157" lon="0.36636">
        <ele>178.4</ele>
        <time>2023-08-20T09:21:04Z</time>
      </trkpt>
      <trkpt lat="46.50162" lon="0.36636">
        <ele>178.4</ele>
        <time>2023-08-20T09:21:05Z</time>
      </trkpt>
      <trkpt lat="46.50168" lon="0.3664">
        <ele>178.6</ele>
        <time>2023-08-20T09:21:07Z</time>
      </trkpt>
      <trkpt lat="46.50173" lon="0.36641">
        <ele>178.6</ele>
        <time>2023-08-20T09:21:09Z</time>
      </trkpt>
      <trkpt lat="46.50178" lon="0.36635">
        <ele>178.8</ele>
        <time>2023-08-20T09:21:12Z</time>
      </trkpt>
      <trkpt lat="46.5018" lon="0.36631">
        <ele>178.6</ele>
        <time>2023-08-20T09:21:13Z</time>
      </trkpt>
      <trkpt lat="46.50185" lon="0.36626">
        <ele>178.4</ele>
        <time>2023-08-20T09:21:15Z</time>
      </trkpt>
      <trkpt lat="46.50189" lon="0.36623">
        <ele>178.2</ele>
        <time>2023-08-20T09:21:17Z</time>
      </trkpt>
      <trkpt lat="46.50191" lon="0.36622">
        <ele>178</ele>
        <time>2023-08-20T09:21:18Z</time>
      </trkpt>
      <trkpt lat="46.50194" lon="0.36619">
        <ele>177.6</ele>
        <time>2023-08-20T09:21:20Z</time>
      </trkpt>
      <trkpt lat="46.50198" lon="0.36617">
        <ele>177.4</ele>
        <time>2023-08-20T09:21:23Z</time>
      </trkpt>
      <trkpt lat="46.50215" lon="0.36609">
        <ele>177.4</ele>
        <time>2023-08-20T09:21:35Z</time>
      </trkpt>
      <trkpt lat="46.50215" lon="0.36608">
        <ele>177.4</ele>
        <time>2023-08-20T09:21:36Z</time>
      </trkpt>
      <trkpt lat="46.50222" lon="0.36608">
        <ele>177.2</ele>
        <time>2023-08-20T09:21:45Z</time>
      </trkpt>
      <trkpt lat="46.50224" lon="0.36612">
        <ele>177.8</ele>
        <time>2023-08-20T09:21:51Z</time>
      </trkpt>
      <trkpt lat="46.50222" lon="0.36614">
        <ele>178</ele>
        <time>2023-08-20T09:21:54Z</time>
      </trkpt>
      <trkpt lat="46.50222" lon="0.36615">
        <ele>178</ele>
        <time>2023-08-20T09:21:55Z</time>
      </trkpt>
      <trkpt lat="46.50223" lon="0.36617">
        <ele>178.2</ele>
        <time>2023-08-20T09:21:57Z</time>
      </trkpt>
      <trkpt lat="46.50224" lon="0.36618">
        <ele>178.2</ele>
        <time>2023-08-20T09:21:59Z</time>
      </trkpt>
      <trkpt lat="46.50226" lon="0.36622">
        <ele>178.4</ele>
        <time>2023-08-20T09:22:02Z</time>
      </trkpt>
      <trkpt lat="46.50227" lon="0.36624">
        <ele>178.4</ele>
        <time>2023-08-20T09:22:03Z</time>
      </trkpt>
      <trkpt lat="46.50234" lon="0.36637">
        <ele>178.2</ele>
        <time>2023-08-20T09:22:08Z</time>
      </trkpt>
      <trkpt lat="46.50236" lon="0.36641">
        <ele>178.2</ele>
        <time>2023-08-20T09:22:09Z</time>
      </trkpt>
      <trkpt lat="46.50237" lon="0.36642">
        <ele>178.4</ele>
        <time>2023-08-20T09:22:10Z</time>
      </trkpt>
      <trkpt lat="46.5024" lon="0.36644">
        <ele>178.4</ele>
        <time>2023-08-20T09:22:12Z</time>
      </trkpt>
      <trkpt lat="46.50241" lon="0.36646">
        <ele>178.2</ele>
        <time>2023-08-20T09:22:14Z</time>
      </trkpt>
      <trkpt lat="46.50243" lon="0.36649">
        <ele>178.2</ele>
        <time>2023-08-20T09:22:16Z</time>
      </trkpt>
      <trkpt lat="46.50244" lon="0.36651">
        <ele>178.2</ele>
        <time>2023-08-20T09:22:17Z</time>
      </trkpt>
      <trkpt lat="46.50247" lon="0.36649">
        <ele>178.4</ele>
        <time>2023-08-20T09:22:21Z</time>
      </trkpt>
      <trkpt lat="46.50253" lon="0.3664">
        <ele>178.2</ele>
        <time>2023-08-20T09:22:26Z</time>
      </trkpt>
      <trkpt lat="46.50262" lon="0.36636">
        <ele>178</ele>
        <time>2023-08-20T09:22:30Z</time>
      </trkpt>
      <trkpt lat="46.50275" lon="0.36648">
        <ele>177.6</ele>
        <time>2023-08-20T09:22:35Z</time>
      </trkpt>
      <trkpt lat="46.50278" lon="0.36651">
        <ele>177.6</ele>
        <time>2023-08-20T09:22:36Z</time>
      </trkpt>
      <trkpt lat="46.50285" lon="0.36655">
        <ele>177.6</ele>
        <time>2023-08-20T09:22:38Z</time>
      </trkpt>
      <trkpt lat="46.5029" lon="0.36655">
        <ele>177.6</ele>
        <time>2023-08-20T09:22:40Z</time>
      </trkpt>
      <trkpt lat="46.50296" lon="0.3665">
        <ele>177.2</ele>
        <time>2023-08-20T09:22:44Z</time>
      </trkpt>
      <trkpt lat="46.50297" lon="0.36648">
        <ele>177</ele>
        <time>2023-08-20T09:22:45Z</time>
      </trkpt>
      <trkpt lat="46.50303" lon="0.36647">
        <ele>176.6</ele>
        <time>2023-08-20T09:22:48Z</time>
      </trkpt>
      <trkpt lat="46.50306" lon="0.36646">
        <ele>176.6</ele>
        <time>2023-08-20T09:22:49Z</time>
      </trkpt>
      <trkpt lat="46.50309" lon="0.36646">
        <ele>176.6</ele>
        <time>2023-08-20T09:22:50Z</time>
      </trkpt>
      <trkpt lat="46.50314" lon="0.36649">
        <ele>176.8</ele>
        <time>2023-08-20T09:22:52Z</time>
      </trkpt>
      <trkpt lat="46.50324" lon="0.36658">
        <ele>177</ele>
        <time>2023-08-20T09:22:56Z</time>
      </trkpt>
      <trkpt lat="46.50327" lon="0.36665">
        <ele>177.2</ele>
        <time>2023-08-20T09:22:58Z</time>
      </trkpt>
      <trkpt lat="46.5033" lon="0.36669">
        <ele>177.2</ele>
        <time>2023-08-20T09:23:00Z</time>
      </trkpt>
      <trkpt lat="46.50335" lon="0.36671">
        <ele>177.8</ele>
        <time>2023-08-20T09:23:02Z</time>
      </trkpt>
      <trkpt lat="46.50342" lon="0.36674">
        <ele>178.2</ele>
        <time>2023-08-20T09:23:04Z</time>
      </trkpt>
      <trkpt lat="46.5035" lon="0.36679">
        <ele>178.2</ele>
        <time>2023-08-20T09:23:06Z</time>
      </trkpt>
      <trkpt lat="46.50368" lon="0.3669">
        <ele>177.4</ele>
        <time>2023-08-20T09:23:11Z</time>
      </trkpt>
      <trkpt lat="46.50372" lon="0.36691">
        <ele>177.2</ele>
        <time>2023-08-20T09:23:12Z</time>
      </trkpt>
      <trkpt lat="46.50375" lon="0.36693">
        <ele>177.2</ele>
        <time>2023-08-20T09:23:13Z</time>
      </trkpt>
      <trkpt lat="46.50383" lon="0.36695">
        <ele>177.2</ele>
        <time>2023-08-20T09:23:15Z</time>
      </trkpt>
      <trkpt lat="46.50392" lon="0.36698">
        <ele>177.4</ele>
        <time>2023-08-20T09:23:17Z</time>
      </trkpt>
      <trkpt lat="46.50397" lon="0.36698">
        <ele>177.4</ele>
        <time>2023-08-20T09:23:18Z</time>
      </trkpt>
      <trkpt lat="46.50417" lon="0.36702">
        <ele>177</ele>
        <time>2023-08-20T09:23:22Z</time>
      </trkpt>
      <trkpt lat="46.50426" lon="0.36703">
        <ele>176.6</ele>
        <time>2023-08-20T09:23:24Z</time>
      </trkpt>
      <trkpt lat="46.50435" lon="0.36706">
        <ele>176.6</ele>
        <time>2023-08-20T09:23:27Z</time>
      </trkpt>
      <trkpt lat="46.50453" lon="0.36714">
        <ele>176.6</ele>
        <time>2023-08-20T09:23:33Z</time>
      </trkpt>
      <trkpt lat="46.50464" lon="0.36719">
        <ele>176.8</ele>
        <time>2023-08-20T09:23:37Z</time>
      </trkpt>
      <trkpt lat="46.50464" lon="0.36721">
        <ele>177</ele>
        <time>2023-08-20T09:23:38Z</time>
      </trkpt>
      <trkpt lat="46.50472" lon="0.36734">
        <ele>177.6</ele>
        <time>2023-08-20T09:23:44Z</time>
      </trkpt>
      <trkpt lat="46.50475" lon="0.36737">
        <ele>177.6</ele>
        <time>2023-08-20T09:23:45Z</time>
      </trkpt>
      <trkpt lat="46.5048" lon="0.36746">
        <ele>177.8</ele>
        <time>2023-08-20T09:23:49Z</time>
      </trkpt>
      <trkpt lat="46.50482" lon="0.36748">
        <ele>177.8</ele>
        <time>2023-08-20T09:23:50Z</time>
      </trkpt>
      <trkpt lat="46.50486" lon="0.36753">
        <ele>178</ele>
        <time>2023-08-20T09:23:53Z</time>
      </trkpt>
      <trkpt lat="46.5049" lon="0.36762">
        <ele>178.2</ele>
        <time>2023-08-20T09:23:57Z</time>
      </trkpt>
      <trkpt lat="46.50494" lon="0.36771">
        <ele>178.8</ele>
        <time>2023-08-20T09:24:01Z</time>
      </trkpt>
      <trkpt lat="46.50496" lon="0.36776">
        <ele>178.8</ele>
        <time>2023-08-20T09:24:04Z</time>
      </trkpt>
      <trkpt lat="46.50502" lon="0.36795">
        <ele>179.2</ele>
        <time>2023-08-20T09:24:15Z</time>
      </trkpt>
      <trkpt lat="46.50501" lon="0.36817">
        <ele>179.6</ele>
        <time>2023-08-20T09:24:25Z</time>
      </trkpt>
      <trkpt lat="46.50499" lon="0.36819">
        <ele>179.8</ele>
        <time>2023-08-20T09:24:26Z</time>
      </trkpt>
      <trkpt lat="46.5049" lon="0.36821">
        <ele>180</ele>
        <time>2023-08-20T09:24:30Z</time>
      </trkpt>
      <trkpt lat="46.50483" lon="0.36822">
        <ele>180</ele>
        <time>2023-08-20T09:24:32Z</time>
      </trkpt>
      <trkpt lat="46.50468" lon="0.36822">
        <ele>179.6</ele>
        <time>2023-08-20T09:24:36Z</time>
      </trkpt>
      <trkpt lat="46.50461" lon="0.36821">
        <ele>179.6</ele>
        <time>2023-08-20T09:24:38Z</time>
      </trkpt>
      <trkpt lat="46.50449" lon="0.36818">
        <ele>179.6</ele>
        <time>2023-08-20T09:24:42Z</time>
      </trkpt>
      <trkpt lat="46.50442" lon="0.36817">
        <ele>179.6</ele>
        <time>2023-08-20T09:24:44Z</time>
      </trkpt>
      <trkpt lat="46.50431" lon="0.36815">
        <ele>179.6</ele>
        <time>2023-08-20T09:24:47Z</time>
      </trkpt>
      <trkpt lat="46.50427" lon="0.36814">
        <ele>179.6</ele>
        <time>2023-08-20T09:24:48Z</time>
      </trkpt>
      <trkpt lat="46.50419" lon="0.36811">
        <ele>179.6</ele>
        <time>2023-08-20T09:24:50Z</time>
      </trkpt>
      <trkpt lat="46.50412" lon="0.36808">
        <ele>179.6</ele>
        <time>2023-08-20T09:24:52Z</time>
      </trkpt>
      <trkpt lat="46.50391" lon="0.36798">
        <ele>179.6</ele>
        <time>2023-08-20T09:24:58Z</time>
      </trkpt>
      <trkpt lat="46.50373" lon="0.36793">
        <ele>179.8</ele>
        <time>2023-08-20T09:25:02Z</time>
      </trkpt>
      <trkpt lat="46.50368" lon="0.36792">
        <ele>179.8</ele>
        <time>2023-08-20T09:25:03Z</time>
      </trkpt>
      <trkpt lat="46.50356" lon="0.36788">
        <ele>179.8</ele>
        <time>2023-08-20T09:25:06Z</time>
      </trkpt>
      <trkpt lat="46.50347" lon="0.36784">
        <ele>179.8</ele>
        <time>2023-08-20T09:25:08Z</time>
      </trkpt>
      <trkpt lat="46.50339" lon="0.36784">
        <ele>179.8</ele>
        <time>2023-08-20T09:25:10Z</time>
      </trkpt>
      <trkpt lat="46.50335" lon="0.36785">
        <ele>179.6</ele>
        <time>2023-08-20T09:25:11Z</time>
      </trkpt>
      <trkpt lat="46.5032" lon="0.36787">
        <ele>180</ele>
        <time>2023-08-20T09:25:15Z</time>
      </trkpt>
      <trkpt lat="46.5031" lon="0.368">
        <ele>180.4</ele>
        <time>2023-08-20T09:25:20Z</time>
      </trkpt>
      <trkpt lat="46.50303" lon="0.36814">
        <ele>180.6</ele>
        <time>2023-08-20T09:25:24Z</time>
      </trkpt>
      <trkpt lat="46.50303" lon="0.36817">
        <ele>180.8</ele>
        <time>2023-08-20T09:25:25Z</time>
      </trkpt>
      <trkpt lat="46.50303" lon="0.3682">
        <ele>180.8</ele>
        <time>2023-08-20T09:25:26Z</time>
      </trkpt>
      <trkpt lat="46.50303" lon="0.36826">
        <ele>180.6</ele>
        <time>2023-08-20T09:25:28Z</time>
      </trkpt>
      <trkpt lat="46.50301" lon="0.36835">
        <ele>180.2</ele>
        <time>2023-08-20T09:25:30Z</time>
      </trkpt>
      <trkpt lat="46.503" lon="0.36838">
        <ele>180.2</ele>
        <time>2023-08-20T09:25:31Z</time>
      </trkpt>
      <trkpt lat="46.50298" lon="0.36851">
        <ele>180.2</ele>
        <time>2023-08-20T09:25:34Z</time>
      </trkpt>
      <trkpt lat="46.50298" lon="0.36855">
        <ele>180.2</ele>
        <time>2023-08-20T09:25:35Z</time>
      </trkpt>
      <trkpt lat="46.50298" lon="0.3686">
        <ele>180.2</ele>
        <time>2023-08-20T09:25:36Z</time>
      </trkpt>
      <trkpt lat="46.503" lon="0.36875">
        <ele>180.2</ele>
        <time>2023-08-20T09:25:39Z</time>
      </trkpt>
      <trkpt lat="46.50302" lon="0.36881">
        <ele>180.2</ele>
        <time>2023-08-20T09:25:40Z</time>
      </trkpt>
      <trkpt lat="46.50303" lon="0.36888">
        <ele>180</ele>
        <time>2023-08-20T09:25:41Z</time>
      </trkpt>
      <trkpt lat="46.50308" lon="0.36909">
        <ele>180.2</ele>
        <time>2023-08-20T09:25:44Z</time>
      </trkpt>
      <trkpt lat="46.50308" lon="0.36916">
        <ele>180.4</ele>
        <time>2023-08-20T09:25:45Z</time>
      </trkpt>
      <trkpt lat="46.50309" lon="0.36924">
        <ele>180.4</ele>
        <time>2023-08-20T09:25:46Z</time>
      </trkpt>
      <trkpt lat="46.5031" lon="0.36965">
        <ele>180.4</ele>
        <time>2023-08-20T09:25:51Z</time>
      </trkpt>
      <trkpt lat="46.50311" lon="0.3697">
        <ele>180.4</ele>
        <time>2023-08-20T09:25:52Z</time>
      </trkpt>
      <trkpt lat="46.50313" lon="0.36974">
        <ele>180</ele>
        <time>2023-08-20T09:25:54Z</time>
      </trkpt>
      <trkpt lat="46.50321" lon="0.3699">
        <ele>179.2</ele>
        <time>2023-08-20T09:25:59Z</time>
      </trkpt>
      <trkpt lat="46.50326" lon="0.36997">
        <ele>179.6</ele>
        <time>2023-08-20T09:26:01Z</time>
      </trkpt>
      <trkpt lat="46.50334" lon="0.37005">
        <ele>179.6</ele>
        <time>2023-08-20T09:26:04Z</time>
      </trkpt>
      <trkpt lat="46.50339" lon="0.37009">
        <ele>179.8</ele>
        <time>2023-08-20T09:26:06Z</time>
      </trkpt>
      <trkpt lat="46.50345" lon="0.37013">
        <ele>179.4</ele>
        <time>2023-08-20T09:26:08Z</time>
      </trkpt>
      <trkpt lat="46.50347" lon="0.37012">
        <ele>179.2</ele>
        <time>2023-08-20T09:26:09Z</time>
      </trkpt>
      <trkpt lat="46.50355" lon="0.3701">
        <ele>179.4</ele>
        <time>2023-08-20T09:26:12Z</time>
      </trkpt>
      <trkpt lat="46.50358" lon="0.37012">
        <ele>179.4</ele>
        <time>2023-08-20T09:26:14Z</time>
      </trkpt>
      <trkpt lat="46.50363" lon="0.37017">
        <ele>179.2</ele>
        <time>2023-08-20T09:26:17Z</time>
      </trkpt>
      <trkpt lat="46.50363" lon="0.37019">
        <ele>179.2</ele>
        <time>2023-08-20T09:26:18Z</time>
      </trkpt>
      <trkpt lat="46.50367" lon="0.37028">
        <ele>179.2</ele>
        <time>2023-08-20T09:26:21Z</time>
      </trkpt>
      <trkpt lat="46.50369" lon="0.37031">
        <ele>179.2</ele>
        <time>2023-08-20T09:26:22Z</time>
      </trkpt>
      <trkpt lat="46.50384" lon="0.37038">
        <ele>179</ele>
        <time>2023-08-20T09:26:26Z</time>
      </trkpt>
      <trkpt lat="46.50387" lon="0.37039">
        <ele>179</ele>
        <time>2023-08-20T09:26:27Z</time>
      </trkpt>
      <trkpt lat="46.50405" lon="0.37044">
        <ele>178.6</ele>
        <time>2023-08-20T09:26:34Z</time>
      </trkpt>
      <trkpt lat="46.50408" lon="0.37044">
        <ele>178.4</ele>
        <time>2023-08-20T09:26:35Z</time>
      </trkpt>
      <trkpt lat="46.50412" lon="0.37045">
        <ele>178.2</ele>
        <time>2023-08-20T09:26:36Z</time>
      </trkpt>
      <trkpt lat="46.50424" lon="0.3704">
        <ele>177.6</ele>
        <time>2023-08-20T09:26:40Z</time>
      </trkpt>
      <trkpt lat="46.50427" lon="0.37041">
        <ele>177</ele>
        <time>2023-08-20T09:26:41Z</time>
      </trkpt>
      <trkpt lat="46.50428" lon="0.37042">
        <ele>176.8</ele>
        <time>2023-08-20T09:26:42Z</time>
      </trkpt>
      <trkpt lat="46.50432" lon="0.37043">
        <ele>176</ele>
        <time>2023-08-20T09:26:44Z</time>
      </trkpt>
      <trkpt lat="46.50432" lon="0.37043">
        <ele>175.8</ele>
        <time>2023-08-20T09:26:45Z</time>
      </trkpt>
      <trkpt lat="46.50434" lon="0.37042">
        <ele>175.8</ele>
        <time>2023-08-20T09:26:46Z</time>
      </trkpt>
      <trkpt lat="46.50448" lon="0.3703">
        <ele>176.4</ele>
        <time>2023-08-20T09:26:52Z</time>
      </trkpt>
      <trkpt lat="46.50455" lon="0.37025">
        <ele>177</ele>
        <time>2023-08-20T09:26:54Z</time>
      </trkpt>
      <trkpt lat="46.50462" lon="0.37017">
        <ele>177.6</ele>
        <time>2023-08-20T09:26:57Z</time>
      </trkpt>
      <trkpt lat="46.50465" lon="0.3701">
        <ele>178</ele>
        <time>2023-08-20T09:26:59Z</time>
      </trkpt>
      <trkpt lat="46.50477" lon="0.36995">
        <ele>178.6</ele>
        <time>2023-08-20T09:27:03Z</time>
      </trkpt>
      <trkpt lat="46.50482" lon="0.36987">
        <ele>179</ele>
        <time>2023-08-20T09:27:05Z</time>
      </trkpt>
      <trkpt lat="46.50487" lon="0.36983">
        <ele>179.4</ele>
        <time>2023-08-20T09:27:07Z</time>
      </trkpt>
      <trkpt lat="46.50492" lon="0.36981">
        <ele>179.6</ele>
        <time>2023-08-20T09:27:08Z</time>
      </trkpt>
      <trkpt lat="46.50506" lon="0.36978">
        <ele>180</ele>
        <time>2023-08-20T09:27:11Z</time>
      </trkpt>
      <trkpt lat="46.50506" lon="0.36978">
        <ele>180</ele>
        <time>2023-08-20T09:27:12Z</time>
      </trkpt>
      <trkpt lat="46.50519" lon="0.36976">
        <ele>180.2</ele>
        <time>2023-08-20T09:27:14Z</time>
      </trkpt>
      <trkpt lat="46.50536" lon="0.36973">
        <ele>180.6</ele>
        <time>2023-08-20T09:27:19Z</time>
      </trkpt>
      <trkpt lat="46.50544" lon="0.36973">
        <ele>180.6</ele>
        <time>2023-08-20T09:27:21Z</time>
      </trkpt>
      <trkpt lat="46.50546" lon="0.36975">
        <ele>180.6</ele>
        <time>2023-08-20T09:27:23Z</time>
      </trkpt>
      <trkpt lat="46.50548" lon="0.36985">
        <ele>180.6</ele>
        <time>2023-08-20T09:27:27Z</time>
      </trkpt>
      <trkpt lat="46.50546" lon="0.37006">
        <ele>179.8</ele>
        <time>2023-08-20T09:27:33Z</time>
      </trkpt>
      <trkpt lat="46.50536" lon="0.37032">
        <ele>178.8</ele>
        <time>2023-08-20T09:27:37Z</time>
      </trkpt>
      <trkpt lat="46.50531" lon="0.37048">
        <ele>177.6</ele>
        <time>2023-08-20T09:27:39Z</time>
      </trkpt>
      <trkpt lat="46.50527" lon="0.37057">
        <ele>177.2</ele>
        <time>2023-08-20T09:27:40Z</time>
      </trkpt>
      <trkpt lat="46.50521" lon="0.37074">
        <ele>176.4</ele>
        <time>2023-08-20T09:27:42Z</time>
      </trkpt>
      <trkpt lat="46.50506" lon="0.37116">
        <ele>176</ele>
        <time>2023-08-20T09:27:48Z</time>
      </trkpt>
      <trkpt lat="46.50499" lon="0.37137">
        <ele>176</ele>
        <time>2023-08-20T09:27:51Z</time>
      </trkpt>
      <trkpt lat="46.50495" lon="0.37152">
        <ele>176.4</ele>
        <time>2023-08-20T09:27:53Z</time>
      </trkpt>
      <trkpt lat="46.50484" lon="0.37193">
        <ele>177.6</ele>
        <time>2023-08-20T09:27:59Z</time>
      </trkpt>
      <trkpt lat="46.50483" lon="0.372">
        <ele>177.8</ele>
        <time>2023-08-20T09:28:00Z</time>
      </trkpt>
      <trkpt lat="46.50473" lon="0.37233">
        <ele>178.4</ele>
        <time>2023-08-20T09:28:04Z</time>
      </trkpt>
      <trkpt lat="46.5047" lon="0.37247">
        <ele>178.6</ele>
        <time>2023-08-20T09:28:06Z</time>
      </trkpt>
      <trkpt lat="46.50457" lon="0.37289">
        <ele>178.6</ele>
        <time>2023-08-20T09:28:12Z</time>
      </trkpt>
      <trkpt lat="46.50451" lon="0.37328">
        <ele>178.4</ele>
        <time>2023-08-20T09:28:18Z</time>
      </trkpt>
      <trkpt lat="46.50444" lon="0.37342">
        <ele>178.2</ele>
        <time>2023-08-20T09:28:20Z</time>
      </trkpt>
      <trkpt lat="46.50435" lon="0.37369">
        <ele>178.2</ele>
        <time>2023-08-20T09:28:25Z</time>
      </trkpt>
      <trkpt lat="46.50429" lon="0.37381">
        <ele>178</ele>
        <time>2023-08-20T09:28:27Z</time>
      </trkpt>
      <trkpt lat="46.50422" lon="0.37401">
        <ele>177.4</ele>
        <time>2023-08-20T09:28:30Z</time>
      </trkpt>
      <trkpt lat="46.5042" lon="0.37407">
        <ele>177.4</ele>
        <time>2023-08-20T09:28:31Z</time>
      </trkpt>
      <trkpt lat="46.50414" lon="0.37421">
        <ele>177</ele>
        <time>2023-08-20T09:28:33Z</time>
      </trkpt>
      <trkpt lat="46.50407" lon="0.37438">
        <ele>176.2</ele>
        <time>2023-08-20T09:28:35Z</time>
      </trkpt>
      <trkpt lat="46.50403" lon="0.37448">
        <ele>175.6</ele>
        <time>2023-08-20T09:28:36Z</time>
      </trkpt>
      <trkpt lat="46.50399" lon="0.37456">
        <ele>175.4</ele>
        <time>2023-08-20T09:28:37Z</time>
      </trkpt>
      <trkpt lat="46.50399" lon="0.37463">
        <ele>175</ele>
        <time>2023-08-20T09:28:38Z</time>
      </trkpt>
      <trkpt lat="46.504" lon="0.37469">
        <ele>174.6</ele>
        <time>2023-08-20T09:28:39Z</time>
      </trkpt>
      <trkpt lat="46.50405" lon="0.37477">
        <ele>174</ele>
        <time>2023-08-20T09:28:41Z</time>
      </trkpt>
      <trkpt lat="46.5041" lon="0.37493">
        <ele>173.2</ele>
        <time>2023-08-20T09:28:44Z</time>
      </trkpt>
      <trkpt lat="46.50411" lon="0.37496">
        <ele>172.8</ele>
        <time>2023-08-20T09:28:45Z</time>
      </trkpt>
      <trkpt lat="46.50412" lon="0.37498">
        <ele>172.6</ele>
        <time>2023-08-20T09:28:46Z</time>
      </trkpt>
      <trkpt lat="46.50413" lon="0.37501">
        <ele>172.2</ele>
        <time>2023-08-20T09:28:48Z</time>
      </trkpt>
      <trkpt lat="46.50414" lon="0.37502">
        <ele>172.2</ele>
        <time>2023-08-20T09:28:49Z</time>
      </trkpt>
      <trkpt lat="46.50417" lon="0.37499">
        <ele>172.2</ele>
        <time>2023-08-20T09:28:53Z</time>
      </trkpt>
      <trkpt lat="46.50417" lon="0.37497">
        <ele>172.6</ele>
        <time>2023-08-20T09:28:54Z</time>
      </trkpt>
      <trkpt lat="46.50415" lon="0.37495">
        <ele>173</ele>
        <time>2023-08-20T09:28:57Z</time>
      </trkpt>
      <trkpt lat="46.50414" lon="0.37492">
        <ele>174</ele>
        <time>2023-08-20T09:29:00Z</time>
      </trkpt>
      <trkpt lat="46.50416" lon="0.37487">
        <ele>175.2</ele>
        <time>2023-08-20T09:29:04Z</time>
      </trkpt>
      <trkpt lat="46.5042" lon="0.37481">
        <ele>175.8</ele>
        <time>2023-08-20T09:29:08Z</time>
      </trkpt>
      <trkpt lat="46.50422" lon="0.37479">
        <ele>176</ele>
        <time>2023-08-20T09:29:10Z</time>
      </trkpt>
      <trkpt lat="46.5043" lon="0.37468">
        <ele>176.2</ele>
        <time>2023-08-20T09:29:14Z</time>
      </trkpt>
      <trkpt lat="46.50432" lon="0.37465">
        <ele>176.4</ele>
        <time>2023-08-20T09:29:15Z</time>
      </trkpt>
      <trkpt lat="46.50438" lon="0.3746">
        <ele>176.8</ele>
        <time>2023-08-20T09:29:18Z</time>
      </trkpt>
      <trkpt lat="46.50442" lon="0.37461">
        <ele>177</ele>
        <time>2023-08-20T09:29:20Z</time>
      </trkpt>
      <trkpt lat="46.50445" lon="0.37462">
        <ele>177.2</ele>
        <time>2023-08-20T09:29:21Z</time>
      </trkpt>
      <trkpt lat="46.50454" lon="0.37461">
        <ele>177.4</ele>
        <time>2023-08-20T09:29:24Z</time>
      </trkpt>
      <trkpt lat="46.50461" lon="0.37459">
        <ele>177.6</ele>
        <time>2023-08-20T09:29:27Z</time>
      </trkpt>
      <trkpt lat="46.50465" lon="0.37454">
        <ele>177.6</ele>
        <time>2023-08-20T09:29:29Z</time>
      </trkpt>
      <trkpt lat="46.50472" lon="0.37436">
        <ele>177.6</ele>
        <time>2023-08-20T09:29:34Z</time>
      </trkpt>
      <trkpt lat="46.50472" lon="0.37432">
        <ele>177.6</ele>
        <time>2023-08-20T09:29:35Z</time>
      </trkpt>
      <trkpt lat="46.50481" lon="0.3741">
        <ele>177.8</ele>
        <time>2023-08-20T09:29:40Z</time>
      </trkpt>
      <trkpt lat="46.50483" lon="0.37406">
        <ele>177.8</ele>
        <time>2023-08-20T09:29:41Z</time>
      </trkpt>
      <trkpt lat="46.50483" lon="0.37393">
        <ele>178</ele>
        <time>2023-08-20T09:29:44Z</time>
      </trkpt>
      <trkpt lat="46.50483" lon="0.37388">
        <ele>178</ele>
        <time>2023-08-20T09:29:45Z</time>
      </trkpt>
      <trkpt lat="46.50486" lon="0.37383">
        <ele>178</ele>
        <time>2023-08-20T09:29:46Z</time>
      </trkpt>
      <trkpt lat="46.50492" lon="0.37375">
        <ele>177.8</ele>
        <time>2023-08-20T09:29:48Z</time>
      </trkpt>
      <trkpt lat="46.50496" lon="0.37371">
        <ele>177.8</ele>
        <time>2023-08-20T09:29:49Z</time>
      </trkpt>
      <trkpt lat="46.50514" lon="0.37342">
        <ele>177.4</ele>
        <time>2023-08-20T09:29:55Z</time>
      </trkpt>
      <trkpt lat="46.50522" lon="0.37335">
        <ele>177.2</ele>
        <time>2023-08-20T09:29:57Z</time>
      </trkpt>
      <trkpt lat="46.50528" lon="0.37329">
        <ele>176.8</ele>
        <time>2023-08-20T09:29:59Z</time>
      </trkpt>
      <trkpt lat="46.50531" lon="0.37321">
        <ele>176.4</ele>
        <time>2023-08-20T09:30:01Z</time>
      </trkpt>
      <trkpt lat="46.50536" lon="0.37302">
        <ele>176</ele>
        <time>2023-08-20T09:30:04Z</time>
      </trkpt>
      <trkpt lat="46.50537" lon="0.37298">
        <ele>175.8</ele>
        <time>2023-08-20T09:30:05Z</time>
      </trkpt>
      <trkpt lat="46.50538" lon="0.37263">
        <ele>174.8</ele>
        <time>2023-08-20T09:30:12Z</time>
      </trkpt>
      <trkpt lat="46.50542" lon="0.37252">
        <ele>174.6</ele>
        <time>2023-08-20T09:30:14Z</time>
      </trkpt>
      <trkpt lat="46.50544" lon="0.37235">
        <ele>173.8</ele>
        <time>2023-08-20T09:30:16Z</time>
      </trkpt>
      <trkpt lat="46.50545" lon="0.37228">
        <ele>173.6</ele>
        <time>2023-08-20T09:30:17Z</time>
      </trkpt>
      <trkpt lat="46.50551" lon="0.37203">
        <ele>173</ele>
        <time>2023-08-20T09:30:21Z</time>
      </trkpt>
      <trkpt lat="46.50553" lon="0.37199">
        <ele>173</ele>
        <time>2023-08-20T09:30:22Z</time>
      </trkpt>
      <trkpt lat="46.50555" lon="0.37195">
        <ele>173.4</ele>
        <time>2023-08-20T09:30:23Z</time>
      </trkpt>
      <trkpt lat="46.50559" lon="0.37186">
        <ele>174</ele>
        <time>2023-08-20T09:30:25Z</time>
      </trkpt>
      <trkpt lat="46.50563" lon="0.37175">
        <ele>174.4</ele>
        <time>2023-08-20T09:30:27Z</time>
      </trkpt>
      <trkpt lat="46.50565" lon="0.37171">
        <ele>174.8</ele>
        <time>2023-08-20T09:30:28Z</time>
      </trkpt>
      <trkpt lat="46.5057" lon="0.37159">
        <ele>175.8</ele>
        <time>2023-08-20T09:30:32Z</time>
      </trkpt>
      <trkpt lat="46.50572" lon="0.37157">
        <ele>176</ele>
        <time>2023-08-20T09:30:33Z</time>
      </trkpt>
      <trkpt lat="46.50574" lon="0.37152">
        <ele>176.4</ele>
        <time>2023-08-20T09:30:35Z</time>
      </trkpt>
      <trkpt lat="46.50578" lon="0.37144">
        <ele>177</ele>
        <time>2023-08-20T09:30:37Z</time>
      </trkpt>
      <trkpt lat="46.50579" lon="0.37138">
        <ele>177.4</ele>
        <time>2023-08-20T09:30:38Z</time>
      </trkpt>
      <trkpt lat="46.50583" lon="0.37126">
        <ele>177.8</ele>
        <time>2023-08-20T09:30:40Z</time>
      </trkpt>
      <trkpt lat="46.50586" lon="0.37124">
        <ele>178</ele>
        <time>2023-08-20T09:30:41Z</time>
      </trkpt>
      <trkpt lat="46.50589" lon="0.37116">
        <ele>178.2</ele>
        <time>2023-08-20T09:30:43Z</time>
      </trkpt>
      <trkpt lat="46.50593" lon="0.3711">
        <ele>178.8</ele>
        <time>2023-08-20T09:30:45Z</time>
      </trkpt>
      <trkpt lat="46.50595" lon="0.37102">
        <ele>179</ele>
        <time>2023-08-20T09:30:47Z</time>
      </trkpt>
      <trkpt lat="46.50597" lon="0.37099">
        <ele>179</ele>
        <time>2023-08-20T09:30:48Z</time>
      </trkpt>
      <trkpt lat="46.506" lon="0.37097">
        <ele>179.2</ele>
        <time>2023-08-20T09:30:49Z</time>
      </trkpt>
      <trkpt lat="46.50609" lon="0.37096">
        <ele>179.2</ele>
        <time>2023-08-20T09:30:51Z</time>
      </trkpt>
      <trkpt lat="46.50627" lon="0.37097">
        <ele>178.8</ele>
        <time>2023-08-20T09:30:56Z</time>
      </trkpt>
      <trkpt lat="46.50631" lon="0.37097">
        <ele>178.8</ele>
        <time>2023-08-20T09:30:57Z</time>
      </trkpt>
      <trkpt lat="46.50636" lon="0.37101">
        <ele>178.8</ele>
        <time>2023-08-20T09:31:00Z</time>
      </trkpt>
      <trkpt lat="46.50645" lon="0.37112">
        <ele>178.8</ele>
        <time>2023-08-20T09:31:06Z</time>
      </trkpt>
      <trkpt lat="46.50653" lon="0.37126">
        <ele>178</ele>
        <time>2023-08-20T09:31:10Z</time>
      </trkpt>
      <trkpt lat="46.50656" lon="0.3713">
        <ele>178</ele>
        <time>2023-08-20T09:31:11Z</time>
      </trkpt>
      <trkpt lat="46.50661" lon="0.37137">
        <ele>177.4</ele>
        <time>2023-08-20T09:31:13Z</time>
      </trkpt>
      <trkpt lat="46.50664" lon="0.37142">
        <ele>177.2</ele>
        <time>2023-08-20T09:31:14Z</time>
      </trkpt>
      <trkpt lat="46.50669" lon="0.37149">
        <ele>177</ele>
        <time>2023-08-20T09:31:16Z</time>
      </trkpt>
      <trkpt lat="46.50671" lon="0.37154">
        <ele>176.8</ele>
        <time>2023-08-20T09:31:17Z</time>
      </trkpt>
      <trkpt lat="46.50676" lon="0.37163">
        <ele>176.4</ele>
        <time>2023-08-20T09:31:19Z</time>
      </trkpt>
      <trkpt lat="46.5068" lon="0.37173">
        <ele>176.2</ele>
        <time>2023-08-20T09:31:21Z</time>
      </trkpt>
      <trkpt lat="46.50683" lon="0.37179">
        <ele>175.6</ele>
        <time>2023-08-20T09:31:23Z</time>
      </trkpt>
      <trkpt lat="46.50684" lon="0.37181">
        <ele>175.4</ele>
        <time>2023-08-20T09:31:24Z</time>
      </trkpt>
      <trkpt lat="46.50686" lon="0.3719">
        <ele>174.8</ele>
        <time>2023-08-20T09:31:29Z</time>
      </trkpt>
      <trkpt lat="46.50692" lon="0.372">
        <ele>174.8</ele>
        <time>2023-08-20T09:31:43Z</time>
      </trkpt>
      <trkpt lat="46.50689" lon="0.37213">
        <ele>174.8</ele>
        <time>2023-08-20T09:31:52Z</time>
      </trkpt>
      <trkpt lat="46.50684" lon="0.3723">
        <ele>174.6</ele>
        <time>2023-08-20T09:31:55Z</time>
      </trkpt>
      <trkpt lat="46.50682" lon="0.37238">
        <ele>174.4</ele>
        <time>2023-08-20T09:31:56Z</time>
      </trkpt>
      <trkpt lat="46.50675" lon="0.3726">
        <ele>173.4</ele>
        <time>2023-08-20T09:31:59Z</time>
      </trkpt>
      <trkpt lat="46.50672" lon="0.37267">
        <ele>173</ele>
        <time>2023-08-20T09:32:00Z</time>
      </trkpt>
      <trkpt lat="46.50669" lon="0.37274">
        <ele>171.8</ele>
        <time>2023-08-20T09:32:01Z</time>
      </trkpt>
      <trkpt lat="46.5066" lon="0.37287">
        <ele>170.4</ele>
        <time>2023-08-20T09:32:03Z</time>
      </trkpt>
      <trkpt lat="46.50658" lon="0.3729">
        <ele>170.2</ele>
        <time>2023-08-20T09:32:04Z</time>
      </trkpt>
      <trkpt lat="46.50656" lon="0.37298">
        <ele>169.8</ele>
        <time>2023-08-20T09:32:06Z</time>
      </trkpt>
      <trkpt lat="46.50656" lon="0.37302">
        <ele>169.8</ele>
        <time>2023-08-20T09:32:07Z</time>
      </trkpt>
      <trkpt lat="46.5066" lon="0.37315">
        <ele>169.6</ele>
        <time>2023-08-20T09:32:10Z</time>
      </trkpt>
      <trkpt lat="46.50663" lon="0.37319">
        <ele>169.4</ele>
        <time>2023-08-20T09:32:11Z</time>
      </trkpt>
      <trkpt lat="46.50667" lon="0.37324">
        <ele>169.2</ele>
        <time>2023-08-20T09:32:12Z</time>
      </trkpt>
      <trkpt lat="46.50682" lon="0.37339">
        <ele>169</ele>
        <time>2023-08-20T09:32:15Z</time>
      </trkpt>
      <trkpt lat="46.50688" lon="0.37343">
        <ele>169</ele>
        <time>2023-08-20T09:32:16Z</time>
      </trkpt>
      <trkpt lat="46.50706" lon="0.37358">
        <ele>168.6</ele>
        <time>2023-08-20T09:32:20Z</time>
      </trkpt>
      <trkpt lat="46.50719" lon="0.37365">
        <ele>169.2</ele>
        <time>2023-08-20T09:32:23Z</time>
      </trkpt>
      <trkpt lat="46.50727" lon="0.37368">
        <ele>169.6</ele>
        <time>2023-08-20T09:32:25Z</time>
      </trkpt>
      <trkpt lat="46.50735" lon="0.37372">
        <ele>170</ele>
        <time>2023-08-20T09:32:27Z</time>
      </trkpt>
      <trkpt lat="46.50741" lon="0.37377">
        <ele>170.4</ele>
        <time>2023-08-20T09:32:29Z</time>
      </trkpt>
      <trkpt lat="46.50743" lon="0.3738">
        <ele>170.8</ele>
        <time>2023-08-20T09:32:30Z</time>
      </trkpt>
      <trkpt lat="46.50752" lon="0.37385">
        <ele>171.6</ele>
        <time>2023-08-20T09:32:34Z</time>
      </trkpt>
      <trkpt lat="46.50752" lon="0.37384">
        <ele>171.8</ele>
        <time>2023-08-20T09:32:35Z</time>
      </trkpt>
      <trkpt lat="46.50754" lon="0.37382">
        <ele>172.8</ele>
        <time>2023-08-20T09:32:38Z</time>
      </trkpt>
      <trkpt lat="46.50759" lon="0.37378">
        <ele>173.8</ele>
        <time>2023-08-20T09:32:41Z</time>
      </trkpt>
      <trkpt lat="46.50761" lon="0.37375">
        <ele>174.6</ele>
        <time>2023-08-20T09:32:44Z</time>
      </trkpt>
      <trkpt lat="46.50762" lon="0.37373">
        <ele>175</ele>
        <time>2023-08-20T09:32:45Z</time>
      </trkpt>
      <trkpt lat="46.50763" lon="0.37369">
        <ele>175.4</ele>
        <time>2023-08-20T09:32:47Z</time>
      </trkpt>
      <trkpt lat="46.50765" lon="0.37364">
        <ele>176</ele>
        <time>2023-08-20T09:32:50Z</time>
      </trkpt>
      <trkpt lat="46.50764" lon="0.37355">
        <ele>176.4</ele>
        <time>2023-08-20T09:32:54Z</time>
      </trkpt>
      <trkpt lat="46.50761" lon="0.37337">
        <ele>176.2</ele>
        <time>2023-08-20T09:33:00Z</time>
      </trkpt>
      <trkpt lat="46.50754" lon="0.37315">
        <ele>176.6</ele>
        <time>2023-08-20T09:33:06Z</time>
      </trkpt>
      <trkpt lat="46.50753" lon="0.37292">
        <ele>177</ele>
        <time>2023-08-20T09:33:11Z</time>
      </trkpt>
      <trkpt lat="46.50749" lon="0.37249">
        <ele>177.6</ele>
        <time>2023-08-20T09:33:18Z</time>
      </trkpt>
      <trkpt lat="46.50744" lon="0.37219">
        <ele>178.2</ele>
        <time>2023-08-20T09:33:22Z</time>
      </trkpt>
      <trkpt lat="46.50747" lon="0.37193">
        <ele>178.8</ele>
        <time>2023-08-20T09:33:26Z</time>
      </trkpt>
      <trkpt lat="46.50751" lon="0.37176">
        <ele>179.4</ele>
        <time>2023-08-20T09:33:29Z</time>
      </trkpt>
      <trkpt lat="46.50761" lon="0.37154">
        <ele>179.6</ele>
        <time>2023-08-20T09:33:33Z</time>
      </trkpt>
      <trkpt lat="46.50776" lon="0.37124">
        <ele>180.4</ele>
        <time>2023-08-20T09:33:39Z</time>
      </trkpt>
      <trkpt lat="46.50781" lon="0.37113">
        <ele>181.2</ele>
        <time>2023-08-20T09:33:41Z</time>
      </trkpt>
      <trkpt lat="46.50787" lon="0.37098">
        <ele>181.6</ele>
        <time>2023-08-20T09:33:44Z</time>
      </trkpt>
      <trkpt lat="46.50792" lon="0.37088">
        <ele>181.4</ele>
        <time>2023-08-20T09:33:46Z</time>
      </trkpt>
      <trkpt lat="46.50799" lon="0.37069">
        <ele>181.6</ele>
        <time>2023-08-20T09:33:50Z</time>
      </trkpt>
      <trkpt lat="46.50804" lon="0.37063">
        <ele>181.8</ele>
        <time>2023-08-20T09:33:52Z</time>
      </trkpt>
      <trkpt lat="46.50806" lon="0.37059">
        <ele>181.8</ele>
        <time>2023-08-20T09:33:53Z</time>
      </trkpt>
      <trkpt lat="46.50809" lon="0.37049">
        <ele>182</ele>
        <time>2023-08-20T09:33:55Z</time>
      </trkpt>
      <trkpt lat="46.50812" lon="0.37037">
        <ele>182</ele>
        <time>2023-08-20T09:33:57Z</time>
      </trkpt>
      <trkpt lat="46.50812" lon="0.37032">
        <ele>182</ele>
        <time>2023-08-20T09:33:58Z</time>
      </trkpt>
      <trkpt lat="46.50811" lon="0.37015">
        <ele>182</ele>
        <time>2023-08-20T09:34:02Z</time>
      </trkpt>
      <trkpt lat="46.50812" lon="0.36992">
        <ele>181.8</ele>
        <time>2023-08-20T09:34:06Z</time>
      </trkpt>
      <trkpt lat="46.50812" lon="0.36985">
        <ele>182</ele>
        <time>2023-08-20T09:34:07Z</time>
      </trkpt>
      <trkpt lat="46.5081" lon="0.3695">
        <ele>182.8</ele>
        <time>2023-08-20T09:34:11Z</time>
      </trkpt>
      <trkpt lat="46.50807" lon="0.3694">
        <ele>183</ele>
        <time>2023-08-20T09:34:12Z</time>
      </trkpt>
      <trkpt lat="46.50799" lon="0.3689">
        <ele>183.2</ele>
        <time>2023-08-20T09:34:17Z</time>
      </trkpt>
      <trkpt lat="46.50797" lon="0.36879">
        <ele>183.2</ele>
        <time>2023-08-20T09:34:18Z</time>
      </trkpt>
      <trkpt lat="46.50785" lon="0.36853">
        <ele>183</ele>
        <time>2023-08-20T09:34:21Z</time>
      </trkpt>
      <trkpt lat="46.50774" lon="0.3684">
        <ele>182.4</ele>
        <time>2023-08-20T09:34:23Z</time>
      </trkpt>
      <trkpt lat="46.50762" lon="0.36828">
        <ele>182</ele>
        <time>2023-08-20T09:34:25Z</time>
      </trkpt>
      <trkpt lat="46.50756" lon="0.36824">
        <ele>182</ele>
        <time>2023-08-20T09:34:26Z</time>
      </trkpt>
      <trkpt lat="46.50739" lon="0.36807">
        <ele>181.8</ele>
        <time>2023-08-20T09:34:29Z</time>
      </trkpt>
      <trkpt lat="46.50722" lon="0.36791">
        <ele>181.8</ele>
        <time>2023-08-20T09:34:32Z</time>
      </trkpt>
      <trkpt lat="46.50703" lon="0.36777">
        <ele>180.8</ele>
        <time>2023-08-20T09:34:35Z</time>
      </trkpt>
      <trkpt lat="46.50694" lon="0.36772">
        <ele>180.6</ele>
        <time>2023-08-20T09:34:36Z</time>
      </trkpt>
      <trkpt lat="46.5069" lon="0.36771">
        <ele>180.6</ele>
        <time>2023-08-20T09:34:37Z</time>
      </trkpt>
      <trkpt lat="46.50687" lon="0.3677">
        <ele>180.4</ele>
        <time>2023-08-20T09:34:38Z</time>
      </trkpt>
      <trkpt lat="46.50679" lon="0.36764">
        <ele>179.8</ele>
        <time>2023-08-20T09:34:40Z</time>
      </trkpt>
      <trkpt lat="46.50675" lon="0.36761">
        <ele>179.4</ele>
        <time>2023-08-20T09:34:41Z</time>
      </trkpt>
      <trkpt lat="46.5067" lon="0.36759">
        <ele>179.2</ele>
        <time>2023-08-20T09:34:42Z</time>
      </trkpt>
      <trkpt lat="46.50663" lon="0.36762">
        <ele>179.2</ele>
        <time>2023-08-20T09:34:44Z</time>
      </trkpt>
      <trkpt lat="46.50655" lon="0.36772">
        <ele>179.4</ele>
        <time>2023-08-20T09:34:48Z</time>
      </trkpt>
      <trkpt lat="46.50646" lon="0.36793">
        <ele>179.8</ele>
        <time>2023-08-20T09:34:53Z</time>
      </trkpt>
      <trkpt lat="46.50641" lon="0.36801">
        <ele>180.4</ele>
        <time>2023-08-20T09:34:56Z</time>
      </trkpt>
      <trkpt lat="46.50638" lon="0.36804">
        <ele>180.2</ele>
        <time>2023-08-20T09:35:02Z</time>
      </trkpt>
      <trkpt lat="46.50636" lon="0.36807">
        <ele>180.2</ele>
        <time>2023-08-20T09:35:09Z</time>
      </trkpt>
    </trkseg>
  </trk>
</gpx>